<?xml version="1.0" encoding="utf-8"?>
<gpx xmlns:xsi="http://www.w3.org/2001/XMLSchema-instance" xmlns:xsd="http://www.w3.org/2001/XMLSchema" version="1.1" creator="Shapelink.com" xmlns="http://www.topografix.com/GPX/1/1" xmlns:gpxtpx="http://www.garmin.com/xmlschemas/TrackPointExtension/v1">
  <metadata>
    <name>Ciclismo 21.60 km, 2019-11-27</name>
    <desc></desc>
    <author><name>Peter Littke</name></author> 
    <time>2019-11-27T07:48:53Z</time>
  </metadata>
  <trk>
    <name>Ciclismo 21.60 km, 2019-11-27</name>
    <trkseg>
      <trkpt lat="59.340164" lon="18.085173">
        <ele>37</ele>
        <time>2019-11-27T07:48:53Z</time>
      </trkpt>
      <trkpt lat="59.340225" lon="18.085032">
        <ele>38</ele>
        <time>2019-11-27T07:49:01Z</time>
      </trkpt>
      <trkpt lat="59.340259" lon="18.084973">
        <ele>35</ele>
        <time>2019-11-27T07:49:02Z</time>
      </trkpt>
      <trkpt lat="59.340275" lon="18.084919">
        <ele>35</ele>
        <time>2019-11-27T07:49:03Z</time>
      </trkpt>
      <trkpt lat="59.34029" lon="18.084867">
        <ele>35</ele>
        <time>2019-11-27T07:49:04Z</time>
      </trkpt>
      <trkpt lat="59.34031" lon="18.084814">
        <ele>35</ele>
        <time>2019-11-27T07:49:05Z</time>
      </trkpt>
      <trkpt lat="59.340341" lon="18.084753">
        <ele>35</ele>
        <time>2019-11-27T07:49:06Z</time>
      </trkpt>
      <trkpt lat="59.34038" lon="18.084682">
        <ele>35</ele>
        <time>2019-11-27T07:49:07Z</time>
      </trkpt>
      <trkpt lat="59.340433" lon="18.084591">
        <ele>35</ele>
        <time>2019-11-27T07:49:08Z</time>
      </trkpt>
      <trkpt lat="59.340469" lon="18.084507">
        <ele>35</ele>
        <time>2019-11-27T07:49:09Z</time>
      </trkpt>
      <trkpt lat="59.340496" lon="18.084422">
        <ele>36</ele>
        <time>2019-11-27T07:49:10Z</time>
      </trkpt>
      <trkpt lat="59.340514" lon="18.084334">
        <ele>36</ele>
        <time>2019-11-27T07:49:11Z</time>
      </trkpt>
      <trkpt lat="59.340534" lon="18.084244">
        <ele>36</ele>
        <time>2019-11-27T07:49:13Z</time>
      </trkpt>
      <trkpt lat="59.340554" lon="18.084163">
        <ele>36</ele>
        <time>2019-11-27T07:49:13Z</time>
      </trkpt>
      <trkpt lat="59.340571" lon="18.084083">
        <ele>36</ele>
        <time>2019-11-27T07:49:14Z</time>
      </trkpt>
      <trkpt lat="59.340581" lon="18.083998">
        <ele>36</ele>
        <time>2019-11-27T07:49:15Z</time>
      </trkpt>
      <trkpt lat="59.340593" lon="18.083935">
        <ele>36</ele>
        <time>2019-11-27T07:49:16Z</time>
      </trkpt>
      <trkpt lat="59.340601" lon="18.083878">
        <ele>36</ele>
        <time>2019-11-27T07:49:17Z</time>
      </trkpt>
      <trkpt lat="59.340611" lon="18.083824">
        <ele>36</ele>
        <time>2019-11-27T07:49:18Z</time>
      </trkpt>
      <trkpt lat="59.340618" lon="18.083765">
        <ele>36</ele>
        <time>2019-11-27T07:49:19Z</time>
      </trkpt>
      <trkpt lat="59.340617" lon="18.083715">
        <ele>36</ele>
        <time>2019-11-27T07:49:21Z</time>
      </trkpt>
      <trkpt lat="59.340608" lon="18.083669">
        <ele>36</ele>
        <time>2019-11-27T07:49:21Z</time>
      </trkpt>
      <trkpt lat="59.3406" lon="18.083628">
        <ele>36</ele>
        <time>2019-11-27T07:49:22Z</time>
      </trkpt>
      <trkpt lat="59.340581" lon="18.083594">
        <ele>36</ele>
        <time>2019-11-27T07:49:23Z</time>
      </trkpt>
      <trkpt lat="59.340545" lon="18.083564">
        <ele>36</ele>
        <time>2019-11-27T07:49:24Z</time>
      </trkpt>
      <trkpt lat="59.340496" lon="18.083534">
        <ele>36</ele>
        <time>2019-11-27T07:49:25Z</time>
      </trkpt>
      <trkpt lat="59.340449" lon="18.083498">
        <ele>36</ele>
        <time>2019-11-27T07:49:27Z</time>
      </trkpt>
      <trkpt lat="59.3404" lon="18.083456">
        <ele>36</ele>
        <time>2019-11-27T07:49:27Z</time>
      </trkpt>
      <trkpt lat="59.340351" lon="18.083411">
        <ele>36</ele>
        <time>2019-11-27T07:49:28Z</time>
      </trkpt>
      <trkpt lat="59.340309" lon="18.083372">
        <ele>37</ele>
        <time>2019-11-27T07:49:29Z</time>
      </trkpt>
      <trkpt lat="59.340263" lon="18.083327">
        <ele>37</ele>
        <time>2019-11-27T07:49:30Z</time>
      </trkpt>
      <trkpt lat="59.340219" lon="18.083287">
        <ele>37</ele>
        <time>2019-11-27T07:49:31Z</time>
      </trkpt>
      <trkpt lat="59.340168" lon="18.083248">
        <ele>37</ele>
        <time>2019-11-27T07:49:32Z</time>
      </trkpt>
      <trkpt lat="59.340116" lon="18.083206">
        <ele>36</ele>
        <time>2019-11-27T07:49:33Z</time>
      </trkpt>
      <trkpt lat="59.340064" lon="18.083158">
        <ele>36</ele>
        <time>2019-11-27T07:49:34Z</time>
      </trkpt>
      <trkpt lat="59.340012" lon="18.08311">
        <ele>36</ele>
        <time>2019-11-27T07:49:36Z</time>
      </trkpt>
      <trkpt lat="59.339962" lon="18.083068">
        <ele>37</ele>
        <time>2019-11-27T07:49:36Z</time>
      </trkpt>
      <trkpt lat="59.339911" lon="18.08303">
        <ele>36</ele>
        <time>2019-11-27T07:49:37Z</time>
      </trkpt>
      <trkpt lat="59.339859" lon="18.082996">
        <ele>36</ele>
        <time>2019-11-27T07:49:38Z</time>
      </trkpt>
      <trkpt lat="59.339809" lon="18.082961">
        <ele>36</ele>
        <time>2019-11-27T07:49:40Z</time>
      </trkpt>
      <trkpt lat="59.339761" lon="18.082925">
        <ele>36</ele>
        <time>2019-11-27T07:49:40Z</time>
      </trkpt>
      <trkpt lat="59.339713" lon="18.082889">
        <ele>36</ele>
        <time>2019-11-27T07:49:41Z</time>
      </trkpt>
      <trkpt lat="59.339665" lon="18.082849">
        <ele>36</ele>
        <time>2019-11-27T07:49:42Z</time>
      </trkpt>
      <trkpt lat="59.339624" lon="18.082802">
        <ele>36</ele>
        <time>2019-11-27T07:49:43Z</time>
      </trkpt>
      <trkpt lat="59.339585" lon="18.082762">
        <ele>36</ele>
        <time>2019-11-27T07:49:44Z</time>
      </trkpt>
      <trkpt lat="59.339545" lon="18.082708">
        <ele>36</ele>
        <time>2019-11-27T07:49:46Z</time>
      </trkpt>
      <trkpt lat="59.339502" lon="18.082654">
        <ele>36</ele>
        <time>2019-11-27T07:49:46Z</time>
      </trkpt>
      <trkpt lat="59.339464" lon="18.082609">
        <ele>36</ele>
        <time>2019-11-27T07:49:47Z</time>
      </trkpt>
      <trkpt lat="59.339425" lon="18.082579">
        <ele>36</ele>
        <time>2019-11-27T07:49:48Z</time>
      </trkpt>
      <trkpt lat="59.339387" lon="18.082551">
        <ele>36</ele>
        <time>2019-11-27T07:49:49Z</time>
      </trkpt>
      <trkpt lat="59.339344" lon="18.082516">
        <ele>36</ele>
        <time>2019-11-27T07:49:50Z</time>
      </trkpt>
      <trkpt lat="59.339299" lon="18.082483">
        <ele>35</ele>
        <time>2019-11-27T07:49:51Z</time>
      </trkpt>
      <trkpt lat="59.339246" lon="18.082455">
        <ele>35</ele>
        <time>2019-11-27T07:49:52Z</time>
      </trkpt>
      <trkpt lat="59.339194" lon="18.08242">
        <ele>35</ele>
        <time>2019-11-27T07:49:53Z</time>
      </trkpt>
      <trkpt lat="59.339144" lon="18.082391">
        <ele>34</ele>
        <time>2019-11-27T07:49:54Z</time>
      </trkpt>
      <trkpt lat="59.339098" lon="18.082361">
        <ele>34</ele>
        <time>2019-11-27T07:49:56Z</time>
      </trkpt>
      <trkpt lat="59.339047" lon="18.082329">
        <ele>34</ele>
        <time>2019-11-27T07:49:56Z</time>
      </trkpt>
      <trkpt lat="59.338999" lon="18.082288">
        <ele>34</ele>
        <time>2019-11-27T07:49:57Z</time>
      </trkpt>
      <trkpt lat="59.33895" lon="18.082249">
        <ele>34</ele>
        <time>2019-11-27T07:49:59Z</time>
      </trkpt>
      <trkpt lat="59.338898" lon="18.08221">
        <ele>33</ele>
        <time>2019-11-27T07:49:59Z</time>
      </trkpt>
      <trkpt lat="59.338845" lon="18.082168">
        <ele>33</ele>
        <time>2019-11-27T07:50:00Z</time>
      </trkpt>
      <trkpt lat="59.338794" lon="18.08213">
        <ele>33</ele>
        <time>2019-11-27T07:50:01Z</time>
      </trkpt>
      <trkpt lat="59.338745" lon="18.082095">
        <ele>33</ele>
        <time>2019-11-27T07:50:02Z</time>
      </trkpt>
      <trkpt lat="59.338702" lon="18.082059">
        <ele>33</ele>
        <time>2019-11-27T07:50:03Z</time>
      </trkpt>
      <trkpt lat="59.338657" lon="18.082016">
        <ele>34</ele>
        <time>2019-11-27T07:50:04Z</time>
      </trkpt>
      <trkpt lat="59.338617" lon="18.081979">
        <ele>34</ele>
        <time>2019-11-27T07:50:06Z</time>
      </trkpt>
      <trkpt lat="59.338577" lon="18.081944">
        <ele>34</ele>
        <time>2019-11-27T07:50:06Z</time>
      </trkpt>
      <trkpt lat="59.338538" lon="18.081922">
        <ele>34</ele>
        <time>2019-11-27T07:50:07Z</time>
      </trkpt>
      <trkpt lat="59.338503" lon="18.081893">
        <ele>34</ele>
        <time>2019-11-27T07:50:08Z</time>
      </trkpt>
      <trkpt lat="59.33846" lon="18.081857">
        <ele>34</ele>
        <time>2019-11-27T07:50:09Z</time>
      </trkpt>
      <trkpt lat="59.338412" lon="18.081809">
        <ele>34</ele>
        <time>2019-11-27T07:50:10Z</time>
      </trkpt>
      <trkpt lat="59.33837" lon="18.081764">
        <ele>33</ele>
        <time>2019-11-27T07:50:11Z</time>
      </trkpt>
      <trkpt lat="59.338324" lon="18.08172">
        <ele>33</ele>
        <time>2019-11-27T07:50:12Z</time>
      </trkpt>
      <trkpt lat="59.338275" lon="18.081677">
        <ele>33</ele>
        <time>2019-11-27T07:50:13Z</time>
      </trkpt>
      <trkpt lat="59.338225" lon="18.081633">
        <ele>33</ele>
        <time>2019-11-27T07:50:14Z</time>
      </trkpt>
      <trkpt lat="59.338168" lon="18.081592">
        <ele>33</ele>
        <time>2019-11-27T07:50:16Z</time>
      </trkpt>
      <trkpt lat="59.33812" lon="18.081548">
        <ele>33</ele>
        <time>2019-11-27T07:50:16Z</time>
      </trkpt>
      <trkpt lat="59.338071" lon="18.081503">
        <ele>33</ele>
        <time>2019-11-27T07:50:18Z</time>
      </trkpt>
      <trkpt lat="59.338019" lon="18.081461">
        <ele>33</ele>
        <time>2019-11-27T07:50:18Z</time>
      </trkpt>
      <trkpt lat="59.337968" lon="18.081414">
        <ele>33</ele>
        <time>2019-11-27T07:50:19Z</time>
      </trkpt>
      <trkpt lat="59.337912" lon="18.081371">
        <ele>33</ele>
        <time>2019-11-27T07:50:20Z</time>
      </trkpt>
      <trkpt lat="59.337857" lon="18.081332">
        <ele>33</ele>
        <time>2019-11-27T07:50:21Z</time>
      </trkpt>
      <trkpt lat="59.337807" lon="18.081284">
        <ele>32</ele>
        <time>2019-11-27T07:50:22Z</time>
      </trkpt>
      <trkpt lat="59.337759" lon="18.081233">
        <ele>32</ele>
        <time>2019-11-27T07:50:23Z</time>
      </trkpt>
      <trkpt lat="59.337714" lon="18.081193">
        <ele>32</ele>
        <time>2019-11-27T07:50:24Z</time>
      </trkpt>
      <trkpt lat="59.337675" lon="18.081161">
        <ele>32</ele>
        <time>2019-11-27T07:50:26Z</time>
      </trkpt>
      <trkpt lat="59.337642" lon="18.081133">
        <ele>32</ele>
        <time>2019-11-27T07:50:26Z</time>
      </trkpt>
      <trkpt lat="59.337586" lon="18.081116">
        <ele>32</ele>
        <time>2019-11-27T07:50:28Z</time>
      </trkpt>
      <trkpt lat="59.337557" lon="18.0811">
        <ele>33</ele>
        <time>2019-11-27T07:50:29Z</time>
      </trkpt>
      <trkpt lat="59.337534" lon="18.08108">
        <ele>33</ele>
        <time>2019-11-27T07:50:30Z</time>
      </trkpt>
      <trkpt lat="59.337509" lon="18.081063">
        <ele>33</ele>
        <time>2019-11-27T07:50:31Z</time>
      </trkpt>
      <trkpt lat="59.337486" lon="18.081034">
        <ele>34</ele>
        <time>2019-11-27T07:50:32Z</time>
      </trkpt>
      <trkpt lat="59.337458" lon="18.080998">
        <ele>34</ele>
        <time>2019-11-27T07:50:33Z</time>
      </trkpt>
      <trkpt lat="59.337433" lon="18.080973">
        <ele>34</ele>
        <time>2019-11-27T07:50:34Z</time>
      </trkpt>
      <trkpt lat="59.337408" lon="18.080945">
        <ele>34</ele>
        <time>2019-11-27T07:50:35Z</time>
      </trkpt>
      <trkpt lat="59.337383" lon="18.080922">
        <ele>34</ele>
        <time>2019-11-27T07:50:37Z</time>
      </trkpt>
      <trkpt lat="59.33736" lon="18.0809">
        <ele>34</ele>
        <time>2019-11-27T07:50:37Z</time>
      </trkpt>
      <trkpt lat="59.337332" lon="18.080873">
        <ele>34</ele>
        <time>2019-11-27T07:50:38Z</time>
      </trkpt>
      <trkpt lat="59.337299" lon="18.080841">
        <ele>34</ele>
        <time>2019-11-27T07:50:39Z</time>
      </trkpt>
      <trkpt lat="59.337263" lon="18.080811">
        <ele>34</ele>
        <time>2019-11-27T07:50:40Z</time>
      </trkpt>
      <trkpt lat="59.337229" lon="18.080783">
        <ele>34</ele>
        <time>2019-11-27T07:50:42Z</time>
      </trkpt>
      <trkpt lat="59.337193" lon="18.080746">
        <ele>34</ele>
        <time>2019-11-27T07:50:42Z</time>
      </trkpt>
      <trkpt lat="59.337152" lon="18.08071">
        <ele>34</ele>
        <time>2019-11-27T07:50:43Z</time>
      </trkpt>
      <trkpt lat="59.337112" lon="18.080671">
        <ele>34</ele>
        <time>2019-11-27T07:50:44Z</time>
      </trkpt>
      <trkpt lat="59.337069" lon="18.080631">
        <ele>34</ele>
        <time>2019-11-27T07:50:45Z</time>
      </trkpt>
      <trkpt lat="59.337025" lon="18.080591">
        <ele>34</ele>
        <time>2019-11-27T07:50:46Z</time>
      </trkpt>
      <trkpt lat="59.336978" lon="18.080551">
        <ele>33</ele>
        <time>2019-11-27T07:50:47Z</time>
      </trkpt>
      <trkpt lat="59.336931" lon="18.080511">
        <ele>33</ele>
        <time>2019-11-27T07:50:48Z</time>
      </trkpt>
      <trkpt lat="59.336881" lon="18.08047">
        <ele>33</ele>
        <time>2019-11-27T07:50:49Z</time>
      </trkpt>
      <trkpt lat="59.336832" lon="18.080429">
        <ele>33</ele>
        <time>2019-11-27T07:50:50Z</time>
      </trkpt>
      <trkpt lat="59.336783" lon="18.080385">
        <ele>33</ele>
        <time>2019-11-27T07:50:52Z</time>
      </trkpt>
      <trkpt lat="59.336735" lon="18.080335">
        <ele>32</ele>
        <time>2019-11-27T07:50:52Z</time>
      </trkpt>
      <trkpt lat="59.336688" lon="18.080281">
        <ele>32</ele>
        <time>2019-11-27T07:50:53Z</time>
      </trkpt>
      <trkpt lat="59.33664" lon="18.080238">
        <ele>32</ele>
        <time>2019-11-27T07:50:54Z</time>
      </trkpt>
      <trkpt lat="59.336592" lon="18.080199">
        <ele>32</ele>
        <time>2019-11-27T07:50:56Z</time>
      </trkpt>
      <trkpt lat="59.336548" lon="18.080151">
        <ele>32</ele>
        <time>2019-11-27T07:50:56Z</time>
      </trkpt>
      <trkpt lat="59.336515" lon="18.080119">
        <ele>32</ele>
        <time>2019-11-27T07:50:57Z</time>
      </trkpt>
      <trkpt lat="59.336488" lon="18.080091">
        <ele>32</ele>
        <time>2019-11-27T07:50:58Z</time>
      </trkpt>
      <trkpt lat="59.336469" lon="18.080067">
        <ele>32</ele>
        <time>2019-11-27T07:50:59Z</time>
      </trkpt>
      <trkpt lat="59.336451" lon="18.080047">
        <ele>32</ele>
        <time>2019-11-27T07:51:00Z</time>
      </trkpt>
      <trkpt lat="59.336435" lon="18.080029">
        <ele>32</ele>
        <time>2019-11-27T07:51:01Z</time>
      </trkpt>
      <trkpt lat="59.336417" lon="18.080016">
        <ele>32</ele>
        <time>2019-11-27T07:51:02Z</time>
      </trkpt>
      <trkpt lat="59.336387" lon="18.079998">
        <ele>32</ele>
        <time>2019-11-27T07:51:04Z</time>
      </trkpt>
      <trkpt lat="59.336363" lon="18.079992">
        <ele>32</ele>
        <time>2019-11-27T07:51:06Z</time>
      </trkpt>
      <trkpt lat="59.336345" lon="18.079984">
        <ele>33</ele>
        <time>2019-11-27T07:51:08Z</time>
      </trkpt>
      <trkpt lat="59.336318" lon="18.079959">
        <ele>33</ele>
        <time>2019-11-27T07:51:10Z</time>
      </trkpt>
      <trkpt lat="59.336289" lon="18.079937">
        <ele>33</ele>
        <time>2019-11-27T07:51:12Z</time>
      </trkpt>
      <trkpt lat="59.33626" lon="18.079908">
        <ele>33</ele>
        <time>2019-11-27T07:51:15Z</time>
      </trkpt>
      <trkpt lat="59.336242" lon="18.079897">
        <ele>33</ele>
        <time>2019-11-27T07:51:15Z</time>
      </trkpt>
      <trkpt lat="59.336224" lon="18.079883">
        <ele>33</ele>
        <time>2019-11-27T07:51:16Z</time>
      </trkpt>
      <trkpt lat="59.336199" lon="18.079856">
        <ele>33</ele>
        <time>2019-11-27T07:51:17Z</time>
      </trkpt>
      <trkpt lat="59.336168" lon="18.079826">
        <ele>33</ele>
        <time>2019-11-27T07:51:18Z</time>
      </trkpt>
      <trkpt lat="59.336132" lon="18.079787">
        <ele>32</ele>
        <time>2019-11-27T07:51:19Z</time>
      </trkpt>
      <trkpt lat="59.336089" lon="18.079747">
        <ele>32</ele>
        <time>2019-11-27T07:51:20Z</time>
      </trkpt>
      <trkpt lat="59.336036" lon="18.079715">
        <ele>32</ele>
        <time>2019-11-27T07:51:21Z</time>
      </trkpt>
      <trkpt lat="59.335968" lon="18.079696">
        <ele>32</ele>
        <time>2019-11-27T07:51:22Z</time>
      </trkpt>
      <trkpt lat="59.335913" lon="18.079674">
        <ele>32</ele>
        <time>2019-11-27T07:51:23Z</time>
      </trkpt>
      <trkpt lat="59.335856" lon="18.079651">
        <ele>32</ele>
        <time>2019-11-27T07:51:25Z</time>
      </trkpt>
      <trkpt lat="59.335801" lon="18.079622">
        <ele>32</ele>
        <time>2019-11-27T07:51:25Z</time>
      </trkpt>
      <trkpt lat="59.335749" lon="18.079588">
        <ele>32</ele>
        <time>2019-11-27T07:51:26Z</time>
      </trkpt>
      <trkpt lat="59.335695" lon="18.079554">
        <ele>32</ele>
        <time>2019-11-27T07:51:27Z</time>
      </trkpt>
      <trkpt lat="59.335641" lon="18.079515">
        <ele>32</ele>
        <time>2019-11-27T07:51:28Z</time>
      </trkpt>
      <trkpt lat="59.335585" lon="18.079478">
        <ele>32</ele>
        <time>2019-11-27T07:51:29Z</time>
      </trkpt>
      <trkpt lat="59.335527" lon="18.079442">
        <ele>32</ele>
        <time>2019-11-27T07:51:30Z</time>
      </trkpt>
      <trkpt lat="59.335467" lon="18.079404">
        <ele>31</ele>
        <time>2019-11-27T07:51:31Z</time>
      </trkpt>
      <trkpt lat="59.335406" lon="18.079365">
        <ele>31</ele>
        <time>2019-11-27T07:51:33Z</time>
      </trkpt>
      <trkpt lat="59.335346" lon="18.079319">
        <ele>31</ele>
        <time>2019-11-27T07:51:34Z</time>
      </trkpt>
      <trkpt lat="59.335287" lon="18.079269">
        <ele>31</ele>
        <time>2019-11-27T07:51:34Z</time>
      </trkpt>
      <trkpt lat="59.335223" lon="18.079221">
        <ele>31</ele>
        <time>2019-11-27T07:51:35Z</time>
      </trkpt>
      <trkpt lat="59.335159" lon="18.079172">
        <ele>31</ele>
        <time>2019-11-27T07:51:36Z</time>
      </trkpt>
      <trkpt lat="59.335094" lon="18.079122">
        <ele>30</ele>
        <time>2019-11-27T07:51:37Z</time>
      </trkpt>
      <trkpt lat="59.335028" lon="18.079071">
        <ele>30</ele>
        <time>2019-11-27T07:51:38Z</time>
      </trkpt>
      <trkpt lat="59.33496" lon="18.079018">
        <ele>30</ele>
        <time>2019-11-27T07:51:40Z</time>
      </trkpt>
      <trkpt lat="59.334891" lon="18.078965">
        <ele>30</ele>
        <time>2019-11-27T07:51:40Z</time>
      </trkpt>
      <trkpt lat="59.334823" lon="18.078912">
        <ele>30</ele>
        <time>2019-11-27T07:51:41Z</time>
      </trkpt>
      <trkpt lat="59.334757" lon="18.07886">
        <ele>30</ele>
        <time>2019-11-27T07:51:42Z</time>
      </trkpt>
      <trkpt lat="59.334693" lon="18.078809">
        <ele>30</ele>
        <time>2019-11-27T07:51:43Z</time>
      </trkpt>
      <trkpt lat="59.334628" lon="18.078758">
        <ele>30</ele>
        <time>2019-11-27T07:51:44Z</time>
      </trkpt>
      <trkpt lat="59.334566" lon="18.078706">
        <ele>30</ele>
        <time>2019-11-27T07:51:45Z</time>
      </trkpt>
      <trkpt lat="59.334502" lon="18.078656">
        <ele>30</ele>
        <time>2019-11-27T07:51:47Z</time>
      </trkpt>
      <trkpt lat="59.334438" lon="18.078604">
        <ele>30</ele>
        <time>2019-11-27T07:51:47Z</time>
      </trkpt>
      <trkpt lat="59.33438" lon="18.078548">
        <ele>29</ele>
        <time>2019-11-27T07:51:48Z</time>
      </trkpt>
      <trkpt lat="59.334319" lon="18.078491">
        <ele>29</ele>
        <time>2019-11-27T07:51:49Z</time>
      </trkpt>
      <trkpt lat="59.334258" lon="18.078438">
        <ele>29</ele>
        <time>2019-11-27T07:51:50Z</time>
      </trkpt>
      <trkpt lat="59.334198" lon="18.078385">
        <ele>29</ele>
        <time>2019-11-27T07:51:51Z</time>
      </trkpt>
      <trkpt lat="59.334135" lon="18.078337">
        <ele>29</ele>
        <time>2019-11-27T07:51:53Z</time>
      </trkpt>
      <trkpt lat="59.33407" lon="18.078288">
        <ele>28</ele>
        <time>2019-11-27T07:51:53Z</time>
      </trkpt>
      <trkpt lat="59.33401" lon="18.078239">
        <ele>28</ele>
        <time>2019-11-27T07:51:55Z</time>
      </trkpt>
      <trkpt lat="59.333946" lon="18.078195">
        <ele>28</ele>
        <time>2019-11-27T07:51:55Z</time>
      </trkpt>
      <trkpt lat="59.333887" lon="18.078146">
        <ele>28</ele>
        <time>2019-11-27T07:51:56Z</time>
      </trkpt>
      <trkpt lat="59.333826" lon="18.078099">
        <ele>28</ele>
        <time>2019-11-27T07:51:57Z</time>
      </trkpt>
      <trkpt lat="59.333764" lon="18.078053">
        <ele>28</ele>
        <time>2019-11-27T07:51:59Z</time>
      </trkpt>
      <trkpt lat="59.333702" lon="18.078008">
        <ele>28</ele>
        <time>2019-11-27T07:51:59Z</time>
      </trkpt>
      <trkpt lat="59.333581" lon="18.077907">
        <ele>28</ele>
        <time>2019-11-27T07:52:01Z</time>
      </trkpt>
      <trkpt lat="59.333452" lon="18.077817">
        <ele>28</ele>
        <time>2019-11-27T07:52:03Z</time>
      </trkpt>
      <trkpt lat="59.333329" lon="18.077729">
        <ele>28</ele>
        <time>2019-11-27T07:52:05Z</time>
      </trkpt>
      <trkpt lat="59.333202" lon="18.077623">
        <ele>28</ele>
        <time>2019-11-27T07:52:07Z</time>
      </trkpt>
      <trkpt lat="59.333097" lon="18.077524">
        <ele>27</ele>
        <time>2019-11-27T07:52:09Z</time>
      </trkpt>
      <trkpt lat="59.332981" lon="18.077424">
        <ele>26</ele>
        <time>2019-11-27T07:52:12Z</time>
      </trkpt>
      <trkpt lat="59.332945" lon="18.077393">
        <ele>26</ele>
        <time>2019-11-27T07:52:13Z</time>
      </trkpt>
      <trkpt lat="59.33292" lon="18.077356">
        <ele>25</ele>
        <time>2019-11-27T07:52:14Z</time>
      </trkpt>
      <trkpt lat="59.332901" lon="18.077317">
        <ele>25</ele>
        <time>2019-11-27T07:52:15Z</time>
      </trkpt>
      <trkpt lat="59.332879" lon="18.077284">
        <ele>24</ele>
        <time>2019-11-27T07:52:16Z</time>
      </trkpt>
      <trkpt lat="59.33286" lon="18.077254">
        <ele>23</ele>
        <time>2019-11-27T07:52:17Z</time>
      </trkpt>
      <trkpt lat="59.332857" lon="18.077201">
        <ele>22</ele>
        <time>2019-11-27T07:52:18Z</time>
      </trkpt>
      <trkpt lat="59.33284" lon="18.077153">
        <ele>20</ele>
        <time>2019-11-27T07:52:19Z</time>
      </trkpt>
      <trkpt lat="59.332835" lon="18.077095">
        <ele>19</ele>
        <time>2019-11-27T07:52:20Z</time>
      </trkpt>
      <trkpt lat="59.332838" lon="18.077041">
        <ele>18</ele>
        <time>2019-11-27T07:52:21Z</time>
      </trkpt>
      <trkpt lat="59.332845" lon="18.076979">
        <ele>17</ele>
        <time>2019-11-27T07:52:22Z</time>
      </trkpt>
      <trkpt lat="59.332858" lon="18.076915">
        <ele>16</ele>
        <time>2019-11-27T07:52:23Z</time>
      </trkpt>
      <trkpt lat="59.332874" lon="18.076841">
        <ele>16</ele>
        <time>2019-11-27T07:52:25Z</time>
      </trkpt>
      <trkpt lat="59.332894" lon="18.076762">
        <ele>15</ele>
        <time>2019-11-27T07:52:25Z</time>
      </trkpt>
      <trkpt lat="59.332915" lon="18.07668">
        <ele>15</ele>
        <time>2019-11-27T07:52:26Z</time>
      </trkpt>
      <trkpt lat="59.332935" lon="18.076599">
        <ele>15</ele>
        <time>2019-11-27T07:52:27Z</time>
      </trkpt>
      <trkpt lat="59.332953" lon="18.07652">
        <ele>14</ele>
        <time>2019-11-27T07:52:28Z</time>
      </trkpt>
      <trkpt lat="59.332973" lon="18.076444">
        <ele>14</ele>
        <time>2019-11-27T07:52:29Z</time>
      </trkpt>
      <trkpt lat="59.332999" lon="18.076378">
        <ele>13</ele>
        <time>2019-11-27T07:52:31Z</time>
      </trkpt>
      <trkpt lat="59.333027" lon="18.076315">
        <ele>13</ele>
        <time>2019-11-27T07:52:31Z</time>
      </trkpt>
      <trkpt lat="59.333054" lon="18.076261">
        <ele>13</ele>
        <time>2019-11-27T07:52:32Z</time>
      </trkpt>
      <trkpt lat="59.333079" lon="18.076224">
        <ele>13</ele>
        <time>2019-11-27T07:52:33Z</time>
      </trkpt>
      <trkpt lat="59.333095" lon="18.076198">
        <ele>13</ele>
        <time>2019-11-27T07:52:34Z</time>
      </trkpt>
      <trkpt lat="59.33311" lon="18.076149">
        <ele>12</ele>
        <time>2019-11-27T07:52:36Z</time>
      </trkpt>
      <trkpt lat="59.333108" lon="18.076105">
        <ele>12</ele>
        <time>2019-11-27T07:52:38Z</time>
      </trkpt>
      <trkpt lat="59.333096" lon="18.076068">
        <ele>12</ele>
        <time>2019-11-27T07:52:40Z</time>
      </trkpt>
      <trkpt lat="59.333082" lon="18.076042">
        <ele>11</ele>
        <time>2019-11-27T07:52:41Z</time>
      </trkpt>
      <trkpt lat="59.333067" lon="18.076016">
        <ele>11</ele>
        <time>2019-11-27T07:52:42Z</time>
      </trkpt>
      <trkpt lat="59.333049" lon="18.075993">
        <ele>11</ele>
        <time>2019-11-27T07:52:44Z</time>
      </trkpt>
      <trkpt lat="59.333029" lon="18.075975">
        <ele>11</ele>
        <time>2019-11-27T07:52:44Z</time>
      </trkpt>
      <trkpt lat="59.333006" lon="18.075955">
        <ele>11</ele>
        <time>2019-11-27T07:52:45Z</time>
      </trkpt>
      <trkpt lat="59.332981" lon="18.075936">
        <ele>11</ele>
        <time>2019-11-27T07:52:46Z</time>
      </trkpt>
      <trkpt lat="59.332952" lon="18.075915">
        <ele>11</ele>
        <time>2019-11-27T07:52:47Z</time>
      </trkpt>
      <trkpt lat="59.332923" lon="18.075893">
        <ele>11</ele>
        <time>2019-11-27T07:52:48Z</time>
      </trkpt>
      <trkpt lat="59.332894" lon="18.07587">
        <ele>11</ele>
        <time>2019-11-27T07:52:50Z</time>
      </trkpt>
      <trkpt lat="59.332866" lon="18.07585">
        <ele>11</ele>
        <time>2019-11-27T07:52:50Z</time>
      </trkpt>
      <trkpt lat="59.332841" lon="18.075831">
        <ele>11</ele>
        <time>2019-11-27T07:52:51Z</time>
      </trkpt>
      <trkpt lat="59.332818" lon="18.075802">
        <ele>11</ele>
        <time>2019-11-27T07:52:52Z</time>
      </trkpt>
      <trkpt lat="59.332804" lon="18.075754">
        <ele>11</ele>
        <time>2019-11-27T07:52:53Z</time>
      </trkpt>
      <trkpt lat="59.33279" lon="18.075697">
        <ele>10</ele>
        <time>2019-11-27T07:52:54Z</time>
      </trkpt>
      <trkpt lat="59.332773" lon="18.075632">
        <ele>10</ele>
        <time>2019-11-27T07:52:55Z</time>
      </trkpt>
      <trkpt lat="59.332749" lon="18.075555">
        <ele>10</ele>
        <time>2019-11-27T07:52:56Z</time>
      </trkpt>
      <trkpt lat="59.332725" lon="18.075475">
        <ele>10</ele>
        <time>2019-11-27T07:52:57Z</time>
      </trkpt>
      <trkpt lat="59.332703" lon="18.0754">
        <ele>10</ele>
        <time>2019-11-27T07:52:59Z</time>
      </trkpt>
      <trkpt lat="59.332682" lon="18.075336">
        <ele>10</ele>
        <time>2019-11-27T07:52:59Z</time>
      </trkpt>
      <trkpt lat="59.332655" lon="18.07529">
        <ele>10</ele>
        <time>2019-11-27T07:53:00Z</time>
      </trkpt>
      <trkpt lat="59.332627" lon="18.075265">
        <ele>10</ele>
        <time>2019-11-27T07:53:01Z</time>
      </trkpt>
      <trkpt lat="59.332591" lon="18.075256">
        <ele>10</ele>
        <time>2019-11-27T07:53:02Z</time>
      </trkpt>
      <trkpt lat="59.332545" lon="18.075254">
        <ele>10</ele>
        <time>2019-11-27T07:53:03Z</time>
      </trkpt>
      <trkpt lat="59.3325" lon="18.075241">
        <ele>9</ele>
        <time>2019-11-27T07:53:04Z</time>
      </trkpt>
      <trkpt lat="59.332457" lon="18.075212">
        <ele>9</ele>
        <time>2019-11-27T07:53:05Z</time>
      </trkpt>
      <trkpt lat="59.332412" lon="18.075167">
        <ele>9</ele>
        <time>2019-11-27T07:53:06Z</time>
      </trkpt>
      <trkpt lat="59.332371" lon="18.075114">
        <ele>9</ele>
        <time>2019-11-27T07:53:07Z</time>
      </trkpt>
      <trkpt lat="59.332329" lon="18.075056">
        <ele>9</ele>
        <time>2019-11-27T07:53:09Z</time>
      </trkpt>
      <trkpt lat="59.332288" lon="18.075">
        <ele>10</ele>
        <time>2019-11-27T07:53:10Z</time>
      </trkpt>
      <trkpt lat="59.332244" lon="18.074943">
        <ele>10</ele>
        <time>2019-11-27T07:53:10Z</time>
      </trkpt>
      <trkpt lat="59.332201" lon="18.07489">
        <ele>10</ele>
        <time>2019-11-27T07:53:11Z</time>
      </trkpt>
      <trkpt lat="59.332161" lon="18.074844">
        <ele>10</ele>
        <time>2019-11-27T07:53:12Z</time>
      </trkpt>
      <trkpt lat="59.332123" lon="18.074804">
        <ele>10</ele>
        <time>2019-11-27T07:53:13Z</time>
      </trkpt>
      <trkpt lat="59.332089" lon="18.074764">
        <ele>10</ele>
        <time>2019-11-27T07:53:14Z</time>
      </trkpt>
      <trkpt lat="59.33206" lon="18.074723">
        <ele>10</ele>
        <time>2019-11-27T07:53:15Z</time>
      </trkpt>
      <trkpt lat="59.33203" lon="18.074676">
        <ele>10</ele>
        <time>2019-11-27T07:53:16Z</time>
      </trkpt>
      <trkpt lat="59.332" lon="18.074627">
        <ele>10</ele>
        <time>2019-11-27T07:53:17Z</time>
      </trkpt>
      <trkpt lat="59.33197" lon="18.074582">
        <ele>10</ele>
        <time>2019-11-27T07:53:18Z</time>
      </trkpt>
      <trkpt lat="59.331939" lon="18.074541">
        <ele>11</ele>
        <time>2019-11-27T07:53:19Z</time>
      </trkpt>
      <trkpt lat="59.331905" lon="18.074503">
        <ele>11</ele>
        <time>2019-11-27T07:53:20Z</time>
      </trkpt>
      <trkpt lat="59.331868" lon="18.074469">
        <ele>11</ele>
        <time>2019-11-27T07:53:22Z</time>
      </trkpt>
      <trkpt lat="59.331828" lon="18.074439">
        <ele>11</ele>
        <time>2019-11-27T07:53:22Z</time>
      </trkpt>
      <trkpt lat="59.331787" lon="18.07441">
        <ele>11</ele>
        <time>2019-11-27T07:53:23Z</time>
      </trkpt>
      <trkpt lat="59.331745" lon="18.074377">
        <ele>11</ele>
        <time>2019-11-27T07:53:24Z</time>
      </trkpt>
      <trkpt lat="59.331703" lon="18.07434">
        <ele>11</ele>
        <time>2019-11-27T07:53:25Z</time>
      </trkpt>
      <trkpt lat="59.331666" lon="18.074303">
        <ele>11</ele>
        <time>2019-11-27T07:53:26Z</time>
      </trkpt>
      <trkpt lat="59.331636" lon="18.074251">
        <ele>11</ele>
        <time>2019-11-27T07:53:28Z</time>
      </trkpt>
      <trkpt lat="59.331611" lon="18.074192">
        <ele>11</ele>
        <time>2019-11-27T07:53:28Z</time>
      </trkpt>
      <trkpt lat="59.331593" lon="18.07412">
        <ele>11</ele>
        <time>2019-11-27T07:53:29Z</time>
      </trkpt>
      <trkpt lat="59.331581" lon="18.074032">
        <ele>11</ele>
        <time>2019-11-27T07:53:30Z</time>
      </trkpt>
      <trkpt lat="59.331565" lon="18.073927">
        <ele>11</ele>
        <time>2019-11-27T07:53:31Z</time>
      </trkpt>
      <trkpt lat="59.331551" lon="18.073827">
        <ele>11</ele>
        <time>2019-11-27T07:53:33Z</time>
      </trkpt>
      <trkpt lat="59.331535" lon="18.073725">
        <ele>11</ele>
        <time>2019-11-27T07:53:33Z</time>
      </trkpt>
      <trkpt lat="59.331518" lon="18.073625">
        <ele>11</ele>
        <time>2019-11-27T07:53:34Z</time>
      </trkpt>
      <trkpt lat="59.331503" lon="18.073523">
        <ele>11</ele>
        <time>2019-11-27T07:53:35Z</time>
      </trkpt>
      <trkpt lat="59.331482" lon="18.073429">
        <ele>11</ele>
        <time>2019-11-27T07:53:36Z</time>
      </trkpt>
      <trkpt lat="59.331469" lon="18.07333">
        <ele>12</ele>
        <time>2019-11-27T07:53:37Z</time>
      </trkpt>
      <trkpt lat="59.331456" lon="18.073235">
        <ele>12</ele>
        <time>2019-11-27T07:53:38Z</time>
      </trkpt>
      <trkpt lat="59.331443" lon="18.073143">
        <ele>12</ele>
        <time>2019-11-27T07:53:39Z</time>
      </trkpt>
      <trkpt lat="59.33143" lon="18.073054">
        <ele>12</ele>
        <time>2019-11-27T07:53:40Z</time>
      </trkpt>
      <trkpt lat="59.331419" lon="18.072971">
        <ele>12</ele>
        <time>2019-11-27T07:53:41Z</time>
      </trkpt>
      <trkpt lat="59.331408" lon="18.072896">
        <ele>12</ele>
        <time>2019-11-27T07:53:42Z</time>
      </trkpt>
      <trkpt lat="59.331405" lon="18.072823">
        <ele>12</ele>
        <time>2019-11-27T07:53:44Z</time>
      </trkpt>
      <trkpt lat="59.331404" lon="18.072766">
        <ele>12</ele>
        <time>2019-11-27T07:53:44Z</time>
      </trkpt>
      <trkpt lat="59.331401" lon="18.072723">
        <ele>12</ele>
        <time>2019-11-27T07:53:45Z</time>
      </trkpt>
      <trkpt lat="59.331399" lon="18.072659">
        <ele>11</ele>
        <time>2019-11-27T07:53:47Z</time>
      </trkpt>
      <trkpt lat="59.331397" lon="18.072593">
        <ele>11</ele>
        <time>2019-11-27T07:53:49Z</time>
      </trkpt>
      <trkpt lat="59.331385" lon="18.072558">
        <ele>11</ele>
        <time>2019-11-27T07:53:50Z</time>
      </trkpt>
      <trkpt lat="59.331361" lon="18.072526">
        <ele>11</ele>
        <time>2019-11-27T07:53:51Z</time>
      </trkpt>
      <trkpt lat="59.331326" lon="18.0725">
        <ele>11</ele>
        <time>2019-11-27T07:53:52Z</time>
      </trkpt>
      <trkpt lat="59.331288" lon="18.072485">
        <ele>11</ele>
        <time>2019-11-27T07:53:53Z</time>
      </trkpt>
      <trkpt lat="59.331244" lon="18.072484">
        <ele>11</ele>
        <time>2019-11-27T07:53:54Z</time>
      </trkpt>
      <trkpt lat="59.3312" lon="18.072494">
        <ele>11</ele>
        <time>2019-11-27T07:53:55Z</time>
      </trkpt>
      <trkpt lat="59.331153" lon="18.072514">
        <ele>11</ele>
        <time>2019-11-27T07:53:56Z</time>
      </trkpt>
      <trkpt lat="59.331105" lon="18.072538">
        <ele>11</ele>
        <time>2019-11-27T07:53:57Z</time>
      </trkpt>
      <trkpt lat="59.331056" lon="18.072564">
        <ele>11</ele>
        <time>2019-11-27T07:53:59Z</time>
      </trkpt>
      <trkpt lat="59.331007" lon="18.072596">
        <ele>11</ele>
        <time>2019-11-27T07:53:59Z</time>
      </trkpt>
      <trkpt lat="59.330954" lon="18.072636">
        <ele>11</ele>
        <time>2019-11-27T07:54:00Z</time>
      </trkpt>
      <trkpt lat="59.330902" lon="18.072673">
        <ele>11</ele>
        <time>2019-11-27T07:54:01Z</time>
      </trkpt>
      <trkpt lat="59.33085" lon="18.072706">
        <ele>11</ele>
        <time>2019-11-27T07:54:02Z</time>
      </trkpt>
      <trkpt lat="59.330801" lon="18.072737">
        <ele>11</ele>
        <time>2019-11-27T07:54:03Z</time>
      </trkpt>
      <trkpt lat="59.330754" lon="18.072765">
        <ele>11</ele>
        <time>2019-11-27T07:54:04Z</time>
      </trkpt>
      <trkpt lat="59.330712" lon="18.072788">
        <ele>11</ele>
        <time>2019-11-27T07:54:06Z</time>
      </trkpt>
      <trkpt lat="59.330674" lon="18.072809">
        <ele>11</ele>
        <time>2019-11-27T07:54:06Z</time>
      </trkpt>
      <trkpt lat="59.33064" lon="18.072832">
        <ele>10</ele>
        <time>2019-11-27T07:54:07Z</time>
      </trkpt>
      <trkpt lat="59.330608" lon="18.072853">
        <ele>10</ele>
        <time>2019-11-27T07:54:08Z</time>
      </trkpt>
      <trkpt lat="59.330566" lon="18.072868">
        <ele>10</ele>
        <time>2019-11-27T07:54:10Z</time>
      </trkpt>
      <trkpt lat="59.330521" lon="18.072888">
        <ele>10</ele>
        <time>2019-11-27T07:54:10Z</time>
      </trkpt>
      <trkpt lat="59.33047" lon="18.072903">
        <ele>11</ele>
        <time>2019-11-27T07:54:11Z</time>
      </trkpt>
      <trkpt lat="59.330413" lon="18.072921">
        <ele>11</ele>
        <time>2019-11-27T07:54:12Z</time>
      </trkpt>
      <trkpt lat="59.330359" lon="18.072947">
        <ele>11</ele>
        <time>2019-11-27T07:54:13Z</time>
      </trkpt>
      <trkpt lat="59.330302" lon="18.072972">
        <ele>11</ele>
        <time>2019-11-27T07:54:14Z</time>
      </trkpt>
      <trkpt lat="59.330245" lon="18.072997">
        <ele>12</ele>
        <time>2019-11-27T07:54:15Z</time>
      </trkpt>
      <trkpt lat="59.330189" lon="18.073037">
        <ele>12</ele>
        <time>2019-11-27T07:54:16Z</time>
      </trkpt>
      <trkpt lat="59.330137" lon="18.073069">
        <ele>12</ele>
        <time>2019-11-27T07:54:17Z</time>
      </trkpt>
      <trkpt lat="59.330088" lon="18.073094">
        <ele>12</ele>
        <time>2019-11-27T07:54:19Z</time>
      </trkpt>
      <trkpt lat="59.330045" lon="18.073122">
        <ele>13</ele>
        <time>2019-11-27T07:54:19Z</time>
      </trkpt>
      <trkpt lat="59.330004" lon="18.073145">
        <ele>13</ele>
        <time>2019-11-27T07:54:20Z</time>
      </trkpt>
      <trkpt lat="59.329964" lon="18.073172">
        <ele>13</ele>
        <time>2019-11-27T07:54:21Z</time>
      </trkpt>
      <trkpt lat="59.32993" lon="18.073195">
        <ele>13</ele>
        <time>2019-11-27T07:54:22Z</time>
      </trkpt>
      <trkpt lat="59.329897" lon="18.073209">
        <ele>13</ele>
        <time>2019-11-27T07:54:23Z</time>
      </trkpt>
      <trkpt lat="59.329871" lon="18.073225">
        <ele>13</ele>
        <time>2019-11-27T07:54:25Z</time>
      </trkpt>
      <trkpt lat="59.329846" lon="18.073237">
        <ele>13</ele>
        <time>2019-11-27T07:54:25Z</time>
      </trkpt>
      <trkpt lat="59.329822" lon="18.073236">
        <ele>13</ele>
        <time>2019-11-27T07:54:26Z</time>
      </trkpt>
      <trkpt lat="59.329805" lon="18.073223">
        <ele>13</ele>
        <time>2019-11-27T07:54:27Z</time>
      </trkpt>
      <trkpt lat="59.329778" lon="18.073195">
        <ele>14</ele>
        <time>2019-11-27T07:54:29Z</time>
      </trkpt>
      <trkpt lat="59.32975" lon="18.073182">
        <ele>14</ele>
        <time>2019-11-27T07:54:31Z</time>
      </trkpt>
      <trkpt lat="59.329743" lon="18.073181">
        <ele>0</ele>
        <time>2019-11-27T07:54:36Z</time>
      </trkpt>
      <trkpt lat="59.32972" lon="18.073178">
        <ele>14</ele>
        <time>2019-11-27T07:54:40Z</time>
      </trkpt>
      <trkpt lat="59.329686" lon="18.073171">
        <ele>13</ele>
        <time>2019-11-27T07:54:41Z</time>
      </trkpt>
      <trkpt lat="59.329652" lon="18.073164">
        <ele>12</ele>
        <time>2019-11-27T07:54:42Z</time>
      </trkpt>
      <trkpt lat="59.32961" lon="18.073161">
        <ele>11</ele>
        <time>2019-11-27T07:54:43Z</time>
      </trkpt>
      <trkpt lat="59.329564" lon="18.073155">
        <ele>11</ele>
        <time>2019-11-27T07:54:45Z</time>
      </trkpt>
      <trkpt lat="59.329514" lon="18.07315">
        <ele>11</ele>
        <time>2019-11-27T07:54:45Z</time>
      </trkpt>
      <trkpt lat="59.329461" lon="18.073146">
        <ele>10</ele>
        <time>2019-11-27T07:54:46Z</time>
      </trkpt>
      <trkpt lat="59.329408" lon="18.073142">
        <ele>10</ele>
        <time>2019-11-27T07:54:47Z</time>
      </trkpt>
      <trkpt lat="59.329354" lon="18.073135">
        <ele>10</ele>
        <time>2019-11-27T07:54:48Z</time>
      </trkpt>
      <trkpt lat="59.329301" lon="18.073125">
        <ele>9</ele>
        <time>2019-11-27T07:54:49Z</time>
      </trkpt>
      <trkpt lat="59.329248" lon="18.073114">
        <ele>9</ele>
        <time>2019-11-27T07:54:50Z</time>
      </trkpt>
      <trkpt lat="59.329194" lon="18.073104">
        <ele>9</ele>
        <time>2019-11-27T07:54:51Z</time>
      </trkpt>
      <trkpt lat="59.32914" lon="18.073092">
        <ele>8</ele>
        <time>2019-11-27T07:54:52Z</time>
      </trkpt>
      <trkpt lat="59.329086" lon="18.073079">
        <ele>8</ele>
        <time>2019-11-27T07:54:54Z</time>
      </trkpt>
      <trkpt lat="59.329031" lon="18.073066">
        <ele>8</ele>
        <time>2019-11-27T07:54:54Z</time>
      </trkpt>
      <trkpt lat="59.328975" lon="18.073053">
        <ele>7</ele>
        <time>2019-11-27T07:54:55Z</time>
      </trkpt>
      <trkpt lat="59.328919" lon="18.073039">
        <ele>7</ele>
        <time>2019-11-27T07:54:56Z</time>
      </trkpt>
      <trkpt lat="59.328863" lon="18.073025">
        <ele>7</ele>
        <time>2019-11-27T07:54:57Z</time>
      </trkpt>
      <trkpt lat="59.328807" lon="18.073012">
        <ele>7</ele>
        <time>2019-11-27T07:54:59Z</time>
      </trkpt>
      <trkpt lat="59.328751" lon="18.072998">
        <ele>7</ele>
        <time>2019-11-27T07:54:59Z</time>
      </trkpt>
      <trkpt lat="59.328695" lon="18.072983">
        <ele>7</ele>
        <time>2019-11-27T07:55:00Z</time>
      </trkpt>
      <trkpt lat="59.32864" lon="18.072969">
        <ele>6</ele>
        <time>2019-11-27T07:55:01Z</time>
      </trkpt>
      <trkpt lat="59.328587" lon="18.072955">
        <ele>6</ele>
        <time>2019-11-27T07:55:03Z</time>
      </trkpt>
      <trkpt lat="59.328535" lon="18.072941">
        <ele>6</ele>
        <time>2019-11-27T07:55:03Z</time>
      </trkpt>
      <trkpt lat="59.328485" lon="18.072927">
        <ele>6</ele>
        <time>2019-11-27T07:55:04Z</time>
      </trkpt>
      <trkpt lat="59.328437" lon="18.072914">
        <ele>6</ele>
        <time>2019-11-27T07:55:05Z</time>
      </trkpt>
      <trkpt lat="59.328391" lon="18.072902">
        <ele>6</ele>
        <time>2019-11-27T07:55:06Z</time>
      </trkpt>
      <trkpt lat="59.328349" lon="18.072891">
        <ele>6</ele>
        <time>2019-11-27T07:55:07Z</time>
      </trkpt>
      <trkpt lat="59.328311" lon="18.072883">
        <ele>5</ele>
        <time>2019-11-27T07:55:08Z</time>
      </trkpt>
      <trkpt lat="59.328278" lon="18.072876">
        <ele>5</ele>
        <time>2019-11-27T07:55:09Z</time>
      </trkpt>
      <trkpt lat="59.328249" lon="18.072869">
        <ele>5</ele>
        <time>2019-11-27T07:55:10Z</time>
      </trkpt>
      <trkpt lat="59.328226" lon="18.072863">
        <ele>5</ele>
        <time>2019-11-27T07:55:11Z</time>
      </trkpt>
      <trkpt lat="59.328207" lon="18.072857">
        <ele>5</ele>
        <time>2019-11-27T07:55:12Z</time>
      </trkpt>
      <trkpt lat="59.328174" lon="18.072845">
        <ele>5</ele>
        <time>2019-11-27T07:55:14Z</time>
      </trkpt>
      <trkpt lat="59.328155" lon="18.072838">
        <ele>4</ele>
        <time>2019-11-27T07:55:18Z</time>
      </trkpt>
      <trkpt lat="59.328157" lon="18.072838">
        <ele>0</ele>
        <time>2019-11-27T07:55:21Z</time>
      </trkpt>
      <trkpt lat="59.328072" lon="18.072821">
        <ele>4</ele>
        <time>2019-11-27T07:55:50Z</time>
      </trkpt>
      <trkpt lat="59.32803" lon="18.072816">
        <ele>4</ele>
        <time>2019-11-27T07:55:50Z</time>
      </trkpt>
      <trkpt lat="59.327983" lon="18.072818">
        <ele>4</ele>
        <time>2019-11-27T07:55:52Z</time>
      </trkpt>
      <trkpt lat="59.327936" lon="18.072828">
        <ele>4</ele>
        <time>2019-11-27T07:55:52Z</time>
      </trkpt>
      <trkpt lat="59.327887" lon="18.072849">
        <ele>4</ele>
        <time>2019-11-27T07:55:53Z</time>
      </trkpt>
      <trkpt lat="59.327838" lon="18.072882">
        <ele>4</ele>
        <time>2019-11-27T07:55:54Z</time>
      </trkpt>
      <trkpt lat="59.32779" lon="18.072927">
        <ele>4</ele>
        <time>2019-11-27T07:55:55Z</time>
      </trkpt>
      <trkpt lat="59.327743" lon="18.07298">
        <ele>4</ele>
        <time>2019-11-27T07:55:56Z</time>
      </trkpt>
      <trkpt lat="59.327695" lon="18.073037">
        <ele>4</ele>
        <time>2019-11-27T07:55:57Z</time>
      </trkpt>
      <trkpt lat="59.327647" lon="18.073096">
        <ele>4</ele>
        <time>2019-11-27T07:55:58Z</time>
      </trkpt>
      <trkpt lat="59.327598" lon="18.073157">
        <ele>4</ele>
        <time>2019-11-27T07:55:59Z</time>
      </trkpt>
      <trkpt lat="59.327549" lon="18.073219">
        <ele>4</ele>
        <time>2019-11-27T07:56:01Z</time>
      </trkpt>
      <trkpt lat="59.327499" lon="18.073282">
        <ele>4</ele>
        <time>2019-11-27T07:56:01Z</time>
      </trkpt>
      <trkpt lat="59.327447" lon="18.073346">
        <ele>4</ele>
        <time>2019-11-27T07:56:02Z</time>
      </trkpt>
      <trkpt lat="59.327395" lon="18.073411">
        <ele>4</ele>
        <time>2019-11-27T07:56:03Z</time>
      </trkpt>
      <trkpt lat="59.327343" lon="18.073476">
        <ele>4</ele>
        <time>2019-11-27T07:56:04Z</time>
      </trkpt>
      <trkpt lat="59.327289" lon="18.073541">
        <ele>4</ele>
        <time>2019-11-27T07:56:05Z</time>
      </trkpt>
      <trkpt lat="59.327237" lon="18.073606">
        <ele>4</ele>
        <time>2019-11-27T07:56:06Z</time>
      </trkpt>
      <trkpt lat="59.327186" lon="18.07367">
        <ele>4</ele>
        <time>2019-11-27T07:56:07Z</time>
      </trkpt>
      <trkpt lat="59.327136" lon="18.073731">
        <ele>4</ele>
        <time>2019-11-27T07:56:09Z</time>
      </trkpt>
      <trkpt lat="59.327089" lon="18.073788">
        <ele>4</ele>
        <time>2019-11-27T07:56:10Z</time>
      </trkpt>
      <trkpt lat="59.327044" lon="18.073843">
        <ele>5</ele>
        <time>2019-11-27T07:56:10Z</time>
      </trkpt>
      <trkpt lat="59.327002" lon="18.073896">
        <ele>5</ele>
        <time>2019-11-27T07:56:11Z</time>
      </trkpt>
      <trkpt lat="59.326963" lon="18.073945">
        <ele>4</ele>
        <time>2019-11-27T07:56:12Z</time>
      </trkpt>
      <trkpt lat="59.326927" lon="18.07399">
        <ele>4</ele>
        <time>2019-11-27T07:56:13Z</time>
      </trkpt>
      <trkpt lat="59.326894" lon="18.074029">
        <ele>4</ele>
        <time>2019-11-27T07:56:14Z</time>
      </trkpt>
      <trkpt lat="59.326864" lon="18.074058">
        <ele>4</ele>
        <time>2019-11-27T07:56:15Z</time>
      </trkpt>
      <trkpt lat="59.326836" lon="18.074082">
        <ele>4</ele>
        <time>2019-11-27T07:56:16Z</time>
      </trkpt>
      <trkpt lat="59.326815" lon="18.074104">
        <ele>4</ele>
        <time>2019-11-27T07:56:17Z</time>
      </trkpt>
      <trkpt lat="59.326792" lon="18.074133">
        <ele>4</ele>
        <time>2019-11-27T07:56:19Z</time>
      </trkpt>
      <trkpt lat="59.326777" lon="18.074151">
        <ele>0</ele>
        <time>2019-11-27T07:56:25Z</time>
      </trkpt>
      <trkpt lat="59.326747" lon="18.074197">
        <ele>4</ele>
        <time>2019-11-27T07:56:35Z</time>
      </trkpt>
      <trkpt lat="59.326721" lon="18.074233">
        <ele>4</ele>
        <time>2019-11-27T07:56:35Z</time>
      </trkpt>
      <trkpt lat="59.326679" lon="18.074284">
        <ele>4</ele>
        <time>2019-11-27T07:56:36Z</time>
      </trkpt>
      <trkpt lat="59.326632" lon="18.074343">
        <ele>4</ele>
        <time>2019-11-27T07:56:37Z</time>
      </trkpt>
      <trkpt lat="59.326587" lon="18.074404">
        <ele>4</ele>
        <time>2019-11-27T07:56:39Z</time>
      </trkpt>
      <trkpt lat="59.32654" lon="18.074467">
        <ele>4</ele>
        <time>2019-11-27T07:56:39Z</time>
      </trkpt>
      <trkpt lat="59.32649" lon="18.074533">
        <ele>4</ele>
        <time>2019-11-27T07:56:40Z</time>
      </trkpt>
      <trkpt lat="59.326438" lon="18.074603">
        <ele>4</ele>
        <time>2019-11-27T07:56:41Z</time>
      </trkpt>
      <trkpt lat="59.326386" lon="18.074676">
        <ele>4</ele>
        <time>2019-11-27T07:56:42Z</time>
      </trkpt>
      <trkpt lat="59.32633" lon="18.074749">
        <ele>4</ele>
        <time>2019-11-27T07:56:43Z</time>
      </trkpt>
      <trkpt lat="59.326272" lon="18.074818">
        <ele>4</ele>
        <time>2019-11-27T07:56:44Z</time>
      </trkpt>
      <trkpt lat="59.326215" lon="18.074881">
        <ele>4</ele>
        <time>2019-11-27T07:56:46Z</time>
      </trkpt>
      <trkpt lat="59.326156" lon="18.074941">
        <ele>4</ele>
        <time>2019-11-27T07:56:46Z</time>
      </trkpt>
      <trkpt lat="59.326096" lon="18.075">
        <ele>4</ele>
        <time>2019-11-27T07:56:47Z</time>
      </trkpt>
      <trkpt lat="59.326035" lon="18.07506">
        <ele>4</ele>
        <time>2019-11-27T07:56:48Z</time>
      </trkpt>
      <trkpt lat="59.325974" lon="18.075122">
        <ele>4</ele>
        <time>2019-11-27T07:56:49Z</time>
      </trkpt>
      <trkpt lat="59.325912" lon="18.075181">
        <ele>4</ele>
        <time>2019-11-27T07:56:50Z</time>
      </trkpt>
      <trkpt lat="59.325848" lon="18.07524">
        <ele>4</ele>
        <time>2019-11-27T07:56:51Z</time>
      </trkpt>
      <trkpt lat="59.325786" lon="18.075299">
        <ele>4</ele>
        <time>2019-11-27T07:56:52Z</time>
      </trkpt>
      <trkpt lat="59.325722" lon="18.075358">
        <ele>0</ele>
        <time>2019-11-27T07:56:53Z</time>
      </trkpt>
      <trkpt lat="59.325657" lon="18.075413">
        <ele>4</ele>
        <time>2019-11-27T07:56:54Z</time>
      </trkpt>
      <trkpt lat="59.32559" lon="18.075462">
        <ele>4</ele>
        <time>2019-11-27T07:56:55Z</time>
      </trkpt>
      <trkpt lat="59.325521" lon="18.075494">
        <ele>4</ele>
        <time>2019-11-27T07:56:56Z</time>
      </trkpt>
      <trkpt lat="59.325452" lon="18.07551">
        <ele>4</ele>
        <time>2019-11-27T07:56:57Z</time>
      </trkpt>
      <trkpt lat="59.325382" lon="18.075523">
        <ele>4</ele>
        <time>2019-11-27T07:56:58Z</time>
      </trkpt>
      <trkpt lat="59.325312" lon="18.075536">
        <ele>4</ele>
        <time>2019-11-27T07:56:59Z</time>
      </trkpt>
      <trkpt lat="59.325245" lon="18.075549">
        <ele>4</ele>
        <time>2019-11-27T07:57:01Z</time>
      </trkpt>
      <trkpt lat="59.325178" lon="18.07556">
        <ele>4</ele>
        <time>2019-11-27T07:57:01Z</time>
      </trkpt>
      <trkpt lat="59.32511" lon="18.075568">
        <ele>3</ele>
        <time>2019-11-27T07:57:02Z</time>
      </trkpt>
      <trkpt lat="59.32504" lon="18.075572">
        <ele>3</ele>
        <time>2019-11-27T07:57:03Z</time>
      </trkpt>
      <trkpt lat="59.32497" lon="18.075574">
        <ele>3</ele>
        <time>2019-11-27T07:57:04Z</time>
      </trkpt>
      <trkpt lat="59.3249" lon="18.075566">
        <ele>3</ele>
        <time>2019-11-27T07:57:05Z</time>
      </trkpt>
      <trkpt lat="59.324835" lon="18.075556">
        <ele>3</ele>
        <time>2019-11-27T07:57:06Z</time>
      </trkpt>
      <trkpt lat="59.324775" lon="18.07554">
        <ele>3</ele>
        <time>2019-11-27T07:57:08Z</time>
      </trkpt>
      <trkpt lat="59.324721" lon="18.07552">
        <ele>3</ele>
        <time>2019-11-27T07:57:08Z</time>
      </trkpt>
      <trkpt lat="59.324669" lon="18.075496">
        <ele>3</ele>
        <time>2019-11-27T07:57:09Z</time>
      </trkpt>
      <trkpt lat="59.324621" lon="18.075474">
        <ele>3</ele>
        <time>2019-11-27T07:57:10Z</time>
      </trkpt>
      <trkpt lat="59.324576" lon="18.075454">
        <ele>3</ele>
        <time>2019-11-27T07:57:11Z</time>
      </trkpt>
      <trkpt lat="59.32453" lon="18.075436">
        <ele>3</ele>
        <time>2019-11-27T07:57:13Z</time>
      </trkpt>
      <trkpt lat="59.324481" lon="18.075416">
        <ele>3</ele>
        <time>2019-11-27T07:57:13Z</time>
      </trkpt>
      <trkpt lat="59.324429" lon="18.075396">
        <ele>3</ele>
        <time>2019-11-27T07:57:14Z</time>
      </trkpt>
      <trkpt lat="59.324373" lon="18.075382">
        <ele>3</ele>
        <time>2019-11-27T07:57:15Z</time>
      </trkpt>
      <trkpt lat="59.324313" lon="18.075368">
        <ele>3</ele>
        <time>2019-11-27T07:57:16Z</time>
      </trkpt>
      <trkpt lat="59.324252" lon="18.075352">
        <ele>3</ele>
        <time>2019-11-27T07:57:18Z</time>
      </trkpt>
      <trkpt lat="59.324191" lon="18.075332">
        <ele>3</ele>
        <time>2019-11-27T07:57:18Z</time>
      </trkpt>
      <trkpt lat="59.324129" lon="18.075308">
        <ele>2</ele>
        <time>2019-11-27T07:57:19Z</time>
      </trkpt>
      <trkpt lat="59.324062" lon="18.075284">
        <ele>2</ele>
        <time>2019-11-27T07:57:20Z</time>
      </trkpt>
      <trkpt lat="59.323995" lon="18.075259">
        <ele>2</ele>
        <time>2019-11-27T07:57:21Z</time>
      </trkpt>
      <trkpt lat="59.323928" lon="18.075236">
        <ele>2</ele>
        <time>2019-11-27T07:57:22Z</time>
      </trkpt>
      <trkpt lat="59.323862" lon="18.075214">
        <ele>2</ele>
        <time>2019-11-27T07:57:23Z</time>
      </trkpt>
      <trkpt lat="59.323795" lon="18.075192">
        <ele>2</ele>
        <time>2019-11-27T07:57:25Z</time>
      </trkpt>
      <trkpt lat="59.323731" lon="18.075172">
        <ele>2</ele>
        <time>2019-11-27T07:57:25Z</time>
      </trkpt>
      <trkpt lat="59.323668" lon="18.075148">
        <ele>2</ele>
        <time>2019-11-27T07:57:26Z</time>
      </trkpt>
      <trkpt lat="59.323604" lon="18.075124">
        <ele>2</ele>
        <time>2019-11-27T07:57:27Z</time>
      </trkpt>
      <trkpt lat="59.323542" lon="18.0751">
        <ele>2</ele>
        <time>2019-11-27T07:57:29Z</time>
      </trkpt>
      <trkpt lat="59.32348" lon="18.075078">
        <ele>2</ele>
        <time>2019-11-27T07:57:29Z</time>
      </trkpt>
      <trkpt lat="59.323418" lon="18.075056">
        <ele>2</ele>
        <time>2019-11-27T07:57:30Z</time>
      </trkpt>
      <trkpt lat="59.323356" lon="18.075034">
        <ele>2</ele>
        <time>2019-11-27T07:57:32Z</time>
      </trkpt>
      <trkpt lat="59.323296" lon="18.075012">
        <ele>2</ele>
        <time>2019-11-27T07:57:33Z</time>
      </trkpt>
      <trkpt lat="59.323236" lon="18.074986">
        <ele>2</ele>
        <time>2019-11-27T07:57:33Z</time>
      </trkpt>
      <trkpt lat="59.323177" lon="18.074962">
        <ele>2</ele>
        <time>2019-11-27T07:57:34Z</time>
      </trkpt>
      <trkpt lat="59.323116" lon="18.07494">
        <ele>2</ele>
        <time>2019-11-27T07:57:35Z</time>
      </trkpt>
      <trkpt lat="59.323056" lon="18.074918">
        <ele>2</ele>
        <time>2019-11-27T07:57:36Z</time>
      </trkpt>
      <trkpt lat="59.322999" lon="18.074892">
        <ele>2</ele>
        <time>2019-11-27T07:57:37Z</time>
      </trkpt>
      <trkpt lat="59.322944" lon="18.074862">
        <ele>2</ele>
        <time>2019-11-27T07:57:38Z</time>
      </trkpt>
      <trkpt lat="59.322891" lon="18.074824">
        <ele>2</ele>
        <time>2019-11-27T07:57:39Z</time>
      </trkpt>
      <trkpt lat="59.322839" lon="18.07478">
        <ele>3</ele>
        <time>2019-11-27T07:57:40Z</time>
      </trkpt>
      <trkpt lat="59.322791" lon="18.074732">
        <ele>3</ele>
        <time>2019-11-27T07:57:42Z</time>
      </trkpt>
      <trkpt lat="59.322742" lon="18.074682">
        <ele>3</ele>
        <time>2019-11-27T07:57:42Z</time>
      </trkpt>
      <trkpt lat="59.322695" lon="18.074628">
        <ele>3</ele>
        <time>2019-11-27T07:57:43Z</time>
      </trkpt>
      <trkpt lat="59.322647" lon="18.07457">
        <ele>3</ele>
        <time>2019-11-27T07:57:44Z</time>
      </trkpt>
      <trkpt lat="59.322597" lon="18.074514">
        <ele>3</ele>
        <time>2019-11-27T07:57:45Z</time>
      </trkpt>
      <trkpt lat="59.322545" lon="18.07446">
        <ele>3</ele>
        <time>2019-11-27T07:57:46Z</time>
      </trkpt>
      <trkpt lat="59.322493" lon="18.074408">
        <ele>3</ele>
        <time>2019-11-27T07:57:47Z</time>
      </trkpt>
      <trkpt lat="59.322442" lon="18.074354">
        <ele>3</ele>
        <time>2019-11-27T07:57:48Z</time>
      </trkpt>
      <trkpt lat="59.32239" lon="18.074298">
        <ele>3</ele>
        <time>2019-11-27T07:57:50Z</time>
      </trkpt>
      <trkpt lat="59.322338" lon="18.074242">
        <ele>3</ele>
        <time>2019-11-27T07:57:51Z</time>
      </trkpt>
      <trkpt lat="59.322284" lon="18.074186">
        <ele>3</ele>
        <time>2019-11-27T07:57:51Z</time>
      </trkpt>
      <trkpt lat="59.322228" lon="18.074132">
        <ele>3</ele>
        <time>2019-11-27T07:57:52Z</time>
      </trkpt>
      <trkpt lat="59.322175" lon="18.074076">
        <ele>3</ele>
        <time>2019-11-27T07:57:53Z</time>
      </trkpt>
      <trkpt lat="59.322123" lon="18.074022">
        <ele>3</ele>
        <time>2019-11-27T07:57:54Z</time>
      </trkpt>
      <trkpt lat="59.322073" lon="18.07397">
        <ele>3</ele>
        <time>2019-11-27T07:57:55Z</time>
      </trkpt>
      <trkpt lat="59.322024" lon="18.073922">
        <ele>3</ele>
        <time>2019-11-27T07:57:56Z</time>
      </trkpt>
      <trkpt lat="59.321981" lon="18.073874">
        <ele>3</ele>
        <time>2019-11-27T07:57:57Z</time>
      </trkpt>
      <trkpt lat="59.32195" lon="18.073818">
        <ele>3</ele>
        <time>2019-11-27T07:57:58Z</time>
      </trkpt>
      <trkpt lat="59.321932" lon="18.073748">
        <ele>3</ele>
        <time>2019-11-27T07:58:00Z</time>
      </trkpt>
      <trkpt lat="59.321936" lon="18.073676">
        <ele>3</ele>
        <time>2019-11-27T07:58:00Z</time>
      </trkpt>
      <trkpt lat="59.321949" lon="18.073602">
        <ele>3</ele>
        <time>2019-11-27T07:58:01Z</time>
      </trkpt>
      <trkpt lat="59.321964" lon="18.073525">
        <ele>3</ele>
        <time>2019-11-27T07:58:02Z</time>
      </trkpt>
      <trkpt lat="59.321977" lon="18.073448">
        <ele>3</ele>
        <time>2019-11-27T07:58:03Z</time>
      </trkpt>
      <trkpt lat="59.321993" lon="18.073372">
        <ele>3</ele>
        <time>2019-11-27T07:58:04Z</time>
      </trkpt>
      <trkpt lat="59.322007" lon="18.073297">
        <ele>4</ele>
        <time>2019-11-27T07:58:05Z</time>
      </trkpt>
      <trkpt lat="59.322022" lon="18.073226">
        <ele>4</ele>
        <time>2019-11-27T07:58:06Z</time>
      </trkpt>
      <trkpt lat="59.322036" lon="18.073161">
        <ele>4</ele>
        <time>2019-11-27T07:58:07Z</time>
      </trkpt>
      <trkpt lat="59.322048" lon="18.0731">
        <ele>4</ele>
        <time>2019-11-27T07:58:08Z</time>
      </trkpt>
      <trkpt lat="59.32206" lon="18.073045">
        <ele>4</ele>
        <time>2019-11-27T07:58:10Z</time>
      </trkpt>
      <trkpt lat="59.32207" lon="18.072998">
        <ele>4</ele>
        <time>2019-11-27T07:58:10Z</time>
      </trkpt>
      <trkpt lat="59.322076" lon="18.072962">
        <ele>4</ele>
        <time>2019-11-27T07:58:11Z</time>
      </trkpt>
      <trkpt lat="59.32208" lon="18.072935">
        <ele>0</ele>
        <time>2019-11-27T07:58:16Z</time>
      </trkpt>
      <trkpt lat="59.322077" lon="18.072827">
        <ele>5</ele>
        <time>2019-11-27T07:59:20Z</time>
      </trkpt>
      <trkpt lat="59.322074" lon="18.072775">
        <ele>5</ele>
        <time>2019-11-27T07:59:20Z</time>
      </trkpt>
      <trkpt lat="59.322069" lon="18.072707">
        <ele>5</ele>
        <time>2019-11-27T07:59:21Z</time>
      </trkpt>
      <trkpt lat="59.322061" lon="18.07262">
        <ele>5</ele>
        <time>2019-11-27T07:59:23Z</time>
      </trkpt>
      <trkpt lat="59.322057" lon="18.072563">
        <ele>5</ele>
        <time>2019-11-27T07:59:23Z</time>
      </trkpt>
      <trkpt lat="59.322053" lon="18.072515">
        <ele>5</ele>
        <time>2019-11-27T07:59:24Z</time>
      </trkpt>
      <trkpt lat="59.322046" lon="18.072466">
        <ele>5</ele>
        <time>2019-11-27T07:59:25Z</time>
      </trkpt>
      <trkpt lat="59.322033" lon="18.072414">
        <ele>5</ele>
        <time>2019-11-27T07:59:26Z</time>
      </trkpt>
      <trkpt lat="59.322005" lon="18.072368">
        <ele>5</ele>
        <time>2019-11-27T07:59:27Z</time>
      </trkpt>
      <trkpt lat="59.321966" lon="18.072329">
        <ele>5</ele>
        <time>2019-11-27T07:59:29Z</time>
      </trkpt>
      <trkpt lat="59.321924" lon="18.072296">
        <ele>5</ele>
        <time>2019-11-27T07:59:29Z</time>
      </trkpt>
      <trkpt lat="59.321881" lon="18.072267">
        <ele>5</ele>
        <time>2019-11-27T07:59:30Z</time>
      </trkpt>
      <trkpt lat="59.321837" lon="18.07224">
        <ele>6</ele>
        <time>2019-11-27T07:59:31Z</time>
      </trkpt>
      <trkpt lat="59.321794" lon="18.07222">
        <ele>6</ele>
        <time>2019-11-27T07:59:32Z</time>
      </trkpt>
      <trkpt lat="59.32175" lon="18.072211">
        <ele>6</ele>
        <time>2019-11-27T07:59:33Z</time>
      </trkpt>
      <trkpt lat="59.321707" lon="18.072211">
        <ele>6</ele>
        <time>2019-11-27T07:59:34Z</time>
      </trkpt>
      <trkpt lat="59.321665" lon="18.07221">
        <ele>6</ele>
        <time>2019-11-27T07:59:36Z</time>
      </trkpt>
      <trkpt lat="59.321622" lon="18.0722">
        <ele>7</ele>
        <time>2019-11-27T07:59:36Z</time>
      </trkpt>
      <trkpt lat="59.321581" lon="18.07218">
        <ele>7</ele>
        <time>2019-11-27T07:59:37Z</time>
      </trkpt>
      <trkpt lat="59.321541" lon="18.072152">
        <ele>7</ele>
        <time>2019-11-27T07:59:39Z</time>
      </trkpt>
      <trkpt lat="59.321501" lon="18.072121">
        <ele>7</ele>
        <time>2019-11-27T07:59:39Z</time>
      </trkpt>
      <trkpt lat="59.321461" lon="18.072091">
        <ele>8</ele>
        <time>2019-11-27T07:59:40Z</time>
      </trkpt>
      <trkpt lat="59.321421" lon="18.072061">
        <ele>8</ele>
        <time>2019-11-27T07:59:41Z</time>
      </trkpt>
      <trkpt lat="59.32138" lon="18.072031">
        <ele>8</ele>
        <time>2019-11-27T07:59:42Z</time>
      </trkpt>
      <trkpt lat="59.321339" lon="18.072001">
        <ele>8</ele>
        <time>2019-11-27T07:59:43Z</time>
      </trkpt>
      <trkpt lat="59.321297" lon="18.071971">
        <ele>9</ele>
        <time>2019-11-27T07:59:44Z</time>
      </trkpt>
      <trkpt lat="59.321257" lon="18.071938">
        <ele>9</ele>
        <time>2019-11-27T07:59:45Z</time>
      </trkpt>
      <trkpt lat="59.321218" lon="18.071898">
        <ele>9</ele>
        <time>2019-11-27T07:59:47Z</time>
      </trkpt>
      <trkpt lat="59.321182" lon="18.071848">
        <ele>9</ele>
        <time>2019-11-27T07:59:47Z</time>
      </trkpt>
      <trkpt lat="59.321151" lon="18.071786">
        <ele>9</ele>
        <time>2019-11-27T07:59:48Z</time>
      </trkpt>
      <trkpt lat="59.321125" lon="18.071711">
        <ele>10</ele>
        <time>2019-11-27T07:59:49Z</time>
      </trkpt>
      <trkpt lat="59.321109" lon="18.071631">
        <ele>10</ele>
        <time>2019-11-27T07:59:50Z</time>
      </trkpt>
      <trkpt lat="59.321097" lon="18.071549">
        <ele>10</ele>
        <time>2019-11-27T07:59:51Z</time>
      </trkpt>
      <trkpt lat="59.321087" lon="18.07147">
        <ele>10</ele>
        <time>2019-11-27T07:59:52Z</time>
      </trkpt>
      <trkpt lat="59.321079" lon="18.071397">
        <ele>11</ele>
        <time>2019-11-27T07:59:53Z</time>
      </trkpt>
      <trkpt lat="59.321071" lon="18.071328">
        <ele>11</ele>
        <time>2019-11-27T07:59:54Z</time>
      </trkpt>
      <trkpt lat="59.321063" lon="18.07126">
        <ele>11</ele>
        <time>2019-11-27T07:59:55Z</time>
      </trkpt>
      <trkpt lat="59.321056" lon="18.071192">
        <ele>11</ele>
        <time>2019-11-27T07:59:56Z</time>
      </trkpt>
      <trkpt lat="59.321044" lon="18.07113">
        <ele>12</ele>
        <time>2019-11-27T07:59:58Z</time>
      </trkpt>
      <trkpt lat="59.321024" lon="18.071078">
        <ele>12</ele>
        <time>2019-11-27T07:59:58Z</time>
      </trkpt>
      <trkpt lat="59.320997" lon="18.071037">
        <ele>12</ele>
        <time>2019-11-27T08:00:00Z</time>
      </trkpt>
      <trkpt lat="59.320964" lon="18.071006">
        <ele>12</ele>
        <time>2019-11-27T08:00:00Z</time>
      </trkpt>
      <trkpt lat="59.320929" lon="18.070978">
        <ele>12</ele>
        <time>2019-11-27T08:00:01Z</time>
      </trkpt>
      <trkpt lat="59.320894" lon="18.070952">
        <ele>12</ele>
        <time>2019-11-27T08:00:02Z</time>
      </trkpt>
      <trkpt lat="59.320859" lon="18.070926">
        <ele>13</ele>
        <time>2019-11-27T08:00:03Z</time>
      </trkpt>
      <trkpt lat="59.320824" lon="18.0709">
        <ele>13</ele>
        <time>2019-11-27T08:00:04Z</time>
      </trkpt>
      <trkpt lat="59.320788" lon="18.070876">
        <ele>13</ele>
        <time>2019-11-27T08:00:05Z</time>
      </trkpt>
      <trkpt lat="59.320752" lon="18.070852">
        <ele>13</ele>
        <time>2019-11-27T08:00:06Z</time>
      </trkpt>
      <trkpt lat="59.320716" lon="18.07083">
        <ele>13</ele>
        <time>2019-11-27T08:00:07Z</time>
      </trkpt>
      <trkpt lat="59.320681" lon="18.070818">
        <ele>13</ele>
        <time>2019-11-27T08:00:08Z</time>
      </trkpt>
      <trkpt lat="59.320647" lon="18.070808">
        <ele>13</ele>
        <time>2019-11-27T08:00:09Z</time>
      </trkpt>
      <trkpt lat="59.320614" lon="18.070798">
        <ele>14</ele>
        <time>2019-11-27T08:00:10Z</time>
      </trkpt>
      <trkpt lat="59.320584" lon="18.070774">
        <ele>14</ele>
        <time>2019-11-27T08:00:11Z</time>
      </trkpt>
      <trkpt lat="59.320564" lon="18.070728">
        <ele>14</ele>
        <time>2019-11-27T08:00:12Z</time>
      </trkpt>
      <trkpt lat="59.32055" lon="18.070672">
        <ele>14</ele>
        <time>2019-11-27T08:00:14Z</time>
      </trkpt>
      <trkpt lat="59.320537" lon="18.07061">
        <ele>14</ele>
        <time>2019-11-27T08:00:14Z</time>
      </trkpt>
      <trkpt lat="59.320525" lon="18.070542">
        <ele>14</ele>
        <time>2019-11-27T08:00:15Z</time>
      </trkpt>
      <trkpt lat="59.320513" lon="18.07047">
        <ele>14</ele>
        <time>2019-11-27T08:00:16Z</time>
      </trkpt>
      <trkpt lat="59.320498" lon="18.070402">
        <ele>14</ele>
        <time>2019-11-27T08:00:17Z</time>
      </trkpt>
      <trkpt lat="59.320481" lon="18.070342">
        <ele>14</ele>
        <time>2019-11-27T08:00:18Z</time>
      </trkpt>
      <trkpt lat="59.320457" lon="18.070296">
        <ele>14</ele>
        <time>2019-11-27T08:00:19Z</time>
      </trkpt>
      <trkpt lat="59.320427" lon="18.07027">
        <ele>14</ele>
        <time>2019-11-27T08:00:20Z</time>
      </trkpt>
      <trkpt lat="59.320394" lon="18.07026">
        <ele>14</ele>
        <time>2019-11-27T08:00:21Z</time>
      </trkpt>
      <trkpt lat="59.320361" lon="18.07026">
        <ele>15</ele>
        <time>2019-11-27T08:00:22Z</time>
      </trkpt>
      <trkpt lat="59.320326" lon="18.070268">
        <ele>15</ele>
        <time>2019-11-27T08:00:23Z</time>
      </trkpt>
      <trkpt lat="59.320292" lon="18.070276">
        <ele>15</ele>
        <time>2019-11-27T08:00:24Z</time>
      </trkpt>
      <trkpt lat="59.320258" lon="18.070286">
        <ele>15</ele>
        <time>2019-11-27T08:00:25Z</time>
      </trkpt>
      <trkpt lat="59.320227" lon="18.070296">
        <ele>15</ele>
        <time>2019-11-27T08:00:26Z</time>
      </trkpt>
      <trkpt lat="59.320198" lon="18.070304">
        <ele>15</ele>
        <time>2019-11-27T08:00:27Z</time>
      </trkpt>
      <trkpt lat="59.320172" lon="18.070312">
        <ele>15</ele>
        <time>2019-11-27T08:00:29Z</time>
      </trkpt>
      <trkpt lat="59.32015" lon="18.070318">
        <ele>15</ele>
        <time>2019-11-27T08:00:29Z</time>
      </trkpt>
      <trkpt lat="59.320128" lon="18.070328">
        <ele>15</ele>
        <time>2019-11-27T08:00:30Z</time>
      </trkpt>
      <trkpt lat="59.320097" lon="18.07034">
        <ele>15</ele>
        <time>2019-11-27T08:00:32Z</time>
      </trkpt>
      <trkpt lat="59.320078" lon="18.07035">
        <ele>15</ele>
        <time>2019-11-27T08:00:34Z</time>
      </trkpt>
      <trkpt lat="59.32006" lon="18.070354">
        <ele>16</ele>
        <time>2019-11-27T08:00:38Z</time>
      </trkpt>
      <trkpt lat="59.320041" lon="18.070364">
        <ele>16</ele>
        <time>2019-11-27T08:00:42Z</time>
      </trkpt>
      <trkpt lat="59.320045" lon="18.070364">
        <ele>0</ele>
        <time>2019-11-27T08:00:46Z</time>
      </trkpt>
      <trkpt lat="59.32" lon="18.070374">
        <ele>17</ele>
        <time>2019-11-27T08:01:14Z</time>
      </trkpt>
      <trkpt lat="59.319975" lon="18.070388">
        <ele>17</ele>
        <time>2019-11-27T08:01:14Z</time>
      </trkpt>
      <trkpt lat="59.319947" lon="18.0704">
        <ele>17</ele>
        <time>2019-11-27T08:01:15Z</time>
      </trkpt>
      <trkpt lat="59.319915" lon="18.070412">
        <ele>17</ele>
        <time>2019-11-27T08:01:16Z</time>
      </trkpt>
      <trkpt lat="59.319881" lon="18.070426">
        <ele>18</ele>
        <time>2019-11-27T08:01:17Z</time>
      </trkpt>
      <trkpt lat="59.319846" lon="18.070446">
        <ele>18</ele>
        <time>2019-11-27T08:01:18Z</time>
      </trkpt>
      <trkpt lat="59.319807" lon="18.07047">
        <ele>18</ele>
        <time>2019-11-27T08:01:19Z</time>
      </trkpt>
      <trkpt lat="59.31977" lon="18.0705">
        <ele>18</ele>
        <time>2019-11-27T08:01:20Z</time>
      </trkpt>
      <trkpt lat="59.319729" lon="18.07053">
        <ele>18</ele>
        <time>2019-11-27T08:01:21Z</time>
      </trkpt>
      <trkpt lat="59.319684" lon="18.070552">
        <ele>18</ele>
        <time>2019-11-27T08:01:22Z</time>
      </trkpt>
      <trkpt lat="59.319638" lon="18.070578">
        <ele>18</ele>
        <time>2019-11-27T08:01:24Z</time>
      </trkpt>
      <trkpt lat="59.319594" lon="18.070606">
        <ele>18</ele>
        <time>2019-11-27T08:01:24Z</time>
      </trkpt>
      <trkpt lat="59.31955" lon="18.070632">
        <ele>18</ele>
        <time>2019-11-27T08:01:25Z</time>
      </trkpt>
      <trkpt lat="59.319505" lon="18.07066">
        <ele>18</ele>
        <time>2019-11-27T08:01:26Z</time>
      </trkpt>
      <trkpt lat="59.319463" lon="18.070684">
        <ele>18</ele>
        <time>2019-11-27T08:01:27Z</time>
      </trkpt>
      <trkpt lat="59.319416" lon="18.070694">
        <ele>18</ele>
        <time>2019-11-27T08:01:28Z</time>
      </trkpt>
      <trkpt lat="59.319379" lon="18.070708">
        <ele>19</ele>
        <time>2019-11-27T08:01:29Z</time>
      </trkpt>
      <trkpt lat="59.319346" lon="18.070724">
        <ele>19</ele>
        <time>2019-11-27T08:01:30Z</time>
      </trkpt>
      <trkpt lat="59.319309" lon="18.070738">
        <ele>19</ele>
        <time>2019-11-27T08:01:31Z</time>
      </trkpt>
      <trkpt lat="59.31927" lon="18.070754">
        <ele>19</ele>
        <time>2019-11-27T08:01:33Z</time>
      </trkpt>
      <trkpt lat="59.319227" lon="18.070776">
        <ele>20</ele>
        <time>2019-11-27T08:01:33Z</time>
      </trkpt>
      <trkpt lat="59.319193" lon="18.070792">
        <ele>20</ele>
        <time>2019-11-27T08:01:34Z</time>
      </trkpt>
      <trkpt lat="59.319098" lon="18.070854">
        <ele>21</ele>
        <time>2019-11-27T08:01:37Z</time>
      </trkpt>
      <trkpt lat="59.319073" lon="18.070878">
        <ele>21</ele>
        <time>2019-11-27T08:01:38Z</time>
      </trkpt>
      <trkpt lat="59.319056" lon="18.070894">
        <ele>21</ele>
        <time>2019-11-27T08:01:39Z</time>
      </trkpt>
      <trkpt lat="59.318967" lon="18.070968">
        <ele>23</ele>
        <time>2019-11-27T08:01:44Z</time>
      </trkpt>
      <trkpt lat="59.318852" lon="18.070974">
        <ele>23</ele>
        <time>2019-11-27T08:01:48Z</time>
      </trkpt>
      <trkpt lat="59.31882" lon="18.070978">
        <ele>23</ele>
        <time>2019-11-27T08:01:49Z</time>
      </trkpt>
      <trkpt lat="59.318792" lon="18.070978">
        <ele>23</ele>
        <time>2019-11-27T08:01:50Z</time>
      </trkpt>
      <trkpt lat="59.318769" lon="18.070992">
        <ele>23</ele>
        <time>2019-11-27T08:01:52Z</time>
      </trkpt>
      <trkpt lat="59.318741" lon="18.071004">
        <ele>23</ele>
        <time>2019-11-27T08:01:52Z</time>
      </trkpt>
      <trkpt lat="59.318718" lon="18.071012">
        <ele>23</ele>
        <time>2019-11-27T08:01:53Z</time>
      </trkpt>
      <trkpt lat="59.31869" lon="18.07102">
        <ele>23</ele>
        <time>2019-11-27T08:01:54Z</time>
      </trkpt>
      <trkpt lat="59.318663" lon="18.071034">
        <ele>23</ele>
        <time>2019-11-27T08:01:55Z</time>
      </trkpt>
      <trkpt lat="59.318565" lon="18.071098">
        <ele>24</ele>
        <time>2019-11-27T08:02:00Z</time>
      </trkpt>
      <trkpt lat="59.318469" lon="18.071126">
        <ele>24</ele>
        <time>2019-11-27T08:02:04Z</time>
      </trkpt>
      <trkpt lat="59.318381" lon="18.071178">
        <ele>25</ele>
        <time>2019-11-27T08:02:07Z</time>
      </trkpt>
      <trkpt lat="59.318292" lon="18.071278">
        <ele>26</ele>
        <time>2019-11-27T08:02:09Z</time>
      </trkpt>
      <trkpt lat="59.318194" lon="18.07126">
        <ele>26</ele>
        <time>2019-11-27T08:02:12Z</time>
      </trkpt>
      <trkpt lat="59.318161" lon="18.071272">
        <ele>27</ele>
        <time>2019-11-27T08:02:12Z</time>
      </trkpt>
      <trkpt lat="59.318133" lon="18.071294">
        <ele>27</ele>
        <time>2019-11-27T08:02:13Z</time>
      </trkpt>
      <trkpt lat="59.318103" lon="18.071318">
        <ele>27</ele>
        <time>2019-11-27T08:02:14Z</time>
      </trkpt>
      <trkpt lat="59.318073" lon="18.07135">
        <ele>27</ele>
        <time>2019-11-27T08:02:15Z</time>
      </trkpt>
      <trkpt lat="59.318049" lon="18.07137">
        <ele>27</ele>
        <time>2019-11-27T08:02:16Z</time>
      </trkpt>
      <trkpt lat="59.318024" lon="18.071394">
        <ele>27</ele>
        <time>2019-11-27T08:02:17Z</time>
      </trkpt>
      <trkpt lat="59.317926" lon="18.071442">
        <ele>27</ele>
        <time>2019-11-27T08:02:20Z</time>
      </trkpt>
      <trkpt lat="59.317836" lon="18.071478">
        <ele>27</ele>
        <time>2019-11-27T08:02:22Z</time>
      </trkpt>
      <trkpt lat="59.317737" lon="18.071522">
        <ele>27</ele>
        <time>2019-11-27T08:02:24Z</time>
      </trkpt>
      <trkpt lat="59.317624" lon="18.071576">
        <ele>27</ele>
        <time>2019-11-27T08:02:27Z</time>
      </trkpt>
      <trkpt lat="59.317536" lon="18.071634">
        <ele>27</ele>
        <time>2019-11-27T08:02:30Z</time>
      </trkpt>
      <trkpt lat="59.317486" lon="18.071632">
        <ele>27</ele>
        <time>2019-11-27T08:02:30Z</time>
      </trkpt>
      <trkpt lat="59.317439" lon="18.071638">
        <ele>28</ele>
        <time>2019-11-27T08:02:31Z</time>
      </trkpt>
      <trkpt lat="59.317393" lon="18.07165">
        <ele>28</ele>
        <time>2019-11-27T08:02:32Z</time>
      </trkpt>
      <trkpt lat="59.317343" lon="18.071668">
        <ele>28</ele>
        <time>2019-11-27T08:02:33Z</time>
      </trkpt>
      <trkpt lat="59.317243" lon="18.071726">
        <ele>28</ele>
        <time>2019-11-27T08:02:36Z</time>
      </trkpt>
      <trkpt lat="59.317196" lon="18.071766">
        <ele>28</ele>
        <time>2019-11-27T08:02:36Z</time>
      </trkpt>
      <trkpt lat="59.317144" lon="18.071812">
        <ele>28</ele>
        <time>2019-11-27T08:02:37Z</time>
      </trkpt>
      <trkpt lat="59.317095" lon="18.071854">
        <ele>28</ele>
        <time>2019-11-27T08:02:38Z</time>
      </trkpt>
      <trkpt lat="59.317006" lon="18.071904">
        <ele>28</ele>
        <time>2019-11-27T08:02:40Z</time>
      </trkpt>
      <trkpt lat="59.316881" lon="18.071972">
        <ele>28</ele>
        <time>2019-11-27T08:02:43Z</time>
      </trkpt>
      <trkpt lat="59.316784" lon="18.072002">
        <ele>28</ele>
        <time>2019-11-27T08:02:45Z</time>
      </trkpt>
      <trkpt lat="59.316743" lon="18.072006">
        <ele>28</ele>
        <time>2019-11-27T08:02:46Z</time>
      </trkpt>
      <trkpt lat="59.316623" lon="18.072064">
        <ele>29</ele>
        <time>2019-11-27T08:02:49Z</time>
      </trkpt>
      <trkpt lat="59.316532" lon="18.072114">
        <ele>29</ele>
        <time>2019-11-27T08:02:51Z</time>
      </trkpt>
      <trkpt lat="59.316428" lon="18.072196">
        <ele>29</ele>
        <time>2019-11-27T08:02:53Z</time>
      </trkpt>
      <trkpt lat="59.31632" lon="18.072273">
        <ele>29</ele>
        <time>2019-11-27T08:02:55Z</time>
      </trkpt>
      <trkpt lat="59.316212" lon="18.072366">
        <ele>29</ele>
        <time>2019-11-27T08:02:57Z</time>
      </trkpt>
      <trkpt lat="59.316109" lon="18.072422">
        <ele>30</ele>
        <time>2019-11-27T08:02:59Z</time>
      </trkpt>
      <trkpt lat="59.316067" lon="18.072434">
        <ele>30</ele>
        <time>2019-11-27T08:03:00Z</time>
      </trkpt>
      <trkpt lat="59.316035" lon="18.072442">
        <ele>30</ele>
        <time>2019-11-27T08:03:01Z</time>
      </trkpt>
      <trkpt lat="59.316013" lon="18.072454">
        <ele>31</ele>
        <time>2019-11-27T08:03:02Z</time>
      </trkpt>
      <trkpt lat="59.315989" lon="18.072459">
        <ele>31</ele>
        <time>2019-11-27T08:03:03Z</time>
      </trkpt>
      <trkpt lat="59.315941" lon="18.072481">
        <ele>32</ele>
        <time>2019-11-27T08:03:05Z</time>
      </trkpt>
      <trkpt lat="59.315944" lon="18.072482">
        <ele>0</ele>
        <time>2019-11-27T08:03:11Z</time>
      </trkpt>
      <trkpt lat="59.315887" lon="18.072541">
        <ele>33</ele>
        <time>2019-11-27T08:03:37Z</time>
      </trkpt>
      <trkpt lat="59.315845" lon="18.072556">
        <ele>34</ele>
        <time>2019-11-27T08:03:37Z</time>
      </trkpt>
      <trkpt lat="59.315795" lon="18.072577">
        <ele>34</ele>
        <time>2019-11-27T08:03:38Z</time>
      </trkpt>
      <trkpt lat="59.315753" lon="18.072605">
        <ele>34</ele>
        <time>2019-11-27T08:03:39Z</time>
      </trkpt>
      <trkpt lat="59.315708" lon="18.072631">
        <ele>34</ele>
        <time>2019-11-27T08:03:41Z</time>
      </trkpt>
      <trkpt lat="59.315657" lon="18.072654">
        <ele>34</ele>
        <time>2019-11-27T08:03:41Z</time>
      </trkpt>
      <trkpt lat="59.315608" lon="18.072673">
        <ele>34</ele>
        <time>2019-11-27T08:03:42Z</time>
      </trkpt>
      <trkpt lat="59.315559" lon="18.072684">
        <ele>33</ele>
        <time>2019-11-27T08:03:43Z</time>
      </trkpt>
      <trkpt lat="59.315514" lon="18.072689">
        <ele>33</ele>
        <time>2019-11-27T08:03:44Z</time>
      </trkpt>
      <trkpt lat="59.315481" lon="18.072695">
        <ele>32</ele>
        <time>2019-11-27T08:03:45Z</time>
      </trkpt>
      <trkpt lat="59.315455" lon="18.0727">
        <ele>32</ele>
        <time>2019-11-27T08:03:46Z</time>
      </trkpt>
      <trkpt lat="59.315428" lon="18.072706">
        <ele>32</ele>
        <time>2019-11-27T08:03:47Z</time>
      </trkpt>
      <trkpt lat="59.315396" lon="18.072719">
        <ele>32</ele>
        <time>2019-11-27T08:03:48Z</time>
      </trkpt>
      <trkpt lat="59.315361" lon="18.072733">
        <ele>32</ele>
        <time>2019-11-27T08:03:49Z</time>
      </trkpt>
      <trkpt lat="59.31532" lon="18.07275">
        <ele>32</ele>
        <time>2019-11-27T08:03:50Z</time>
      </trkpt>
      <trkpt lat="59.315273" lon="18.07277">
        <ele>31</ele>
        <time>2019-11-27T08:03:51Z</time>
      </trkpt>
      <trkpt lat="59.315223" lon="18.072793">
        <ele>31</ele>
        <time>2019-11-27T08:03:53Z</time>
      </trkpt>
      <trkpt lat="59.31517" lon="18.072819">
        <ele>31</ele>
        <time>2019-11-27T08:03:53Z</time>
      </trkpt>
      <trkpt lat="59.315118" lon="18.072844">
        <ele>31</ele>
        <time>2019-11-27T08:03:54Z</time>
      </trkpt>
      <trkpt lat="59.315066" lon="18.07287">
        <ele>31</ele>
        <time>2019-11-27T08:03:56Z</time>
      </trkpt>
      <trkpt lat="59.315016" lon="18.072897">
        <ele>31</ele>
        <time>2019-11-27T08:03:56Z</time>
      </trkpt>
      <trkpt lat="59.314967" lon="18.072925">
        <ele>31</ele>
        <time>2019-11-27T08:03:57Z</time>
      </trkpt>
      <trkpt lat="59.314919" lon="18.072956">
        <ele>31</ele>
        <time>2019-11-27T08:03:58Z</time>
      </trkpt>
      <trkpt lat="59.314874" lon="18.07299">
        <ele>31</ele>
        <time>2019-11-27T08:03:59Z</time>
      </trkpt>
      <trkpt lat="59.314831" lon="18.073025">
        <ele>31</ele>
        <time>2019-11-27T08:04:00Z</time>
      </trkpt>
      <trkpt lat="59.314791" lon="18.073056">
        <ele>31</ele>
        <time>2019-11-27T08:04:01Z</time>
      </trkpt>
      <trkpt lat="59.314754" lon="18.07308">
        <ele>31</ele>
        <time>2019-11-27T08:04:03Z</time>
      </trkpt>
      <trkpt lat="59.314717" lon="18.073093">
        <ele>31</ele>
        <time>2019-11-27T08:04:03Z</time>
      </trkpt>
      <trkpt lat="59.314679" lon="18.073108">
        <ele>31</ele>
        <time>2019-11-27T08:04:04Z</time>
      </trkpt>
      <trkpt lat="59.314644" lon="18.073124">
        <ele>31</ele>
        <time>2019-11-27T08:04:05Z</time>
      </trkpt>
      <trkpt lat="59.314612" lon="18.073143">
        <ele>31</ele>
        <time>2019-11-27T08:04:06Z</time>
      </trkpt>
      <trkpt lat="59.314582" lon="18.073164">
        <ele>31</ele>
        <time>2019-11-27T08:04:07Z</time>
      </trkpt>
      <trkpt lat="59.314553" lon="18.073189">
        <ele>30</ele>
        <time>2019-11-27T08:04:08Z</time>
      </trkpt>
      <trkpt lat="59.314526" lon="18.073214">
        <ele>31</ele>
        <time>2019-11-27T08:04:09Z</time>
      </trkpt>
      <trkpt lat="59.314501" lon="18.073237">
        <ele>30</ele>
        <time>2019-11-27T08:04:10Z</time>
      </trkpt>
      <trkpt lat="59.314479" lon="18.073262">
        <ele>31</ele>
        <time>2019-11-27T08:04:11Z</time>
      </trkpt>
      <trkpt lat="59.314461" lon="18.073282">
        <ele>31</ele>
        <time>2019-11-27T08:04:12Z</time>
      </trkpt>
      <trkpt lat="59.314435" lon="18.073306">
        <ele>31</ele>
        <time>2019-11-27T08:04:15Z</time>
      </trkpt>
      <trkpt lat="59.314423" lon="18.073333">
        <ele>31</ele>
        <time>2019-11-27T08:04:17Z</time>
      </trkpt>
      <trkpt lat="59.314424" lon="18.073345">
        <ele>0</ele>
        <time>2019-11-27T08:04:21Z</time>
      </trkpt>
      <trkpt lat="59.314412" lon="18.073405">
        <ele>32</ele>
        <time>2019-11-27T08:04:59Z</time>
      </trkpt>
      <trkpt lat="59.314395" lon="18.073432">
        <ele>32</ele>
        <time>2019-11-27T08:05:00Z</time>
      </trkpt>
      <trkpt lat="59.314369" lon="18.073421">
        <ele>34</ele>
        <time>2019-11-27T08:05:02Z</time>
      </trkpt>
      <trkpt lat="59.314351" lon="18.073386">
        <ele>34</ele>
        <time>2019-11-27T08:05:03Z</time>
      </trkpt>
      <trkpt lat="59.314332" lon="18.073357">
        <ele>34</ele>
        <time>2019-11-27T08:05:04Z</time>
      </trkpt>
      <trkpt lat="59.314313" lon="18.073357">
        <ele>34</ele>
        <time>2019-11-27T08:05:06Z</time>
      </trkpt>
      <trkpt lat="59.31426" lon="18.073399">
        <ele>34</ele>
        <time>2019-11-27T08:05:06Z</time>
      </trkpt>
      <trkpt lat="59.314212" lon="18.073436">
        <ele>35</ele>
        <time>2019-11-27T08:05:07Z</time>
      </trkpt>
      <trkpt lat="59.314153" lon="18.07347">
        <ele>35</ele>
        <time>2019-11-27T08:05:08Z</time>
      </trkpt>
      <trkpt lat="59.314093" lon="18.073504">
        <ele>35</ele>
        <time>2019-11-27T08:05:09Z</time>
      </trkpt>
      <trkpt lat="59.314039" lon="18.073539">
        <ele>36</ele>
        <time>2019-11-27T08:05:10Z</time>
      </trkpt>
      <trkpt lat="59.313991" lon="18.073573">
        <ele>36</ele>
        <time>2019-11-27T08:05:11Z</time>
      </trkpt>
      <trkpt lat="59.313943" lon="18.073604">
        <ele>37</ele>
        <time>2019-11-27T08:05:12Z</time>
      </trkpt>
      <trkpt lat="59.313905" lon="18.073637">
        <ele>37</ele>
        <time>2019-11-27T08:05:13Z</time>
      </trkpt>
      <trkpt lat="59.31386" lon="18.073667">
        <ele>38</ele>
        <time>2019-11-27T08:05:14Z</time>
      </trkpt>
      <trkpt lat="59.313823" lon="18.0737">
        <ele>38</ele>
        <time>2019-11-27T08:05:15Z</time>
      </trkpt>
      <trkpt lat="59.313684" lon="18.073767">
        <ele>39</ele>
        <time>2019-11-27T08:05:18Z</time>
      </trkpt>
      <trkpt lat="59.313564" lon="18.073796">
        <ele>39</ele>
        <time>2019-11-27T08:05:20Z</time>
      </trkpt>
      <trkpt lat="59.313461" lon="18.073836">
        <ele>40</ele>
        <time>2019-11-27T08:05:22Z</time>
      </trkpt>
      <trkpt lat="59.313354" lon="18.073892">
        <ele>42</ele>
        <time>2019-11-27T08:05:25Z</time>
      </trkpt>
      <trkpt lat="59.313326" lon="18.073906">
        <ele>42</ele>
        <time>2019-11-27T08:05:26Z</time>
      </trkpt>
      <trkpt lat="59.313299" lon="18.073919">
        <ele>43</ele>
        <time>2019-11-27T08:05:28Z</time>
      </trkpt>
      <trkpt lat="59.313269" lon="18.073931">
        <ele>43</ele>
        <time>2019-11-27T08:05:28Z</time>
      </trkpt>
      <trkpt lat="59.313234" lon="18.07394">
        <ele>43</ele>
        <time>2019-11-27T08:05:29Z</time>
      </trkpt>
      <trkpt lat="59.313203" lon="18.073951">
        <ele>44</ele>
        <time>2019-11-27T08:05:30Z</time>
      </trkpt>
      <trkpt lat="59.313171" lon="18.073951">
        <ele>44</ele>
        <time>2019-11-27T08:05:31Z</time>
      </trkpt>
      <trkpt lat="59.31315" lon="18.073963">
        <ele>45</ele>
        <time>2019-11-27T08:05:32Z</time>
      </trkpt>
      <trkpt lat="59.313119" lon="18.073971">
        <ele>45</ele>
        <time>2019-11-27T08:05:33Z</time>
      </trkpt>
      <trkpt lat="59.313078" lon="18.07401">
        <ele>48</ele>
        <time>2019-11-27T08:05:37Z</time>
      </trkpt>
      <trkpt lat="59.313058" lon="18.074017">
        <ele>49</ele>
        <time>2019-11-27T08:05:38Z</time>
      </trkpt>
      <trkpt lat="59.313046" lon="18.074015">
        <ele>0</ele>
        <time>2019-11-27T08:05:45Z</time>
      </trkpt>
      <trkpt lat="59.313017" lon="18.073993">
        <ele>49</ele>
        <time>2019-11-27T08:05:53Z</time>
      </trkpt>
      <trkpt lat="59.312993" lon="18.073975">
        <ele>48</ele>
        <time>2019-11-27T08:05:53Z</time>
      </trkpt>
      <trkpt lat="59.312967" lon="18.073967">
        <ele>48</ele>
        <time>2019-11-27T08:05:54Z</time>
      </trkpt>
      <trkpt lat="59.312935" lon="18.073956">
        <ele>48</ele>
        <time>2019-11-27T08:05:55Z</time>
      </trkpt>
      <trkpt lat="59.312909" lon="18.07395">
        <ele>48</ele>
        <time>2019-11-27T08:05:56Z</time>
      </trkpt>
      <trkpt lat="59.312865" lon="18.073954">
        <ele>48</ele>
        <time>2019-11-27T08:05:57Z</time>
      </trkpt>
      <trkpt lat="59.312815" lon="18.073971">
        <ele>48</ele>
        <time>2019-11-27T08:05:58Z</time>
      </trkpt>
      <trkpt lat="59.31276" lon="18.073995">
        <ele>48</ele>
        <time>2019-11-27T08:06:00Z</time>
      </trkpt>
      <trkpt lat="59.312702" lon="18.074023">
        <ele>49</ele>
        <time>2019-11-27T08:06:00Z</time>
      </trkpt>
      <trkpt lat="59.312644" lon="18.074051">
        <ele>49</ele>
        <time>2019-11-27T08:06:01Z</time>
      </trkpt>
      <trkpt lat="59.312584" lon="18.074083">
        <ele>49</ele>
        <time>2019-11-27T08:06:02Z</time>
      </trkpt>
      <trkpt lat="59.312524" lon="18.074115">
        <ele>49</ele>
        <time>2019-11-27T08:06:03Z</time>
      </trkpt>
      <trkpt lat="59.312467" lon="18.074147">
        <ele>49</ele>
        <time>2019-11-27T08:06:04Z</time>
      </trkpt>
      <trkpt lat="59.312409" lon="18.074181">
        <ele>49</ele>
        <time>2019-11-27T08:06:05Z</time>
      </trkpt>
      <trkpt lat="59.312347" lon="18.074215">
        <ele>49</ele>
        <time>2019-11-27T08:06:06Z</time>
      </trkpt>
      <trkpt lat="59.312288" lon="18.074246">
        <ele>49</ele>
        <time>2019-11-27T08:06:08Z</time>
      </trkpt>
      <trkpt lat="59.312229" lon="18.074276">
        <ele>49</ele>
        <time>2019-11-27T08:06:08Z</time>
      </trkpt>
      <trkpt lat="59.312169" lon="18.074306">
        <ele>50</ele>
        <time>2019-11-27T08:06:09Z</time>
      </trkpt>
      <trkpt lat="59.312107" lon="18.074338">
        <ele>50</ele>
        <time>2019-11-27T08:06:10Z</time>
      </trkpt>
      <trkpt lat="59.312048" lon="18.074369">
        <ele>50</ele>
        <time>2019-11-27T08:06:12Z</time>
      </trkpt>
      <trkpt lat="59.311988" lon="18.0744">
        <ele>51</ele>
        <time>2019-11-27T08:06:12Z</time>
      </trkpt>
      <trkpt lat="59.311929" lon="18.074433">
        <ele>51</ele>
        <time>2019-11-27T08:06:13Z</time>
      </trkpt>
      <trkpt lat="59.311871" lon="18.074468">
        <ele>51</ele>
        <time>2019-11-27T08:06:14Z</time>
      </trkpt>
      <trkpt lat="59.311812" lon="18.074507">
        <ele>51</ele>
        <time>2019-11-27T08:06:16Z</time>
      </trkpt>
      <trkpt lat="59.311746" lon="18.074536">
        <ele>50</ele>
        <time>2019-11-27T08:06:16Z</time>
      </trkpt>
      <trkpt lat="59.311676" lon="18.074558">
        <ele>49</ele>
        <time>2019-11-27T08:06:17Z</time>
      </trkpt>
      <trkpt lat="59.31161" lon="18.074576">
        <ele>49</ele>
        <time>2019-11-27T08:06:18Z</time>
      </trkpt>
      <trkpt lat="59.311546" lon="18.074604">
        <ele>49</ele>
        <time>2019-11-27T08:06:19Z</time>
      </trkpt>
      <trkpt lat="59.311484" lon="18.074637">
        <ele>49</ele>
        <time>2019-11-27T08:06:20Z</time>
      </trkpt>
      <trkpt lat="59.311422" lon="18.074668">
        <ele>49</ele>
        <time>2019-11-27T08:06:21Z</time>
      </trkpt>
      <trkpt lat="59.311362" lon="18.074699">
        <ele>49</ele>
        <time>2019-11-27T08:06:22Z</time>
      </trkpt>
      <trkpt lat="59.311302" lon="18.07473">
        <ele>49</ele>
        <time>2019-11-27T08:06:24Z</time>
      </trkpt>
      <trkpt lat="59.311247" lon="18.074758">
        <ele>49</ele>
        <time>2019-11-27T08:06:24Z</time>
      </trkpt>
      <trkpt lat="59.311192" lon="18.074787">
        <ele>49</ele>
        <time>2019-11-27T08:06:25Z</time>
      </trkpt>
      <trkpt lat="59.311139" lon="18.074816">
        <ele>50</ele>
        <time>2019-11-27T08:06:26Z</time>
      </trkpt>
      <trkpt lat="59.31109" lon="18.074843">
        <ele>50</ele>
        <time>2019-11-27T08:06:27Z</time>
      </trkpt>
      <trkpt lat="59.311044" lon="18.074868">
        <ele>50</ele>
        <time>2019-11-27T08:06:28Z</time>
      </trkpt>
      <trkpt lat="59.311001" lon="18.074893">
        <ele>50</ele>
        <time>2019-11-27T08:06:29Z</time>
      </trkpt>
      <trkpt lat="59.310964" lon="18.074914">
        <ele>50</ele>
        <time>2019-11-27T08:06:31Z</time>
      </trkpt>
      <trkpt lat="59.310934" lon="18.074931">
        <ele>50</ele>
        <time>2019-11-27T08:06:31Z</time>
      </trkpt>
      <trkpt lat="59.31091" lon="18.074945">
        <ele>51</ele>
        <time>2019-11-27T08:06:32Z</time>
      </trkpt>
      <trkpt lat="59.31089" lon="18.074958">
        <ele>51</ele>
        <time>2019-11-27T08:06:33Z</time>
      </trkpt>
      <trkpt lat="59.31086" lon="18.074976">
        <ele>51</ele>
        <time>2019-11-27T08:06:35Z</time>
      </trkpt>
      <trkpt lat="59.310835" lon="18.074991">
        <ele>52</ele>
        <time>2019-11-27T08:06:37Z</time>
      </trkpt>
      <trkpt lat="59.310817" lon="18.074998">
        <ele>52</ele>
        <time>2019-11-27T08:06:39Z</time>
      </trkpt>
      <trkpt lat="59.310797" lon="18.075009">
        <ele>52</ele>
        <time>2019-11-27T08:06:41Z</time>
      </trkpt>
      <trkpt lat="59.310776" lon="18.07502">
        <ele>53</ele>
        <time>2019-11-27T08:06:44Z</time>
      </trkpt>
      <trkpt lat="59.310753" lon="18.075037">
        <ele>53</ele>
        <time>2019-11-27T08:06:46Z</time>
      </trkpt>
      <trkpt lat="59.310719" lon="18.075042">
        <ele>53</ele>
        <time>2019-11-27T08:06:48Z</time>
      </trkpt>
      <trkpt lat="59.310701" lon="18.075039">
        <ele>52</ele>
        <time>2019-11-27T08:06:50Z</time>
      </trkpt>
      <trkpt lat="59.31068" lon="18.075036">
        <ele>52</ele>
        <time>2019-11-27T08:06:50Z</time>
      </trkpt>
      <trkpt lat="59.310657" lon="18.075043">
        <ele>52</ele>
        <time>2019-11-27T08:06:51Z</time>
      </trkpt>
      <trkpt lat="59.310628" lon="18.075058">
        <ele>52</ele>
        <time>2019-11-27T08:06:52Z</time>
      </trkpt>
      <trkpt lat="59.310592" lon="18.075076">
        <ele>51</ele>
        <time>2019-11-27T08:06:53Z</time>
      </trkpt>
      <trkpt lat="59.31055" lon="18.075098">
        <ele>51</ele>
        <time>2019-11-27T08:06:54Z</time>
      </trkpt>
      <trkpt lat="59.310498" lon="18.075125">
        <ele>51</ele>
        <time>2019-11-27T08:06:55Z</time>
      </trkpt>
      <trkpt lat="59.310431" lon="18.075162">
        <ele>51</ele>
        <time>2019-11-27T08:06:56Z</time>
      </trkpt>
      <trkpt lat="59.310364" lon="18.0752">
        <ele>51</ele>
        <time>2019-11-27T08:06:58Z</time>
      </trkpt>
      <trkpt lat="59.310297" lon="18.075237">
        <ele>51</ele>
        <time>2019-11-27T08:06:59Z</time>
      </trkpt>
      <trkpt lat="59.310229" lon="18.075272">
        <ele>51</ele>
        <time>2019-11-27T08:06:59Z</time>
      </trkpt>
      <trkpt lat="59.310164" lon="18.075308">
        <ele>51</ele>
        <time>2019-11-27T08:07:00Z</time>
      </trkpt>
      <trkpt lat="59.310098" lon="18.075333">
        <ele>50</ele>
        <time>2019-11-27T08:07:01Z</time>
      </trkpt>
      <trkpt lat="59.310035" lon="18.075362">
        <ele>50</ele>
        <time>2019-11-27T08:07:02Z</time>
      </trkpt>
      <trkpt lat="59.309973" lon="18.075396">
        <ele>50</ele>
        <time>2019-11-27T08:07:03Z</time>
      </trkpt>
      <trkpt lat="59.309912" lon="18.07543">
        <ele>50</ele>
        <time>2019-11-27T08:07:05Z</time>
      </trkpt>
      <trkpt lat="59.30985" lon="18.075463">
        <ele>50</ele>
        <time>2019-11-27T08:07:05Z</time>
      </trkpt>
      <trkpt lat="59.309787" lon="18.075498">
        <ele>50</ele>
        <time>2019-11-27T08:07:06Z</time>
      </trkpt>
      <trkpt lat="59.309723" lon="18.075532">
        <ele>50</ele>
        <time>2019-11-27T08:07:07Z</time>
      </trkpt>
      <trkpt lat="59.309659" lon="18.075566">
        <ele>50</ele>
        <time>2019-11-27T08:07:09Z</time>
      </trkpt>
      <trkpt lat="59.309593" lon="18.075599">
        <ele>50</ele>
        <time>2019-11-27T08:07:09Z</time>
      </trkpt>
      <trkpt lat="59.309528" lon="18.075631">
        <ele>50</ele>
        <time>2019-11-27T08:07:10Z</time>
      </trkpt>
      <trkpt lat="59.309463" lon="18.075664">
        <ele>50</ele>
        <time>2019-11-27T08:07:11Z</time>
      </trkpt>
      <trkpt lat="59.309395" lon="18.075696">
        <ele>50</ele>
        <time>2019-11-27T08:07:13Z</time>
      </trkpt>
      <trkpt lat="59.309329" lon="18.075731">
        <ele>50</ele>
        <time>2019-11-27T08:07:13Z</time>
      </trkpt>
      <trkpt lat="59.309268" lon="18.075766">
        <ele>50</ele>
        <time>2019-11-27T08:07:14Z</time>
      </trkpt>
      <trkpt lat="59.309207" lon="18.075802">
        <ele>51</ele>
        <time>2019-11-27T08:07:15Z</time>
      </trkpt>
      <trkpt lat="59.309144" lon="18.075836">
        <ele>51</ele>
        <time>2019-11-27T08:07:16Z</time>
      </trkpt>
      <trkpt lat="59.309083" lon="18.075866">
        <ele>51</ele>
        <time>2019-11-27T08:07:17Z</time>
      </trkpt>
      <trkpt lat="59.309019" lon="18.075899">
        <ele>51</ele>
        <time>2019-11-27T08:07:18Z</time>
      </trkpt>
      <trkpt lat="59.308955" lon="18.075935">
        <ele>51</ele>
        <time>2019-11-27T08:07:19Z</time>
      </trkpt>
      <trkpt lat="59.308893" lon="18.075969">
        <ele>51</ele>
        <time>2019-11-27T08:07:21Z</time>
      </trkpt>
      <trkpt lat="59.308831" lon="18.076001">
        <ele>51</ele>
        <time>2019-11-27T08:07:21Z</time>
      </trkpt>
      <trkpt lat="59.308769" lon="18.07603">
        <ele>51</ele>
        <time>2019-11-27T08:07:22Z</time>
      </trkpt>
      <trkpt lat="59.308704" lon="18.076056">
        <ele>51</ele>
        <time>2019-11-27T08:07:23Z</time>
      </trkpt>
      <trkpt lat="59.308642" lon="18.076076">
        <ele>51</ele>
        <time>2019-11-27T08:07:24Z</time>
      </trkpt>
      <trkpt lat="59.30858" lon="18.076102">
        <ele>51</ele>
        <time>2019-11-27T08:07:25Z</time>
      </trkpt>
      <trkpt lat="59.308522" lon="18.076134">
        <ele>52</ele>
        <time>2019-11-27T08:07:26Z</time>
      </trkpt>
      <trkpt lat="59.308469" lon="18.076172">
        <ele>52</ele>
        <time>2019-11-27T08:07:28Z</time>
      </trkpt>
      <trkpt lat="59.30842" lon="18.076213">
        <ele>52</ele>
        <time>2019-11-27T08:07:29Z</time>
      </trkpt>
      <trkpt lat="59.308372" lon="18.076251">
        <ele>52</ele>
        <time>2019-11-27T08:07:29Z</time>
      </trkpt>
      <trkpt lat="59.308325" lon="18.076282">
        <ele>53</ele>
        <time>2019-11-27T08:07:30Z</time>
      </trkpt>
      <trkpt lat="59.308282" lon="18.076309">
        <ele>53</ele>
        <time>2019-11-27T08:07:31Z</time>
      </trkpt>
      <trkpt lat="59.308242" lon="18.07633">
        <ele>54</ele>
        <time>2019-11-27T08:07:32Z</time>
      </trkpt>
      <trkpt lat="59.308205" lon="18.07635">
        <ele>54</ele>
        <time>2019-11-27T08:07:33Z</time>
      </trkpt>
      <trkpt lat="59.308169" lon="18.076366">
        <ele>54</ele>
        <time>2019-11-27T08:07:34Z</time>
      </trkpt>
      <trkpt lat="59.308134" lon="18.076385">
        <ele>54</ele>
        <time>2019-11-27T08:07:35Z</time>
      </trkpt>
      <trkpt lat="59.308105" lon="18.076399">
        <ele>55</ele>
        <time>2019-11-27T08:07:36Z</time>
      </trkpt>
      <trkpt lat="59.308079" lon="18.076417">
        <ele>55</ele>
        <time>2019-11-27T08:07:37Z</time>
      </trkpt>
      <trkpt lat="59.308055" lon="18.076431">
        <ele>55</ele>
        <time>2019-11-27T08:07:38Z</time>
      </trkpt>
      <trkpt lat="59.308036" lon="18.076437">
        <ele>54</ele>
        <time>2019-11-27T08:07:39Z</time>
      </trkpt>
      <trkpt lat="59.308032" lon="18.076427">
        <ele>0</ele>
        <time>2019-11-27T08:07:45Z</time>
      </trkpt>
      <trkpt lat="59.307983" lon="18.076413">
        <ele>48</ele>
        <time>2019-11-27T08:08:11Z</time>
      </trkpt>
      <trkpt lat="59.307961" lon="18.076427">
        <ele>47</ele>
        <time>2019-11-27T08:08:11Z</time>
      </trkpt>
      <trkpt lat="59.307933" lon="18.076438">
        <ele>46</ele>
        <time>2019-11-27T08:08:12Z</time>
      </trkpt>
      <trkpt lat="59.307905" lon="18.076444">
        <ele>45</ele>
        <time>2019-11-27T08:08:13Z</time>
      </trkpt>
      <trkpt lat="59.307876" lon="18.076452">
        <ele>43</ele>
        <time>2019-11-27T08:08:15Z</time>
      </trkpt>
      <trkpt lat="59.307841" lon="18.076463">
        <ele>43</ele>
        <time>2019-11-27T08:08:15Z</time>
      </trkpt>
      <trkpt lat="59.307803" lon="18.076478">
        <ele>43</ele>
        <time>2019-11-27T08:08:16Z</time>
      </trkpt>
      <trkpt lat="59.307737" lon="18.076516">
        <ele>44</ele>
        <time>2019-11-27T08:08:17Z</time>
      </trkpt>
      <trkpt lat="59.307665" lon="18.076559">
        <ele>44</ele>
        <time>2019-11-27T08:08:18Z</time>
      </trkpt>
      <trkpt lat="59.307599" lon="18.076591">
        <ele>44</ele>
        <time>2019-11-27T08:08:19Z</time>
      </trkpt>
      <trkpt lat="59.307532" lon="18.076625">
        <ele>44</ele>
        <time>2019-11-27T08:08:20Z</time>
      </trkpt>
      <trkpt lat="59.307465" lon="18.07666">
        <ele>43</ele>
        <time>2019-11-27T08:08:21Z</time>
      </trkpt>
      <trkpt lat="59.307397" lon="18.076695">
        <ele>43</ele>
        <time>2019-11-27T08:08:23Z</time>
      </trkpt>
      <trkpt lat="59.307331" lon="18.076727">
        <ele>43</ele>
        <time>2019-11-27T08:08:23Z</time>
      </trkpt>
      <trkpt lat="59.307264" lon="18.076763">
        <ele>43</ele>
        <time>2019-11-27T08:08:24Z</time>
      </trkpt>
      <trkpt lat="59.307195" lon="18.076799">
        <ele>43</ele>
        <time>2019-11-27T08:08:25Z</time>
      </trkpt>
      <trkpt lat="59.307127" lon="18.076834">
        <ele>43</ele>
        <time>2019-11-27T08:08:26Z</time>
      </trkpt>
      <trkpt lat="59.307061" lon="18.07687">
        <ele>43</ele>
        <time>2019-11-27T08:08:27Z</time>
      </trkpt>
      <trkpt lat="59.306995" lon="18.076905">
        <ele>43</ele>
        <time>2019-11-27T08:08:28Z</time>
      </trkpt>
      <trkpt lat="59.306929" lon="18.076939">
        <ele>43</ele>
        <time>2019-11-27T08:08:30Z</time>
      </trkpt>
      <trkpt lat="59.306862" lon="18.076974">
        <ele>43</ele>
        <time>2019-11-27T08:08:30Z</time>
      </trkpt>
      <trkpt lat="59.306793" lon="18.077011">
        <ele>43</ele>
        <time>2019-11-27T08:08:31Z</time>
      </trkpt>
      <trkpt lat="59.306722" lon="18.077048">
        <ele>43</ele>
        <time>2019-11-27T08:08:32Z</time>
      </trkpt>
      <trkpt lat="59.306653" lon="18.077087">
        <ele>43</ele>
        <time>2019-11-27T08:08:33Z</time>
      </trkpt>
      <trkpt lat="59.306587" lon="18.077122">
        <ele>42</ele>
        <time>2019-11-27T08:08:34Z</time>
      </trkpt>
      <trkpt lat="59.306519" lon="18.077157">
        <ele>42</ele>
        <time>2019-11-27T08:08:35Z</time>
      </trkpt>
      <trkpt lat="59.306449" lon="18.077195">
        <ele>41</ele>
        <time>2019-11-27T08:08:37Z</time>
      </trkpt>
      <trkpt lat="59.306376" lon="18.077237">
        <ele>40</ele>
        <time>2019-11-27T08:08:37Z</time>
      </trkpt>
      <trkpt lat="59.306304" lon="18.077278">
        <ele>39</ele>
        <time>2019-11-27T08:08:38Z</time>
      </trkpt>
      <trkpt lat="59.306238" lon="18.077315">
        <ele>39</ele>
        <time>2019-11-27T08:08:39Z</time>
      </trkpt>
      <trkpt lat="59.306171" lon="18.077351">
        <ele>38</ele>
        <time>2019-11-27T08:08:40Z</time>
      </trkpt>
      <trkpt lat="59.306105" lon="18.077386">
        <ele>37</ele>
        <time>2019-11-27T08:08:41Z</time>
      </trkpt>
      <trkpt lat="59.306043" lon="18.077422">
        <ele>36</ele>
        <time>2019-11-27T08:08:42Z</time>
      </trkpt>
      <trkpt lat="59.305976" lon="18.077462">
        <ele>36</ele>
        <time>2019-11-27T08:08:44Z</time>
      </trkpt>
      <trkpt lat="59.305912" lon="18.077501">
        <ele>35</ele>
        <time>2019-11-27T08:08:44Z</time>
      </trkpt>
      <trkpt lat="59.305852" lon="18.077536">
        <ele>34</ele>
        <time>2019-11-27T08:08:45Z</time>
      </trkpt>
      <trkpt lat="59.305796" lon="18.077569">
        <ele>33</ele>
        <time>2019-11-27T08:08:46Z</time>
      </trkpt>
      <trkpt lat="59.305741" lon="18.077598">
        <ele>33</ele>
        <time>2019-11-27T08:08:47Z</time>
      </trkpt>
      <trkpt lat="59.305687" lon="18.077629">
        <ele>33</ele>
        <time>2019-11-27T08:08:49Z</time>
      </trkpt>
      <trkpt lat="59.305635" lon="18.07766">
        <ele>32</ele>
        <time>2019-11-27T08:08:49Z</time>
      </trkpt>
      <trkpt lat="59.305583" lon="18.077691">
        <ele>32</ele>
        <time>2019-11-27T08:08:50Z</time>
      </trkpt>
      <trkpt lat="59.305533" lon="18.077722">
        <ele>32</ele>
        <time>2019-11-27T08:08:51Z</time>
      </trkpt>
      <trkpt lat="59.305482" lon="18.077751">
        <ele>32</ele>
        <time>2019-11-27T08:08:53Z</time>
      </trkpt>
      <trkpt lat="59.305434" lon="18.077779">
        <ele>32</ele>
        <time>2019-11-27T08:08:53Z</time>
      </trkpt>
      <trkpt lat="59.305384" lon="18.077807">
        <ele>32</ele>
        <time>2019-11-27T08:08:54Z</time>
      </trkpt>
      <trkpt lat="59.305336" lon="18.077837">
        <ele>31</ele>
        <time>2019-11-27T08:08:55Z</time>
      </trkpt>
      <trkpt lat="59.30529" lon="18.077867">
        <ele>31</ele>
        <time>2019-11-27T08:08:56Z</time>
      </trkpt>
      <trkpt lat="59.305243" lon="18.077896">
        <ele>31</ele>
        <time>2019-11-27T08:08:57Z</time>
      </trkpt>
      <trkpt lat="59.305198" lon="18.077926">
        <ele>31</ele>
        <time>2019-11-27T08:08:58Z</time>
      </trkpt>
      <trkpt lat="59.305152" lon="18.077955">
        <ele>31</ele>
        <time>2019-11-27T08:08:59Z</time>
      </trkpt>
      <trkpt lat="59.305106" lon="18.077983">
        <ele>31</ele>
        <time>2019-11-27T08:09:00Z</time>
      </trkpt>
      <trkpt lat="59.305062" lon="18.078011">
        <ele>31</ele>
        <time>2019-11-27T08:09:01Z</time>
      </trkpt>
      <trkpt lat="59.305019" lon="18.078037">
        <ele>31</ele>
        <time>2019-11-27T08:09:02Z</time>
      </trkpt>
      <trkpt lat="59.304977" lon="18.078062">
        <ele>31</ele>
        <time>2019-11-27T08:09:04Z</time>
      </trkpt>
      <trkpt lat="59.304934" lon="18.078086">
        <ele>31</ele>
        <time>2019-11-27T08:09:04Z</time>
      </trkpt>
      <trkpt lat="59.304892" lon="18.078111">
        <ele>31</ele>
        <time>2019-11-27T08:09:05Z</time>
      </trkpt>
      <trkpt lat="59.304852" lon="18.078137">
        <ele>31</ele>
        <time>2019-11-27T08:09:06Z</time>
      </trkpt>
      <trkpt lat="59.304811" lon="18.078162">
        <ele>31</ele>
        <time>2019-11-27T08:09:08Z</time>
      </trkpt>
      <trkpt lat="59.304771" lon="18.078186">
        <ele>31</ele>
        <time>2019-11-27T08:09:08Z</time>
      </trkpt>
      <trkpt lat="59.304731" lon="18.078211">
        <ele>31</ele>
        <time>2019-11-27T08:09:09Z</time>
      </trkpt>
      <trkpt lat="59.304691" lon="18.078235">
        <ele>31</ele>
        <time>2019-11-27T08:09:10Z</time>
      </trkpt>
      <trkpt lat="59.30465" lon="18.078259">
        <ele>31</ele>
        <time>2019-11-27T08:09:11Z</time>
      </trkpt>
      <trkpt lat="59.304609" lon="18.078284">
        <ele>31</ele>
        <time>2019-11-27T08:09:12Z</time>
      </trkpt>
      <trkpt lat="59.304568" lon="18.078309">
        <ele>31</ele>
        <time>2019-11-27T08:09:13Z</time>
      </trkpt>
      <trkpt lat="59.304527" lon="18.078334">
        <ele>31</ele>
        <time>2019-11-27T08:09:14Z</time>
      </trkpt>
      <trkpt lat="59.304486" lon="18.078358">
        <ele>31</ele>
        <time>2019-11-27T08:09:16Z</time>
      </trkpt>
      <trkpt lat="59.304446" lon="18.078382">
        <ele>31</ele>
        <time>2019-11-27T08:09:16Z</time>
      </trkpt>
      <trkpt lat="59.304405" lon="18.078407">
        <ele>31</ele>
        <time>2019-11-27T08:09:17Z</time>
      </trkpt>
      <trkpt lat="59.304365" lon="18.078432">
        <ele>32</ele>
        <time>2019-11-27T08:09:18Z</time>
      </trkpt>
      <trkpt lat="59.304325" lon="18.078458">
        <ele>32</ele>
        <time>2019-11-27T08:09:19Z</time>
      </trkpt>
      <trkpt lat="59.304286" lon="18.078482">
        <ele>32</ele>
        <time>2019-11-27T08:09:20Z</time>
      </trkpt>
      <trkpt lat="59.304247" lon="18.078506">
        <ele>32</ele>
        <time>2019-11-27T08:09:21Z</time>
      </trkpt>
      <trkpt lat="59.304206" lon="18.078531">
        <ele>32</ele>
        <time>2019-11-27T08:09:22Z</time>
      </trkpt>
      <trkpt lat="59.304167" lon="18.078556">
        <ele>32</ele>
        <time>2019-11-27T08:09:23Z</time>
      </trkpt>
      <trkpt lat="59.304128" lon="18.078585">
        <ele>32</ele>
        <time>2019-11-27T08:09:24Z</time>
      </trkpt>
      <trkpt lat="59.30409" lon="18.078616">
        <ele>32</ele>
        <time>2019-11-27T08:09:25Z</time>
      </trkpt>
      <trkpt lat="59.304052" lon="18.078647">
        <ele>32</ele>
        <time>2019-11-27T08:09:27Z</time>
      </trkpt>
      <trkpt lat="59.304013" lon="18.078676">
        <ele>32</ele>
        <time>2019-11-27T08:09:27Z</time>
      </trkpt>
      <trkpt lat="59.303973" lon="18.078704">
        <ele>32</ele>
        <time>2019-11-27T08:09:28Z</time>
      </trkpt>
      <trkpt lat="59.303933" lon="18.078728">
        <ele>32</ele>
        <time>2019-11-27T08:09:29Z</time>
      </trkpt>
      <trkpt lat="59.303893" lon="18.078751">
        <ele>33</ele>
        <time>2019-11-27T08:09:30Z</time>
      </trkpt>
      <trkpt lat="59.303852" lon="18.078773">
        <ele>33</ele>
        <time>2019-11-27T08:09:31Z</time>
      </trkpt>
      <trkpt lat="59.303811" lon="18.078794">
        <ele>33</ele>
        <time>2019-11-27T08:09:32Z</time>
      </trkpt>
      <trkpt lat="59.303769" lon="18.078815">
        <ele>33</ele>
        <time>2019-11-27T08:09:33Z</time>
      </trkpt>
      <trkpt lat="59.303729" lon="18.078837">
        <ele>33</ele>
        <time>2019-11-27T08:09:34Z</time>
      </trkpt>
      <trkpt lat="59.303689" lon="18.078862">
        <ele>33</ele>
        <time>2019-11-27T08:09:35Z</time>
      </trkpt>
      <trkpt lat="59.303649" lon="18.078887">
        <ele>33</ele>
        <time>2019-11-27T08:09:36Z</time>
      </trkpt>
      <trkpt lat="59.303609" lon="18.078912">
        <ele>34</ele>
        <time>2019-11-27T08:09:37Z</time>
      </trkpt>
      <trkpt lat="59.30357" lon="18.078936">
        <ele>34</ele>
        <time>2019-11-27T08:09:39Z</time>
      </trkpt>
      <trkpt lat="59.30353" lon="18.07896">
        <ele>34</ele>
        <time>2019-11-27T08:09:39Z</time>
      </trkpt>
      <trkpt lat="59.30349" lon="18.078985">
        <ele>34</ele>
        <time>2019-11-27T08:09:40Z</time>
      </trkpt>
      <trkpt lat="59.30345" lon="18.07901">
        <ele>34</ele>
        <time>2019-11-27T08:09:41Z</time>
      </trkpt>
      <trkpt lat="59.30341" lon="18.079035">
        <ele>34</ele>
        <time>2019-11-27T08:09:42Z</time>
      </trkpt>
      <trkpt lat="59.303369" lon="18.079061">
        <ele>34</ele>
        <time>2019-11-27T08:09:43Z</time>
      </trkpt>
      <trkpt lat="59.303327" lon="18.079085">
        <ele>34</ele>
        <time>2019-11-27T08:09:44Z</time>
      </trkpt>
      <trkpt lat="59.303286" lon="18.079111">
        <ele>34</ele>
        <time>2019-11-27T08:09:46Z</time>
      </trkpt>
      <trkpt lat="59.303244" lon="18.079136">
        <ele>34</ele>
        <time>2019-11-27T08:09:46Z</time>
      </trkpt>
      <trkpt lat="59.303202" lon="18.079162">
        <ele>34</ele>
        <time>2019-11-27T08:09:47Z</time>
      </trkpt>
      <trkpt lat="59.303159" lon="18.079189">
        <ele>35</ele>
        <time>2019-11-27T08:09:48Z</time>
      </trkpt>
      <trkpt lat="59.303116" lon="18.079215">
        <ele>35</ele>
        <time>2019-11-27T08:09:49Z</time>
      </trkpt>
      <trkpt lat="59.303072" lon="18.07924">
        <ele>35</ele>
        <time>2019-11-27T08:09:51Z</time>
      </trkpt>
      <trkpt lat="59.303029" lon="18.079266">
        <ele>35</ele>
        <time>2019-11-27T08:09:51Z</time>
      </trkpt>
      <trkpt lat="59.302985" lon="18.079293">
        <ele>35</ele>
        <time>2019-11-27T08:09:52Z</time>
      </trkpt>
      <trkpt lat="59.302941" lon="18.079322">
        <ele>35</ele>
        <time>2019-11-27T08:09:53Z</time>
      </trkpt>
      <trkpt lat="59.302897" lon="18.079351">
        <ele>35</ele>
        <time>2019-11-27T08:09:54Z</time>
      </trkpt>
      <trkpt lat="59.302852" lon="18.079381">
        <ele>35</ele>
        <time>2019-11-27T08:09:55Z</time>
      </trkpt>
      <trkpt lat="59.302806" lon="18.07941">
        <ele>35</ele>
        <time>2019-11-27T08:09:56Z</time>
      </trkpt>
      <trkpt lat="59.30276" lon="18.07944">
        <ele>35</ele>
        <time>2019-11-27T08:09:57Z</time>
      </trkpt>
      <trkpt lat="59.302714" lon="18.079468">
        <ele>35</ele>
        <time>2019-11-27T08:09:58Z</time>
      </trkpt>
      <trkpt lat="59.302668" lon="18.079497">
        <ele>35</ele>
        <time>2019-11-27T08:09:59Z</time>
      </trkpt>
      <trkpt lat="59.302625" lon="18.079525">
        <ele>35</ele>
        <time>2019-11-27T08:10:01Z</time>
      </trkpt>
      <trkpt lat="59.302578" lon="18.079554">
        <ele>35</ele>
        <time>2019-11-27T08:10:01Z</time>
      </trkpt>
      <trkpt lat="59.30253" lon="18.079583">
        <ele>35</ele>
        <time>2019-11-27T08:10:02Z</time>
      </trkpt>
      <trkpt lat="59.302483" lon="18.079612">
        <ele>35</ele>
        <time>2019-11-27T08:10:03Z</time>
      </trkpt>
      <trkpt lat="59.302435" lon="18.079643">
        <ele>35</ele>
        <time>2019-11-27T08:10:05Z</time>
      </trkpt>
      <trkpt lat="59.302387" lon="18.079673">
        <ele>35</ele>
        <time>2019-11-27T08:10:05Z</time>
      </trkpt>
      <trkpt lat="59.302339" lon="18.079703">
        <ele>35</ele>
        <time>2019-11-27T08:10:06Z</time>
      </trkpt>
      <trkpt lat="59.30229" lon="18.079736">
        <ele>35</ele>
        <time>2019-11-27T08:10:07Z</time>
      </trkpt>
      <trkpt lat="59.302239" lon="18.079769">
        <ele>35</ele>
        <time>2019-11-27T08:10:08Z</time>
      </trkpt>
      <trkpt lat="59.302188" lon="18.079801">
        <ele>35</ele>
        <time>2019-11-27T08:10:09Z</time>
      </trkpt>
      <trkpt lat="59.302137" lon="18.079832">
        <ele>35</ele>
        <time>2019-11-27T08:10:11Z</time>
      </trkpt>
      <trkpt lat="59.302086" lon="18.079863">
        <ele>35</ele>
        <time>2019-11-27T08:10:11Z</time>
      </trkpt>
      <trkpt lat="59.302035" lon="18.079894">
        <ele>35</ele>
        <time>2019-11-27T08:10:12Z</time>
      </trkpt>
      <trkpt lat="59.301984" lon="18.079926">
        <ele>35</ele>
        <time>2019-11-27T08:10:13Z</time>
      </trkpt>
      <trkpt lat="59.301932" lon="18.079957">
        <ele>35</ele>
        <time>2019-11-27T08:10:14Z</time>
      </trkpt>
      <trkpt lat="59.301881" lon="18.079988">
        <ele>35</ele>
        <time>2019-11-27T08:10:15Z</time>
      </trkpt>
      <trkpt lat="59.301829" lon="18.080019">
        <ele>35</ele>
        <time>2019-11-27T08:10:16Z</time>
      </trkpt>
      <trkpt lat="59.301776" lon="18.080049">
        <ele>35</ele>
        <time>2019-11-27T08:10:17Z</time>
      </trkpt>
      <trkpt lat="59.301723" lon="18.080078">
        <ele>36</ele>
        <time>2019-11-27T08:10:18Z</time>
      </trkpt>
      <trkpt lat="59.301672" lon="18.080106">
        <ele>36</ele>
        <time>2019-11-27T08:10:20Z</time>
      </trkpt>
      <trkpt lat="59.301621" lon="18.080137">
        <ele>36</ele>
        <time>2019-11-27T08:10:20Z</time>
      </trkpt>
      <trkpt lat="59.301572" lon="18.080168">
        <ele>35</ele>
        <time>2019-11-27T08:10:21Z</time>
      </trkpt>
      <trkpt lat="59.301524" lon="18.080198">
        <ele>35</ele>
        <time>2019-11-27T08:10:22Z</time>
      </trkpt>
      <trkpt lat="59.301477" lon="18.080225">
        <ele>35</ele>
        <time>2019-11-27T08:10:24Z</time>
      </trkpt>
      <trkpt lat="59.301429" lon="18.080251">
        <ele>35</ele>
        <time>2019-11-27T08:10:24Z</time>
      </trkpt>
      <trkpt lat="59.301383" lon="18.080272">
        <ele>35</ele>
        <time>2019-11-27T08:10:25Z</time>
      </trkpt>
      <trkpt lat="59.301336" lon="18.080289">
        <ele>35</ele>
        <time>2019-11-27T08:10:26Z</time>
      </trkpt>
      <trkpt lat="59.301286" lon="18.080297">
        <ele>35</ele>
        <time>2019-11-27T08:10:27Z</time>
      </trkpt>
      <trkpt lat="59.301235" lon="18.080308">
        <ele>35</ele>
        <time>2019-11-27T08:10:28Z</time>
      </trkpt>
      <trkpt lat="59.301183" lon="18.080311">
        <ele>35</ele>
        <time>2019-11-27T08:10:30Z</time>
      </trkpt>
      <trkpt lat="59.301123" lon="18.080312">
        <ele>35</ele>
        <time>2019-11-27T08:10:30Z</time>
      </trkpt>
      <trkpt lat="59.301064" lon="18.080321">
        <ele>35</ele>
        <time>2019-11-27T08:10:31Z</time>
      </trkpt>
      <trkpt lat="59.301007" lon="18.080334">
        <ele>35</ele>
        <time>2019-11-27T08:10:32Z</time>
      </trkpt>
      <trkpt lat="59.300953" lon="18.080349">
        <ele>35</ele>
        <time>2019-11-27T08:10:33Z</time>
      </trkpt>
      <trkpt lat="59.3009" lon="18.080366">
        <ele>35</ele>
        <time>2019-11-27T08:10:34Z</time>
      </trkpt>
      <trkpt lat="59.300847" lon="18.080382">
        <ele>35</ele>
        <time>2019-11-27T08:10:35Z</time>
      </trkpt>
      <trkpt lat="59.300794" lon="18.080402">
        <ele>35</ele>
        <time>2019-11-27T08:10:36Z</time>
      </trkpt>
      <trkpt lat="59.300741" lon="18.080427">
        <ele>35</ele>
        <time>2019-11-27T08:10:37Z</time>
      </trkpt>
      <trkpt lat="59.300687" lon="18.080456">
        <ele>36</ele>
        <time>2019-11-27T08:10:39Z</time>
      </trkpt>
      <trkpt lat="59.300635" lon="18.080491">
        <ele>36</ele>
        <time>2019-11-27T08:10:39Z</time>
      </trkpt>
      <trkpt lat="59.300583" lon="18.080523">
        <ele>36</ele>
        <time>2019-11-27T08:10:40Z</time>
      </trkpt>
      <trkpt lat="59.30053" lon="18.080554">
        <ele>36</ele>
        <time>2019-11-27T08:10:41Z</time>
      </trkpt>
      <trkpt lat="59.300477" lon="18.080586">
        <ele>37</ele>
        <time>2019-11-27T08:10:43Z</time>
      </trkpt>
      <trkpt lat="59.300422" lon="18.080617">
        <ele>37</ele>
        <time>2019-11-27T08:10:43Z</time>
      </trkpt>
      <trkpt lat="59.300368" lon="18.080652">
        <ele>37</ele>
        <time>2019-11-27T08:10:44Z</time>
      </trkpt>
      <trkpt lat="59.300314" lon="18.080686">
        <ele>37</ele>
        <time>2019-11-27T08:10:45Z</time>
      </trkpt>
      <trkpt lat="59.30026" lon="18.08072">
        <ele>37</ele>
        <time>2019-11-27T08:10:46Z</time>
      </trkpt>
      <trkpt lat="59.300206" lon="18.080753">
        <ele>37</ele>
        <time>2019-11-27T08:10:48Z</time>
      </trkpt>
      <trkpt lat="59.300151" lon="18.080788">
        <ele>37</ele>
        <time>2019-11-27T08:10:48Z</time>
      </trkpt>
      <trkpt lat="59.300096" lon="18.080823">
        <ele>37</ele>
        <time>2019-11-27T08:10:49Z</time>
      </trkpt>
      <trkpt lat="59.30004" lon="18.080857">
        <ele>38</ele>
        <time>2019-11-27T08:10:50Z</time>
      </trkpt>
      <trkpt lat="59.299985" lon="18.080887">
        <ele>38</ele>
        <time>2019-11-27T08:10:51Z</time>
      </trkpt>
      <trkpt lat="59.29993" lon="18.080914">
        <ele>38</ele>
        <time>2019-11-27T08:10:52Z</time>
      </trkpt>
      <trkpt lat="59.299876" lon="18.080943">
        <ele>38</ele>
        <time>2019-11-27T08:10:53Z</time>
      </trkpt>
      <trkpt lat="59.29982" lon="18.080972">
        <ele>38</ele>
        <time>2019-11-27T08:10:54Z</time>
      </trkpt>
      <trkpt lat="59.299763" lon="18.081005">
        <ele>38</ele>
        <time>2019-11-27T08:10:55Z</time>
      </trkpt>
      <trkpt lat="59.299709" lon="18.081041">
        <ele>38</ele>
        <time>2019-11-27T08:10:57Z</time>
      </trkpt>
      <trkpt lat="59.299655" lon="18.081077">
        <ele>39</ele>
        <time>2019-11-27T08:10:57Z</time>
      </trkpt>
      <trkpt lat="59.2996" lon="18.081114">
        <ele>39</ele>
        <time>2019-11-27T08:10:58Z</time>
      </trkpt>
      <trkpt lat="59.299547" lon="18.08115">
        <ele>39</ele>
        <time>2019-11-27T08:10:59Z</time>
      </trkpt>
      <trkpt lat="59.299492" lon="18.081182">
        <ele>39</ele>
        <time>2019-11-27T08:11:00Z</time>
      </trkpt>
      <trkpt lat="59.299439" lon="18.081216">
        <ele>39</ele>
        <time>2019-11-27T08:11:02Z</time>
      </trkpt>
      <trkpt lat="59.299388" lon="18.081249">
        <ele>39</ele>
        <time>2019-11-27T08:11:02Z</time>
      </trkpt>
      <trkpt lat="59.299337" lon="18.08128">
        <ele>39</ele>
        <time>2019-11-27T08:11:03Z</time>
      </trkpt>
      <trkpt lat="59.299286" lon="18.081311">
        <ele>38</ele>
        <time>2019-11-27T08:11:04Z</time>
      </trkpt>
      <trkpt lat="59.299235" lon="18.081344">
        <ele>38</ele>
        <time>2019-11-27T08:11:06Z</time>
      </trkpt>
      <trkpt lat="59.299187" lon="18.081376">
        <ele>38</ele>
        <time>2019-11-27T08:11:06Z</time>
      </trkpt>
      <trkpt lat="59.299141" lon="18.081412">
        <ele>38</ele>
        <time>2019-11-27T08:11:07Z</time>
      </trkpt>
      <trkpt lat="59.299099" lon="18.08146">
        <ele>39</ele>
        <time>2019-11-27T08:11:08Z</time>
      </trkpt>
      <trkpt lat="59.29902" lon="18.081545">
        <ele>39</ele>
        <time>2019-11-27T08:11:10Z</time>
      </trkpt>
      <trkpt lat="59.298889" lon="18.081672">
        <ele>39</ele>
        <time>2019-11-27T08:11:13Z</time>
      </trkpt>
      <trkpt lat="59.298781" lon="18.081771">
        <ele>39</ele>
        <time>2019-11-27T08:11:15Z</time>
      </trkpt>
      <trkpt lat="59.298669" lon="18.081883">
        <ele>39</ele>
        <time>2019-11-27T08:11:17Z</time>
      </trkpt>
      <trkpt lat="59.298563" lon="18.081995">
        <ele>40</ele>
        <time>2019-11-27T08:11:19Z</time>
      </trkpt>
      <trkpt lat="59.298464" lon="18.082108">
        <ele>40</ele>
        <time>2019-11-27T08:11:21Z</time>
      </trkpt>
      <trkpt lat="59.298369" lon="18.082164">
        <ele>41</ele>
        <time>2019-11-27T08:11:23Z</time>
      </trkpt>
      <trkpt lat="59.298324" lon="18.082185">
        <ele>42</ele>
        <time>2019-11-27T08:11:25Z</time>
      </trkpt>
      <trkpt lat="59.298277" lon="18.082215">
        <ele>42</ele>
        <time>2019-11-27T08:11:25Z</time>
      </trkpt>
      <trkpt lat="59.298226" lon="18.082251">
        <ele>42</ele>
        <time>2019-11-27T08:11:26Z</time>
      </trkpt>
      <trkpt lat="59.298175" lon="18.082277">
        <ele>42</ele>
        <time>2019-11-27T08:11:27Z</time>
      </trkpt>
      <trkpt lat="59.298122" lon="18.08231">
        <ele>42</ele>
        <time>2019-11-27T08:11:28Z</time>
      </trkpt>
      <trkpt lat="59.298072" lon="18.082346">
        <ele>42</ele>
        <time>2019-11-27T08:11:29Z</time>
      </trkpt>
      <trkpt lat="59.298023" lon="18.08238">
        <ele>42</ele>
        <time>2019-11-27T08:11:30Z</time>
      </trkpt>
      <trkpt lat="59.297978" lon="18.082407">
        <ele>42</ele>
        <time>2019-11-27T08:11:31Z</time>
      </trkpt>
      <trkpt lat="59.297929" lon="18.082434">
        <ele>43</ele>
        <time>2019-11-27T08:11:32Z</time>
      </trkpt>
      <trkpt lat="59.297881" lon="18.082459">
        <ele>43</ele>
        <time>2019-11-27T08:11:34Z</time>
      </trkpt>
      <trkpt lat="59.297835" lon="18.082485">
        <ele>43</ele>
        <time>2019-11-27T08:11:34Z</time>
      </trkpt>
      <trkpt lat="59.297787" lon="18.08251">
        <ele>43</ele>
        <time>2019-11-27T08:11:35Z</time>
      </trkpt>
      <trkpt lat="59.297741" lon="18.082535">
        <ele>42</ele>
        <time>2019-11-27T08:11:36Z</time>
      </trkpt>
      <trkpt lat="59.297695" lon="18.082559">
        <ele>42</ele>
        <time>2019-11-27T08:11:37Z</time>
      </trkpt>
      <trkpt lat="59.297648" lon="18.082584">
        <ele>42</ele>
        <time>2019-11-27T08:11:38Z</time>
      </trkpt>
      <trkpt lat="59.297602" lon="18.082607">
        <ele>42</ele>
        <time>2019-11-27T08:11:40Z</time>
      </trkpt>
      <trkpt lat="59.297556" lon="18.082631">
        <ele>42</ele>
        <time>2019-11-27T08:11:40Z</time>
      </trkpt>
      <trkpt lat="59.29751" lon="18.082655">
        <ele>41</ele>
        <time>2019-11-27T08:11:41Z</time>
      </trkpt>
      <trkpt lat="59.297464" lon="18.082681">
        <ele>41</ele>
        <time>2019-11-27T08:11:42Z</time>
      </trkpt>
      <trkpt lat="59.297418" lon="18.082706">
        <ele>41</ele>
        <time>2019-11-27T08:11:43Z</time>
      </trkpt>
      <trkpt lat="59.297372" lon="18.082728">
        <ele>41</ele>
        <time>2019-11-27T08:11:45Z</time>
      </trkpt>
      <trkpt lat="59.297327" lon="18.082745">
        <ele>41</ele>
        <time>2019-11-27T08:11:45Z</time>
      </trkpt>
      <trkpt lat="59.297281" lon="18.082761">
        <ele>42</ele>
        <time>2019-11-27T08:11:46Z</time>
      </trkpt>
      <trkpt lat="59.297233" lon="18.082774">
        <ele>42</ele>
        <time>2019-11-27T08:11:47Z</time>
      </trkpt>
      <trkpt lat="59.297186" lon="18.082782">
        <ele>42</ele>
        <time>2019-11-27T08:11:48Z</time>
      </trkpt>
      <trkpt lat="59.297141" lon="18.082794">
        <ele>42</ele>
        <time>2019-11-27T08:11:49Z</time>
      </trkpt>
      <trkpt lat="59.297094" lon="18.082814">
        <ele>42</ele>
        <time>2019-11-27T08:11:50Z</time>
      </trkpt>
      <trkpt lat="59.297051" lon="18.082834">
        <ele>42</ele>
        <time>2019-11-27T08:11:51Z</time>
      </trkpt>
      <trkpt lat="59.297009" lon="18.082851">
        <ele>42</ele>
        <time>2019-11-27T08:11:52Z</time>
      </trkpt>
      <trkpt lat="59.296966" lon="18.082869">
        <ele>42</ele>
        <time>2019-11-27T08:11:53Z</time>
      </trkpt>
      <trkpt lat="59.296921" lon="18.082895">
        <ele>43</ele>
        <time>2019-11-27T08:11:55Z</time>
      </trkpt>
      <trkpt lat="59.296879" lon="18.082932">
        <ele>43</ele>
        <time>2019-11-27T08:11:55Z</time>
      </trkpt>
      <trkpt lat="59.296841" lon="18.082974">
        <ele>43</ele>
        <time>2019-11-27T08:11:56Z</time>
      </trkpt>
      <trkpt lat="59.296804" lon="18.083014">
        <ele>43</ele>
        <time>2019-11-27T08:11:57Z</time>
      </trkpt>
      <trkpt lat="59.296768" lon="18.083051">
        <ele>43</ele>
        <time>2019-11-27T08:11:59Z</time>
      </trkpt>
      <trkpt lat="59.296732" lon="18.083088">
        <ele>43</ele>
        <time>2019-11-27T08:11:59Z</time>
      </trkpt>
      <trkpt lat="59.296694" lon="18.083125">
        <ele>43</ele>
        <time>2019-11-27T08:12:00Z</time>
      </trkpt>
      <trkpt lat="59.296655" lon="18.083166">
        <ele>44</ele>
        <time>2019-11-27T08:12:01Z</time>
      </trkpt>
      <trkpt lat="59.296617" lon="18.083208">
        <ele>44</ele>
        <time>2019-11-27T08:12:02Z</time>
      </trkpt>
      <trkpt lat="59.296578" lon="18.083246">
        <ele>44</ele>
        <time>2019-11-27T08:12:03Z</time>
      </trkpt>
      <trkpt lat="59.296537" lon="18.083284">
        <ele>44</ele>
        <time>2019-11-27T08:12:04Z</time>
      </trkpt>
      <trkpt lat="59.296494" lon="18.083318">
        <ele>45</ele>
        <time>2019-11-27T08:12:05Z</time>
      </trkpt>
      <trkpt lat="59.296451" lon="18.083348">
        <ele>45</ele>
        <time>2019-11-27T08:12:07Z</time>
      </trkpt>
      <trkpt lat="59.29641" lon="18.083374">
        <ele>45</ele>
        <time>2019-11-27T08:12:07Z</time>
      </trkpt>
      <trkpt lat="59.296368" lon="18.083398">
        <ele>45</ele>
        <time>2019-11-27T08:12:08Z</time>
      </trkpt>
      <trkpt lat="59.296326" lon="18.083422">
        <ele>45</ele>
        <time>2019-11-27T08:12:09Z</time>
      </trkpt>
      <trkpt lat="59.296283" lon="18.083448">
        <ele>45</ele>
        <time>2019-11-27T08:12:10Z</time>
      </trkpt>
      <trkpt lat="59.296239" lon="18.083472">
        <ele>45</ele>
        <time>2019-11-27T08:12:11Z</time>
      </trkpt>
      <trkpt lat="59.296194" lon="18.083496">
        <ele>45</ele>
        <time>2019-11-27T08:12:12Z</time>
      </trkpt>
      <trkpt lat="59.296149" lon="18.08352">
        <ele>45</ele>
        <time>2019-11-27T08:12:13Z</time>
      </trkpt>
      <trkpt lat="59.296105" lon="18.083546">
        <ele>45</ele>
        <time>2019-11-27T08:12:14Z</time>
      </trkpt>
      <trkpt lat="59.296061" lon="18.083574">
        <ele>45</ele>
        <time>2019-11-27T08:12:15Z</time>
      </trkpt>
      <trkpt lat="59.296015" lon="18.083602">
        <ele>45</ele>
        <time>2019-11-27T08:12:16Z</time>
      </trkpt>
      <trkpt lat="59.295969" lon="18.083628">
        <ele>45</ele>
        <time>2019-11-27T08:12:18Z</time>
      </trkpt>
      <trkpt lat="59.295923" lon="18.083658">
        <ele>45</ele>
        <time>2019-11-27T08:12:18Z</time>
      </trkpt>
      <trkpt lat="59.295877" lon="18.083688">
        <ele>45</ele>
        <time>2019-11-27T08:12:19Z</time>
      </trkpt>
      <trkpt lat="59.29583" lon="18.083718">
        <ele>45</ele>
        <time>2019-11-27T08:12:20Z</time>
      </trkpt>
      <trkpt lat="59.295783" lon="18.083748">
        <ele>45</ele>
        <time>2019-11-27T08:12:21Z</time>
      </trkpt>
      <trkpt lat="59.295736" lon="18.083778">
        <ele>45</ele>
        <time>2019-11-27T08:12:22Z</time>
      </trkpt>
      <trkpt lat="59.295686" lon="18.083808">
        <ele>45</ele>
        <time>2019-11-27T08:12:23Z</time>
      </trkpt>
      <trkpt lat="59.295633" lon="18.083842">
        <ele>45</ele>
        <time>2019-11-27T08:12:24Z</time>
      </trkpt>
      <trkpt lat="59.295578" lon="18.083876">
        <ele>44</ele>
        <time>2019-11-27T08:12:25Z</time>
      </trkpt>
      <trkpt lat="59.295526" lon="18.08391">
        <ele>44</ele>
        <time>2019-11-27T08:12:27Z</time>
      </trkpt>
      <trkpt lat="59.295471" lon="18.083944">
        <ele>44</ele>
        <time>2019-11-27T08:12:27Z</time>
      </trkpt>
      <trkpt lat="59.295413" lon="18.08398">
        <ele>44</ele>
        <time>2019-11-27T08:12:28Z</time>
      </trkpt>
      <trkpt lat="59.295354" lon="18.084014">
        <ele>44</ele>
        <time>2019-11-27T08:12:29Z</time>
      </trkpt>
      <trkpt lat="59.295295" lon="18.084048">
        <ele>44</ele>
        <time>2019-11-27T08:12:30Z</time>
      </trkpt>
      <trkpt lat="59.295237" lon="18.084084">
        <ele>44</ele>
        <time>2019-11-27T08:12:31Z</time>
      </trkpt>
      <trkpt lat="59.295177" lon="18.084118">
        <ele>44</ele>
        <time>2019-11-27T08:12:32Z</time>
      </trkpt>
      <trkpt lat="59.295117" lon="18.084156">
        <ele>44</ele>
        <time>2019-11-27T08:12:33Z</time>
      </trkpt>
      <trkpt lat="59.295058" lon="18.084192">
        <ele>44</ele>
        <time>2019-11-27T08:12:34Z</time>
      </trkpt>
      <trkpt lat="59.294999" lon="18.084226">
        <ele>45</ele>
        <time>2019-11-27T08:12:36Z</time>
      </trkpt>
      <trkpt lat="59.294938" lon="18.084264">
        <ele>45</ele>
        <time>2019-11-27T08:12:37Z</time>
      </trkpt>
      <trkpt lat="59.294876" lon="18.084302">
        <ele>45</ele>
        <time>2019-11-27T08:12:37Z</time>
      </trkpt>
      <trkpt lat="59.294815" lon="18.084336">
        <ele>45</ele>
        <time>2019-11-27T08:12:38Z</time>
      </trkpt>
      <trkpt lat="59.294754" lon="18.08437">
        <ele>45</ele>
        <time>2019-11-27T08:12:39Z</time>
      </trkpt>
      <trkpt lat="59.294689" lon="18.0844">
        <ele>45</ele>
        <time>2019-11-27T08:12:40Z</time>
      </trkpt>
      <trkpt lat="59.294624" lon="18.08443">
        <ele>45</ele>
        <time>2019-11-27T08:12:41Z</time>
      </trkpt>
      <trkpt lat="59.294559" lon="18.08446">
        <ele>46</ele>
        <time>2019-11-27T08:12:43Z</time>
      </trkpt>
      <trkpt lat="59.294496" lon="18.084492">
        <ele>46</ele>
        <time>2019-11-27T08:12:43Z</time>
      </trkpt>
      <trkpt lat="59.294436" lon="18.084522">
        <ele>46</ele>
        <time>2019-11-27T08:12:44Z</time>
      </trkpt>
      <trkpt lat="59.294375" lon="18.08455">
        <ele>46</ele>
        <time>2019-11-27T08:12:45Z</time>
      </trkpt>
      <trkpt lat="59.294316" lon="18.084578">
        <ele>46</ele>
        <time>2019-11-27T08:12:46Z</time>
      </trkpt>
      <trkpt lat="59.294261" lon="18.084604">
        <ele>46</ele>
        <time>2019-11-27T08:12:47Z</time>
      </trkpt>
      <trkpt lat="59.294208" lon="18.084656">
        <ele>46</ele>
        <time>2019-11-27T08:12:48Z</time>
      </trkpt>
      <trkpt lat="59.294141" lon="18.084702">
        <ele>46</ele>
        <time>2019-11-27T08:12:49Z</time>
      </trkpt>
      <trkpt lat="59.294067" lon="18.084748">
        <ele>46</ele>
        <time>2019-11-27T08:12:51Z</time>
      </trkpt>
      <trkpt lat="59.293994" lon="18.084786">
        <ele>47</ele>
        <time>2019-11-27T08:12:51Z</time>
      </trkpt>
      <trkpt lat="59.293924" lon="18.084822">
        <ele>47</ele>
        <time>2019-11-27T08:12:52Z</time>
      </trkpt>
      <trkpt lat="59.293852" lon="18.084856">
        <ele>47</ele>
        <time>2019-11-27T08:12:53Z</time>
      </trkpt>
      <trkpt lat="59.293783" lon="18.08489">
        <ele>48</ele>
        <time>2019-11-27T08:12:54Z</time>
      </trkpt>
      <trkpt lat="59.293714" lon="18.08492">
        <ele>48</ele>
        <time>2019-11-27T08:12:56Z</time>
      </trkpt>
      <trkpt lat="59.293645" lon="18.084952">
        <ele>49</ele>
        <time>2019-11-27T08:12:56Z</time>
      </trkpt>
      <trkpt lat="59.293577" lon="18.084978">
        <ele>49</ele>
        <time>2019-11-27T08:12:58Z</time>
      </trkpt>
      <trkpt lat="59.293512" lon="18.085002">
        <ele>50</ele>
        <time>2019-11-27T08:12:58Z</time>
      </trkpt>
      <trkpt lat="59.293446" lon="18.085028">
        <ele>50</ele>
        <time>2019-11-27T08:12:59Z</time>
      </trkpt>
      <trkpt lat="59.293377" lon="18.08505">
        <ele>50</ele>
        <time>2019-11-27T08:13:00Z</time>
      </trkpt>
      <trkpt lat="59.293308" lon="18.085072">
        <ele>50</ele>
        <time>2019-11-27T08:13:01Z</time>
      </trkpt>
      <trkpt lat="59.293239" lon="18.085092">
        <ele>50</ele>
        <time>2019-11-27T08:13:02Z</time>
      </trkpt>
      <trkpt lat="59.293177" lon="18.085108">
        <ele>51</ele>
        <time>2019-11-27T08:13:03Z</time>
      </trkpt>
      <trkpt lat="59.29312" lon="18.085126">
        <ele>51</ele>
        <time>2019-11-27T08:13:04Z</time>
      </trkpt>
      <trkpt lat="59.293068" lon="18.085144">
        <ele>51</ele>
        <time>2019-11-27T08:13:06Z</time>
      </trkpt>
      <trkpt lat="59.293019" lon="18.08516">
        <ele>51</ele>
        <time>2019-11-27T08:13:06Z</time>
      </trkpt>
      <trkpt lat="59.292971" lon="18.085178">
        <ele>52</ele>
        <time>2019-11-27T08:13:07Z</time>
      </trkpt>
      <trkpt lat="59.292926" lon="18.08519">
        <ele>52</ele>
        <time>2019-11-27T08:13:08Z</time>
      </trkpt>
      <trkpt lat="59.292883" lon="18.085196">
        <ele>52</ele>
        <time>2019-11-27T08:13:09Z</time>
      </trkpt>
      <trkpt lat="59.292835" lon="18.085186">
        <ele>53</ele>
        <time>2019-11-27T08:13:10Z</time>
      </trkpt>
      <trkpt lat="59.292789" lon="18.085162">
        <ele>53</ele>
        <time>2019-11-27T08:13:11Z</time>
      </trkpt>
      <trkpt lat="59.292747" lon="18.085126">
        <ele>53</ele>
        <time>2019-11-27T08:13:12Z</time>
      </trkpt>
      <trkpt lat="59.292707" lon="18.085082">
        <ele>53</ele>
        <time>2019-11-27T08:13:13Z</time>
      </trkpt>
      <trkpt lat="59.292664" lon="18.085044">
        <ele>53</ele>
        <time>2019-11-27T08:13:15Z</time>
      </trkpt>
      <trkpt lat="59.29262" lon="18.085016">
        <ele>53</ele>
        <time>2019-11-27T08:13:16Z</time>
      </trkpt>
      <trkpt lat="59.292572" lon="18.085008">
        <ele>53</ele>
        <time>2019-11-27T08:13:16Z</time>
      </trkpt>
      <trkpt lat="59.292527" lon="18.08502">
        <ele>53</ele>
        <time>2019-11-27T08:13:17Z</time>
      </trkpt>
      <trkpt lat="59.292477" lon="18.08505">
        <ele>52</ele>
        <time>2019-11-27T08:13:18Z</time>
      </trkpt>
      <trkpt lat="59.292427" lon="18.085088">
        <ele>52</ele>
        <time>2019-11-27T08:13:19Z</time>
      </trkpt>
      <trkpt lat="59.292376" lon="18.085128">
        <ele>53</ele>
        <time>2019-11-27T08:13:20Z</time>
      </trkpt>
      <trkpt lat="59.292323" lon="18.085168">
        <ele>53</ele>
        <time>2019-11-27T08:13:21Z</time>
      </trkpt>
      <trkpt lat="59.292274" lon="18.085206">
        <ele>53</ele>
        <time>2019-11-27T08:13:22Z</time>
      </trkpt>
      <trkpt lat="59.292226" lon="18.085238">
        <ele>53</ele>
        <time>2019-11-27T08:13:23Z</time>
      </trkpt>
      <trkpt lat="59.292177" lon="18.08527">
        <ele>53</ele>
        <time>2019-11-27T08:13:24Z</time>
      </trkpt>
      <trkpt lat="59.292127" lon="18.085306">
        <ele>53</ele>
        <time>2019-11-27T08:13:26Z</time>
      </trkpt>
      <trkpt lat="59.292073" lon="18.085352">
        <ele>53</ele>
        <time>2019-11-27T08:13:26Z</time>
      </trkpt>
      <trkpt lat="59.29194" lon="18.085448">
        <ele>53</ele>
        <time>2019-11-27T08:13:28Z</time>
      </trkpt>
      <trkpt lat="59.291812" lon="18.085558">
        <ele>53</ele>
        <time>2019-11-27T08:13:30Z</time>
      </trkpt>
      <trkpt lat="59.291683" lon="18.085658">
        <ele>53</ele>
        <time>2019-11-27T08:13:32Z</time>
      </trkpt>
      <trkpt lat="59.291543" lon="18.08578">
        <ele>53</ele>
        <time>2019-11-27T08:13:34Z</time>
      </trkpt>
      <trkpt lat="59.291402" lon="18.085922">
        <ele>52</ele>
        <time>2019-11-27T08:13:36Z</time>
      </trkpt>
      <trkpt lat="59.291279" lon="18.086008">
        <ele>51</ele>
        <time>2019-11-27T08:13:38Z</time>
      </trkpt>
      <trkpt lat="59.291163" lon="18.086072">
        <ele>50</ele>
        <time>2019-11-27T08:13:40Z</time>
      </trkpt>
      <trkpt lat="59.291051" lon="18.086144">
        <ele>49</ele>
        <time>2019-11-27T08:13:42Z</time>
      </trkpt>
      <trkpt lat="59.290927" lon="18.086266">
        <ele>47</ele>
        <time>2019-11-27T08:13:44Z</time>
      </trkpt>
      <trkpt lat="59.29082" lon="18.086312">
        <ele>44</ele>
        <time>2019-11-27T08:13:46Z</time>
      </trkpt>
      <trkpt lat="59.290706" lon="18.086312">
        <ele>43</ele>
        <time>2019-11-27T08:13:48Z</time>
      </trkpt>
      <trkpt lat="59.290579" lon="18.086418">
        <ele>43</ele>
        <time>2019-11-27T08:13:50Z</time>
      </trkpt>
      <trkpt lat="59.290446" lon="18.086426">
        <ele>43</ele>
        <time>2019-11-27T08:13:53Z</time>
      </trkpt>
      <trkpt lat="59.290383" lon="18.086426">
        <ele>43</ele>
        <time>2019-11-27T08:13:53Z</time>
      </trkpt>
      <trkpt lat="59.29032" lon="18.086438">
        <ele>43</ele>
        <time>2019-11-27T08:13:54Z</time>
      </trkpt>
      <trkpt lat="59.290254" lon="18.08645">
        <ele>43</ele>
        <time>2019-11-27T08:13:56Z</time>
      </trkpt>
      <trkpt lat="59.290187" lon="18.086468">
        <ele>43</ele>
        <time>2019-11-27T08:13:56Z</time>
      </trkpt>
      <trkpt lat="59.290118" lon="18.086486">
        <ele>42</ele>
        <time>2019-11-27T08:13:57Z</time>
      </trkpt>
      <trkpt lat="59.290047" lon="18.086504">
        <ele>41</ele>
        <time>2019-11-27T08:13:58Z</time>
      </trkpt>
      <trkpt lat="59.289975" lon="18.086524">
        <ele>43</ele>
        <time>2019-11-27T08:13:59Z</time>
      </trkpt>
      <trkpt lat="59.289895" lon="18.086598">
        <ele>43</ele>
        <time>2019-11-27T08:14:00Z</time>
      </trkpt>
      <trkpt lat="59.289818" lon="18.086643">
        <ele>43</ele>
        <time>2019-11-27T08:14:01Z</time>
      </trkpt>
      <trkpt lat="59.289741" lon="18.086673">
        <ele>42</ele>
        <time>2019-11-27T08:14:03Z</time>
      </trkpt>
      <trkpt lat="59.289663" lon="18.086701">
        <ele>41</ele>
        <time>2019-11-27T08:14:03Z</time>
      </trkpt>
      <trkpt lat="59.289585" lon="18.086728">
        <ele>40</ele>
        <time>2019-11-27T08:14:04Z</time>
      </trkpt>
      <trkpt lat="59.289508" lon="18.086755">
        <ele>39</ele>
        <time>2019-11-27T08:14:05Z</time>
      </trkpt>
      <trkpt lat="59.289426" lon="18.086789">
        <ele>39</ele>
        <time>2019-11-27T08:14:06Z</time>
      </trkpt>
      <trkpt lat="59.289341" lon="18.08683">
        <ele>38</ele>
        <time>2019-11-27T08:14:07Z</time>
      </trkpt>
      <trkpt lat="59.289257" lon="18.086878">
        <ele>38</ele>
        <time>2019-11-27T08:14:09Z</time>
      </trkpt>
      <trkpt lat="59.289169" lon="18.086933">
        <ele>37</ele>
        <time>2019-11-27T08:14:09Z</time>
      </trkpt>
      <trkpt lat="59.28908" lon="18.086988">
        <ele>37</ele>
        <time>2019-11-27T08:14:10Z</time>
      </trkpt>
      <trkpt lat="59.28899" lon="18.087039">
        <ele>37</ele>
        <time>2019-11-27T08:14:12Z</time>
      </trkpt>
      <trkpt lat="59.2889" lon="18.087087">
        <ele>36</ele>
        <time>2019-11-27T08:14:12Z</time>
      </trkpt>
      <trkpt lat="59.288808" lon="18.087135">
        <ele>36</ele>
        <time>2019-11-27T08:14:14Z</time>
      </trkpt>
      <trkpt lat="59.288715" lon="18.087181">
        <ele>36</ele>
        <time>2019-11-27T08:14:14Z</time>
      </trkpt>
      <trkpt lat="59.288618" lon="18.087227">
        <ele>36</ele>
        <time>2019-11-27T08:14:15Z</time>
      </trkpt>
      <trkpt lat="59.28852" lon="18.087276">
        <ele>36</ele>
        <time>2019-11-27T08:14:16Z</time>
      </trkpt>
      <trkpt lat="59.28842" lon="18.087327">
        <ele>36</ele>
        <time>2019-11-27T08:14:17Z</time>
      </trkpt>
      <trkpt lat="59.28832" lon="18.087383">
        <ele>36</ele>
        <time>2019-11-27T08:14:19Z</time>
      </trkpt>
      <trkpt lat="59.288223" lon="18.087419">
        <ele>36</ele>
        <time>2019-11-27T08:14:19Z</time>
      </trkpt>
      <trkpt lat="59.288061" lon="18.087492">
        <ele>36</ele>
        <time>2019-11-27T08:14:21Z</time>
      </trkpt>
      <trkpt lat="59.287924" lon="18.087543">
        <ele>35</ele>
        <time>2019-11-27T08:14:23Z</time>
      </trkpt>
      <trkpt lat="59.287855" lon="18.087574">
        <ele>35</ele>
        <time>2019-11-27T08:14:25Z</time>
      </trkpt>
      <trkpt lat="59.287791" lon="18.087614">
        <ele>35</ele>
        <time>2019-11-27T08:14:25Z</time>
      </trkpt>
      <trkpt lat="59.287731" lon="18.087656">
        <ele>35</ele>
        <time>2019-11-27T08:14:26Z</time>
      </trkpt>
      <trkpt lat="59.287671" lon="18.0877">
        <ele>35</ele>
        <time>2019-11-27T08:14:27Z</time>
      </trkpt>
      <trkpt lat="59.287616" lon="18.087741">
        <ele>35</ele>
        <time>2019-11-27T08:14:29Z</time>
      </trkpt>
      <trkpt lat="59.287564" lon="18.087778">
        <ele>35</ele>
        <time>2019-11-27T08:14:29Z</time>
      </trkpt>
      <trkpt lat="59.287514" lon="18.087813">
        <ele>35</ele>
        <time>2019-11-27T08:14:31Z</time>
      </trkpt>
      <trkpt lat="59.287469" lon="18.087849">
        <ele>36</ele>
        <time>2019-11-27T08:14:31Z</time>
      </trkpt>
      <trkpt lat="59.287423" lon="18.087885">
        <ele>36</ele>
        <time>2019-11-27T08:14:32Z</time>
      </trkpt>
      <trkpt lat="59.287376" lon="18.087924">
        <ele>37</ele>
        <time>2019-11-27T08:14:34Z</time>
      </trkpt>
      <trkpt lat="59.287329" lon="18.087961">
        <ele>37</ele>
        <time>2019-11-27T08:14:34Z</time>
      </trkpt>
      <trkpt lat="59.287281" lon="18.087996">
        <ele>37</ele>
        <time>2019-11-27T08:14:35Z</time>
      </trkpt>
      <trkpt lat="59.287232" lon="18.088028">
        <ele>37</ele>
        <time>2019-11-27T08:14:36Z</time>
      </trkpt>
      <trkpt lat="59.28718" lon="18.088059">
        <ele>38</ele>
        <time>2019-11-27T08:14:37Z</time>
      </trkpt>
      <trkpt lat="59.287127" lon="18.088087">
        <ele>38</ele>
        <time>2019-11-27T08:14:38Z</time>
      </trkpt>
      <trkpt lat="59.287074" lon="18.088116">
        <ele>38</ele>
        <time>2019-11-27T08:14:39Z</time>
      </trkpt>
      <trkpt lat="59.28702" lon="18.088144">
        <ele>38</ele>
        <time>2019-11-27T08:14:40Z</time>
      </trkpt>
      <trkpt lat="59.286966" lon="18.088171">
        <ele>38</ele>
        <time>2019-11-27T08:14:41Z</time>
      </trkpt>
      <trkpt lat="59.286913" lon="18.088197">
        <ele>38</ele>
        <time>2019-11-27T08:14:42Z</time>
      </trkpt>
      <trkpt lat="59.286858" lon="18.088225">
        <ele>39</ele>
        <time>2019-11-27T08:14:44Z</time>
      </trkpt>
      <trkpt lat="59.286803" lon="18.088253">
        <ele>39</ele>
        <time>2019-11-27T08:14:44Z</time>
      </trkpt>
      <trkpt lat="59.286748" lon="18.088281">
        <ele>39</ele>
        <time>2019-11-27T08:14:45Z</time>
      </trkpt>
      <trkpt lat="59.286696" lon="18.088309">
        <ele>39</ele>
        <time>2019-11-27T08:14:46Z</time>
      </trkpt>
      <trkpt lat="59.286643" lon="18.088336">
        <ele>39</ele>
        <time>2019-11-27T08:14:47Z</time>
      </trkpt>
      <trkpt lat="59.286588" lon="18.088365">
        <ele>40</ele>
        <time>2019-11-27T08:14:48Z</time>
      </trkpt>
      <trkpt lat="59.286532" lon="18.088391">
        <ele>40</ele>
        <time>2019-11-27T08:14:50Z</time>
      </trkpt>
      <trkpt lat="59.286477" lon="18.088416">
        <ele>40</ele>
        <time>2019-11-27T08:14:50Z</time>
      </trkpt>
      <trkpt lat="59.286422" lon="18.088443">
        <ele>40</ele>
        <time>2019-11-27T08:14:52Z</time>
      </trkpt>
      <trkpt lat="59.286364" lon="18.088474">
        <ele>40</ele>
        <time>2019-11-27T08:14:52Z</time>
      </trkpt>
      <trkpt lat="59.286307" lon="18.088505">
        <ele>40</ele>
        <time>2019-11-27T08:14:53Z</time>
      </trkpt>
      <trkpt lat="59.286249" lon="18.088537">
        <ele>41</ele>
        <time>2019-11-27T08:14:54Z</time>
      </trkpt>
      <trkpt lat="59.286191" lon="18.088567">
        <ele>41</ele>
        <time>2019-11-27T08:14:55Z</time>
      </trkpt>
      <trkpt lat="59.286133" lon="18.088598">
        <ele>41</ele>
        <time>2019-11-27T08:14:56Z</time>
      </trkpt>
      <trkpt lat="59.286074" lon="18.088627">
        <ele>41</ele>
        <time>2019-11-27T08:14:57Z</time>
      </trkpt>
      <trkpt lat="59.286015" lon="18.088652">
        <ele>41</ele>
        <time>2019-11-27T08:14:58Z</time>
      </trkpt>
      <trkpt lat="59.285956" lon="18.08868">
        <ele>41</ele>
        <time>2019-11-27T08:14:59Z</time>
      </trkpt>
      <trkpt lat="59.285897" lon="18.088709">
        <ele>41</ele>
        <time>2019-11-27T08:15:01Z</time>
      </trkpt>
      <trkpt lat="59.28584" lon="18.08874">
        <ele>42</ele>
        <time>2019-11-27T08:15:01Z</time>
      </trkpt>
      <trkpt lat="59.285787" lon="18.088773">
        <ele>42</ele>
        <time>2019-11-27T08:15:02Z</time>
      </trkpt>
      <trkpt lat="59.285728" lon="18.088805">
        <ele>42</ele>
        <time>2019-11-27T08:15:03Z</time>
      </trkpt>
      <trkpt lat="59.285665" lon="18.088834">
        <ele>42</ele>
        <time>2019-11-27T08:15:04Z</time>
      </trkpt>
      <trkpt lat="59.285602" lon="18.088864">
        <ele>42</ele>
        <time>2019-11-27T08:15:05Z</time>
      </trkpt>
      <trkpt lat="59.28554" lon="18.088894">
        <ele>42</ele>
        <time>2019-11-27T08:15:06Z</time>
      </trkpt>
      <trkpt lat="59.285476" lon="18.088927">
        <ele>42</ele>
        <time>2019-11-27T08:15:07Z</time>
      </trkpt>
      <trkpt lat="59.285414" lon="18.088956">
        <ele>0</ele>
        <time>2019-11-27T08:15:08Z</time>
      </trkpt>
      <trkpt lat="59.285353" lon="18.088987">
        <ele>42</ele>
        <time>2019-11-27T08:15:09Z</time>
      </trkpt>
      <trkpt lat="59.285292" lon="18.089018">
        <ele>43</ele>
        <time>2019-11-27T08:15:10Z</time>
      </trkpt>
      <trkpt lat="59.285233" lon="18.089048">
        <ele>43</ele>
        <time>2019-11-27T08:15:11Z</time>
      </trkpt>
      <trkpt lat="59.285172" lon="18.089078">
        <ele>43</ele>
        <time>2019-11-27T08:15:12Z</time>
      </trkpt>
      <trkpt lat="59.28511" lon="18.089106">
        <ele>43</ele>
        <time>2019-11-27T08:15:13Z</time>
      </trkpt>
      <trkpt lat="59.28505" lon="18.089139">
        <ele>43</ele>
        <time>2019-11-27T08:15:14Z</time>
      </trkpt>
      <trkpt lat="59.284988" lon="18.089167">
        <ele>42</ele>
        <time>2019-11-27T08:15:15Z</time>
      </trkpt>
      <trkpt lat="59.284926" lon="18.089187">
        <ele>42</ele>
        <time>2019-11-27T08:15:17Z</time>
      </trkpt>
      <trkpt lat="59.284868" lon="18.089216">
        <ele>43</ele>
        <time>2019-11-27T08:15:17Z</time>
      </trkpt>
      <trkpt lat="59.284807" lon="18.089259">
        <ele>43</ele>
        <time>2019-11-27T08:15:18Z</time>
      </trkpt>
      <trkpt lat="59.284747" lon="18.089298">
        <ele>43</ele>
        <time>2019-11-27T08:15:19Z</time>
      </trkpt>
      <trkpt lat="59.284693" lon="18.089329">
        <ele>43</ele>
        <time>2019-11-27T08:15:20Z</time>
      </trkpt>
      <trkpt lat="59.284634" lon="18.089352">
        <ele>43</ele>
        <time>2019-11-27T08:15:21Z</time>
      </trkpt>
      <trkpt lat="59.284574" lon="18.089372">
        <ele>43</ele>
        <time>2019-11-27T08:15:22Z</time>
      </trkpt>
      <trkpt lat="59.284516" lon="18.089398">
        <ele>44</ele>
        <time>2019-11-27T08:15:23Z</time>
      </trkpt>
      <trkpt lat="59.284457" lon="18.089426">
        <ele>44</ele>
        <time>2019-11-27T08:15:25Z</time>
      </trkpt>
      <trkpt lat="59.284395" lon="18.089458">
        <ele>44</ele>
        <time>2019-11-27T08:15:25Z</time>
      </trkpt>
      <trkpt lat="59.284337" lon="18.089489">
        <ele>44</ele>
        <time>2019-11-27T08:15:26Z</time>
      </trkpt>
      <trkpt lat="59.284277" lon="18.08952">
        <ele>44</ele>
        <time>2019-11-27T08:15:28Z</time>
      </trkpt>
      <trkpt lat="59.284221" lon="18.089552">
        <ele>44</ele>
        <time>2019-11-27T08:15:28Z</time>
      </trkpt>
      <trkpt lat="59.284163" lon="18.089579">
        <ele>44</ele>
        <time>2019-11-27T08:15:29Z</time>
      </trkpt>
      <trkpt lat="59.284108" lon="18.089603">
        <ele>44</ele>
        <time>2019-11-27T08:15:30Z</time>
      </trkpt>
      <trkpt lat="59.284056" lon="18.089627">
        <ele>44</ele>
        <time>2019-11-27T08:15:31Z</time>
      </trkpt>
      <trkpt lat="59.283996" lon="18.089659">
        <ele>45</ele>
        <time>2019-11-27T08:15:33Z</time>
      </trkpt>
      <trkpt lat="59.283937" lon="18.089694">
        <ele>45</ele>
        <time>2019-11-27T08:15:33Z</time>
      </trkpt>
      <trkpt lat="59.283881" lon="18.089729">
        <ele>45</ele>
        <time>2019-11-27T08:15:34Z</time>
      </trkpt>
      <trkpt lat="59.283827" lon="18.089764">
        <ele>45</ele>
        <time>2019-11-27T08:15:35Z</time>
      </trkpt>
      <trkpt lat="59.283778" lon="18.089796">
        <ele>45</ele>
        <time>2019-11-27T08:15:36Z</time>
      </trkpt>
      <trkpt lat="59.283724" lon="18.089827">
        <ele>45</ele>
        <time>2019-11-27T08:15:37Z</time>
      </trkpt>
      <trkpt lat="59.283656" lon="18.089848">
        <ele>44</ele>
        <time>2019-11-27T08:15:38Z</time>
      </trkpt>
      <trkpt lat="59.283578" lon="18.089861">
        <ele>44</ele>
        <time>2019-11-27T08:15:39Z</time>
      </trkpt>
      <trkpt lat="59.283513" lon="18.08989">
        <ele>44</ele>
        <time>2019-11-27T08:15:41Z</time>
      </trkpt>
      <trkpt lat="59.283455" lon="18.089918">
        <ele>44</ele>
        <time>2019-11-27T08:15:41Z</time>
      </trkpt>
      <trkpt lat="59.283388" lon="18.089946">
        <ele>44</ele>
        <time>2019-11-27T08:15:42Z</time>
      </trkpt>
      <trkpt lat="59.283317" lon="18.089965">
        <ele>44</ele>
        <time>2019-11-27T08:15:43Z</time>
      </trkpt>
      <trkpt lat="59.283249" lon="18.089983">
        <ele>44</ele>
        <time>2019-11-27T08:15:44Z</time>
      </trkpt>
      <trkpt lat="59.283182" lon="18.090003">
        <ele>44</ele>
        <time>2019-11-27T08:15:45Z</time>
      </trkpt>
      <trkpt lat="59.283118" lon="18.090027">
        <ele>44</ele>
        <time>2019-11-27T08:15:47Z</time>
      </trkpt>
      <trkpt lat="59.283058" lon="18.090054">
        <ele>44</ele>
        <time>2019-11-27T08:15:47Z</time>
      </trkpt>
      <trkpt lat="59.283002" lon="18.090082">
        <ele>44</ele>
        <time>2019-11-27T08:15:49Z</time>
      </trkpt>
      <trkpt lat="59.282945" lon="18.090106">
        <ele>44</ele>
        <time>2019-11-27T08:15:49Z</time>
      </trkpt>
      <trkpt lat="59.28288" lon="18.090123">
        <ele>44</ele>
        <time>2019-11-27T08:15:50Z</time>
      </trkpt>
      <trkpt lat="59.28282" lon="18.090143">
        <ele>44</ele>
        <time>2019-11-27T08:15:51Z</time>
      </trkpt>
      <trkpt lat="59.282758" lon="18.090169">
        <ele>44</ele>
        <time>2019-11-27T08:15:52Z</time>
      </trkpt>
      <trkpt lat="59.282699" lon="18.090193">
        <ele>44</ele>
        <time>2019-11-27T08:15:53Z</time>
      </trkpt>
      <trkpt lat="59.282637" lon="18.090215">
        <ele>44</ele>
        <time>2019-11-27T08:15:54Z</time>
      </trkpt>
      <trkpt lat="59.282575" lon="18.090237">
        <ele>44</ele>
        <time>2019-11-27T08:15:55Z</time>
      </trkpt>
      <trkpt lat="59.282513" lon="18.090263">
        <ele>44</ele>
        <time>2019-11-27T08:15:57Z</time>
      </trkpt>
      <trkpt lat="59.28245" lon="18.090287">
        <ele>44</ele>
        <time>2019-11-27T08:15:57Z</time>
      </trkpt>
      <trkpt lat="59.282329" lon="18.090347">
        <ele>43</ele>
        <time>2019-11-27T08:15:59Z</time>
      </trkpt>
      <trkpt lat="59.282197" lon="18.090392">
        <ele>43</ele>
        <time>2019-11-27T08:16:01Z</time>
      </trkpt>
      <trkpt lat="59.282124" lon="18.09041">
        <ele>43</ele>
        <time>2019-11-27T08:16:02Z</time>
      </trkpt>
      <trkpt lat="59.282061" lon="18.09043">
        <ele>43</ele>
        <time>2019-11-27T08:16:03Z</time>
      </trkpt>
      <trkpt lat="59.282003" lon="18.090455">
        <ele>43</ele>
        <time>2019-11-27T08:16:05Z</time>
      </trkpt>
      <trkpt lat="59.281953" lon="18.090482">
        <ele>42</ele>
        <time>2019-11-27T08:16:06Z</time>
      </trkpt>
      <trkpt lat="59.28184" lon="18.090551">
        <ele>42</ele>
        <time>2019-11-27T08:16:07Z</time>
      </trkpt>
      <trkpt lat="59.281715" lon="18.090604">
        <ele>43</ele>
        <time>2019-11-27T08:16:09Z</time>
      </trkpt>
      <trkpt lat="59.281653" lon="18.090626">
        <ele>43</ele>
        <time>2019-11-27T08:16:10Z</time>
      </trkpt>
      <trkpt lat="59.281589" lon="18.090635">
        <ele>43</ele>
        <time>2019-11-27T08:16:11Z</time>
      </trkpt>
      <trkpt lat="59.281529" lon="18.090654">
        <ele>43</ele>
        <time>2019-11-27T08:16:13Z</time>
      </trkpt>
      <trkpt lat="59.281472" lon="18.090673">
        <ele>44</ele>
        <time>2019-11-27T08:16:13Z</time>
      </trkpt>
      <trkpt lat="59.281421" lon="18.090689">
        <ele>44</ele>
        <time>2019-11-27T08:16:14Z</time>
      </trkpt>
      <trkpt lat="59.28137" lon="18.090707">
        <ele>44</ele>
        <time>2019-11-27T08:16:15Z</time>
      </trkpt>
      <trkpt lat="59.281314" lon="18.090725">
        <ele>44</ele>
        <time>2019-11-27T08:16:16Z</time>
      </trkpt>
      <trkpt lat="59.281256" lon="18.090744">
        <ele>44</ele>
        <time>2019-11-27T08:16:17Z</time>
      </trkpt>
      <trkpt lat="59.281202" lon="18.090766">
        <ele>44</ele>
        <time>2019-11-27T08:16:18Z</time>
      </trkpt>
      <trkpt lat="59.281149" lon="18.090785">
        <ele>44</ele>
        <time>2019-11-27T08:16:19Z</time>
      </trkpt>
      <trkpt lat="59.281098" lon="18.090803">
        <ele>44</ele>
        <time>2019-11-27T08:16:20Z</time>
      </trkpt>
      <trkpt lat="59.281049" lon="18.090822">
        <ele>44</ele>
        <time>2019-11-27T08:16:22Z</time>
      </trkpt>
      <trkpt lat="59.280996" lon="18.090842">
        <ele>43</ele>
        <time>2019-11-27T08:16:22Z</time>
      </trkpt>
      <trkpt lat="59.280937" lon="18.090862">
        <ele>43</ele>
        <time>2019-11-27T08:16:23Z</time>
      </trkpt>
      <trkpt lat="59.280886" lon="18.090875">
        <ele>44</ele>
        <time>2019-11-27T08:16:25Z</time>
      </trkpt>
      <trkpt lat="59.280834" lon="18.090898">
        <ele>44</ele>
        <time>2019-11-27T08:16:25Z</time>
      </trkpt>
      <trkpt lat="59.280782" lon="18.090915">
        <ele>43</ele>
        <time>2019-11-27T08:16:26Z</time>
      </trkpt>
      <trkpt lat="59.28073" lon="18.090927">
        <ele>43</ele>
        <time>2019-11-27T08:16:27Z</time>
      </trkpt>
      <trkpt lat="59.28068" lon="18.090946">
        <ele>44</ele>
        <time>2019-11-27T08:16:28Z</time>
      </trkpt>
      <trkpt lat="59.280626" lon="18.090969">
        <ele>44</ele>
        <time>2019-11-27T08:16:29Z</time>
      </trkpt>
      <trkpt lat="59.28057" lon="18.09099">
        <ele>44</ele>
        <time>2019-11-27T08:16:31Z</time>
      </trkpt>
      <trkpt lat="59.280513" lon="18.091008">
        <ele>44</ele>
        <time>2019-11-27T08:16:31Z</time>
      </trkpt>
      <trkpt lat="59.280458" lon="18.091028">
        <ele>45</ele>
        <time>2019-11-27T08:16:32Z</time>
      </trkpt>
      <trkpt lat="59.280407" lon="18.091049">
        <ele>45</ele>
        <time>2019-11-27T08:16:33Z</time>
      </trkpt>
      <trkpt lat="59.280354" lon="18.091073">
        <ele>45</ele>
        <time>2019-11-27T08:16:34Z</time>
      </trkpt>
      <trkpt lat="59.2803" lon="18.091096">
        <ele>45</ele>
        <time>2019-11-27T08:16:35Z</time>
      </trkpt>
      <trkpt lat="59.280245" lon="18.091119">
        <ele>45</ele>
        <time>2019-11-27T08:16:36Z</time>
      </trkpt>
      <trkpt lat="59.280189" lon="18.091141">
        <ele>46</ele>
        <time>2019-11-27T08:16:37Z</time>
      </trkpt>
      <trkpt lat="59.280136" lon="18.091159">
        <ele>46</ele>
        <time>2019-11-27T08:16:38Z</time>
      </trkpt>
      <trkpt lat="59.280083" lon="18.091177">
        <ele>46</ele>
        <time>2019-11-27T08:16:40Z</time>
      </trkpt>
      <trkpt lat="59.28003" lon="18.091195">
        <ele>46</ele>
        <time>2019-11-27T08:16:40Z</time>
      </trkpt>
      <trkpt lat="59.279975" lon="18.091213">
        <ele>46</ele>
        <time>2019-11-27T08:16:41Z</time>
      </trkpt>
      <trkpt lat="59.279919" lon="18.091233">
        <ele>46</ele>
        <time>2019-11-27T08:16:42Z</time>
      </trkpt>
      <trkpt lat="59.279861" lon="18.091256">
        <ele>46</ele>
        <time>2019-11-27T08:16:44Z</time>
      </trkpt>
      <trkpt lat="59.279798" lon="18.091278">
        <ele>46</ele>
        <time>2019-11-27T08:16:44Z</time>
      </trkpt>
      <trkpt lat="59.279739" lon="18.091292">
        <ele>45</ele>
        <time>2019-11-27T08:16:45Z</time>
      </trkpt>
      <trkpt lat="59.279684" lon="18.091298">
        <ele>45</ele>
        <time>2019-11-27T08:16:46Z</time>
      </trkpt>
      <trkpt lat="59.279629" lon="18.091306">
        <ele>45</ele>
        <time>2019-11-27T08:16:47Z</time>
      </trkpt>
      <trkpt lat="59.27957" lon="18.091316">
        <ele>45</ele>
        <time>2019-11-27T08:16:49Z</time>
      </trkpt>
      <trkpt lat="59.279511" lon="18.091325">
        <ele>45</ele>
        <time>2019-11-27T08:16:49Z</time>
      </trkpt>
      <trkpt lat="59.27945" lon="18.091333">
        <ele>44</ele>
        <time>2019-11-27T08:16:50Z</time>
      </trkpt>
      <trkpt lat="59.279388" lon="18.091346">
        <ele>44</ele>
        <time>2019-11-27T08:16:51Z</time>
      </trkpt>
      <trkpt lat="59.279325" lon="18.091365">
        <ele>44</ele>
        <time>2019-11-27T08:16:52Z</time>
      </trkpt>
      <trkpt lat="59.279262" lon="18.091386">
        <ele>44</ele>
        <time>2019-11-27T08:16:53Z</time>
      </trkpt>
      <trkpt lat="59.279204" lon="18.09142">
        <ele>44</ele>
        <time>2019-11-27T08:16:54Z</time>
      </trkpt>
      <trkpt lat="59.279147" lon="18.091465">
        <ele>43</ele>
        <time>2019-11-27T08:16:55Z</time>
      </trkpt>
      <trkpt lat="59.27909" lon="18.091507">
        <ele>43</ele>
        <time>2019-11-27T08:16:57Z</time>
      </trkpt>
      <trkpt lat="59.27903" lon="18.091542">
        <ele>43</ele>
        <time>2019-11-27T08:16:57Z</time>
      </trkpt>
      <trkpt lat="59.278971" lon="18.091572">
        <ele>43</ele>
        <time>2019-11-27T08:16:58Z</time>
      </trkpt>
      <trkpt lat="59.278911" lon="18.091597">
        <ele>43</ele>
        <time>2019-11-27T08:16:59Z</time>
      </trkpt>
      <trkpt lat="59.278852" lon="18.091621">
        <ele>43</ele>
        <time>2019-11-27T08:17:00Z</time>
      </trkpt>
      <trkpt lat="59.278794" lon="18.091644">
        <ele>43</ele>
        <time>2019-11-27T08:17:01Z</time>
      </trkpt>
      <trkpt lat="59.278737" lon="18.091668">
        <ele>43</ele>
        <time>2019-11-27T08:17:03Z</time>
      </trkpt>
      <trkpt lat="59.278677" lon="18.091686">
        <ele>42</ele>
        <time>2019-11-27T08:17:03Z</time>
      </trkpt>
      <trkpt lat="59.278617" lon="18.091698">
        <ele>42</ele>
        <time>2019-11-27T08:17:05Z</time>
      </trkpt>
      <trkpt lat="59.278561" lon="18.091702">
        <ele>42</ele>
        <time>2019-11-27T08:17:05Z</time>
      </trkpt>
      <trkpt lat="59.278504" lon="18.091703">
        <ele>41</ele>
        <time>2019-11-27T08:17:06Z</time>
      </trkpt>
      <trkpt lat="59.278448" lon="18.091703">
        <ele>41</ele>
        <time>2019-11-27T08:17:07Z</time>
      </trkpt>
      <trkpt lat="59.278396" lon="18.091699">
        <ele>41</ele>
        <time>2019-11-27T08:17:08Z</time>
      </trkpt>
      <trkpt lat="59.278346" lon="18.091702">
        <ele>41</ele>
        <time>2019-11-27T08:17:09Z</time>
      </trkpt>
      <trkpt lat="59.278298" lon="18.091721">
        <ele>41</ele>
        <time>2019-11-27T08:17:10Z</time>
      </trkpt>
      <trkpt lat="59.278255" lon="18.091754">
        <ele>41</ele>
        <time>2019-11-27T08:17:11Z</time>
      </trkpt>
      <trkpt lat="59.27821" lon="18.091787">
        <ele>40</ele>
        <time>2019-11-27T08:17:12Z</time>
      </trkpt>
      <trkpt lat="59.278157" lon="18.091804">
        <ele>40</ele>
        <time>2019-11-27T08:17:13Z</time>
      </trkpt>
      <trkpt lat="59.278112" lon="18.091809">
        <ele>40</ele>
        <time>2019-11-27T08:17:15Z</time>
      </trkpt>
      <trkpt lat="59.278067" lon="18.091814">
        <ele>39</ele>
        <time>2019-11-27T08:17:15Z</time>
      </trkpt>
      <trkpt lat="59.278023" lon="18.091816">
        <ele>39</ele>
        <time>2019-11-27T08:17:16Z</time>
      </trkpt>
      <trkpt lat="59.277978" lon="18.091817">
        <ele>39</ele>
        <time>2019-11-27T08:17:17Z</time>
      </trkpt>
      <trkpt lat="59.277931" lon="18.091818">
        <ele>39</ele>
        <time>2019-11-27T08:17:18Z</time>
      </trkpt>
      <trkpt lat="59.277885" lon="18.09182">
        <ele>39</ele>
        <time>2019-11-27T08:17:19Z</time>
      </trkpt>
      <trkpt lat="59.27784" lon="18.091826">
        <ele>39</ele>
        <time>2019-11-27T08:17:20Z</time>
      </trkpt>
      <trkpt lat="59.277796" lon="18.091833">
        <ele>38</ele>
        <time>2019-11-27T08:17:22Z</time>
      </trkpt>
      <trkpt lat="59.277752" lon="18.091839">
        <ele>38</ele>
        <time>2019-11-27T08:17:22Z</time>
      </trkpt>
      <trkpt lat="59.277708" lon="18.091851">
        <ele>38</ele>
        <time>2019-11-27T08:17:23Z</time>
      </trkpt>
      <trkpt lat="59.277665" lon="18.091863">
        <ele>38</ele>
        <time>2019-11-27T08:17:24Z</time>
      </trkpt>
      <trkpt lat="59.277623" lon="18.091872">
        <ele>38</ele>
        <time>2019-11-27T08:17:25Z</time>
      </trkpt>
      <trkpt lat="59.27758" lon="18.091883">
        <ele>38</ele>
        <time>2019-11-27T08:17:27Z</time>
      </trkpt>
      <trkpt lat="59.277537" lon="18.091893">
        <ele>38</ele>
        <time>2019-11-27T08:17:27Z</time>
      </trkpt>
      <trkpt lat="59.277493" lon="18.091903">
        <ele>38</ele>
        <time>2019-11-27T08:17:28Z</time>
      </trkpt>
      <trkpt lat="59.27745" lon="18.091914">
        <ele>38</ele>
        <time>2019-11-27T08:17:29Z</time>
      </trkpt>
      <trkpt lat="59.277407" lon="18.091923">
        <ele>38</ele>
        <time>2019-11-27T08:17:30Z</time>
      </trkpt>
      <trkpt lat="59.277364" lon="18.091934">
        <ele>38</ele>
        <time>2019-11-27T08:17:31Z</time>
      </trkpt>
      <trkpt lat="59.277319" lon="18.091946">
        <ele>38</ele>
        <time>2019-11-27T08:17:32Z</time>
      </trkpt>
      <trkpt lat="59.277274" lon="18.091958">
        <ele>37</ele>
        <time>2019-11-27T08:17:33Z</time>
      </trkpt>
      <trkpt lat="59.277231" lon="18.091969">
        <ele>37</ele>
        <time>2019-11-27T08:17:34Z</time>
      </trkpt>
      <trkpt lat="59.27719" lon="18.091979">
        <ele>37</ele>
        <time>2019-11-27T08:17:35Z</time>
      </trkpt>
      <trkpt lat="59.277148" lon="18.091988">
        <ele>37</ele>
        <time>2019-11-27T08:17:36Z</time>
      </trkpt>
      <trkpt lat="59.277107" lon="18.091997">
        <ele>37</ele>
        <time>2019-11-27T08:17:38Z</time>
      </trkpt>
      <trkpt lat="59.277067" lon="18.092008">
        <ele>37</ele>
        <time>2019-11-27T08:17:38Z</time>
      </trkpt>
      <trkpt lat="59.277027" lon="18.092021">
        <ele>37</ele>
        <time>2019-11-27T08:17:39Z</time>
      </trkpt>
      <trkpt lat="59.276986" lon="18.092036">
        <ele>37</ele>
        <time>2019-11-27T08:17:41Z</time>
      </trkpt>
      <trkpt lat="59.276944" lon="18.092051">
        <ele>37</ele>
        <time>2019-11-27T08:17:41Z</time>
      </trkpt>
      <trkpt lat="59.276903" lon="18.092065">
        <ele>37</ele>
        <time>2019-11-27T08:17:42Z</time>
      </trkpt>
      <trkpt lat="59.276862" lon="18.09208">
        <ele>37</ele>
        <time>2019-11-27T08:17:43Z</time>
      </trkpt>
      <trkpt lat="59.27682" lon="18.092094">
        <ele>37</ele>
        <time>2019-11-27T08:17:44Z</time>
      </trkpt>
      <trkpt lat="59.27678" lon="18.092107">
        <ele>37</ele>
        <time>2019-11-27T08:17:45Z</time>
      </trkpt>
      <trkpt lat="59.276739" lon="18.092122">
        <ele>38</ele>
        <time>2019-11-27T08:17:46Z</time>
      </trkpt>
      <trkpt lat="59.276696" lon="18.092137">
        <ele>38</ele>
        <time>2019-11-27T08:17:47Z</time>
      </trkpt>
      <trkpt lat="59.276653" lon="18.092151">
        <ele>38</ele>
        <time>2019-11-27T08:17:48Z</time>
      </trkpt>
      <trkpt lat="59.276608" lon="18.092167">
        <ele>38</ele>
        <time>2019-11-27T08:17:50Z</time>
      </trkpt>
      <trkpt lat="59.276562" lon="18.092184">
        <ele>38</ele>
        <time>2019-11-27T08:17:50Z</time>
      </trkpt>
      <trkpt lat="59.276517" lon="18.0922">
        <ele>38</ele>
        <time>2019-11-27T08:17:51Z</time>
      </trkpt>
      <trkpt lat="59.276472" lon="18.092216">
        <ele>38</ele>
        <time>2019-11-27T08:17:52Z</time>
      </trkpt>
      <trkpt lat="59.276428" lon="18.092231">
        <ele>38</ele>
        <time>2019-11-27T08:17:53Z</time>
      </trkpt>
      <trkpt lat="59.276383" lon="18.092246">
        <ele>38</ele>
        <time>2019-11-27T08:17:54Z</time>
      </trkpt>
      <trkpt lat="59.276338" lon="18.092261">
        <ele>38</ele>
        <time>2019-11-27T08:17:55Z</time>
      </trkpt>
      <trkpt lat="59.276292" lon="18.092275">
        <ele>38</ele>
        <time>2019-11-27T08:17:56Z</time>
      </trkpt>
      <trkpt lat="59.276243" lon="18.092288">
        <ele>38</ele>
        <time>2019-11-27T08:17:57Z</time>
      </trkpt>
      <trkpt lat="59.276196" lon="18.092301">
        <ele>38</ele>
        <time>2019-11-27T08:17:58Z</time>
      </trkpt>
      <trkpt lat="59.276146" lon="18.092317">
        <ele>38</ele>
        <time>2019-11-27T08:18:00Z</time>
      </trkpt>
      <trkpt lat="59.276096" lon="18.092331">
        <ele>38</ele>
        <time>2019-11-27T08:18:00Z</time>
      </trkpt>
      <trkpt lat="59.276042" lon="18.092348">
        <ele>38</ele>
        <time>2019-11-27T08:18:01Z</time>
      </trkpt>
      <trkpt lat="59.275992" lon="18.092361">
        <ele>38</ele>
        <time>2019-11-27T08:18:02Z</time>
      </trkpt>
      <trkpt lat="59.27594" lon="18.092372">
        <ele>38</ele>
        <time>2019-11-27T08:18:03Z</time>
      </trkpt>
      <trkpt lat="59.275886" lon="18.092386">
        <ele>38</ele>
        <time>2019-11-27T08:18:04Z</time>
      </trkpt>
      <trkpt lat="59.275834" lon="18.092401">
        <ele>38</ele>
        <time>2019-11-27T08:18:05Z</time>
      </trkpt>
      <trkpt lat="59.275778" lon="18.092419">
        <ele>37</ele>
        <time>2019-11-27T08:18:06Z</time>
      </trkpt>
      <trkpt lat="59.275721" lon="18.092439">
        <ele>37</ele>
        <time>2019-11-27T08:18:07Z</time>
      </trkpt>
      <trkpt lat="59.275663" lon="18.09246">
        <ele>37</ele>
        <time>2019-11-27T08:18:08Z</time>
      </trkpt>
      <trkpt lat="59.275608" lon="18.092472">
        <ele>37</ele>
        <time>2019-11-27T08:18:10Z</time>
      </trkpt>
      <trkpt lat="59.275556" lon="18.09248">
        <ele>37</ele>
        <time>2019-11-27T08:18:10Z</time>
      </trkpt>
      <trkpt lat="59.275502" lon="18.092488">
        <ele>37</ele>
        <time>2019-11-27T08:18:11Z</time>
      </trkpt>
      <trkpt lat="59.275449" lon="18.092497">
        <ele>37</ele>
        <time>2019-11-27T08:18:12Z</time>
      </trkpt>
      <trkpt lat="59.275396" lon="18.092504">
        <ele>37</ele>
        <time>2019-11-27T08:18:13Z</time>
      </trkpt>
      <trkpt lat="59.275346" lon="18.092511">
        <ele>37</ele>
        <time>2019-11-27T08:18:14Z</time>
      </trkpt>
      <trkpt lat="59.275292" lon="18.09252">
        <ele>37</ele>
        <time>2019-11-27T08:18:15Z</time>
      </trkpt>
      <trkpt lat="59.27524" lon="18.09253">
        <ele>37</ele>
        <time>2019-11-27T08:18:16Z</time>
      </trkpt>
      <trkpt lat="59.275187" lon="18.092541">
        <ele>37</ele>
        <time>2019-11-27T08:18:17Z</time>
      </trkpt>
      <trkpt lat="59.275135" lon="18.092546">
        <ele>37</ele>
        <time>2019-11-27T08:18:19Z</time>
      </trkpt>
      <trkpt lat="59.275085" lon="18.09255">
        <ele>37</ele>
        <time>2019-11-27T08:18:19Z</time>
      </trkpt>
      <trkpt lat="59.275032" lon="18.092553">
        <ele>37</ele>
        <time>2019-11-27T08:18:20Z</time>
      </trkpt>
      <trkpt lat="59.274979" lon="18.092547">
        <ele>37</ele>
        <time>2019-11-27T08:18:21Z</time>
      </trkpt>
      <trkpt lat="59.27493" lon="18.092531">
        <ele>37</ele>
        <time>2019-11-27T08:18:22Z</time>
      </trkpt>
      <trkpt lat="59.274882" lon="18.092501">
        <ele>37</ele>
        <time>2019-11-27T08:18:23Z</time>
      </trkpt>
      <trkpt lat="59.274838" lon="18.092456">
        <ele>37</ele>
        <time>2019-11-27T08:18:24Z</time>
      </trkpt>
      <trkpt lat="59.274796" lon="18.092401">
        <ele>37</ele>
        <time>2019-11-27T08:18:25Z</time>
      </trkpt>
      <trkpt lat="59.274754" lon="18.092341">
        <ele>37</ele>
        <time>2019-11-27T08:18:26Z</time>
      </trkpt>
      <trkpt lat="59.274714" lon="18.092279">
        <ele>38</ele>
        <time>2019-11-27T08:18:27Z</time>
      </trkpt>
      <trkpt lat="59.274674" lon="18.092216">
        <ele>38</ele>
        <time>2019-11-27T08:18:29Z</time>
      </trkpt>
      <trkpt lat="59.274632" lon="18.092155">
        <ele>38</ele>
        <time>2019-11-27T08:18:29Z</time>
      </trkpt>
      <trkpt lat="59.274589" lon="18.092098">
        <ele>38</ele>
        <time>2019-11-27T08:18:30Z</time>
      </trkpt>
      <trkpt lat="59.274542" lon="18.092053">
        <ele>38</ele>
        <time>2019-11-27T08:18:31Z</time>
      </trkpt>
      <trkpt lat="59.274492" lon="18.092023">
        <ele>38</ele>
        <time>2019-11-27T08:18:32Z</time>
      </trkpt>
      <trkpt lat="59.274444" lon="18.092">
        <ele>38</ele>
        <time>2019-11-27T08:18:33Z</time>
      </trkpt>
      <trkpt lat="59.274398" lon="18.091979">
        <ele>38</ele>
        <time>2019-11-27T08:18:34Z</time>
      </trkpt>
      <trkpt lat="59.274354" lon="18.091962">
        <ele>38</ele>
        <time>2019-11-27T08:18:35Z</time>
      </trkpt>
      <trkpt lat="59.274304" lon="18.091941">
        <ele>37</ele>
        <time>2019-11-27T08:18:36Z</time>
      </trkpt>
      <trkpt lat="59.27425" lon="18.091902">
        <ele>37</ele>
        <time>2019-11-27T08:18:38Z</time>
      </trkpt>
      <trkpt lat="59.274204" lon="18.091844">
        <ele>37</ele>
        <time>2019-11-27T08:18:39Z</time>
      </trkpt>
      <trkpt lat="59.274165" lon="18.091777">
        <ele>37</ele>
        <time>2019-11-27T08:18:39Z</time>
      </trkpt>
      <trkpt lat="59.274132" lon="18.091706">
        <ele>38</ele>
        <time>2019-11-27T08:18:40Z</time>
      </trkpt>
      <trkpt lat="59.274102" lon="18.091629">
        <ele>38</ele>
        <time>2019-11-27T08:18:41Z</time>
      </trkpt>
      <trkpt lat="59.274074" lon="18.091549">
        <ele>38</ele>
        <time>2019-11-27T08:18:42Z</time>
      </trkpt>
      <trkpt lat="59.274046" lon="18.091474">
        <ele>38</ele>
        <time>2019-11-27T08:18:43Z</time>
      </trkpt>
      <trkpt lat="59.274014" lon="18.091402">
        <ele>38</ele>
        <time>2019-11-27T08:18:44Z</time>
      </trkpt>
      <trkpt lat="59.273986" lon="18.091328">
        <ele>38</ele>
        <time>2019-11-27T08:18:45Z</time>
      </trkpt>
      <trkpt lat="59.273956" lon="18.091254">
        <ele>38</ele>
        <time>2019-11-27T08:18:46Z</time>
      </trkpt>
      <trkpt lat="59.273923" lon="18.091185">
        <ele>38</ele>
        <time>2019-11-27T08:18:47Z</time>
      </trkpt>
      <trkpt lat="59.273891" lon="18.091112">
        <ele>38</ele>
        <time>2019-11-27T08:18:49Z</time>
      </trkpt>
      <trkpt lat="59.273862" lon="18.091038">
        <ele>38</ele>
        <time>2019-11-27T08:18:49Z</time>
      </trkpt>
      <trkpt lat="59.273832" lon="18.090969">
        <ele>38</ele>
        <time>2019-11-27T08:18:50Z</time>
      </trkpt>
      <trkpt lat="59.273799" lon="18.090909">
        <ele>38</ele>
        <time>2019-11-27T08:18:51Z</time>
      </trkpt>
      <trkpt lat="59.273759" lon="18.09087">
        <ele>39</ele>
        <time>2019-11-27T08:18:52Z</time>
      </trkpt>
      <trkpt lat="59.273709" lon="18.090857">
        <ele>39</ele>
        <time>2019-11-27T08:18:53Z</time>
      </trkpt>
      <trkpt lat="59.27366" lon="18.090864">
        <ele>38</ele>
        <time>2019-11-27T08:18:54Z</time>
      </trkpt>
      <trkpt lat="59.27362" lon="18.090886">
        <ele>38</ele>
        <time>2019-11-27T08:18:55Z</time>
      </trkpt>
      <trkpt lat="59.273576" lon="18.090911">
        <ele>39</ele>
        <time>2019-11-27T08:18:57Z</time>
      </trkpt>
      <trkpt lat="59.273534" lon="18.090933">
        <ele>38</ele>
        <time>2019-11-27T08:18:57Z</time>
      </trkpt>
      <trkpt lat="59.27349" lon="18.090955">
        <ele>39</ele>
        <time>2019-11-27T08:18:58Z</time>
      </trkpt>
      <trkpt lat="59.273444" lon="18.090977">
        <ele>39</ele>
        <time>2019-11-27T08:19:00Z</time>
      </trkpt>
      <trkpt lat="59.273402" lon="18.091">
        <ele>39</ele>
        <time>2019-11-27T08:19:00Z</time>
      </trkpt>
      <trkpt lat="59.273359" lon="18.09102">
        <ele>39</ele>
        <time>2019-11-27T08:19:01Z</time>
      </trkpt>
      <trkpt lat="59.273322" lon="18.091038">
        <ele>39</ele>
        <time>2019-11-27T08:19:02Z</time>
      </trkpt>
      <trkpt lat="59.273287" lon="18.091054">
        <ele>39</ele>
        <time>2019-11-27T08:19:03Z</time>
      </trkpt>
      <trkpt lat="59.273257" lon="18.091078">
        <ele>39</ele>
        <time>2019-11-27T08:19:04Z</time>
      </trkpt>
      <trkpt lat="59.273225" lon="18.091106">
        <ele>39</ele>
        <time>2019-11-27T08:19:05Z</time>
      </trkpt>
      <trkpt lat="59.273192" lon="18.091128">
        <ele>39</ele>
        <time>2019-11-27T08:19:06Z</time>
      </trkpt>
      <trkpt lat="59.273158" lon="18.091152">
        <ele>39</ele>
        <time>2019-11-27T08:19:07Z</time>
      </trkpt>
      <trkpt lat="59.273122" lon="18.091178">
        <ele>39</ele>
        <time>2019-11-27T08:19:08Z</time>
      </trkpt>
      <trkpt lat="59.273082" lon="18.091202">
        <ele>39</ele>
        <time>2019-11-27T08:19:09Z</time>
      </trkpt>
      <trkpt lat="59.273045" lon="18.091228">
        <ele>39</ele>
        <time>2019-11-27T08:19:10Z</time>
      </trkpt>
      <trkpt lat="59.273006" lon="18.091254">
        <ele>39</ele>
        <time>2019-11-27T08:19:11Z</time>
      </trkpt>
      <trkpt lat="59.272976" lon="18.091288">
        <ele>39</ele>
        <time>2019-11-27T08:19:13Z</time>
      </trkpt>
      <trkpt lat="59.272942" lon="18.09134">
        <ele>39</ele>
        <time>2019-11-27T08:19:13Z</time>
      </trkpt>
      <trkpt lat="59.272914" lon="18.091418">
        <ele>39</ele>
        <time>2019-11-27T08:19:14Z</time>
      </trkpt>
      <trkpt lat="59.272879" lon="18.09152">
        <ele>39</ele>
        <time>2019-11-27T08:19:16Z</time>
      </trkpt>
      <trkpt lat="59.272799" lon="18.091786">
        <ele>40</ele>
        <time>2019-11-27T08:19:17Z</time>
      </trkpt>
      <trkpt lat="59.27276" lon="18.09192">
        <ele>40</ele>
        <time>2019-11-27T08:19:18Z</time>
      </trkpt>
      <trkpt lat="59.272739" lon="18.092036">
        <ele>40</ele>
        <time>2019-11-27T08:19:20Z</time>
      </trkpt>
      <trkpt lat="59.272723" lon="18.092152">
        <ele>40</ele>
        <time>2019-11-27T08:19:20Z</time>
      </trkpt>
      <trkpt lat="59.272704" lon="18.092272">
        <ele>41</ele>
        <time>2019-11-27T08:19:21Z</time>
      </trkpt>
      <trkpt lat="59.272677" lon="18.092394">
        <ele>41</ele>
        <time>2019-11-27T08:19:22Z</time>
      </trkpt>
      <trkpt lat="59.272654" lon="18.092514">
        <ele>41</ele>
        <time>2019-11-27T08:19:23Z</time>
      </trkpt>
      <trkpt lat="59.272635" lon="18.092638">
        <ele>41</ele>
        <time>2019-11-27T08:19:24Z</time>
      </trkpt>
      <trkpt lat="59.272613" lon="18.09276">
        <ele>41</ele>
        <time>2019-11-27T08:19:25Z</time>
      </trkpt>
      <trkpt lat="59.272591" lon="18.092878">
        <ele>42</ele>
        <time>2019-11-27T08:19:26Z</time>
      </trkpt>
      <trkpt lat="59.272568" lon="18.09299">
        <ele>42</ele>
        <time>2019-11-27T08:19:28Z</time>
      </trkpt>
      <trkpt lat="59.272547" lon="18.093094">
        <ele>42</ele>
        <time>2019-11-27T08:19:28Z</time>
      </trkpt>
      <trkpt lat="59.272526" lon="18.093186">
        <ele>42</ele>
        <time>2019-11-27T08:19:29Z</time>
      </trkpt>
      <trkpt lat="59.272507" lon="18.093286">
        <ele>42</ele>
        <time>2019-11-27T08:19:30Z</time>
      </trkpt>
      <trkpt lat="59.272484" lon="18.093358">
        <ele>42</ele>
        <time>2019-11-27T08:19:31Z</time>
      </trkpt>
      <trkpt lat="59.272446" lon="18.093406">
        <ele>42</ele>
        <time>2019-11-27T08:19:32Z</time>
      </trkpt>
      <trkpt lat="59.272395" lon="18.093434">
        <ele>42</ele>
        <time>2019-11-27T08:19:33Z</time>
      </trkpt>
      <trkpt lat="59.272335" lon="18.093462">
        <ele>42</ele>
        <time>2019-11-27T08:19:35Z</time>
      </trkpt>
      <trkpt lat="59.272276" lon="18.093482">
        <ele>41</ele>
        <time>2019-11-27T08:19:35Z</time>
      </trkpt>
      <trkpt lat="59.272218" lon="18.093496">
        <ele>41</ele>
        <time>2019-11-27T08:19:37Z</time>
      </trkpt>
      <trkpt lat="59.272161" lon="18.093516">
        <ele>41</ele>
        <time>2019-11-27T08:19:37Z</time>
      </trkpt>
      <trkpt lat="59.272106" lon="18.093538">
        <ele>41</ele>
        <time>2019-11-27T08:19:38Z</time>
      </trkpt>
      <trkpt lat="59.272049" lon="18.093564">
        <ele>41</ele>
        <time>2019-11-27T08:19:39Z</time>
      </trkpt>
      <trkpt lat="59.27199" lon="18.093594">
        <ele>41</ele>
        <time>2019-11-27T08:19:40Z</time>
      </trkpt>
      <trkpt lat="59.271927" lon="18.093626">
        <ele>41</ele>
        <time>2019-11-27T08:19:41Z</time>
      </trkpt>
      <trkpt lat="59.271862" lon="18.093662">
        <ele>40</ele>
        <time>2019-11-27T08:19:42Z</time>
      </trkpt>
      <trkpt lat="59.271799" lon="18.093696">
        <ele>40</ele>
        <time>2019-11-27T08:19:43Z</time>
      </trkpt>
      <trkpt lat="59.271734" lon="18.09373">
        <ele>40</ele>
        <time>2019-11-27T08:19:45Z</time>
      </trkpt>
      <trkpt lat="59.271672" lon="18.09376">
        <ele>40</ele>
        <time>2019-11-27T08:19:45Z</time>
      </trkpt>
      <trkpt lat="59.271613" lon="18.093784">
        <ele>40</ele>
        <time>2019-11-27T08:19:46Z</time>
      </trkpt>
      <trkpt lat="59.271554" lon="18.093804">
        <ele>40</ele>
        <time>2019-11-27T08:19:47Z</time>
      </trkpt>
      <trkpt lat="59.271487" lon="18.093826">
        <ele>40</ele>
        <time>2019-11-27T08:19:48Z</time>
      </trkpt>
      <trkpt lat="59.271418" lon="18.093846">
        <ele>40</ele>
        <time>2019-11-27T08:19:49Z</time>
      </trkpt>
      <trkpt lat="59.271349" lon="18.093864">
        <ele>40</ele>
        <time>2019-11-27T08:19:50Z</time>
      </trkpt>
      <trkpt lat="59.271283" lon="18.09388">
        <ele>40</ele>
        <time>2019-11-27T08:19:51Z</time>
      </trkpt>
      <trkpt lat="59.271215" lon="18.093902">
        <ele>40</ele>
        <time>2019-11-27T08:19:53Z</time>
      </trkpt>
      <trkpt lat="59.27115" lon="18.093932">
        <ele>40</ele>
        <time>2019-11-27T08:19:54Z</time>
      </trkpt>
      <trkpt lat="59.271085" lon="18.093972">
        <ele>40</ele>
        <time>2019-11-27T08:19:54Z</time>
      </trkpt>
      <trkpt lat="59.271027" lon="18.094012">
        <ele>40</ele>
        <time>2019-11-27T08:19:55Z</time>
      </trkpt>
      <trkpt lat="59.270966" lon="18.09405">
        <ele>40</ele>
        <time>2019-11-27T08:19:56Z</time>
      </trkpt>
      <trkpt lat="59.270893" lon="18.094088">
        <ele>40</ele>
        <time>2019-11-27T08:19:57Z</time>
      </trkpt>
      <trkpt lat="59.270821" lon="18.09412">
        <ele>40</ele>
        <time>2019-11-27T08:19:58Z</time>
      </trkpt>
      <trkpt lat="59.270742" lon="18.094154">
        <ele>40</ele>
        <time>2019-11-27T08:20:00Z</time>
      </trkpt>
      <trkpt lat="59.270665" lon="18.094188">
        <ele>40</ele>
        <time>2019-11-27T08:20:00Z</time>
      </trkpt>
      <trkpt lat="59.270586" lon="18.094218">
        <ele>40</ele>
        <time>2019-11-27T08:20:01Z</time>
      </trkpt>
      <trkpt lat="59.270511" lon="18.094244">
        <ele>40</ele>
        <time>2019-11-27T08:20:02Z</time>
      </trkpt>
      <trkpt lat="59.27044" lon="18.094266">
        <ele>40</ele>
        <time>2019-11-27T08:20:03Z</time>
      </trkpt>
      <trkpt lat="59.270364" lon="18.09429">
        <ele>40</ele>
        <time>2019-11-27T08:20:04Z</time>
      </trkpt>
      <trkpt lat="59.270288" lon="18.094316">
        <ele>40</ele>
        <time>2019-11-27T08:20:06Z</time>
      </trkpt>
      <trkpt lat="59.270216" lon="18.094346">
        <ele>40</ele>
        <time>2019-11-27T08:20:06Z</time>
      </trkpt>
      <trkpt lat="59.270148" lon="18.094371">
        <ele>40</ele>
        <time>2019-11-27T08:20:07Z</time>
      </trkpt>
      <trkpt lat="59.270082" lon="18.0944">
        <ele>40</ele>
        <time>2019-11-27T08:20:08Z</time>
      </trkpt>
      <trkpt lat="59.270016" lon="18.094436">
        <ele>40</ele>
        <time>2019-11-27T08:20:09Z</time>
      </trkpt>
      <trkpt lat="59.269952" lon="18.094474">
        <ele>40</ele>
        <time>2019-11-27T08:20:10Z</time>
      </trkpt>
      <trkpt lat="59.26989" lon="18.09452">
        <ele>40</ele>
        <time>2019-11-27T08:20:11Z</time>
      </trkpt>
      <trkpt lat="59.26983" lon="18.09457">
        <ele>40</ele>
        <time>2019-11-27T08:20:13Z</time>
      </trkpt>
      <trkpt lat="59.269771" lon="18.094618">
        <ele>40</ele>
        <time>2019-11-27T08:20:14Z</time>
      </trkpt>
      <trkpt lat="59.26971" lon="18.094662">
        <ele>40</ele>
        <time>2019-11-27T08:20:14Z</time>
      </trkpt>
      <trkpt lat="59.269648" lon="18.094698">
        <ele>40</ele>
        <time>2019-11-27T08:20:15Z</time>
      </trkpt>
      <trkpt lat="59.269585" lon="18.094732">
        <ele>40</ele>
        <time>2019-11-27T08:20:16Z</time>
      </trkpt>
      <trkpt lat="59.269523" lon="18.094762">
        <ele>40</ele>
        <time>2019-11-27T08:20:17Z</time>
      </trkpt>
      <trkpt lat="59.269464" lon="18.09479">
        <ele>41</ele>
        <time>2019-11-27T08:20:18Z</time>
      </trkpt>
      <trkpt lat="59.269403" lon="18.094816">
        <ele>41</ele>
        <time>2019-11-27T08:20:19Z</time>
      </trkpt>
      <trkpt lat="59.269342" lon="18.094846">
        <ele>41</ele>
        <time>2019-11-27T08:20:20Z</time>
      </trkpt>
      <trkpt lat="59.269291" lon="18.09488">
        <ele>41</ele>
        <time>2019-11-27T08:20:22Z</time>
      </trkpt>
      <trkpt lat="59.269235" lon="18.094904">
        <ele>41</ele>
        <time>2019-11-27T08:20:22Z</time>
      </trkpt>
      <trkpt lat="59.269176" lon="18.094928">
        <ele>41</ele>
        <time>2019-11-27T08:20:23Z</time>
      </trkpt>
      <trkpt lat="59.269075" lon="18.094982">
        <ele>41</ele>
        <time>2019-11-27T08:20:25Z</time>
      </trkpt>
      <trkpt lat="59.268962" lon="18.095048">
        <ele>41</ele>
        <time>2019-11-27T08:20:27Z</time>
      </trkpt>
      <trkpt lat="59.268906" lon="18.095078">
        <ele>40</ele>
        <time>2019-11-27T08:20:28Z</time>
      </trkpt>
      <trkpt lat="59.268837" lon="18.09511">
        <ele>40</ele>
        <time>2019-11-27T08:20:30Z</time>
      </trkpt>
      <trkpt lat="59.268773" lon="18.09514">
        <ele>40</ele>
        <time>2019-11-27T08:20:30Z</time>
      </trkpt>
      <trkpt lat="59.268712" lon="18.095178">
        <ele>40</ele>
        <time>2019-11-27T08:20:32Z</time>
      </trkpt>
      <trkpt lat="59.268663" lon="18.095224">
        <ele>40</ele>
        <time>2019-11-27T08:20:32Z</time>
      </trkpt>
      <trkpt lat="59.268615" lon="18.095272">
        <ele>40</ele>
        <time>2019-11-27T08:20:33Z</time>
      </trkpt>
      <trkpt lat="59.268563" lon="18.09531">
        <ele>40</ele>
        <time>2019-11-27T08:20:34Z</time>
      </trkpt>
      <trkpt lat="59.268506" lon="18.095348">
        <ele>40</ele>
        <time>2019-11-27T08:20:35Z</time>
      </trkpt>
      <trkpt lat="59.268388" lon="18.095416">
        <ele>40</ele>
        <time>2019-11-27T08:20:37Z</time>
      </trkpt>
      <trkpt lat="59.268331" lon="18.095458">
        <ele>40</ele>
        <time>2019-11-27T08:20:39Z</time>
      </trkpt>
      <trkpt lat="59.268264" lon="18.095496">
        <ele>40</ele>
        <time>2019-11-27T08:20:39Z</time>
      </trkpt>
      <trkpt lat="59.268196" lon="18.095538">
        <ele>40</ele>
        <time>2019-11-27T08:20:40Z</time>
      </trkpt>
      <trkpt lat="59.268132" lon="18.09558">
        <ele>40</ele>
        <time>2019-11-27T08:20:41Z</time>
      </trkpt>
      <trkpt lat="59.268067" lon="18.095624">
        <ele>40</ele>
        <time>2019-11-27T08:20:42Z</time>
      </trkpt>
      <trkpt lat="59.267994" lon="18.095664">
        <ele>41</ele>
        <time>2019-11-27T08:20:43Z</time>
      </trkpt>
      <trkpt lat="59.267924" lon="18.095694">
        <ele>41</ele>
        <time>2019-11-27T08:20:44Z</time>
      </trkpt>
      <trkpt lat="59.267849" lon="18.095722">
        <ele>41</ele>
        <time>2019-11-27T08:20:46Z</time>
      </trkpt>
      <trkpt lat="59.267771" lon="18.095748">
        <ele>41</ele>
        <time>2019-11-27T08:20:46Z</time>
      </trkpt>
      <trkpt lat="59.267698" lon="18.095768">
        <ele>41</ele>
        <time>2019-11-27T08:20:47Z</time>
      </trkpt>
      <trkpt lat="59.267628" lon="18.095792">
        <ele>41</ele>
        <time>2019-11-27T08:20:48Z</time>
      </trkpt>
      <trkpt lat="59.267559" lon="18.095816">
        <ele>40</ele>
        <time>2019-11-27T08:20:49Z</time>
      </trkpt>
      <trkpt lat="59.267491" lon="18.095836">
        <ele>40</ele>
        <time>2019-11-27T08:20:51Z</time>
      </trkpt>
      <trkpt lat="59.267423" lon="18.095858">
        <ele>40</ele>
        <time>2019-11-27T08:20:51Z</time>
      </trkpt>
      <trkpt lat="59.267359" lon="18.095878">
        <ele>40</ele>
        <time>2019-11-27T08:20:53Z</time>
      </trkpt>
      <trkpt lat="59.267296" lon="18.095894">
        <ele>40</ele>
        <time>2019-11-27T08:20:53Z</time>
      </trkpt>
      <trkpt lat="59.267233" lon="18.09591">
        <ele>40</ele>
        <time>2019-11-27T08:20:54Z</time>
      </trkpt>
      <trkpt lat="59.267172" lon="18.095928">
        <ele>41</ele>
        <time>2019-11-27T08:20:55Z</time>
      </trkpt>
      <trkpt lat="59.267109" lon="18.09595">
        <ele>41</ele>
        <time>2019-11-27T08:20:56Z</time>
      </trkpt>
      <trkpt lat="59.267051" lon="18.095971">
        <ele>41</ele>
        <time>2019-11-27T08:20:57Z</time>
      </trkpt>
      <trkpt lat="59.266992" lon="18.095994">
        <ele>40</ele>
        <time>2019-11-27T08:20:58Z</time>
      </trkpt>
      <trkpt lat="59.266929" lon="18.096026">
        <ele>40</ele>
        <time>2019-11-27T08:20:59Z</time>
      </trkpt>
      <trkpt lat="59.266874" lon="18.096068">
        <ele>41</ele>
        <time>2019-11-27T08:21:01Z</time>
      </trkpt>
      <trkpt lat="59.266822" lon="18.096118">
        <ele>41</ele>
        <time>2019-11-27T08:21:01Z</time>
      </trkpt>
      <trkpt lat="59.266773" lon="18.09618">
        <ele>41</ele>
        <time>2019-11-27T08:21:02Z</time>
      </trkpt>
      <trkpt lat="59.266722" lon="18.096248">
        <ele>41</ele>
        <time>2019-11-27T08:21:03Z</time>
      </trkpt>
      <trkpt lat="59.266673" lon="18.096316">
        <ele>41</ele>
        <time>2019-11-27T08:21:04Z</time>
      </trkpt>
      <trkpt lat="59.266624" lon="18.096385">
        <ele>41</ele>
        <time>2019-11-27T08:21:05Z</time>
      </trkpt>
      <trkpt lat="59.266576" lon="18.096456">
        <ele>41</ele>
        <time>2019-11-27T08:21:06Z</time>
      </trkpt>
      <trkpt lat="59.266525" lon="18.096531">
        <ele>41</ele>
        <time>2019-11-27T08:21:07Z</time>
      </trkpt>
      <trkpt lat="59.266477" lon="18.096605">
        <ele>41</ele>
        <time>2019-11-27T08:21:09Z</time>
      </trkpt>
      <trkpt lat="59.266429" lon="18.096675">
        <ele>41</ele>
        <time>2019-11-27T08:21:10Z</time>
      </trkpt>
      <trkpt lat="59.266377" lon="18.096741">
        <ele>40</ele>
        <time>2019-11-27T08:21:10Z</time>
      </trkpt>
      <trkpt lat="59.266327" lon="18.096799">
        <ele>40</ele>
        <time>2019-11-27T08:21:11Z</time>
      </trkpt>
      <trkpt lat="59.266273" lon="18.09685">
        <ele>40</ele>
        <time>2019-11-27T08:21:12Z</time>
      </trkpt>
      <trkpt lat="59.266216" lon="18.096893">
        <ele>40</ele>
        <time>2019-11-27T08:21:13Z</time>
      </trkpt>
      <trkpt lat="59.266157" lon="18.096932">
        <ele>40</ele>
        <time>2019-11-27T08:21:14Z</time>
      </trkpt>
      <trkpt lat="59.266099" lon="18.096967">
        <ele>39</ele>
        <time>2019-11-27T08:21:15Z</time>
      </trkpt>
      <trkpt lat="59.266041" lon="18.097003">
        <ele>39</ele>
        <time>2019-11-27T08:21:17Z</time>
      </trkpt>
      <trkpt lat="59.265983" lon="18.097037">
        <ele>39</ele>
        <time>2019-11-27T08:21:17Z</time>
      </trkpt>
      <trkpt lat="59.265926" lon="18.09707">
        <ele>39</ele>
        <time>2019-11-27T08:21:18Z</time>
      </trkpt>
      <trkpt lat="59.265866" lon="18.097104">
        <ele>39</ele>
        <time>2019-11-27T08:21:19Z</time>
      </trkpt>
      <trkpt lat="59.265806" lon="18.097134">
        <ele>39</ele>
        <time>2019-11-27T08:21:20Z</time>
      </trkpt>
      <trkpt lat="59.265743" lon="18.097162">
        <ele>39</ele>
        <time>2019-11-27T08:21:21Z</time>
      </trkpt>
      <trkpt lat="59.265679" lon="18.097186">
        <ele>38</ele>
        <time>2019-11-27T08:21:22Z</time>
      </trkpt>
      <trkpt lat="59.26561" lon="18.097212">
        <ele>38</ele>
        <time>2019-11-27T08:21:23Z</time>
      </trkpt>
      <trkpt lat="59.265534" lon="18.097245">
        <ele>38</ele>
        <time>2019-11-27T08:21:25Z</time>
      </trkpt>
      <trkpt lat="59.265461" lon="18.097275">
        <ele>38</ele>
        <time>2019-11-27T08:21:25Z</time>
      </trkpt>
      <trkpt lat="59.265386" lon="18.097299">
        <ele>38</ele>
        <time>2019-11-27T08:21:26Z</time>
      </trkpt>
      <trkpt lat="59.265311" lon="18.09732">
        <ele>38</ele>
        <time>2019-11-27T08:21:27Z</time>
      </trkpt>
      <trkpt lat="59.265241" lon="18.09734">
        <ele>38</ele>
        <time>2019-11-27T08:21:29Z</time>
      </trkpt>
      <trkpt lat="59.265275" lon="18.097328">
        <ele>37</ele>
        <time>2019-11-27T08:21:29Z</time>
      </trkpt>
      <trkpt lat="59.265233" lon="18.097349">
        <ele>37</ele>
        <time>2019-11-27T08:21:31Z</time>
      </trkpt>
      <trkpt lat="59.265193" lon="18.097357">
        <ele>37</ele>
        <time>2019-11-27T08:21:32Z</time>
      </trkpt>
      <trkpt lat="59.265146" lon="18.097369">
        <ele>37</ele>
        <time>2019-11-27T08:21:33Z</time>
      </trkpt>
      <trkpt lat="59.265095" lon="18.097397">
        <ele>37</ele>
        <time>2019-11-27T08:21:35Z</time>
      </trkpt>
      <trkpt lat="59.265036" lon="18.097428">
        <ele>37</ele>
        <time>2019-11-27T08:21:35Z</time>
      </trkpt>
      <trkpt lat="59.264983" lon="18.09745">
        <ele>37</ele>
        <time>2019-11-27T08:21:36Z</time>
      </trkpt>
      <trkpt lat="59.264923" lon="18.097475">
        <ele>37</ele>
        <time>2019-11-27T08:21:37Z</time>
      </trkpt>
      <trkpt lat="59.264865" lon="18.097498">
        <ele>37</ele>
        <time>2019-11-27T08:21:38Z</time>
      </trkpt>
      <trkpt lat="59.264807" lon="18.097521">
        <ele>37</ele>
        <time>2019-11-27T08:21:39Z</time>
      </trkpt>
      <trkpt lat="59.264746" lon="18.097546">
        <ele>37</ele>
        <time>2019-11-27T08:21:40Z</time>
      </trkpt>
      <trkpt lat="59.264682" lon="18.097574">
        <ele>38</ele>
        <time>2019-11-27T08:21:41Z</time>
      </trkpt>
      <trkpt lat="59.264587" lon="18.097618">
        <ele>38</ele>
        <time>2019-11-27T08:21:43Z</time>
      </trkpt>
      <trkpt lat="59.264505" lon="18.097651">
        <ele>38</ele>
        <time>2019-11-27T08:21:43Z</time>
      </trkpt>
      <trkpt lat="59.264428" lon="18.097684">
        <ele>38</ele>
        <time>2019-11-27T08:21:44Z</time>
      </trkpt>
      <trkpt lat="59.264354" lon="18.097714">
        <ele>38</ele>
        <time>2019-11-27T08:21:45Z</time>
      </trkpt>
      <trkpt lat="59.264282" lon="18.097745">
        <ele>38</ele>
        <time>2019-11-27T08:21:46Z</time>
      </trkpt>
      <trkpt lat="59.26421" lon="18.097773">
        <ele>38</ele>
        <time>2019-11-27T08:21:48Z</time>
      </trkpt>
      <trkpt lat="59.26414" lon="18.097796">
        <ele>38</ele>
        <time>2019-11-27T08:21:49Z</time>
      </trkpt>
      <trkpt lat="59.26407" lon="18.097818">
        <ele>38</ele>
        <time>2019-11-27T08:21:49Z</time>
      </trkpt>
      <trkpt lat="59.264002" lon="18.097839">
        <ele>38</ele>
        <time>2019-11-27T08:21:50Z</time>
      </trkpt>
      <trkpt lat="59.263929" lon="18.097861">
        <ele>38</ele>
        <time>2019-11-27T08:21:51Z</time>
      </trkpt>
      <trkpt lat="59.263858" lon="18.097884">
        <ele>38</ele>
        <time>2019-11-27T08:21:52Z</time>
      </trkpt>
      <trkpt lat="59.263785" lon="18.097908">
        <ele>39</ele>
        <time>2019-11-27T08:21:53Z</time>
      </trkpt>
      <trkpt lat="59.263712" lon="18.09793">
        <ele>39</ele>
        <time>2019-11-27T08:21:54Z</time>
      </trkpt>
      <trkpt lat="59.26364" lon="18.097952">
        <ele>39</ele>
        <time>2019-11-27T08:21:56Z</time>
      </trkpt>
      <trkpt lat="59.263569" lon="18.097975">
        <ele>39</ele>
        <time>2019-11-27T08:21:56Z</time>
      </trkpt>
      <trkpt lat="59.263492" lon="18.097997">
        <ele>39</ele>
        <time>2019-11-27T08:21:57Z</time>
      </trkpt>
      <trkpt lat="59.263413" lon="18.098019">
        <ele>39</ele>
        <time>2019-11-27T08:21:59Z</time>
      </trkpt>
      <trkpt lat="59.263331" lon="18.098041">
        <ele>39</ele>
        <time>2019-11-27T08:21:59Z</time>
      </trkpt>
      <trkpt lat="59.263252" lon="18.098062">
        <ele>39</ele>
        <time>2019-11-27T08:22:00Z</time>
      </trkpt>
      <trkpt lat="59.263174" lon="18.098074">
        <ele>39</ele>
        <time>2019-11-27T08:22:02Z</time>
      </trkpt>
      <trkpt lat="59.263089" lon="18.098086">
        <ele>38</ele>
        <time>2019-11-27T08:22:02Z</time>
      </trkpt>
      <trkpt lat="59.263002" lon="18.098098">
        <ele>37</ele>
        <time>2019-11-27T08:22:03Z</time>
      </trkpt>
      <trkpt lat="59.26291" lon="18.098107">
        <ele>37</ele>
        <time>2019-11-27T08:22:04Z</time>
      </trkpt>
      <trkpt lat="59.262823" lon="18.09811">
        <ele>36</ele>
        <time>2019-11-27T08:22:05Z</time>
      </trkpt>
      <trkpt lat="59.26274" lon="18.098109">
        <ele>35</ele>
        <time>2019-11-27T08:22:07Z</time>
      </trkpt>
      <trkpt lat="59.262656" lon="18.09811">
        <ele>35</ele>
        <time>2019-11-27T08:22:08Z</time>
      </trkpt>
      <trkpt lat="59.262571" lon="18.098111">
        <ele>34</ele>
        <time>2019-11-27T08:22:08Z</time>
      </trkpt>
      <trkpt lat="59.262488" lon="18.098108">
        <ele>34</ele>
        <time>2019-11-27T08:22:09Z</time>
      </trkpt>
      <trkpt lat="59.262408" lon="18.098092">
        <ele>33</ele>
        <time>2019-11-27T08:22:10Z</time>
      </trkpt>
      <trkpt lat="59.262329" lon="18.098059">
        <ele>33</ele>
        <time>2019-11-27T08:22:11Z</time>
      </trkpt>
      <trkpt lat="59.262253" lon="18.098004">
        <ele>33</ele>
        <time>2019-11-27T08:22:12Z</time>
      </trkpt>
      <trkpt lat="59.262181" lon="18.097929">
        <ele>32</ele>
        <time>2019-11-27T08:22:14Z</time>
      </trkpt>
      <trkpt lat="59.262115" lon="18.097841">
        <ele>32</ele>
        <time>2019-11-27T08:22:14Z</time>
      </trkpt>
      <trkpt lat="59.262052" lon="18.097747">
        <ele>32</ele>
        <time>2019-11-27T08:22:15Z</time>
      </trkpt>
      <trkpt lat="59.26199" lon="18.097653">
        <ele>32</ele>
        <time>2019-11-27T08:22:16Z</time>
      </trkpt>
      <trkpt lat="59.26193" lon="18.097558">
        <ele>31</ele>
        <time>2019-11-27T08:22:17Z</time>
      </trkpt>
      <trkpt lat="59.261871" lon="18.097464">
        <ele>31</ele>
        <time>2019-11-27T08:22:18Z</time>
      </trkpt>
      <trkpt lat="59.261813" lon="18.097369">
        <ele>31</ele>
        <time>2019-11-27T08:22:19Z</time>
      </trkpt>
      <trkpt lat="59.261756" lon="18.097274">
        <ele>31</ele>
        <time>2019-11-27T08:22:21Z</time>
      </trkpt>
      <trkpt lat="59.261699" lon="18.09718">
        <ele>31</ele>
        <time>2019-11-27T08:22:21Z</time>
      </trkpt>
      <trkpt lat="59.261644" lon="18.097087">
        <ele>31</ele>
        <time>2019-11-27T08:22:22Z</time>
      </trkpt>
      <trkpt lat="59.261588" lon="18.096994">
        <ele>30</ele>
        <time>2019-11-27T08:22:23Z</time>
      </trkpt>
      <trkpt lat="59.261534" lon="18.096903">
        <ele>30</ele>
        <time>2019-11-27T08:22:24Z</time>
      </trkpt>
      <trkpt lat="59.261478" lon="18.096818">
        <ele>30</ele>
        <time>2019-11-27T08:22:26Z</time>
      </trkpt>
      <trkpt lat="59.261421" lon="18.096739">
        <ele>30</ele>
        <time>2019-11-27T08:22:26Z</time>
      </trkpt>
      <trkpt lat="59.261361" lon="18.096672">
        <ele>30</ele>
        <time>2019-11-27T08:22:28Z</time>
      </trkpt>
      <trkpt lat="59.261299" lon="18.096614">
        <ele>30</ele>
        <time>2019-11-27T08:22:28Z</time>
      </trkpt>
      <trkpt lat="59.261237" lon="18.096563">
        <ele>30</ele>
        <time>2019-11-27T08:22:29Z</time>
      </trkpt>
      <trkpt lat="59.261174" lon="18.096518">
        <ele>30</ele>
        <time>2019-11-27T08:22:30Z</time>
      </trkpt>
      <trkpt lat="59.261111" lon="18.096478">
        <ele>30</ele>
        <time>2019-11-27T08:22:31Z</time>
      </trkpt>
      <trkpt lat="59.261048" lon="18.096445">
        <ele>30</ele>
        <time>2019-11-27T08:22:32Z</time>
      </trkpt>
      <trkpt lat="59.260985" lon="18.096423">
        <ele>30</ele>
        <time>2019-11-27T08:22:33Z</time>
      </trkpt>
      <trkpt lat="59.260919" lon="18.096418">
        <ele>30</ele>
        <time>2019-11-27T08:22:35Z</time>
      </trkpt>
      <trkpt lat="59.260852" lon="18.096425">
        <ele>29</ele>
        <time>2019-11-27T08:22:35Z</time>
      </trkpt>
      <trkpt lat="59.260783" lon="18.096439">
        <ele>29</ele>
        <time>2019-11-27T08:22:36Z</time>
      </trkpt>
      <trkpt lat="59.260712" lon="18.096455">
        <ele>29</ele>
        <time>2019-11-27T08:22:37Z</time>
      </trkpt>
      <trkpt lat="59.260639" lon="18.096473">
        <ele>28</ele>
        <time>2019-11-27T08:22:38Z</time>
      </trkpt>
      <trkpt lat="59.260564" lon="18.096492">
        <ele>28</ele>
        <time>2019-11-27T08:22:39Z</time>
      </trkpt>
      <trkpt lat="59.260488" lon="18.096515">
        <ele>28</ele>
        <time>2019-11-27T08:22:40Z</time>
      </trkpt>
      <trkpt lat="59.260412" lon="18.096541">
        <ele>28</ele>
        <time>2019-11-27T08:22:42Z</time>
      </trkpt>
      <trkpt lat="59.260337" lon="18.096567">
        <ele>28</ele>
        <time>2019-11-27T08:22:42Z</time>
      </trkpt>
      <trkpt lat="59.260261" lon="18.096583">
        <ele>28</ele>
        <time>2019-11-27T08:22:43Z</time>
      </trkpt>
      <trkpt lat="59.260125" lon="18.096673">
        <ele>28</ele>
        <time>2019-11-27T08:22:45Z</time>
      </trkpt>
      <trkpt lat="59.260066" lon="18.09675">
        <ele>29</ele>
        <time>2019-11-27T08:22:46Z</time>
      </trkpt>
      <trkpt lat="59.259951" lon="18.096881">
        <ele>29</ele>
        <time>2019-11-27T08:22:49Z</time>
      </trkpt>
      <trkpt lat="59.259902" lon="18.096945">
        <ele>29</ele>
        <time>2019-11-27T08:22:49Z</time>
      </trkpt>
      <trkpt lat="59.259856" lon="18.097014">
        <ele>29</ele>
        <time>2019-11-27T08:22:50Z</time>
      </trkpt>
      <trkpt lat="59.259815" lon="18.097082">
        <ele>29</ele>
        <time>2019-11-27T08:22:51Z</time>
      </trkpt>
      <trkpt lat="59.259777" lon="18.09716">
        <ele>29</ele>
        <time>2019-11-27T08:22:52Z</time>
      </trkpt>
      <trkpt lat="59.259745" lon="18.097244">
        <ele>29</ele>
        <time>2019-11-27T08:22:53Z</time>
      </trkpt>
      <trkpt lat="59.259719" lon="18.097336">
        <ele>29</ele>
        <time>2019-11-27T08:22:54Z</time>
      </trkpt>
      <trkpt lat="59.259699" lon="18.097434">
        <ele>29</ele>
        <time>2019-11-27T08:22:55Z</time>
      </trkpt>
      <trkpt lat="59.259685" lon="18.097539">
        <ele>29</ele>
        <time>2019-11-27T08:22:56Z</time>
      </trkpt>
      <trkpt lat="59.259674" lon="18.097647">
        <ele>29</ele>
        <time>2019-11-27T08:22:58Z</time>
      </trkpt>
      <trkpt lat="59.259666" lon="18.09776">
        <ele>29</ele>
        <time>2019-11-27T08:22:58Z</time>
      </trkpt>
      <trkpt lat="59.259658" lon="18.097874">
        <ele>29</ele>
        <time>2019-11-27T08:22:59Z</time>
      </trkpt>
      <trkpt lat="59.259649" lon="18.097986">
        <ele>29</ele>
        <time>2019-11-27T08:23:00Z</time>
      </trkpt>
      <trkpt lat="59.259638" lon="18.098103">
        <ele>29</ele>
        <time>2019-11-27T08:23:01Z</time>
      </trkpt>
      <trkpt lat="59.259629" lon="18.098221">
        <ele>29</ele>
        <time>2019-11-27T08:23:02Z</time>
      </trkpt>
      <trkpt lat="59.25962" lon="18.098341">
        <ele>29</ele>
        <time>2019-11-27T08:23:04Z</time>
      </trkpt>
      <trkpt lat="59.25961" lon="18.09846">
        <ele>29</ele>
        <time>2019-11-27T08:23:04Z</time>
      </trkpt>
      <trkpt lat="59.259598" lon="18.098578">
        <ele>28</ele>
        <time>2019-11-27T08:23:06Z</time>
      </trkpt>
      <trkpt lat="59.259579" lon="18.098696">
        <ele>28</ele>
        <time>2019-11-27T08:23:06Z</time>
      </trkpt>
      <trkpt lat="59.259552" lon="18.098809">
        <ele>28</ele>
        <time>2019-11-27T08:23:07Z</time>
      </trkpt>
      <trkpt lat="59.259516" lon="18.09891">
        <ele>28</ele>
        <time>2019-11-27T08:23:08Z</time>
      </trkpt>
      <trkpt lat="59.259472" lon="18.098999">
        <ele>28</ele>
        <time>2019-11-27T08:23:09Z</time>
      </trkpt>
      <trkpt lat="59.259423" lon="18.099076">
        <ele>28</ele>
        <time>2019-11-27T08:23:10Z</time>
      </trkpt>
      <trkpt lat="59.259369" lon="18.099138">
        <ele>28</ele>
        <time>2019-11-27T08:23:11Z</time>
      </trkpt>
      <trkpt lat="59.259313" lon="18.099187">
        <ele>28</ele>
        <time>2019-11-27T08:23:12Z</time>
      </trkpt>
      <trkpt lat="59.259254" lon="18.099224">
        <ele>28</ele>
        <time>2019-11-27T08:23:14Z</time>
      </trkpt>
      <trkpt lat="59.259194" lon="18.099244">
        <ele>28</ele>
        <time>2019-11-27T08:23:14Z</time>
      </trkpt>
      <trkpt lat="59.259133" lon="18.09925">
        <ele>28</ele>
        <time>2019-11-27T08:23:15Z</time>
      </trkpt>
      <trkpt lat="59.259075" lon="18.099249">
        <ele>28</ele>
        <time>2019-11-27T08:23:16Z</time>
      </trkpt>
      <trkpt lat="59.259019" lon="18.09925">
        <ele>28</ele>
        <time>2019-11-27T08:23:17Z</time>
      </trkpt>
      <trkpt lat="59.258965" lon="18.099253">
        <ele>28</ele>
        <time>2019-11-27T08:23:18Z</time>
      </trkpt>
      <trkpt lat="59.258913" lon="18.099258">
        <ele>28</ele>
        <time>2019-11-27T08:23:19Z</time>
      </trkpt>
      <trkpt lat="59.258859" lon="18.09926">
        <ele>28</ele>
        <time>2019-11-27T08:23:20Z</time>
      </trkpt>
      <trkpt lat="59.258805" lon="18.099264">
        <ele>28</ele>
        <time>2019-11-27T08:23:21Z</time>
      </trkpt>
      <trkpt lat="59.258749" lon="18.099268">
        <ele>28</ele>
        <time>2019-11-27T08:23:23Z</time>
      </trkpt>
      <trkpt lat="59.258693" lon="18.099269">
        <ele>28</ele>
        <time>2019-11-27T08:23:23Z</time>
      </trkpt>
      <trkpt lat="59.258635" lon="18.099269">
        <ele>29</ele>
        <time>2019-11-27T08:23:24Z</time>
      </trkpt>
      <trkpt lat="59.258578" lon="18.09927">
        <ele>29</ele>
        <time>2019-11-27T08:23:25Z</time>
      </trkpt>
      <trkpt lat="59.25852" lon="18.09927">
        <ele>29</ele>
        <time>2019-11-27T08:23:26Z</time>
      </trkpt>
      <trkpt lat="59.258463" lon="18.099268">
        <ele>29</ele>
        <time>2019-11-27T08:23:27Z</time>
      </trkpt>
      <trkpt lat="59.258406" lon="18.099262">
        <ele>29</ele>
        <time>2019-11-27T08:23:28Z</time>
      </trkpt>
      <trkpt lat="59.258348" lon="18.099256">
        <ele>29</ele>
        <time>2019-11-27T08:23:29Z</time>
      </trkpt>
      <trkpt lat="59.258291" lon="18.099253">
        <ele>29</ele>
        <time>2019-11-27T08:23:30Z</time>
      </trkpt>
      <trkpt lat="59.258233" lon="18.099251">
        <ele>29</ele>
        <time>2019-11-27T08:23:32Z</time>
      </trkpt>
      <trkpt lat="59.258175" lon="18.099247">
        <ele>29</ele>
        <time>2019-11-27T08:23:32Z</time>
      </trkpt>
      <trkpt lat="59.258116" lon="18.099241">
        <ele>29</ele>
        <time>2019-11-27T08:23:33Z</time>
      </trkpt>
      <trkpt lat="59.258056" lon="18.099232">
        <ele>30</ele>
        <time>2019-11-27T08:23:34Z</time>
      </trkpt>
      <trkpt lat="59.257996" lon="18.09922">
        <ele>30</ele>
        <time>2019-11-27T08:23:35Z</time>
      </trkpt>
      <trkpt lat="59.257936" lon="18.099205">
        <ele>30</ele>
        <time>2019-11-27T08:23:36Z</time>
      </trkpt>
      <trkpt lat="59.257877" lon="18.099189">
        <ele>30</ele>
        <time>2019-11-27T08:23:37Z</time>
      </trkpt>
      <trkpt lat="59.257818" lon="18.099175">
        <ele>30</ele>
        <time>2019-11-27T08:23:38Z</time>
      </trkpt>
      <trkpt lat="59.257757" lon="18.09917">
        <ele>30</ele>
        <time>2019-11-27T08:23:40Z</time>
      </trkpt>
      <trkpt lat="59.257697" lon="18.09918">
        <ele>30</ele>
        <time>2019-11-27T08:23:40Z</time>
      </trkpt>
      <trkpt lat="59.257641" lon="18.099205">
        <ele>30</ele>
        <time>2019-11-27T08:23:42Z</time>
      </trkpt>
      <trkpt lat="59.257584" lon="18.099247">
        <ele>30</ele>
        <time>2019-11-27T08:23:42Z</time>
      </trkpt>
      <trkpt lat="59.257529" lon="18.099304">
        <ele>30</ele>
        <time>2019-11-27T08:23:43Z</time>
      </trkpt>
      <trkpt lat="59.257475" lon="18.099382">
        <ele>30</ele>
        <time>2019-11-27T08:23:44Z</time>
      </trkpt>
      <trkpt lat="59.257424" lon="18.099479">
        <ele>29</ele>
        <time>2019-11-27T08:23:45Z</time>
      </trkpt>
      <trkpt lat="59.257376" lon="18.099591">
        <ele>29</ele>
        <time>2019-11-27T08:23:46Z</time>
      </trkpt>
      <trkpt lat="59.257334" lon="18.09971">
        <ele>29</ele>
        <time>2019-11-27T08:23:48Z</time>
      </trkpt>
      <trkpt lat="59.257298" lon="18.099829">
        <ele>29</ele>
        <time>2019-11-27T08:23:48Z</time>
      </trkpt>
      <trkpt lat="59.257265" lon="18.099951">
        <ele>29</ele>
        <time>2019-11-27T08:23:49Z</time>
      </trkpt>
      <trkpt lat="59.257234" lon="18.100071">
        <ele>29</ele>
        <time>2019-11-27T08:23:50Z</time>
      </trkpt>
      <trkpt lat="59.257201" lon="18.100189">
        <ele>29</ele>
        <time>2019-11-27T08:23:51Z</time>
      </trkpt>
      <trkpt lat="59.257169" lon="18.100305">
        <ele>29</ele>
        <time>2019-11-27T08:23:52Z</time>
      </trkpt>
      <trkpt lat="59.257013" lon="18.100837">
        <ele>29</ele>
        <time>2019-11-27T08:23:57Z</time>
      </trkpt>
      <trkpt lat="59.256966" lon="18.101034">
        <ele>27</ele>
        <time>2019-11-27T08:24:01Z</time>
      </trkpt>
      <trkpt lat="59.256902" lon="18.101111">
        <ele>28</ele>
        <time>2019-11-27T08:24:02Z</time>
      </trkpt>
      <trkpt lat="59.256867" lon="18.101121">
        <ele>28</ele>
        <time>2019-11-27T08:24:03Z</time>
      </trkpt>
      <trkpt lat="59.256831" lon="18.101125">
        <ele>28</ele>
        <time>2019-11-27T08:24:04Z</time>
      </trkpt>
      <trkpt lat="59.256789" lon="18.101122">
        <ele>29</ele>
        <time>2019-11-27T08:24:05Z</time>
      </trkpt>
      <trkpt lat="59.256741" lon="18.101117">
        <ele>29</ele>
        <time>2019-11-27T08:24:07Z</time>
      </trkpt>
      <trkpt lat="59.25669" lon="18.101109">
        <ele>29</ele>
        <time>2019-11-27T08:24:07Z</time>
      </trkpt>
      <trkpt lat="59.256635" lon="18.101104">
        <ele>29</ele>
        <time>2019-11-27T08:24:08Z</time>
      </trkpt>
      <trkpt lat="59.256574" lon="18.1011">
        <ele>29</ele>
        <time>2019-11-27T08:24:09Z</time>
      </trkpt>
      <trkpt lat="59.256511" lon="18.101095">
        <ele>29</ele>
        <time>2019-11-27T08:24:10Z</time>
      </trkpt>
      <trkpt lat="59.256448" lon="18.101092">
        <ele>29</ele>
        <time>2019-11-27T08:24:11Z</time>
      </trkpt>
      <trkpt lat="59.256385" lon="18.101085">
        <ele>30</ele>
        <time>2019-11-27T08:24:12Z</time>
      </trkpt>
      <trkpt lat="59.256322" lon="18.101077">
        <ele>31</ele>
        <time>2019-11-27T08:24:13Z</time>
      </trkpt>
      <trkpt lat="59.25626" lon="18.10107">
        <ele>31</ele>
        <time>2019-11-27T08:24:15Z</time>
      </trkpt>
      <trkpt lat="59.256198" lon="18.101062">
        <ele>31</ele>
        <time>2019-11-27T08:24:15Z</time>
      </trkpt>
      <trkpt lat="59.256135" lon="18.101052">
        <ele>31</ele>
        <time>2019-11-27T08:24:16Z</time>
      </trkpt>
      <trkpt lat="59.256071" lon="18.101042">
        <ele>32</ele>
        <time>2019-11-27T08:24:17Z</time>
      </trkpt>
      <trkpt lat="59.256008" lon="18.101032">
        <ele>32</ele>
        <time>2019-11-27T08:24:18Z</time>
      </trkpt>
      <trkpt lat="59.255946" lon="18.101023">
        <ele>33</ele>
        <time>2019-11-27T08:24:20Z</time>
      </trkpt>
      <trkpt lat="59.255886" lon="18.10101">
        <ele>33</ele>
        <time>2019-11-27T08:24:20Z</time>
      </trkpt>
      <trkpt lat="59.25583" lon="18.100996">
        <ele>34</ele>
        <time>2019-11-27T08:24:21Z</time>
      </trkpt>
      <trkpt lat="59.25577" lon="18.100981">
        <ele>35</ele>
        <time>2019-11-27T08:24:23Z</time>
      </trkpt>
      <trkpt lat="59.255706" lon="18.100967">
        <ele>35</ele>
        <time>2019-11-27T08:24:23Z</time>
      </trkpt>
      <trkpt lat="59.255643" lon="18.100953">
        <ele>35</ele>
        <time>2019-11-27T08:24:24Z</time>
      </trkpt>
      <trkpt lat="59.255576" lon="18.10094">
        <ele>35</ele>
        <time>2019-11-27T08:24:25Z</time>
      </trkpt>
      <trkpt lat="59.25551" lon="18.100928">
        <ele>35</ele>
        <time>2019-11-27T08:24:26Z</time>
      </trkpt>
      <trkpt lat="59.255442" lon="18.100915">
        <ele>34</ele>
        <time>2019-11-27T08:24:27Z</time>
      </trkpt>
      <trkpt lat="59.255376" lon="18.100903">
        <ele>34</ele>
        <time>2019-11-27T08:24:28Z</time>
      </trkpt>
      <trkpt lat="59.255311" lon="18.10089">
        <ele>35</ele>
        <time>2019-11-27T08:24:29Z</time>
      </trkpt>
      <trkpt lat="59.255247" lon="18.100879">
        <ele>34</ele>
        <time>2019-11-27T08:24:31Z</time>
      </trkpt>
      <trkpt lat="59.255183" lon="18.100864">
        <ele>34</ele>
        <time>2019-11-27T08:24:31Z</time>
      </trkpt>
      <trkpt lat="59.25512" lon="18.100844">
        <ele>34</ele>
        <time>2019-11-27T08:24:32Z</time>
      </trkpt>
      <trkpt lat="59.255054" lon="18.100823">
        <ele>34</ele>
        <time>2019-11-27T08:24:33Z</time>
      </trkpt>
      <trkpt lat="59.254986" lon="18.100805">
        <ele>34</ele>
        <time>2019-11-27T08:24:34Z</time>
      </trkpt>
      <trkpt lat="59.25492" lon="18.100786">
        <ele>33</ele>
        <time>2019-11-27T08:24:35Z</time>
      </trkpt>
      <trkpt lat="59.254856" lon="18.100767">
        <ele>33</ele>
        <time>2019-11-27T08:24:36Z</time>
      </trkpt>
      <trkpt lat="59.254789" lon="18.100754">
        <ele>32</ele>
        <time>2019-11-27T08:24:38Z</time>
      </trkpt>
      <trkpt lat="59.254721" lon="18.100739">
        <ele>32</ele>
        <time>2019-11-27T08:24:39Z</time>
      </trkpt>
      <trkpt lat="59.254651" lon="18.10072">
        <ele>32</ele>
        <time>2019-11-27T08:24:39Z</time>
      </trkpt>
      <trkpt lat="59.254585" lon="18.100698">
        <ele>32</ele>
        <time>2019-11-27T08:24:40Z</time>
      </trkpt>
      <trkpt lat="59.254523" lon="18.100678">
        <ele>32</ele>
        <time>2019-11-27T08:24:41Z</time>
      </trkpt>
      <trkpt lat="59.254459" lon="18.100657">
        <ele>32</ele>
        <time>2019-11-27T08:24:42Z</time>
      </trkpt>
      <trkpt lat="59.254391" lon="18.100634">
        <ele>31</ele>
        <time>2019-11-27T08:24:43Z</time>
      </trkpt>
      <trkpt lat="59.254325" lon="18.100614">
        <ele>31</ele>
        <time>2019-11-27T08:24:44Z</time>
      </trkpt>
      <trkpt lat="59.254257" lon="18.100598">
        <ele>31</ele>
        <time>2019-11-27T08:24:46Z</time>
      </trkpt>
      <trkpt lat="59.25419" lon="18.100594">
        <ele>31</ele>
        <time>2019-11-27T08:24:46Z</time>
      </trkpt>
      <trkpt lat="59.254125" lon="18.100595">
        <ele>30</ele>
        <time>2019-11-27T08:24:47Z</time>
      </trkpt>
      <trkpt lat="59.254057" lon="18.100599">
        <ele>30</ele>
        <time>2019-11-27T08:24:48Z</time>
      </trkpt>
      <trkpt lat="59.25399" lon="18.100593">
        <ele>30</ele>
        <time>2019-11-27T08:24:49Z</time>
      </trkpt>
      <trkpt lat="59.253924" lon="18.100572">
        <ele>29</ele>
        <time>2019-11-27T08:24:50Z</time>
      </trkpt>
      <trkpt lat="59.253856" lon="18.10055">
        <ele>29</ele>
        <time>2019-11-27T08:24:51Z</time>
      </trkpt>
      <trkpt lat="59.253788" lon="18.100527">
        <ele>29</ele>
        <time>2019-11-27T08:24:53Z</time>
      </trkpt>
      <trkpt lat="59.253723" lon="18.1005">
        <ele>29</ele>
        <time>2019-11-27T08:24:53Z</time>
      </trkpt>
      <trkpt lat="59.253657" lon="18.100473">
        <ele>29</ele>
        <time>2019-11-27T08:24:54Z</time>
      </trkpt>
      <trkpt lat="59.253593" lon="18.100441">
        <ele>29</ele>
        <time>2019-11-27T08:24:55Z</time>
      </trkpt>
      <trkpt lat="59.253529" lon="18.100405">
        <ele>29</ele>
        <time>2019-11-27T08:24:56Z</time>
      </trkpt>
      <trkpt lat="59.253466" lon="18.100363">
        <ele>29</ele>
        <time>2019-11-27T08:24:58Z</time>
      </trkpt>
      <trkpt lat="59.253403" lon="18.100317">
        <ele>29</ele>
        <time>2019-11-27T08:24:58Z</time>
      </trkpt>
      <trkpt lat="59.253343" lon="18.100267">
        <ele>29</ele>
        <time>2019-11-27T08:25:00Z</time>
      </trkpt>
      <trkpt lat="59.253282" lon="18.100218">
        <ele>29</ele>
        <time>2019-11-27T08:25:00Z</time>
      </trkpt>
      <trkpt lat="59.25322" lon="18.100177">
        <ele>29</ele>
        <time>2019-11-27T08:25:01Z</time>
      </trkpt>
      <trkpt lat="59.253156" lon="18.100148">
        <ele>28</ele>
        <time>2019-11-27T08:25:02Z</time>
      </trkpt>
      <trkpt lat="59.253089" lon="18.100135">
        <ele>28</ele>
        <time>2019-11-27T08:25:03Z</time>
      </trkpt>
      <trkpt lat="59.253019" lon="18.100137">
        <ele>28</ele>
        <time>2019-11-27T08:25:04Z</time>
      </trkpt>
      <trkpt lat="59.252949" lon="18.10015">
        <ele>28</ele>
        <time>2019-11-27T08:25:05Z</time>
      </trkpt>
      <trkpt lat="59.25288" lon="18.100166">
        <ele>28</ele>
        <time>2019-11-27T08:25:06Z</time>
      </trkpt>
      <trkpt lat="59.25281" lon="18.100185">
        <ele>27</ele>
        <time>2019-11-27T08:25:08Z</time>
      </trkpt>
      <trkpt lat="59.252741" lon="18.100204">
        <ele>27</ele>
        <time>2019-11-27T08:25:08Z</time>
      </trkpt>
      <trkpt lat="59.252673" lon="18.100226">
        <ele>27</ele>
        <time>2019-11-27T08:25:09Z</time>
      </trkpt>
      <trkpt lat="59.252606" lon="18.100251">
        <ele>27</ele>
        <time>2019-11-27T08:25:10Z</time>
      </trkpt>
      <trkpt lat="59.252542" lon="18.100278">
        <ele>27</ele>
        <time>2019-11-27T08:25:11Z</time>
      </trkpt>
      <trkpt lat="59.252479" lon="18.100308">
        <ele>26</ele>
        <time>2019-11-27T08:25:12Z</time>
      </trkpt>
      <trkpt lat="59.252418" lon="18.100338">
        <ele>26</ele>
        <time>2019-11-27T08:25:13Z</time>
      </trkpt>
      <trkpt lat="59.25236" lon="18.100367">
        <ele>27</ele>
        <time>2019-11-27T08:25:15Z</time>
      </trkpt>
      <trkpt lat="59.252304" lon="18.100399">
        <ele>27</ele>
        <time>2019-11-27T08:25:15Z</time>
      </trkpt>
      <trkpt lat="59.252253" lon="18.100433">
        <ele>27</ele>
        <time>2019-11-27T08:25:17Z</time>
      </trkpt>
      <trkpt lat="59.252203" lon="18.100464">
        <ele>27</ele>
        <time>2019-11-27T08:25:17Z</time>
      </trkpt>
      <trkpt lat="59.252155" lon="18.10049">
        <ele>27</ele>
        <time>2019-11-27T08:25:18Z</time>
      </trkpt>
      <trkpt lat="59.252108" lon="18.100517">
        <ele>27</ele>
        <time>2019-11-27T08:25:19Z</time>
      </trkpt>
      <trkpt lat="59.252062" lon="18.100546">
        <ele>27</ele>
        <time>2019-11-27T08:25:20Z</time>
      </trkpt>
      <trkpt lat="59.252019" lon="18.100574">
        <ele>27</ele>
        <time>2019-11-27T08:25:21Z</time>
      </trkpt>
      <trkpt lat="59.251978" lon="18.100601">
        <ele>27</ele>
        <time>2019-11-27T08:25:22Z</time>
      </trkpt>
      <trkpt lat="59.251938" lon="18.100626">
        <ele>27</ele>
        <time>2019-11-27T08:25:23Z</time>
      </trkpt>
      <trkpt lat="59.251896" lon="18.100651">
        <ele>27</ele>
        <time>2019-11-27T08:25:24Z</time>
      </trkpt>
      <trkpt lat="59.251857" lon="18.100676">
        <ele>27</ele>
        <time>2019-11-27T08:25:26Z</time>
      </trkpt>
      <trkpt lat="59.251816" lon="18.100702">
        <ele>27</ele>
        <time>2019-11-27T08:25:26Z</time>
      </trkpt>
      <trkpt lat="59.251775" lon="18.100728">
        <ele>27</ele>
        <time>2019-11-27T08:25:27Z</time>
      </trkpt>
      <trkpt lat="59.251734" lon="18.100753">
        <ele>27</ele>
        <time>2019-11-27T08:25:28Z</time>
      </trkpt>
      <trkpt lat="59.251692" lon="18.10078">
        <ele>27</ele>
        <time>2019-11-27T08:25:29Z</time>
      </trkpt>
      <trkpt lat="59.251651" lon="18.100806">
        <ele>27</ele>
        <time>2019-11-27T08:25:30Z</time>
      </trkpt>
      <trkpt lat="59.25161" lon="18.100832">
        <ele>27</ele>
        <time>2019-11-27T08:25:31Z</time>
      </trkpt>
      <trkpt lat="59.251567" lon="18.100858">
        <ele>28</ele>
        <time>2019-11-27T08:25:32Z</time>
      </trkpt>
      <trkpt lat="59.251525" lon="18.100883">
        <ele>28</ele>
        <time>2019-11-27T08:25:33Z</time>
      </trkpt>
      <trkpt lat="59.251482" lon="18.100906">
        <ele>28</ele>
        <time>2019-11-27T08:25:34Z</time>
      </trkpt>
      <trkpt lat="59.251438" lon="18.100925">
        <ele>28</ele>
        <time>2019-11-27T08:25:36Z</time>
      </trkpt>
      <trkpt lat="59.251395" lon="18.100938">
        <ele>28</ele>
        <time>2019-11-27T08:25:37Z</time>
      </trkpt>
      <trkpt lat="59.25135" lon="18.100941">
        <ele>28</ele>
        <time>2019-11-27T08:25:37Z</time>
      </trkpt>
      <trkpt lat="59.251306" lon="18.100933">
        <ele>28</ele>
        <time>2019-11-27T08:25:38Z</time>
      </trkpt>
      <trkpt lat="59.251263" lon="18.100916">
        <ele>28</ele>
        <time>2019-11-27T08:25:39Z</time>
      </trkpt>
      <trkpt lat="59.25122" lon="18.100892">
        <ele>29</ele>
        <time>2019-11-27T08:25:40Z</time>
      </trkpt>
      <trkpt lat="59.251179" lon="18.100866">
        <ele>29</ele>
        <time>2019-11-27T08:25:41Z</time>
      </trkpt>
      <trkpt lat="59.251138" lon="18.100836">
        <ele>29</ele>
        <time>2019-11-27T08:25:42Z</time>
      </trkpt>
      <trkpt lat="59.2511" lon="18.100802">
        <ele>29</ele>
        <time>2019-11-27T08:25:43Z</time>
      </trkpt>
      <trkpt lat="59.251062" lon="18.100767">
        <ele>29</ele>
        <time>2019-11-27T08:25:44Z</time>
      </trkpt>
      <trkpt lat="59.251025" lon="18.10073">
        <ele>29</ele>
        <time>2019-11-27T08:25:45Z</time>
      </trkpt>
      <trkpt lat="59.250988" lon="18.100691">
        <ele>29</ele>
        <time>2019-11-27T08:25:46Z</time>
      </trkpt>
      <trkpt lat="59.250952" lon="18.100648">
        <ele>29</ele>
        <time>2019-11-27T08:25:47Z</time>
      </trkpt>
      <trkpt lat="59.250916" lon="18.100601">
        <ele>30</ele>
        <time>2019-11-27T08:25:49Z</time>
      </trkpt>
      <trkpt lat="59.250881" lon="18.10055">
        <ele>30</ele>
        <time>2019-11-27T08:25:49Z</time>
      </trkpt>
      <trkpt lat="59.250847" lon="18.100495">
        <ele>30</ele>
        <time>2019-11-27T08:25:50Z</time>
      </trkpt>
      <trkpt lat="59.250815" lon="18.100435">
        <ele>30</ele>
        <time>2019-11-27T08:25:51Z</time>
      </trkpt>
      <trkpt lat="59.250785" lon="18.100373">
        <ele>30</ele>
        <time>2019-11-27T08:25:52Z</time>
      </trkpt>
      <trkpt lat="59.250758" lon="18.100309">
        <ele>30</ele>
        <time>2019-11-27T08:25:53Z</time>
      </trkpt>
      <trkpt lat="59.250733" lon="18.100245">
        <ele>30</ele>
        <time>2019-11-27T08:25:55Z</time>
      </trkpt>
      <trkpt lat="59.250708" lon="18.100184">
        <ele>30</ele>
        <time>2019-11-27T08:25:55Z</time>
      </trkpt>
      <trkpt lat="59.25068" lon="18.100129">
        <ele>30</ele>
        <time>2019-11-27T08:25:56Z</time>
      </trkpt>
      <trkpt lat="59.250651" lon="18.100073">
        <ele>30</ele>
        <time>2019-11-27T08:25:57Z</time>
      </trkpt>
      <trkpt lat="59.250624" lon="18.100022">
        <ele>30</ele>
        <time>2019-11-27T08:25:58Z</time>
      </trkpt>
      <trkpt lat="59.250595" lon="18.099973">
        <ele>30</ele>
        <time>2019-11-27T08:25:59Z</time>
      </trkpt>
      <trkpt lat="59.250565" lon="18.099927">
        <ele>30</ele>
        <time>2019-11-27T08:26:00Z</time>
      </trkpt>
      <trkpt lat="59.250533" lon="18.099883">
        <ele>30</ele>
        <time>2019-11-27T08:26:02Z</time>
      </trkpt>
      <trkpt lat="59.250501" lon="18.099845">
        <ele>30</ele>
        <time>2019-11-27T08:26:02Z</time>
      </trkpt>
      <trkpt lat="59.250472" lon="18.099815">
        <ele>30</ele>
        <time>2019-11-27T08:26:03Z</time>
      </trkpt>
      <trkpt lat="59.250449" lon="18.099795">
        <ele>30</ele>
        <time>2019-11-27T08:26:04Z</time>
      </trkpt>
      <trkpt lat="59.250435" lon="18.099785">
        <ele>0</ele>
        <time>2019-11-27T08:26:09Z</time>
      </trkpt>
      <trkpt lat="59.250396" lon="18.099758">
        <ele>31</ele>
        <time>2019-11-27T08:26:17Z</time>
      </trkpt>
      <trkpt lat="59.250368" lon="18.099745">
        <ele>31</ele>
        <time>2019-11-27T08:26:17Z</time>
      </trkpt>
      <trkpt lat="59.250332" lon="18.099731">
        <ele>31</ele>
        <time>2019-11-27T08:26:18Z</time>
      </trkpt>
      <trkpt lat="59.250292" lon="18.099713">
        <ele>31</ele>
        <time>2019-11-27T08:26:19Z</time>
      </trkpt>
      <trkpt lat="59.250249" lon="18.099692">
        <ele>32</ele>
        <time>2019-11-27T08:26:20Z</time>
      </trkpt>
      <trkpt lat="59.250202" lon="18.099672">
        <ele>31</ele>
        <time>2019-11-27T08:26:21Z</time>
      </trkpt>
      <trkpt lat="59.250151" lon="18.099651">
        <ele>32</ele>
        <time>2019-11-27T08:26:22Z</time>
      </trkpt>
      <trkpt lat="59.250096" lon="18.099629">
        <ele>32</ele>
        <time>2019-11-27T08:26:23Z</time>
      </trkpt>
      <trkpt lat="59.250038" lon="18.099602">
        <ele>31</ele>
        <time>2019-11-27T08:26:25Z</time>
      </trkpt>
      <trkpt lat="59.249975" lon="18.099575">
        <ele>31</ele>
        <time>2019-11-27T08:26:25Z</time>
      </trkpt>
      <trkpt lat="59.249911" lon="18.099551">
        <ele>31</ele>
        <time>2019-11-27T08:26:26Z</time>
      </trkpt>
      <trkpt lat="59.249846" lon="18.099525">
        <ele>30</ele>
        <time>2019-11-27T08:26:27Z</time>
      </trkpt>
      <trkpt lat="59.249778" lon="18.099502">
        <ele>30</ele>
        <time>2019-11-27T08:26:28Z</time>
      </trkpt>
      <trkpt lat="59.249707" lon="18.099487">
        <ele>30</ele>
        <time>2019-11-27T08:26:29Z</time>
      </trkpt>
      <trkpt lat="59.249635" lon="18.099482">
        <ele>30</ele>
        <time>2019-11-27T08:26:30Z</time>
      </trkpt>
      <trkpt lat="59.249563" lon="18.09949">
        <ele>30</ele>
        <time>2019-11-27T08:26:31Z</time>
      </trkpt>
      <trkpt lat="59.249492" lon="18.099507">
        <ele>29</ele>
        <time>2019-11-27T08:26:33Z</time>
      </trkpt>
      <trkpt lat="59.249427" lon="18.099533">
        <ele>29</ele>
        <time>2019-11-27T08:26:33Z</time>
      </trkpt>
      <trkpt lat="59.249362" lon="18.099558">
        <ele>29</ele>
        <time>2019-11-27T08:26:34Z</time>
      </trkpt>
      <trkpt lat="59.2493" lon="18.099585">
        <ele>29</ele>
        <time>2019-11-27T08:26:36Z</time>
      </trkpt>
      <trkpt lat="59.24924" lon="18.099613">
        <ele>29</ele>
        <time>2019-11-27T08:26:36Z</time>
      </trkpt>
      <trkpt lat="59.249183" lon="18.09964">
        <ele>29</ele>
        <time>2019-11-27T08:26:37Z</time>
      </trkpt>
      <trkpt lat="59.249126" lon="18.099669">
        <ele>29</ele>
        <time>2019-11-27T08:26:38Z</time>
      </trkpt>
      <trkpt lat="59.24907" lon="18.099701">
        <ele>29</ele>
        <time>2019-11-27T08:26:39Z</time>
      </trkpt>
      <trkpt lat="59.249015" lon="18.099738">
        <ele>29</ele>
        <time>2019-11-27T08:26:41Z</time>
      </trkpt>
      <trkpt lat="59.248964" lon="18.09978">
        <ele>29</ele>
        <time>2019-11-27T08:26:41Z</time>
      </trkpt>
      <trkpt lat="59.248915" lon="18.099828">
        <ele>29</ele>
        <time>2019-11-27T08:26:42Z</time>
      </trkpt>
      <trkpt lat="59.248866" lon="18.09988">
        <ele>30</ele>
        <time>2019-11-27T08:26:43Z</time>
      </trkpt>
      <trkpt lat="59.248818" lon="18.099936">
        <ele>30</ele>
        <time>2019-11-27T08:26:44Z</time>
      </trkpt>
      <trkpt lat="59.248773" lon="18.099995">
        <ele>30</ele>
        <time>2019-11-27T08:26:45Z</time>
      </trkpt>
      <trkpt lat="59.248729" lon="18.10006">
        <ele>30</ele>
        <time>2019-11-27T08:26:46Z</time>
      </trkpt>
      <trkpt lat="59.248685" lon="18.100128">
        <ele>30</ele>
        <time>2019-11-27T08:26:47Z</time>
      </trkpt>
      <trkpt lat="59.248642" lon="18.100197">
        <ele>30</ele>
        <time>2019-11-27T08:26:48Z</time>
      </trkpt>
      <trkpt lat="59.248597" lon="18.100265">
        <ele>30</ele>
        <time>2019-11-27T08:26:50Z</time>
      </trkpt>
      <trkpt lat="59.248551" lon="18.100329">
        <ele>30</ele>
        <time>2019-11-27T08:26:50Z</time>
      </trkpt>
      <trkpt lat="59.248504" lon="18.100392">
        <ele>30</ele>
        <time>2019-11-27T08:26:51Z</time>
      </trkpt>
      <trkpt lat="59.248454" lon="18.100451">
        <ele>31</ele>
        <time>2019-11-27T08:26:52Z</time>
      </trkpt>
      <trkpt lat="59.248404" lon="18.100504">
        <ele>31</ele>
        <time>2019-11-27T08:26:53Z</time>
      </trkpt>
      <trkpt lat="59.248352" lon="18.100543">
        <ele>31</ele>
        <time>2019-11-27T08:26:55Z</time>
      </trkpt>
      <trkpt lat="59.248304" lon="18.100577">
        <ele>31</ele>
        <time>2019-11-27T08:26:55Z</time>
      </trkpt>
      <trkpt lat="59.24826" lon="18.100611">
        <ele>31</ele>
        <time>2019-11-27T08:26:56Z</time>
      </trkpt>
      <trkpt lat="59.248224" lon="18.100649">
        <ele>31</ele>
        <time>2019-11-27T08:26:57Z</time>
      </trkpt>
      <trkpt lat="59.24819" lon="18.100688">
        <ele>31</ele>
        <time>2019-11-27T08:26:58Z</time>
      </trkpt>
      <trkpt lat="59.248158" lon="18.10073">
        <ele>31</ele>
        <time>2019-11-27T08:27:00Z</time>
      </trkpt>
      <trkpt lat="59.248125" lon="18.100776">
        <ele>31</ele>
        <time>2019-11-27T08:27:00Z</time>
      </trkpt>
      <trkpt lat="59.248093" lon="18.100824">
        <ele>31</ele>
        <time>2019-11-27T08:27:01Z</time>
      </trkpt>
      <trkpt lat="59.248064" lon="18.100881">
        <ele>31</ele>
        <time>2019-11-27T08:27:02Z</time>
      </trkpt>
      <trkpt lat="59.248037" lon="18.100945">
        <ele>31</ele>
        <time>2019-11-27T08:27:03Z</time>
      </trkpt>
      <trkpt lat="59.248011" lon="18.10101">
        <ele>32</ele>
        <time>2019-11-27T08:27:04Z</time>
      </trkpt>
      <trkpt lat="59.247986" lon="18.101076">
        <ele>32</ele>
        <time>2019-11-27T08:27:05Z</time>
      </trkpt>
      <trkpt lat="59.24796" lon="18.101142">
        <ele>32</ele>
        <time>2019-11-27T08:27:06Z</time>
      </trkpt>
      <trkpt lat="59.247935" lon="18.101208">
        <ele>32</ele>
        <time>2019-11-27T08:27:07Z</time>
      </trkpt>
      <trkpt lat="59.247911" lon="18.101278">
        <ele>32</ele>
        <time>2019-11-27T08:27:08Z</time>
      </trkpt>
      <trkpt lat="59.247885" lon="18.101346">
        <ele>32</ele>
        <time>2019-11-27T08:27:09Z</time>
      </trkpt>
      <trkpt lat="59.247858" lon="18.101415">
        <ele>32</ele>
        <time>2019-11-27T08:27:10Z</time>
      </trkpt>
      <trkpt lat="59.247832" lon="18.101488">
        <ele>32</ele>
        <time>2019-11-27T08:27:12Z</time>
      </trkpt>
      <trkpt lat="59.247807" lon="18.10156">
        <ele>32</ele>
        <time>2019-11-27T08:27:12Z</time>
      </trkpt>
      <trkpt lat="59.247785" lon="18.101631">
        <ele>32</ele>
        <time>2019-11-27T08:27:14Z</time>
      </trkpt>
      <trkpt lat="59.247763" lon="18.101705">
        <ele>32</ele>
        <time>2019-11-27T08:27:14Z</time>
      </trkpt>
      <trkpt lat="59.247744" lon="18.101783">
        <ele>32</ele>
        <time>2019-11-27T08:27:15Z</time>
      </trkpt>
      <trkpt lat="59.247724" lon="18.101866">
        <ele>32</ele>
        <time>2019-11-27T08:27:16Z</time>
      </trkpt>
      <trkpt lat="59.247704" lon="18.101948">
        <ele>31</ele>
        <time>2019-11-27T08:27:17Z</time>
      </trkpt>
      <trkpt lat="59.247683" lon="18.10203">
        <ele>31</ele>
        <time>2019-11-27T08:27:18Z</time>
      </trkpt>
      <trkpt lat="59.247662" lon="18.102112">
        <ele>31</ele>
        <time>2019-11-27T08:27:19Z</time>
      </trkpt>
      <trkpt lat="59.247642" lon="18.102196">
        <ele>31</ele>
        <time>2019-11-27T08:27:20Z</time>
      </trkpt>
      <trkpt lat="59.247623" lon="18.102282">
        <ele>31</ele>
        <time>2019-11-27T08:27:22Z</time>
      </trkpt>
      <trkpt lat="59.247604" lon="18.102367">
        <ele>31</ele>
        <time>2019-11-27T08:27:22Z</time>
      </trkpt>
      <trkpt lat="59.247582" lon="18.102451">
        <ele>31</ele>
        <time>2019-11-27T08:27:23Z</time>
      </trkpt>
      <trkpt lat="59.24756" lon="18.102536">
        <ele>31</ele>
        <time>2019-11-27T08:27:24Z</time>
      </trkpt>
      <trkpt lat="59.247538" lon="18.102623">
        <ele>31</ele>
        <time>2019-11-27T08:27:25Z</time>
      </trkpt>
      <trkpt lat="59.247516" lon="18.10271">
        <ele>31</ele>
        <time>2019-11-27T08:27:26Z</time>
      </trkpt>
      <trkpt lat="59.247492" lon="18.102798">
        <ele>31</ele>
        <time>2019-11-27T08:27:27Z</time>
      </trkpt>
      <trkpt lat="59.247465" lon="18.102886">
        <ele>31</ele>
        <time>2019-11-27T08:27:28Z</time>
      </trkpt>
      <trkpt lat="59.247437" lon="18.10297">
        <ele>31</ele>
        <time>2019-11-27T08:27:29Z</time>
      </trkpt>
      <trkpt lat="59.247402" lon="18.103054">
        <ele>30</ele>
        <time>2019-11-27T08:27:30Z</time>
      </trkpt>
      <trkpt lat="59.24736" lon="18.103134">
        <ele>30</ele>
        <time>2019-11-27T08:27:32Z</time>
      </trkpt>
      <trkpt lat="59.247314" lon="18.103212">
        <ele>30</ele>
        <time>2019-11-27T08:27:33Z</time>
      </trkpt>
      <trkpt lat="59.247264" lon="18.10329">
        <ele>30</ele>
        <time>2019-11-27T08:27:33Z</time>
      </trkpt>
      <trkpt lat="59.24721" lon="18.103369">
        <ele>29</ele>
        <time>2019-11-27T08:27:34Z</time>
      </trkpt>
      <trkpt lat="59.247155" lon="18.103456">
        <ele>29</ele>
        <time>2019-11-27T08:27:35Z</time>
      </trkpt>
      <trkpt lat="59.2471" lon="18.103557">
        <ele>29</ele>
        <time>2019-11-27T08:27:36Z</time>
      </trkpt>
      <trkpt lat="59.24705" lon="18.103674">
        <ele>29</ele>
        <time>2019-11-27T08:27:37Z</time>
      </trkpt>
      <trkpt lat="59.247008" lon="18.103808">
        <ele>28</ele>
        <time>2019-11-27T08:27:39Z</time>
      </trkpt>
      <trkpt lat="59.246973" lon="18.103955">
        <ele>28</ele>
        <time>2019-11-27T08:27:39Z</time>
      </trkpt>
      <trkpt lat="59.246949" lon="18.104107">
        <ele>28</ele>
        <time>2019-11-27T08:27:40Z</time>
      </trkpt>
      <trkpt lat="59.246938" lon="18.104255">
        <ele>28</ele>
        <time>2019-11-27T08:27:41Z</time>
      </trkpt>
      <trkpt lat="59.246934" lon="18.1044">
        <ele>28</ele>
        <time>2019-11-27T08:27:42Z</time>
      </trkpt>
      <trkpt lat="59.246932" lon="18.104548">
        <ele>28</ele>
        <time>2019-11-27T08:27:43Z</time>
      </trkpt>
      <trkpt lat="59.246931" lon="18.104671">
        <ele>28</ele>
        <time>2019-11-27T08:27:44Z</time>
      </trkpt>
      <trkpt lat="59.246929" lon="18.104777">
        <ele>28</ele>
        <time>2019-11-27T08:27:45Z</time>
      </trkpt>
      <trkpt lat="59.24687" lon="18.104932">
        <ele>28</ele>
        <time>2019-11-27T08:27:47Z</time>
      </trkpt>
      <trkpt lat="59.246827" lon="18.104989">
        <ele>27</ele>
        <time>2019-11-27T08:27:48Z</time>
      </trkpt>
      <trkpt lat="59.246784" lon="18.105042">
        <ele>28</ele>
        <time>2019-11-27T08:27:49Z</time>
      </trkpt>
      <trkpt lat="59.246746" lon="18.105094">
        <ele>28</ele>
        <time>2019-11-27T08:27:50Z</time>
      </trkpt>
      <trkpt lat="59.246711" lon="18.10514">
        <ele>28</ele>
        <time>2019-11-27T08:27:52Z</time>
      </trkpt>
      <trkpt lat="59.246677" lon="18.105185">
        <ele>28</ele>
        <time>2019-11-27T08:27:52Z</time>
      </trkpt>
      <trkpt lat="59.246641" lon="18.105232">
        <ele>28</ele>
        <time>2019-11-27T08:27:53Z</time>
      </trkpt>
      <trkpt lat="59.246606" lon="18.105276">
        <ele>28</ele>
        <time>2019-11-27T08:27:54Z</time>
      </trkpt>
      <trkpt lat="59.246573" lon="18.10532">
        <ele>28</ele>
        <time>2019-11-27T08:27:55Z</time>
      </trkpt>
      <trkpt lat="59.24654" lon="18.105359">
        <ele>28</ele>
        <time>2019-11-27T08:27:57Z</time>
      </trkpt>
      <trkpt lat="59.246501" lon="18.105379">
        <ele>28</ele>
        <time>2019-11-27T08:27:57Z</time>
      </trkpt>
      <trkpt lat="59.246458" lon="18.10539">
        <ele>28</ele>
        <time>2019-11-27T08:27:58Z</time>
      </trkpt>
      <trkpt lat="59.246419" lon="18.105394">
        <ele>29</ele>
        <time>2019-11-27T08:27:59Z</time>
      </trkpt>
      <trkpt lat="59.246383" lon="18.105397">
        <ele>29</ele>
        <time>2019-11-27T08:28:00Z</time>
      </trkpt>
      <trkpt lat="59.246345" lon="18.105405">
        <ele>29</ele>
        <time>2019-11-27T08:28:01Z</time>
      </trkpt>
      <trkpt lat="59.246309" lon="18.105415">
        <ele>28</ele>
        <time>2019-11-27T08:28:02Z</time>
      </trkpt>
      <trkpt lat="59.24627" lon="18.105432">
        <ele>28</ele>
        <time>2019-11-27T08:28:03Z</time>
      </trkpt>
      <trkpt lat="59.246229" lon="18.10545">
        <ele>28</ele>
        <time>2019-11-27T08:28:04Z</time>
      </trkpt>
      <trkpt lat="59.246191" lon="18.105472">
        <ele>28</ele>
        <time>2019-11-27T08:28:05Z</time>
      </trkpt>
      <trkpt lat="59.246157" lon="18.105503">
        <ele>28</ele>
        <time>2019-11-27T08:28:06Z</time>
      </trkpt>
      <trkpt lat="59.246129" lon="18.105543">
        <ele>28</ele>
        <time>2019-11-27T08:28:07Z</time>
      </trkpt>
      <trkpt lat="59.246098" lon="18.105587">
        <ele>28</ele>
        <time>2019-11-27T08:28:08Z</time>
      </trkpt>
      <trkpt lat="59.246069" lon="18.105631">
        <ele>28</ele>
        <time>2019-11-27T08:28:10Z</time>
      </trkpt>
      <trkpt lat="59.246042" lon="18.105673">
        <ele>28</ele>
        <time>2019-11-27T08:28:11Z</time>
      </trkpt>
      <trkpt lat="59.246014" lon="18.105715">
        <ele>28</ele>
        <time>2019-11-27T08:28:11Z</time>
      </trkpt>
      <trkpt lat="59.245985" lon="18.105759">
        <ele>28</ele>
        <time>2019-11-27T08:28:12Z</time>
      </trkpt>
      <trkpt lat="59.245956" lon="18.105803">
        <ele>28</ele>
        <time>2019-11-27T08:28:13Z</time>
      </trkpt>
      <trkpt lat="59.245926" lon="18.105847">
        <ele>29</ele>
        <time>2019-11-27T08:28:14Z</time>
      </trkpt>
      <trkpt lat="59.245895" lon="18.105891">
        <ele>29</ele>
        <time>2019-11-27T08:28:15Z</time>
      </trkpt>
      <trkpt lat="59.245864" lon="18.105935">
        <ele>29</ele>
        <time>2019-11-27T08:28:16Z</time>
      </trkpt>
      <trkpt lat="59.245833" lon="18.105976">
        <ele>29</ele>
        <time>2019-11-27T08:28:17Z</time>
      </trkpt>
      <trkpt lat="59.2458" lon="18.106019">
        <ele>29</ele>
        <time>2019-11-27T08:28:18Z</time>
      </trkpt>
      <trkpt lat="59.245772" lon="18.106062">
        <ele>30</ele>
        <time>2019-11-27T08:28:19Z</time>
      </trkpt>
      <trkpt lat="59.245743" lon="18.106105">
        <ele>30</ele>
        <time>2019-11-27T08:28:20Z</time>
      </trkpt>
      <trkpt lat="59.245715" lon="18.106146">
        <ele>30</ele>
        <time>2019-11-27T08:28:21Z</time>
      </trkpt>
      <trkpt lat="59.245689" lon="18.106186">
        <ele>30</ele>
        <time>2019-11-27T08:28:22Z</time>
      </trkpt>
      <trkpt lat="59.245662" lon="18.106225">
        <ele>30</ele>
        <time>2019-11-27T08:28:24Z</time>
      </trkpt>
      <trkpt lat="59.245633" lon="18.106266">
        <ele>31</ele>
        <time>2019-11-27T08:28:24Z</time>
      </trkpt>
      <trkpt lat="59.245606" lon="18.106309">
        <ele>31</ele>
        <time>2019-11-27T08:28:25Z</time>
      </trkpt>
      <trkpt lat="59.245577" lon="18.106354">
        <ele>31</ele>
        <time>2019-11-27T08:28:26Z</time>
      </trkpt>
      <trkpt lat="59.245548" lon="18.106398">
        <ele>30</ele>
        <time>2019-11-27T08:28:27Z</time>
      </trkpt>
      <trkpt lat="59.245521" lon="18.106444">
        <ele>31</ele>
        <time>2019-11-27T08:28:28Z</time>
      </trkpt>
      <trkpt lat="59.245498" lon="18.10649">
        <ele>31</ele>
        <time>2019-11-27T08:28:30Z</time>
      </trkpt>
      <trkpt lat="59.245473" lon="18.106538">
        <ele>31</ele>
        <time>2019-11-27T08:28:30Z</time>
      </trkpt>
      <trkpt lat="59.245446" lon="18.10659">
        <ele>31</ele>
        <time>2019-11-27T08:28:31Z</time>
      </trkpt>
      <trkpt lat="59.24542" lon="18.106637">
        <ele>31</ele>
        <time>2019-11-27T08:28:32Z</time>
      </trkpt>
      <trkpt lat="59.245392" lon="18.106684">
        <ele>31</ele>
        <time>2019-11-27T08:28:33Z</time>
      </trkpt>
      <trkpt lat="59.245366" lon="18.106733">
        <ele>31</ele>
        <time>2019-11-27T08:28:34Z</time>
      </trkpt>
      <trkpt lat="59.245338" lon="18.10678">
        <ele>31</ele>
        <time>2019-11-27T08:28:35Z</time>
      </trkpt>
      <trkpt lat="59.245312" lon="18.106829">
        <ele>31</ele>
        <time>2019-11-27T08:28:36Z</time>
      </trkpt>
      <trkpt lat="59.245284" lon="18.106881">
        <ele>32</ele>
        <time>2019-11-27T08:28:38Z</time>
      </trkpt>
      <trkpt lat="59.245256" lon="18.106933">
        <ele>32</ele>
        <time>2019-11-27T08:28:38Z</time>
      </trkpt>
      <trkpt lat="59.245227" lon="18.106985">
        <ele>32</ele>
        <time>2019-11-27T08:28:39Z</time>
      </trkpt>
      <trkpt lat="59.245198" lon="18.10704">
        <ele>32</ele>
        <time>2019-11-27T08:28:40Z</time>
      </trkpt>
      <trkpt lat="59.24517" lon="18.107093">
        <ele>32</ele>
        <time>2019-11-27T08:28:41Z</time>
      </trkpt>
      <trkpt lat="59.245141" lon="18.107148">
        <ele>32</ele>
        <time>2019-11-27T08:28:42Z</time>
      </trkpt>
      <trkpt lat="59.245112" lon="18.107203">
        <ele>32</ele>
        <time>2019-11-27T08:28:43Z</time>
      </trkpt>
      <trkpt lat="59.245083" lon="18.107255">
        <ele>32</ele>
        <time>2019-11-27T08:28:44Z</time>
      </trkpt>
      <trkpt lat="59.245054" lon="18.107305">
        <ele>32</ele>
        <time>2019-11-27T08:28:45Z</time>
      </trkpt>
      <trkpt lat="59.245023" lon="18.107353">
        <ele>32</ele>
        <time>2019-11-27T08:28:46Z</time>
      </trkpt>
      <trkpt lat="59.244993" lon="18.107401">
        <ele>32</ele>
        <time>2019-11-27T08:28:47Z</time>
      </trkpt>
      <trkpt lat="59.244962" lon="18.107449">
        <ele>32</ele>
        <time>2019-11-27T08:28:49Z</time>
      </trkpt>
      <trkpt lat="59.244931" lon="18.107495">
        <ele>32</ele>
        <time>2019-11-27T08:28:49Z</time>
      </trkpt>
      <trkpt lat="59.2449" lon="18.107546">
        <ele>32</ele>
        <time>2019-11-27T08:28:51Z</time>
      </trkpt>
      <trkpt lat="59.244868" lon="18.107599">
        <ele>32</ele>
        <time>2019-11-27T08:28:51Z</time>
      </trkpt>
      <trkpt lat="59.244837" lon="18.107652">
        <ele>32</ele>
        <time>2019-11-27T08:28:52Z</time>
      </trkpt>
      <trkpt lat="59.244807" lon="18.107706">
        <ele>33</ele>
        <time>2019-11-27T08:28:53Z</time>
      </trkpt>
      <trkpt lat="59.244778" lon="18.107763">
        <ele>33</ele>
        <time>2019-11-27T08:28:54Z</time>
      </trkpt>
      <trkpt lat="59.244749" lon="18.107821">
        <ele>33</ele>
        <time>2019-11-27T08:28:55Z</time>
      </trkpt>
      <trkpt lat="59.24472" lon="18.107879">
        <ele>33</ele>
        <time>2019-11-27T08:28:56Z</time>
      </trkpt>
      <trkpt lat="59.244691" lon="18.107937">
        <ele>33</ele>
        <time>2019-11-27T08:28:57Z</time>
      </trkpt>
      <trkpt lat="59.24466" lon="18.107999">
        <ele>33</ele>
        <time>2019-11-27T08:28:58Z</time>
      </trkpt>
      <trkpt lat="59.244626" lon="18.108063">
        <ele>33</ele>
        <time>2019-11-27T08:28:59Z</time>
      </trkpt>
      <trkpt lat="59.244593" lon="18.108127">
        <ele>33</ele>
        <time>2019-11-27T08:29:00Z</time>
      </trkpt>
      <trkpt lat="59.244559" lon="18.108193">
        <ele>33</ele>
        <time>2019-11-27T08:29:02Z</time>
      </trkpt>
      <trkpt lat="59.244523" lon="18.108259">
        <ele>33</ele>
        <time>2019-11-27T08:29:02Z</time>
      </trkpt>
      <trkpt lat="59.244487" lon="18.108327">
        <ele>33</ele>
        <time>2019-11-27T08:29:03Z</time>
      </trkpt>
      <trkpt lat="59.244449" lon="18.108397">
        <ele>33</ele>
        <time>2019-11-27T08:29:04Z</time>
      </trkpt>
      <trkpt lat="59.244411" lon="18.108466">
        <ele>33</ele>
        <time>2019-11-27T08:29:05Z</time>
      </trkpt>
      <trkpt lat="59.244374" lon="18.108536">
        <ele>33</ele>
        <time>2019-11-27T08:29:06Z</time>
      </trkpt>
      <trkpt lat="59.244338" lon="18.108608">
        <ele>33</ele>
        <time>2019-11-27T08:29:08Z</time>
      </trkpt>
      <trkpt lat="59.244302" lon="18.10868">
        <ele>33</ele>
        <time>2019-11-27T08:29:08Z</time>
      </trkpt>
      <trkpt lat="59.244264" lon="18.108752">
        <ele>33</ele>
        <time>2019-11-27T08:29:09Z</time>
      </trkpt>
      <trkpt lat="59.244226" lon="18.108826">
        <ele>33</ele>
        <time>2019-11-27T08:29:10Z</time>
      </trkpt>
      <trkpt lat="59.244189" lon="18.108902">
        <ele>33</ele>
        <time>2019-11-27T08:29:12Z</time>
      </trkpt>
      <trkpt lat="59.244153" lon="18.108981">
        <ele>33</ele>
        <time>2019-11-27T08:29:12Z</time>
      </trkpt>
      <trkpt lat="59.244118" lon="18.109065">
        <ele>33</ele>
        <time>2019-11-27T08:29:13Z</time>
      </trkpt>
      <trkpt lat="59.244087" lon="18.109154">
        <ele>33</ele>
        <time>2019-11-27T08:29:14Z</time>
      </trkpt>
      <trkpt lat="59.244057" lon="18.109249">
        <ele>32</ele>
        <time>2019-11-27T08:29:15Z</time>
      </trkpt>
      <trkpt lat="59.244028" lon="18.109351">
        <ele>32</ele>
        <time>2019-11-27T08:29:16Z</time>
      </trkpt>
      <trkpt lat="59.244003" lon="18.109455">
        <ele>32</ele>
        <time>2019-11-27T08:29:17Z</time>
      </trkpt>
      <trkpt lat="59.24398" lon="18.109563">
        <ele>32</ele>
        <time>2019-11-27T08:29:18Z</time>
      </trkpt>
      <trkpt lat="59.243959" lon="18.109676">
        <ele>32</ele>
        <time>2019-11-27T08:29:20Z</time>
      </trkpt>
      <trkpt lat="59.243944" lon="18.109791">
        <ele>31</ele>
        <time>2019-11-27T08:29:20Z</time>
      </trkpt>
      <trkpt lat="59.24393" lon="18.109912">
        <ele>31</ele>
        <time>2019-11-27T08:29:21Z</time>
      </trkpt>
      <trkpt lat="59.243921" lon="18.11003">
        <ele>32</ele>
        <time>2019-11-27T08:29:22Z</time>
      </trkpt>
      <trkpt lat="59.243916" lon="18.110145">
        <ele>31</ele>
        <time>2019-11-27T08:29:23Z</time>
      </trkpt>
      <trkpt lat="59.243912" lon="18.11026">
        <ele>31</ele>
        <time>2019-11-27T08:29:24Z</time>
      </trkpt>
      <trkpt lat="59.24391" lon="18.11038">
        <ele>31</ele>
        <time>2019-11-27T08:29:25Z</time>
      </trkpt>
      <trkpt lat="59.243909" lon="18.1105">
        <ele>31</ele>
        <time>2019-11-27T08:29:27Z</time>
      </trkpt>
      <trkpt lat="59.243909" lon="18.110619">
        <ele>31</ele>
        <time>2019-11-27T08:29:28Z</time>
      </trkpt>
      <trkpt lat="59.243911" lon="18.11074">
        <ele>31</ele>
        <time>2019-11-27T08:29:29Z</time>
      </trkpt>
      <trkpt lat="59.243912" lon="18.110864">
        <ele>31</ele>
        <time>2019-11-27T08:29:29Z</time>
      </trkpt>
      <trkpt lat="59.243912" lon="18.110993">
        <ele>31</ele>
        <time>2019-11-27T08:29:30Z</time>
      </trkpt>
      <trkpt lat="59.243914" lon="18.111125">
        <ele>30</ele>
        <time>2019-11-27T08:29:31Z</time>
      </trkpt>
      <trkpt lat="59.243915" lon="18.111259">
        <ele>30</ele>
        <time>2019-11-27T08:29:32Z</time>
      </trkpt>
      <trkpt lat="59.243917" lon="18.111394">
        <ele>30</ele>
        <time>2019-11-27T08:29:33Z</time>
      </trkpt>
      <trkpt lat="59.243919" lon="18.111531">
        <ele>30</ele>
        <time>2019-11-27T08:29:34Z</time>
      </trkpt>
      <trkpt lat="59.243919" lon="18.111668">
        <ele>30</ele>
        <time>2019-11-27T08:29:36Z</time>
      </trkpt>
      <trkpt lat="59.243919" lon="18.111809">
        <ele>30</ele>
        <time>2019-11-27T08:29:36Z</time>
      </trkpt>
      <trkpt lat="59.24392" lon="18.111951">
        <ele>30</ele>
        <time>2019-11-27T08:29:37Z</time>
      </trkpt>
      <trkpt lat="59.243918" lon="18.112093">
        <ele>30</ele>
        <time>2019-11-27T08:29:38Z</time>
      </trkpt>
      <trkpt lat="59.243915" lon="18.112234">
        <ele>29</ele>
        <time>2019-11-27T08:29:39Z</time>
      </trkpt>
      <trkpt lat="59.243912" lon="18.112374">
        <ele>29</ele>
        <time>2019-11-27T08:29:40Z</time>
      </trkpt>
      <trkpt lat="59.243909" lon="18.112511">
        <ele>29</ele>
        <time>2019-11-27T08:29:41Z</time>
      </trkpt>
      <trkpt lat="59.243906" lon="18.112646">
        <ele>29</ele>
        <time>2019-11-27T08:29:43Z</time>
      </trkpt>
      <trkpt lat="59.243902" lon="18.112782">
        <ele>29</ele>
        <time>2019-11-27T08:29:43Z</time>
      </trkpt>
      <trkpt lat="59.243897" lon="18.112916">
        <ele>29</ele>
        <time>2019-11-27T08:29:44Z</time>
      </trkpt>
      <trkpt lat="59.243887" lon="18.11305">
        <ele>29</ele>
        <time>2019-11-27T08:29:46Z</time>
      </trkpt>
      <trkpt lat="59.243876" lon="18.113181">
        <ele>29</ele>
        <time>2019-11-27T08:29:46Z</time>
      </trkpt>
      <trkpt lat="59.243864" lon="18.113313">
        <ele>29</ele>
        <time>2019-11-27T08:29:47Z</time>
      </trkpt>
      <trkpt lat="59.243853" lon="18.113442">
        <ele>29</ele>
        <time>2019-11-27T08:29:48Z</time>
      </trkpt>
      <trkpt lat="59.24384" lon="18.113568">
        <ele>29</ele>
        <time>2019-11-27T08:29:50Z</time>
      </trkpt>
      <trkpt lat="59.243826" lon="18.113693">
        <ele>29</ele>
        <time>2019-11-27T08:29:50Z</time>
      </trkpt>
      <trkpt lat="59.243811" lon="18.113819">
        <ele>29</ele>
        <time>2019-11-27T08:29:51Z</time>
      </trkpt>
      <trkpt lat="59.243795" lon="18.113944">
        <ele>28</ele>
        <time>2019-11-27T08:29:52Z</time>
      </trkpt>
      <trkpt lat="59.243779" lon="18.114068">
        <ele>28</ele>
        <time>2019-11-27T08:29:53Z</time>
      </trkpt>
      <trkpt lat="59.243763" lon="18.114192">
        <ele>28</ele>
        <time>2019-11-27T08:29:54Z</time>
      </trkpt>
      <trkpt lat="59.243746" lon="18.114315">
        <ele>28</ele>
        <time>2019-11-27T08:29:55Z</time>
      </trkpt>
      <trkpt lat="59.243727" lon="18.114435">
        <ele>28</ele>
        <time>2019-11-27T08:29:56Z</time>
      </trkpt>
      <trkpt lat="59.243706" lon="18.114554">
        <ele>28</ele>
        <time>2019-11-27T08:29:58Z</time>
      </trkpt>
      <trkpt lat="59.243686" lon="18.114674">
        <ele>28</ele>
        <time>2019-11-27T08:29:58Z</time>
      </trkpt>
      <trkpt lat="59.243665" lon="18.114794">
        <ele>28</ele>
        <time>2019-11-27T08:29:59Z</time>
      </trkpt>
      <trkpt lat="59.243643" lon="18.114912">
        <ele>28</ele>
        <time>2019-11-27T08:30:00Z</time>
      </trkpt>
      <trkpt lat="59.243623" lon="18.115031">
        <ele>27</ele>
        <time>2019-11-27T08:30:01Z</time>
      </trkpt>
      <trkpt lat="59.243609" lon="18.115153">
        <ele>27</ele>
        <time>2019-11-27T08:30:02Z</time>
      </trkpt>
      <trkpt lat="59.243598" lon="18.115278">
        <ele>27</ele>
        <time>2019-11-27T08:30:03Z</time>
      </trkpt>
      <trkpt lat="59.243587" lon="18.115406">
        <ele>27</ele>
        <time>2019-11-27T08:30:05Z</time>
      </trkpt>
      <trkpt lat="59.243572" lon="18.115533">
        <ele>27</ele>
        <time>2019-11-27T08:30:06Z</time>
      </trkpt>
      <trkpt lat="59.243549" lon="18.115654">
        <ele>27</ele>
        <time>2019-11-27T08:30:06Z</time>
      </trkpt>
      <trkpt lat="59.24352" lon="18.115771">
        <ele>27</ele>
        <time>2019-11-27T08:30:07Z</time>
      </trkpt>
      <trkpt lat="59.243484" lon="18.115886">
        <ele>27</ele>
        <time>2019-11-27T08:30:08Z</time>
      </trkpt>
      <trkpt lat="59.24345" lon="18.115997">
        <ele>27</ele>
        <time>2019-11-27T08:30:09Z</time>
      </trkpt>
      <trkpt lat="59.243412" lon="18.116107">
        <ele>27</ele>
        <time>2019-11-27T08:30:10Z</time>
      </trkpt>
      <trkpt lat="59.243376" lon="18.116218">
        <ele>27</ele>
        <time>2019-11-27T08:30:11Z</time>
      </trkpt>
      <trkpt lat="59.24334" lon="18.116328">
        <ele>27</ele>
        <time>2019-11-27T08:30:13Z</time>
      </trkpt>
      <trkpt lat="59.243306" lon="18.116437">
        <ele>27</ele>
        <time>2019-11-27T08:30:13Z</time>
      </trkpt>
      <trkpt lat="59.243271" lon="18.116546">
        <ele>26</ele>
        <time>2019-11-27T08:30:14Z</time>
      </trkpt>
      <trkpt lat="59.243237" lon="18.116654">
        <ele>27</ele>
        <time>2019-11-27T08:30:15Z</time>
      </trkpt>
      <trkpt lat="59.243204" lon="18.11676">
        <ele>26</ele>
        <time>2019-11-27T08:30:16Z</time>
      </trkpt>
      <trkpt lat="59.243172" lon="18.116865">
        <ele>26</ele>
        <time>2019-11-27T08:30:17Z</time>
      </trkpt>
      <trkpt lat="59.243139" lon="18.116968">
        <ele>26</ele>
        <time>2019-11-27T08:30:18Z</time>
      </trkpt>
      <trkpt lat="59.243108" lon="18.117071">
        <ele>26</ele>
        <time>2019-11-27T08:30:19Z</time>
      </trkpt>
      <trkpt lat="59.243075" lon="18.117173">
        <ele>26</ele>
        <time>2019-11-27T08:30:21Z</time>
      </trkpt>
      <trkpt lat="59.243042" lon="18.117276">
        <ele>26</ele>
        <time>2019-11-27T08:30:21Z</time>
      </trkpt>
      <trkpt lat="59.243008" lon="18.117382">
        <ele>26</ele>
        <time>2019-11-27T08:30:22Z</time>
      </trkpt>
      <trkpt lat="59.242976" lon="18.117488">
        <ele>26</ele>
        <time>2019-11-27T08:30:24Z</time>
      </trkpt>
      <trkpt lat="59.242944" lon="18.117595">
        <ele>26</ele>
        <time>2019-11-27T08:30:24Z</time>
      </trkpt>
      <trkpt lat="59.242912" lon="18.117701">
        <ele>26</ele>
        <time>2019-11-27T08:30:25Z</time>
      </trkpt>
      <trkpt lat="59.242878" lon="18.117808">
        <ele>25</ele>
        <time>2019-11-27T08:30:26Z</time>
      </trkpt>
      <trkpt lat="59.242847" lon="18.117914">
        <ele>25</ele>
        <time>2019-11-27T08:30:27Z</time>
      </trkpt>
      <trkpt lat="59.242814" lon="18.118019">
        <ele>25</ele>
        <time>2019-11-27T08:30:29Z</time>
      </trkpt>
      <trkpt lat="59.24278" lon="18.118121">
        <ele>25</ele>
        <time>2019-11-27T08:30:29Z</time>
      </trkpt>
      <trkpt lat="59.242748" lon="18.118223">
        <ele>25</ele>
        <time>2019-11-27T08:30:30Z</time>
      </trkpt>
      <trkpt lat="59.242715" lon="18.118323">
        <ele>25</ele>
        <time>2019-11-27T08:30:31Z</time>
      </trkpt>
      <trkpt lat="59.242682" lon="18.118421">
        <ele>25</ele>
        <time>2019-11-27T08:30:32Z</time>
      </trkpt>
      <trkpt lat="59.242651" lon="18.118518">
        <ele>25</ele>
        <time>2019-11-27T08:30:33Z</time>
      </trkpt>
      <trkpt lat="59.24262" lon="18.118613">
        <ele>25</ele>
        <time>2019-11-27T08:30:34Z</time>
      </trkpt>
      <trkpt lat="59.242588" lon="18.118705">
        <ele>25</ele>
        <time>2019-11-27T08:30:35Z</time>
      </trkpt>
      <trkpt lat="59.242552" lon="18.118793">
        <ele>25</ele>
        <time>2019-11-27T08:30:37Z</time>
      </trkpt>
      <trkpt lat="59.242512" lon="18.118877">
        <ele>25</ele>
        <time>2019-11-27T08:30:37Z</time>
      </trkpt>
      <trkpt lat="59.242468" lon="18.118954">
        <ele>25</ele>
        <time>2019-11-27T08:30:38Z</time>
      </trkpt>
      <trkpt lat="59.242423" lon="18.119025">
        <ele>25</ele>
        <time>2019-11-27T08:30:39Z</time>
      </trkpt>
      <trkpt lat="59.242376" lon="18.119082">
        <ele>26</ele>
        <time>2019-11-27T08:30:40Z</time>
      </trkpt>
      <trkpt lat="59.242324" lon="18.119131">
        <ele>26</ele>
        <time>2019-11-27T08:30:41Z</time>
      </trkpt>
      <trkpt lat="59.242274" lon="18.119174">
        <ele>26</ele>
        <time>2019-11-27T08:30:43Z</time>
      </trkpt>
      <trkpt lat="59.242222" lon="18.11921">
        <ele>26</ele>
        <time>2019-11-27T08:30:43Z</time>
      </trkpt>
      <trkpt lat="59.24217" lon="18.119244">
        <ele>26</ele>
        <time>2019-11-27T08:30:44Z</time>
      </trkpt>
      <trkpt lat="59.242118" lon="18.119275">
        <ele>26</ele>
        <time>2019-11-27T08:30:46Z</time>
      </trkpt>
      <trkpt lat="59.242067" lon="18.119305">
        <ele>26</ele>
        <time>2019-11-27T08:30:46Z</time>
      </trkpt>
      <trkpt lat="59.242013" lon="18.119329">
        <ele>26</ele>
        <time>2019-11-27T08:30:47Z</time>
      </trkpt>
      <trkpt lat="59.241962" lon="18.119354">
        <ele>26</ele>
        <time>2019-11-27T08:30:48Z</time>
      </trkpt>
      <trkpt lat="59.241916" lon="18.119376">
        <ele>26</ele>
        <time>2019-11-27T08:30:49Z</time>
      </trkpt>
      <trkpt lat="59.241873" lon="18.119391">
        <ele>26</ele>
        <time>2019-11-27T08:30:50Z</time>
      </trkpt>
      <trkpt lat="59.241826" lon="18.119397">
        <ele>26</ele>
        <time>2019-11-27T08:30:51Z</time>
      </trkpt>
      <trkpt lat="59.241774" lon="18.119388">
        <ele>25</ele>
        <time>2019-11-27T08:30:52Z</time>
      </trkpt>
      <trkpt lat="59.241718" lon="18.119367">
        <ele>25</ele>
        <time>2019-11-27T08:30:53Z</time>
      </trkpt>
      <trkpt lat="59.241662" lon="18.119341">
        <ele>25</ele>
        <time>2019-11-27T08:30:54Z</time>
      </trkpt>
      <trkpt lat="59.241606" lon="18.119313">
        <ele>25</ele>
        <time>2019-11-27T08:30:56Z</time>
      </trkpt>
      <trkpt lat="59.241548" lon="18.119291">
        <ele>25</ele>
        <time>2019-11-27T08:30:56Z</time>
      </trkpt>
      <trkpt lat="59.241497" lon="18.119279">
        <ele>25</ele>
        <time>2019-11-27T08:30:57Z</time>
      </trkpt>
      <trkpt lat="59.241447" lon="18.119274">
        <ele>25</ele>
        <time>2019-11-27T08:30:58Z</time>
      </trkpt>
      <trkpt lat="59.241398" lon="18.119266">
        <ele>25</ele>
        <time>2019-11-27T08:30:59Z</time>
      </trkpt>
      <trkpt lat="59.24135" lon="18.119242">
        <ele>25</ele>
        <time>2019-11-27T08:31:00Z</time>
      </trkpt>
      <trkpt lat="59.241283" lon="18.119231">
        <ele>26</ele>
        <time>2019-11-27T08:31:02Z</time>
      </trkpt>
      <trkpt lat="59.241227" lon="18.119255">
        <ele>26</ele>
        <time>2019-11-27T08:31:02Z</time>
      </trkpt>
      <trkpt lat="59.241187" lon="18.119311">
        <ele>26</ele>
        <time>2019-11-27T08:31:03Z</time>
      </trkpt>
      <trkpt lat="59.241173" lon="18.119383">
        <ele>26</ele>
        <time>2019-11-27T08:31:04Z</time>
      </trkpt>
      <trkpt lat="59.24117" lon="18.11945">
        <ele>26</ele>
        <time>2019-11-27T08:31:05Z</time>
      </trkpt>
      <trkpt lat="59.241159" lon="18.119627">
        <ele>26</ele>
        <time>2019-11-27T08:31:08Z</time>
      </trkpt>
      <trkpt lat="59.241063" lon="18.119678">
        <ele>26</ele>
        <time>2019-11-27T08:31:13Z</time>
      </trkpt>
      <trkpt lat="59.240978" lon="18.119617">
        <ele>26</ele>
        <time>2019-11-27T08:31:14Z</time>
      </trkpt>
      <trkpt lat="59.240837" lon="18.11955">
        <ele>26</ele>
        <time>2019-11-27T08:31:16Z</time>
      </trkpt>
      <trkpt lat="59.240779" lon="18.119531">
        <ele>26</ele>
        <time>2019-11-27T08:31:18Z</time>
      </trkpt>
      <trkpt lat="59.240722" lon="18.119522">
        <ele>26</ele>
        <time>2019-11-27T08:31:18Z</time>
      </trkpt>
      <trkpt lat="59.240666" lon="18.119528">
        <ele>26</ele>
        <time>2019-11-27T08:31:19Z</time>
      </trkpt>
      <trkpt lat="59.240613" lon="18.119542">
        <ele>26</ele>
        <time>2019-11-27T08:31:21Z</time>
      </trkpt>
      <trkpt lat="59.240561" lon="18.119544">
        <ele>26</ele>
        <time>2019-11-27T08:31:21Z</time>
      </trkpt>
      <trkpt lat="59.240513" lon="18.119515">
        <ele>26</ele>
        <time>2019-11-27T08:31:22Z</time>
      </trkpt>
      <trkpt lat="59.240472" lon="18.119462">
        <ele>25</ele>
        <time>2019-11-27T08:31:23Z</time>
      </trkpt>
      <trkpt lat="59.240432" lon="18.119414">
        <ele>26</ele>
        <time>2019-11-27T08:31:24Z</time>
      </trkpt>
      <trkpt lat="59.240388" lon="18.119389">
        <ele>25</ele>
        <time>2019-11-27T08:31:25Z</time>
      </trkpt>
      <trkpt lat="59.24034" lon="18.119386">
        <ele>25</ele>
        <time>2019-11-27T08:31:26Z</time>
      </trkpt>
      <trkpt lat="59.240291" lon="18.1194">
        <ele>25</ele>
        <time>2019-11-27T08:31:28Z</time>
      </trkpt>
      <trkpt lat="59.240241" lon="18.119419">
        <ele>25</ele>
        <time>2019-11-27T08:31:28Z</time>
      </trkpt>
      <trkpt lat="59.240191" lon="18.11944">
        <ele>25</ele>
        <time>2019-11-27T08:31:29Z</time>
      </trkpt>
      <trkpt lat="59.240141" lon="18.119463">
        <ele>25</ele>
        <time>2019-11-27T08:31:30Z</time>
      </trkpt>
      <trkpt lat="59.240091" lon="18.119486">
        <ele>25</ele>
        <time>2019-11-27T08:31:31Z</time>
      </trkpt>
      <trkpt lat="59.240041" lon="18.119509">
        <ele>25</ele>
        <time>2019-11-27T08:31:32Z</time>
      </trkpt>
      <trkpt lat="59.23999" lon="18.119531">
        <ele>25</ele>
        <time>2019-11-27T08:31:33Z</time>
      </trkpt>
      <trkpt lat="59.239939" lon="18.119553">
        <ele>25</ele>
        <time>2019-11-27T08:31:34Z</time>
      </trkpt>
      <trkpt lat="59.239887" lon="18.119574">
        <ele>25</ele>
        <time>2019-11-27T08:31:35Z</time>
      </trkpt>
      <trkpt lat="59.239836" lon="18.119592">
        <ele>25</ele>
        <time>2019-11-27T08:31:37Z</time>
      </trkpt>
      <trkpt lat="59.239786" lon="18.119612">
        <ele>25</ele>
        <time>2019-11-27T08:31:37Z</time>
      </trkpt>
      <trkpt lat="59.239735" lon="18.119632">
        <ele>25</ele>
        <time>2019-11-27T08:31:38Z</time>
      </trkpt>
      <trkpt lat="59.239683" lon="18.119653">
        <ele>25</ele>
        <time>2019-11-27T08:31:40Z</time>
      </trkpt>
      <trkpt lat="59.239632" lon="18.119673">
        <ele>25</ele>
        <time>2019-11-27T08:31:40Z</time>
      </trkpt>
      <trkpt lat="59.239581" lon="18.119693">
        <ele>25</ele>
        <time>2019-11-27T08:31:41Z</time>
      </trkpt>
      <trkpt lat="59.239531" lon="18.119711">
        <ele>25</ele>
        <time>2019-11-27T08:31:42Z</time>
      </trkpt>
      <trkpt lat="59.239482" lon="18.119731">
        <ele>25</ele>
        <time>2019-11-27T08:31:43Z</time>
      </trkpt>
      <trkpt lat="59.239433" lon="18.11975">
        <ele>25</ele>
        <time>2019-11-27T08:31:44Z</time>
      </trkpt>
      <trkpt lat="59.239382" lon="18.119768">
        <ele>25</ele>
        <time>2019-11-27T08:31:45Z</time>
      </trkpt>
      <trkpt lat="59.239333" lon="18.119785">
        <ele>25</ele>
        <time>2019-11-27T08:31:47Z</time>
      </trkpt>
      <trkpt lat="59.239283" lon="18.119802">
        <ele>25</ele>
        <time>2019-11-27T08:31:47Z</time>
      </trkpt>
      <trkpt lat="59.239234" lon="18.119814">
        <ele>25</ele>
        <time>2019-11-27T08:31:48Z</time>
      </trkpt>
      <trkpt lat="59.239186" lon="18.119822">
        <ele>25</ele>
        <time>2019-11-27T08:31:49Z</time>
      </trkpt>
      <trkpt lat="59.239136" lon="18.119828">
        <ele>25</ele>
        <time>2019-11-27T08:31:50Z</time>
      </trkpt>
      <trkpt lat="59.239087" lon="18.119833">
        <ele>25</ele>
        <time>2019-11-27T08:31:51Z</time>
      </trkpt>
      <trkpt lat="59.239039" lon="18.119838">
        <ele>25</ele>
        <time>2019-11-27T08:31:52Z</time>
      </trkpt>
      <trkpt lat="59.238991" lon="18.119841">
        <ele>25</ele>
        <time>2019-11-27T08:31:53Z</time>
      </trkpt>
      <trkpt lat="59.238943" lon="18.119841">
        <ele>25</ele>
        <time>2019-11-27T08:31:54Z</time>
      </trkpt>
      <trkpt lat="59.238897" lon="18.119839">
        <ele>24</ele>
        <time>2019-11-27T08:31:55Z</time>
      </trkpt>
      <trkpt lat="59.238849" lon="18.119837">
        <ele>24</ele>
        <time>2019-11-27T08:31:57Z</time>
      </trkpt>
      <trkpt lat="59.238802" lon="18.119832">
        <ele>24</ele>
        <time>2019-11-27T08:31:57Z</time>
      </trkpt>
      <trkpt lat="59.238755" lon="18.119825">
        <ele>25</ele>
        <time>2019-11-27T08:31:59Z</time>
      </trkpt>
      <trkpt lat="59.238709" lon="18.119817">
        <ele>25</ele>
        <time>2019-11-27T08:31:59Z</time>
      </trkpt>
      <trkpt lat="59.238663" lon="18.11981">
        <ele>25</ele>
        <time>2019-11-27T08:32:00Z</time>
      </trkpt>
      <trkpt lat="59.238616" lon="18.119806">
        <ele>25</ele>
        <time>2019-11-27T08:32:01Z</time>
      </trkpt>
      <trkpt lat="59.238569" lon="18.1198">
        <ele>25</ele>
        <time>2019-11-27T08:32:02Z</time>
      </trkpt>
      <trkpt lat="59.238521" lon="18.11979">
        <ele>25</ele>
        <time>2019-11-27T08:32:03Z</time>
      </trkpt>
      <trkpt lat="59.238474" lon="18.119782">
        <ele>25</ele>
        <time>2019-11-27T08:32:04Z</time>
      </trkpt>
      <trkpt lat="59.238426" lon="18.119776">
        <ele>25</ele>
        <time>2019-11-27T08:32:05Z</time>
      </trkpt>
      <trkpt lat="59.238379" lon="18.119768">
        <ele>25</ele>
        <time>2019-11-27T08:32:06Z</time>
      </trkpt>
      <trkpt lat="59.238333" lon="18.11976">
        <ele>26</ele>
        <time>2019-11-27T08:32:08Z</time>
      </trkpt>
      <trkpt lat="59.238285" lon="18.119756">
        <ele>26</ele>
        <time>2019-11-27T08:32:08Z</time>
      </trkpt>
      <trkpt lat="59.238238" lon="18.119754">
        <ele>26</ele>
        <time>2019-11-27T08:32:09Z</time>
      </trkpt>
      <trkpt lat="59.238192" lon="18.119748">
        <ele>26</ele>
        <time>2019-11-27T08:32:10Z</time>
      </trkpt>
      <trkpt lat="59.238145" lon="18.119742">
        <ele>26</ele>
        <time>2019-11-27T08:32:11Z</time>
      </trkpt>
      <trkpt lat="59.238098" lon="18.119734">
        <ele>26</ele>
        <time>2019-11-27T08:32:12Z</time>
      </trkpt>
      <trkpt lat="59.238054" lon="18.119724">
        <ele>26</ele>
        <time>2019-11-27T08:32:13Z</time>
      </trkpt>
      <trkpt lat="59.238009" lon="18.119712">
        <ele>26</ele>
        <time>2019-11-27T08:32:14Z</time>
      </trkpt>
      <trkpt lat="59.237965" lon="18.119704">
        <ele>26</ele>
        <time>2019-11-27T08:32:15Z</time>
      </trkpt>
      <trkpt lat="59.237921" lon="18.119696">
        <ele>27</ele>
        <time>2019-11-27T08:32:16Z</time>
      </trkpt>
      <trkpt lat="59.237877" lon="18.119688">
        <ele>27</ele>
        <time>2019-11-27T08:32:18Z</time>
      </trkpt>
      <trkpt lat="59.237834" lon="18.119682">
        <ele>27</ele>
        <time>2019-11-27T08:32:19Z</time>
      </trkpt>
      <trkpt lat="59.23779" lon="18.119676">
        <ele>27</ele>
        <time>2019-11-27T08:32:19Z</time>
      </trkpt>
      <trkpt lat="59.237746" lon="18.11967">
        <ele>27</ele>
        <time>2019-11-27T08:32:20Z</time>
      </trkpt>
      <trkpt lat="59.237702" lon="18.119662">
        <ele>27</ele>
        <time>2019-11-27T08:32:21Z</time>
      </trkpt>
      <trkpt lat="59.237657" lon="18.119656">
        <ele>27</ele>
        <time>2019-11-27T08:32:22Z</time>
      </trkpt>
      <trkpt lat="59.237613" lon="18.11965">
        <ele>27</ele>
        <time>2019-11-27T08:32:23Z</time>
      </trkpt>
      <trkpt lat="59.237567" lon="18.119642">
        <ele>27</ele>
        <time>2019-11-27T08:32:24Z</time>
      </trkpt>
      <trkpt lat="59.237521" lon="18.119632">
        <ele>26</ele>
        <time>2019-11-27T08:32:25Z</time>
      </trkpt>
      <trkpt lat="59.237473" lon="18.119626">
        <ele>26</ele>
        <time>2019-11-27T08:32:26Z</time>
      </trkpt>
      <trkpt lat="59.237425" lon="18.11962">
        <ele>26</ele>
        <time>2019-11-27T08:32:27Z</time>
      </trkpt>
      <trkpt lat="59.237377" lon="18.119616">
        <ele>26</ele>
        <time>2019-11-27T08:32:28Z</time>
      </trkpt>
      <trkpt lat="59.237328" lon="18.11961">
        <ele>26</ele>
        <time>2019-11-27T08:32:30Z</time>
      </trkpt>
      <trkpt lat="59.237281" lon="18.119604">
        <ele>26</ele>
        <time>2019-11-27T08:32:30Z</time>
      </trkpt>
      <trkpt lat="59.237234" lon="18.119596">
        <ele>27</ele>
        <time>2019-11-27T08:32:31Z</time>
      </trkpt>
      <trkpt lat="59.237187" lon="18.11959">
        <ele>27</ele>
        <time>2019-11-27T08:32:32Z</time>
      </trkpt>
      <trkpt lat="59.23714" lon="18.119584">
        <ele>27</ele>
        <time>2019-11-27T08:32:33Z</time>
      </trkpt>
      <trkpt lat="59.237092" lon="18.119576">
        <ele>27</ele>
        <time>2019-11-27T08:32:34Z</time>
      </trkpt>
      <trkpt lat="59.237044" lon="18.11957">
        <ele>27</ele>
        <time>2019-11-27T08:32:35Z</time>
      </trkpt>
      <trkpt lat="59.236998" lon="18.119564">
        <ele>27</ele>
        <time>2019-11-27T08:32:37Z</time>
      </trkpt>
      <trkpt lat="59.23695" lon="18.119558">
        <ele>27</ele>
        <time>2019-11-27T08:32:37Z</time>
      </trkpt>
      <trkpt lat="59.236904" lon="18.119552">
        <ele>27</ele>
        <time>2019-11-27T08:32:38Z</time>
      </trkpt>
      <trkpt lat="59.236857" lon="18.119546">
        <ele>27</ele>
        <time>2019-11-27T08:32:40Z</time>
      </trkpt>
      <trkpt lat="59.23681" lon="18.119544">
        <ele>27</ele>
        <time>2019-11-27T08:32:40Z</time>
      </trkpt>
      <trkpt lat="59.236763" lon="18.119544">
        <ele>27</ele>
        <time>2019-11-27T08:32:41Z</time>
      </trkpt>
      <trkpt lat="59.236715" lon="18.119544">
        <ele>28</ele>
        <time>2019-11-27T08:32:42Z</time>
      </trkpt>
      <trkpt lat="59.236667" lon="18.119544">
        <ele>28</ele>
        <time>2019-11-27T08:32:43Z</time>
      </trkpt>
      <trkpt lat="59.23662" lon="18.119544">
        <ele>28</ele>
        <time>2019-11-27T08:32:44Z</time>
      </trkpt>
      <trkpt lat="59.236572" lon="18.119544">
        <ele>28</ele>
        <time>2019-11-27T08:32:45Z</time>
      </trkpt>
      <trkpt lat="59.236523" lon="18.119546">
        <ele>28</ele>
        <time>2019-11-27T08:32:46Z</time>
      </trkpt>
      <trkpt lat="59.236475" lon="18.119552">
        <ele>28</ele>
        <time>2019-11-27T08:32:47Z</time>
      </trkpt>
      <trkpt lat="59.236426" lon="18.119558">
        <ele>28</ele>
        <time>2019-11-27T08:32:48Z</time>
      </trkpt>
      <trkpt lat="59.236377" lon="18.119564">
        <ele>28</ele>
        <time>2019-11-27T08:32:49Z</time>
      </trkpt>
      <trkpt lat="59.236328" lon="18.119572">
        <ele>28</ele>
        <time>2019-11-27T08:32:51Z</time>
      </trkpt>
      <trkpt lat="59.236279" lon="18.11958">
        <ele>28</ele>
        <time>2019-11-27T08:32:51Z</time>
      </trkpt>
      <trkpt lat="59.23623" lon="18.11959">
        <ele>28</ele>
        <time>2019-11-27T08:32:52Z</time>
      </trkpt>
      <trkpt lat="59.236182" lon="18.1196">
        <ele>28</ele>
        <time>2019-11-27T08:32:53Z</time>
      </trkpt>
      <trkpt lat="59.236133" lon="18.11961">
        <ele>28</ele>
        <time>2019-11-27T08:32:54Z</time>
      </trkpt>
      <trkpt lat="59.236084" lon="18.119622">
        <ele>28</ele>
        <time>2019-11-27T08:32:56Z</time>
      </trkpt>
      <trkpt lat="59.236036" lon="18.119634">
        <ele>29</ele>
        <time>2019-11-27T08:32:56Z</time>
      </trkpt>
      <trkpt lat="59.235986" lon="18.119646">
        <ele>29</ele>
        <time>2019-11-27T08:32:57Z</time>
      </trkpt>
      <trkpt lat="59.235937" lon="18.119658">
        <ele>29</ele>
        <time>2019-11-27T08:32:58Z</time>
      </trkpt>
      <trkpt lat="59.235887" lon="18.119674">
        <ele>29</ele>
        <time>2019-11-27T08:32:59Z</time>
      </trkpt>
      <trkpt lat="59.235839" lon="18.119694">
        <ele>29</ele>
        <time>2019-11-27T08:33:01Z</time>
      </trkpt>
      <trkpt lat="59.235791" lon="18.119716">
        <ele>29</ele>
        <time>2019-11-27T08:33:01Z</time>
      </trkpt>
      <trkpt lat="59.235743" lon="18.119738">
        <ele>29</ele>
        <time>2019-11-27T08:33:02Z</time>
      </trkpt>
      <trkpt lat="59.235696" lon="18.119763">
        <ele>29</ele>
        <time>2019-11-27T08:33:03Z</time>
      </trkpt>
      <trkpt lat="59.23565" lon="18.119796">
        <ele>29</ele>
        <time>2019-11-27T08:33:04Z</time>
      </trkpt>
      <trkpt lat="59.235605" lon="18.119832">
        <ele>29</ele>
        <time>2019-11-27T08:33:05Z</time>
      </trkpt>
      <trkpt lat="59.235558" lon="18.119866">
        <ele>29</ele>
        <time>2019-11-27T08:33:06Z</time>
      </trkpt>
      <trkpt lat="59.23551" lon="18.119897">
        <ele>29</ele>
        <time>2019-11-27T08:33:07Z</time>
      </trkpt>
      <trkpt lat="59.23546" lon="18.119926">
        <ele>29</ele>
        <time>2019-11-27T08:33:08Z</time>
      </trkpt>
      <trkpt lat="59.23541" lon="18.119953">
        <ele>29</ele>
        <time>2019-11-27T08:33:09Z</time>
      </trkpt>
      <trkpt lat="59.23536" lon="18.119979">
        <ele>29</ele>
        <time>2019-11-27T08:33:11Z</time>
      </trkpt>
      <trkpt lat="59.235309" lon="18.120003">
        <ele>29</ele>
        <time>2019-11-27T08:33:11Z</time>
      </trkpt>
      <trkpt lat="59.235258" lon="18.120022">
        <ele>29</ele>
        <time>2019-11-27T08:33:12Z</time>
      </trkpt>
      <trkpt lat="59.235208" lon="18.12004">
        <ele>29</ele>
        <time>2019-11-27T08:33:13Z</time>
      </trkpt>
      <trkpt lat="59.235158" lon="18.120056">
        <ele>29</ele>
        <time>2019-11-27T08:33:15Z</time>
      </trkpt>
      <trkpt lat="59.23511" lon="18.120068">
        <ele>29</ele>
        <time>2019-11-27T08:33:15Z</time>
      </trkpt>
      <trkpt lat="59.235063" lon="18.120077">
        <ele>29</ele>
        <time>2019-11-27T08:33:16Z</time>
      </trkpt>
      <trkpt lat="59.235017" lon="18.120091">
        <ele>29</ele>
        <time>2019-11-27T08:33:17Z</time>
      </trkpt>
      <trkpt lat="59.234971" lon="18.120108">
        <ele>29</ele>
        <time>2019-11-27T08:33:18Z</time>
      </trkpt>
      <trkpt lat="59.234927" lon="18.120129">
        <ele>29</ele>
        <time>2019-11-27T08:33:19Z</time>
      </trkpt>
      <trkpt lat="59.234885" lon="18.120154">
        <ele>29</ele>
        <time>2019-11-27T08:33:21Z</time>
      </trkpt>
      <trkpt lat="59.234843" lon="18.120182">
        <ele>29</ele>
        <time>2019-11-27T08:33:21Z</time>
      </trkpt>
      <trkpt lat="59.234801" lon="18.12021">
        <ele>29</ele>
        <time>2019-11-27T08:33:22Z</time>
      </trkpt>
      <trkpt lat="59.23476" lon="18.120237">
        <ele>28</ele>
        <time>2019-11-27T08:33:23Z</time>
      </trkpt>
      <trkpt lat="59.234718" lon="18.120265">
        <ele>28</ele>
        <time>2019-11-27T08:33:24Z</time>
      </trkpt>
      <trkpt lat="59.234678" lon="18.120292">
        <ele>28</ele>
        <time>2019-11-27T08:33:25Z</time>
      </trkpt>
      <trkpt lat="59.234639" lon="18.120319">
        <ele>29</ele>
        <time>2019-11-27T08:33:26Z</time>
      </trkpt>
      <trkpt lat="59.2346" lon="18.120344">
        <ele>29</ele>
        <time>2019-11-27T08:33:27Z</time>
      </trkpt>
      <trkpt lat="59.234562" lon="18.120369">
        <ele>29</ele>
        <time>2019-11-27T08:33:28Z</time>
      </trkpt>
      <trkpt lat="59.234525" lon="18.120394">
        <ele>29</ele>
        <time>2019-11-27T08:33:29Z</time>
      </trkpt>
      <trkpt lat="59.23449" lon="18.12042">
        <ele>29</ele>
        <time>2019-11-27T08:33:30Z</time>
      </trkpt>
      <trkpt lat="59.234456" lon="18.120442">
        <ele>29</ele>
        <time>2019-11-27T08:33:31Z</time>
      </trkpt>
      <trkpt lat="59.234423" lon="18.120465">
        <ele>29</ele>
        <time>2019-11-27T08:33:32Z</time>
      </trkpt>
      <trkpt lat="59.234391" lon="18.120489">
        <ele>29</ele>
        <time>2019-11-27T08:33:34Z</time>
      </trkpt>
      <trkpt lat="59.234359" lon="18.12051">
        <ele>29</ele>
        <time>2019-11-27T08:33:34Z</time>
      </trkpt>
      <trkpt lat="59.234327" lon="18.120531">
        <ele>29</ele>
        <time>2019-11-27T08:33:35Z</time>
      </trkpt>
      <trkpt lat="59.234295" lon="18.120553">
        <ele>29</ele>
        <time>2019-11-27T08:33:36Z</time>
      </trkpt>
      <trkpt lat="59.234263" lon="18.120574">
        <ele>29</ele>
        <time>2019-11-27T08:33:37Z</time>
      </trkpt>
      <trkpt lat="59.234232" lon="18.120596">
        <ele>30</ele>
        <time>2019-11-27T08:33:38Z</time>
      </trkpt>
      <trkpt lat="59.234201" lon="18.120619">
        <ele>30</ele>
        <time>2019-11-27T08:33:39Z</time>
      </trkpt>
      <trkpt lat="59.234173" lon="18.120642">
        <ele>30</ele>
        <time>2019-11-27T08:33:40Z</time>
      </trkpt>
      <trkpt lat="59.234146" lon="18.120662">
        <ele>30</ele>
        <time>2019-11-27T08:33:41Z</time>
      </trkpt>
      <trkpt lat="59.234115" lon="18.120686">
        <ele>30</ele>
        <time>2019-11-27T08:33:42Z</time>
      </trkpt>
      <trkpt lat="59.234085" lon="18.120707">
        <ele>30</ele>
        <time>2019-11-27T08:33:43Z</time>
      </trkpt>
      <trkpt lat="59.234055" lon="18.120727">
        <ele>30</ele>
        <time>2019-11-27T08:33:44Z</time>
      </trkpt>
      <trkpt lat="59.234027" lon="18.120745">
        <ele>30</ele>
        <time>2019-11-27T08:33:45Z</time>
      </trkpt>
      <trkpt lat="59.234" lon="18.120762">
        <ele>30</ele>
        <time>2019-11-27T08:33:46Z</time>
      </trkpt>
      <trkpt lat="59.23397" lon="18.12078">
        <ele>30</ele>
        <time>2019-11-27T08:33:47Z</time>
      </trkpt>
      <trkpt lat="59.233941" lon="18.120799">
        <ele>30</ele>
        <time>2019-11-27T08:33:48Z</time>
      </trkpt>
      <trkpt lat="59.233913" lon="18.120817">
        <ele>30</ele>
        <time>2019-11-27T08:33:50Z</time>
      </trkpt>
      <trkpt lat="59.233887" lon="18.120834">
        <ele>31</ele>
        <time>2019-11-27T08:33:50Z</time>
      </trkpt>
      <trkpt lat="59.233859" lon="18.120853">
        <ele>31</ele>
        <time>2019-11-27T08:33:51Z</time>
      </trkpt>
      <trkpt lat="59.233828" lon="18.120875">
        <ele>31</ele>
        <time>2019-11-27T08:33:53Z</time>
      </trkpt>
      <trkpt lat="59.233797" lon="18.120896">
        <ele>31</ele>
        <time>2019-11-27T08:33:53Z</time>
      </trkpt>
      <trkpt lat="59.233766" lon="18.120912">
        <ele>31</ele>
        <time>2019-11-27T08:33:54Z</time>
      </trkpt>
      <trkpt lat="59.233739" lon="18.120927">
        <ele>31</ele>
        <time>2019-11-27T08:33:55Z</time>
      </trkpt>
      <trkpt lat="59.233708" lon="18.120948">
        <ele>31</ele>
        <time>2019-11-27T08:33:56Z</time>
      </trkpt>
      <trkpt lat="59.233677" lon="18.120965">
        <ele>31</ele>
        <time>2019-11-27T08:33:57Z</time>
      </trkpt>
      <trkpt lat="59.233648" lon="18.120986">
        <ele>31</ele>
        <time>2019-11-27T08:33:58Z</time>
      </trkpt>
      <trkpt lat="59.233617" lon="18.121006">
        <ele>32</ele>
        <time>2019-11-27T08:33:59Z</time>
      </trkpt>
      <trkpt lat="59.233585" lon="18.121028">
        <ele>32</ele>
        <time>2019-11-27T08:34:00Z</time>
      </trkpt>
      <trkpt lat="59.233554" lon="18.12105">
        <ele>32</ele>
        <time>2019-11-27T08:34:01Z</time>
      </trkpt>
      <trkpt lat="59.233523" lon="18.12107">
        <ele>32</ele>
        <time>2019-11-27T08:34:02Z</time>
      </trkpt>
      <trkpt lat="59.233494" lon="18.121089">
        <ele>32</ele>
        <time>2019-11-27T08:34:03Z</time>
      </trkpt>
      <trkpt lat="59.233465" lon="18.121111">
        <ele>32</ele>
        <time>2019-11-27T08:34:04Z</time>
      </trkpt>
      <trkpt lat="59.233437" lon="18.121132">
        <ele>32</ele>
        <time>2019-11-27T08:34:06Z</time>
      </trkpt>
      <trkpt lat="59.233409" lon="18.121154">
        <ele>32</ele>
        <time>2019-11-27T08:34:06Z</time>
      </trkpt>
      <trkpt lat="59.233375" lon="18.12118">
        <ele>33</ele>
        <time>2019-11-27T08:34:07Z</time>
      </trkpt>
      <trkpt lat="59.233342" lon="18.121204">
        <ele>33</ele>
        <time>2019-11-27T08:34:08Z</time>
      </trkpt>
      <trkpt lat="59.23331" lon="18.121227">
        <ele>33</ele>
        <time>2019-11-27T08:34:09Z</time>
      </trkpt>
      <trkpt lat="59.233283" lon="18.121247">
        <ele>33</ele>
        <time>2019-11-27T08:34:10Z</time>
      </trkpt>
      <trkpt lat="59.233256" lon="18.121268">
        <ele>33</ele>
        <time>2019-11-27T08:34:12Z</time>
      </trkpt>
      <trkpt lat="59.23323" lon="18.121286">
        <ele>33</ele>
        <time>2019-11-27T08:34:12Z</time>
      </trkpt>
      <trkpt lat="59.233205" lon="18.121306">
        <ele>33</ele>
        <time>2019-11-27T08:34:13Z</time>
      </trkpt>
      <trkpt lat="59.23318" lon="18.121323">
        <ele>34</ele>
        <time>2019-11-27T08:34:14Z</time>
      </trkpt>
      <trkpt lat="59.233152" lon="18.121342">
        <ele>34</ele>
        <time>2019-11-27T08:34:15Z</time>
      </trkpt>
      <trkpt lat="59.23312" lon="18.121363">
        <ele>34</ele>
        <time>2019-11-27T08:34:16Z</time>
      </trkpt>
      <trkpt lat="59.233089" lon="18.12138">
        <ele>34</ele>
        <time>2019-11-27T08:34:17Z</time>
      </trkpt>
      <trkpt lat="59.233061" lon="18.121389">
        <ele>34</ele>
        <time>2019-11-27T08:34:18Z</time>
      </trkpt>
      <trkpt lat="59.233031" lon="18.121392">
        <ele>34</ele>
        <time>2019-11-27T08:34:19Z</time>
      </trkpt>
      <trkpt lat="59.233001" lon="18.121389">
        <ele>35</ele>
        <time>2019-11-27T08:34:20Z</time>
      </trkpt>
      <trkpt lat="59.23297" lon="18.121385">
        <ele>35</ele>
        <time>2019-11-27T08:34:22Z</time>
      </trkpt>
      <trkpt lat="59.23294" lon="18.121376">
        <ele>35</ele>
        <time>2019-11-27T08:34:22Z</time>
      </trkpt>
      <trkpt lat="59.232909" lon="18.121362">
        <ele>35</ele>
        <time>2019-11-27T08:34:23Z</time>
      </trkpt>
      <trkpt lat="59.232878" lon="18.121341">
        <ele>35</ele>
        <time>2019-11-27T08:34:24Z</time>
      </trkpt>
      <trkpt lat="59.232849" lon="18.121314">
        <ele>35</ele>
        <time>2019-11-27T08:34:25Z</time>
      </trkpt>
      <trkpt lat="59.232821" lon="18.121284">
        <ele>35</ele>
        <time>2019-11-27T08:34:26Z</time>
      </trkpt>
      <trkpt lat="59.232793" lon="18.121253">
        <ele>36</ele>
        <time>2019-11-27T08:34:27Z</time>
      </trkpt>
      <trkpt lat="59.232767" lon="18.121219">
        <ele>36</ele>
        <time>2019-11-27T08:34:28Z</time>
      </trkpt>
      <trkpt lat="59.232743" lon="18.121183">
        <ele>36</ele>
        <time>2019-11-27T08:34:29Z</time>
      </trkpt>
      <trkpt lat="59.23272" lon="18.121148">
        <ele>36</ele>
        <time>2019-11-27T08:34:31Z</time>
      </trkpt>
      <trkpt lat="59.232697" lon="18.121114">
        <ele>36</ele>
        <time>2019-11-27T08:34:31Z</time>
      </trkpt>
      <trkpt lat="59.232673" lon="18.121083">
        <ele>37</ele>
        <time>2019-11-27T08:34:32Z</time>
      </trkpt>
      <trkpt lat="59.232647" lon="18.121063">
        <ele>37</ele>
        <time>2019-11-27T08:34:33Z</time>
      </trkpt>
      <trkpt lat="59.232624" lon="18.121049">
        <ele>37</ele>
        <time>2019-11-27T08:34:34Z</time>
      </trkpt>
      <trkpt lat="59.232599" lon="18.121027">
        <ele>37</ele>
        <time>2019-11-27T08:34:36Z</time>
      </trkpt>
      <trkpt lat="59.2326" lon="18.121027">
        <ele>0</ele>
        <time>2019-11-27T08:34:40Z</time>
      </trkpt>
      <trkpt lat="59.232558" lon="18.120906">
        <ele>37</ele>
        <time>2019-11-27T08:35:28Z</time>
      </trkpt>
      <trkpt lat="59.232537" lon="18.12084">
        <ele>37</ele>
        <time>2019-11-27T08:35:28Z</time>
      </trkpt>
      <trkpt lat="59.232513" lon="18.120764">
        <ele>37</ele>
        <time>2019-11-27T08:35:30Z</time>
      </trkpt>
      <trkpt lat="59.232488" lon="18.120684">
        <ele>37</ele>
        <time>2019-11-27T08:35:30Z</time>
      </trkpt>
      <trkpt lat="59.232464" lon="18.120594">
        <ele>37</ele>
        <time>2019-11-27T08:35:31Z</time>
      </trkpt>
      <trkpt lat="59.232438" lon="18.120506">
        <ele>37</ele>
        <time>2019-11-27T08:35:32Z</time>
      </trkpt>
      <trkpt lat="59.232406" lon="18.120428">
        <ele>37</ele>
        <time>2019-11-27T08:35:33Z</time>
      </trkpt>
      <trkpt lat="59.232366" lon="18.120362">
        <ele>37</ele>
        <time>2019-11-27T08:35:34Z</time>
      </trkpt>
      <trkpt lat="59.232315" lon="18.120318">
        <ele>37</ele>
        <time>2019-11-27T08:35:35Z</time>
      </trkpt>
      <trkpt lat="59.232257" lon="18.12029">
        <ele>37</ele>
        <time>2019-11-27T08:35:36Z</time>
      </trkpt>
      <trkpt lat="59.232197" lon="18.12028">
        <ele>37</ele>
        <time>2019-11-27T08:35:37Z</time>
      </trkpt>
      <trkpt lat="59.232137" lon="18.120278">
        <ele>37</ele>
        <time>2019-11-27T08:35:39Z</time>
      </trkpt>
      <trkpt lat="59.232079" lon="18.120282">
        <ele>37</ele>
        <time>2019-11-27T08:35:39Z</time>
      </trkpt>
      <trkpt lat="59.232021" lon="18.120288">
        <ele>37</ele>
        <time>2019-11-27T08:35:40Z</time>
      </trkpt>
      <trkpt lat="59.231965" lon="18.120294">
        <ele>38</ele>
        <time>2019-11-27T08:35:41Z</time>
      </trkpt>
      <trkpt lat="59.231912" lon="18.120306">
        <ele>38</ele>
        <time>2019-11-27T08:35:42Z</time>
      </trkpt>
      <trkpt lat="59.23186" lon="18.120324">
        <ele>38</ele>
        <time>2019-11-27T08:35:43Z</time>
      </trkpt>
      <trkpt lat="59.231811" lon="18.120348">
        <ele>38</ele>
        <time>2019-11-27T08:35:44Z</time>
      </trkpt>
      <trkpt lat="59.231766" lon="18.120372">
        <ele>38</ele>
        <time>2019-11-27T08:35:45Z</time>
      </trkpt>
      <trkpt lat="59.231723" lon="18.120392">
        <ele>38</ele>
        <time>2019-11-27T08:35:47Z</time>
      </trkpt>
      <trkpt lat="59.231679" lon="18.12041">
        <ele>38</ele>
        <time>2019-11-27T08:35:47Z</time>
      </trkpt>
      <trkpt lat="59.231632" lon="18.120432">
        <ele>38</ele>
        <time>2019-11-27T08:35:49Z</time>
      </trkpt>
      <trkpt lat="59.231584" lon="18.120456">
        <ele>38</ele>
        <time>2019-11-27T08:35:49Z</time>
      </trkpt>
      <trkpt lat="59.231535" lon="18.120486">
        <ele>38</ele>
        <time>2019-11-27T08:35:50Z</time>
      </trkpt>
      <trkpt lat="59.231487" lon="18.120518">
        <ele>38</ele>
        <time>2019-11-27T08:35:51Z</time>
      </trkpt>
      <trkpt lat="59.231436" lon="18.120554">
        <ele>38</ele>
        <time>2019-11-27T08:35:52Z</time>
      </trkpt>
      <trkpt lat="59.231383" lon="18.12059">
        <ele>38</ele>
        <time>2019-11-27T08:35:53Z</time>
      </trkpt>
      <trkpt lat="59.231332" lon="18.120622">
        <ele>38</ele>
        <time>2019-11-27T08:35:54Z</time>
      </trkpt>
      <trkpt lat="59.231287" lon="18.120654">
        <ele>38</ele>
        <time>2019-11-27T08:35:55Z</time>
      </trkpt>
      <trkpt lat="59.23124" lon="18.120688">
        <ele>38</ele>
        <time>2019-11-27T08:35:56Z</time>
      </trkpt>
      <trkpt lat="59.231191" lon="18.120724">
        <ele>38</ele>
        <time>2019-11-27T08:35:57Z</time>
      </trkpt>
      <trkpt lat="59.231137" lon="18.120762">
        <ele>38</ele>
        <time>2019-11-27T08:35:59Z</time>
      </trkpt>
      <trkpt lat="59.231084" lon="18.1208">
        <ele>38</ele>
        <time>2019-11-27T08:35:59Z</time>
      </trkpt>
      <trkpt lat="59.231028" lon="18.120842">
        <ele>38</ele>
        <time>2019-11-27T08:36:00Z</time>
      </trkpt>
      <trkpt lat="59.230971" lon="18.120882">
        <ele>38</ele>
        <time>2019-11-27T08:36:01Z</time>
      </trkpt>
      <trkpt lat="59.230912" lon="18.120922">
        <ele>38</ele>
        <time>2019-11-27T08:36:02Z</time>
      </trkpt>
      <trkpt lat="59.23085" lon="18.120958">
        <ele>38</ele>
        <time>2019-11-27T08:36:03Z</time>
      </trkpt>
      <trkpt lat="59.230783" lon="18.121001">
        <ele>38</ele>
        <time>2019-11-27T08:36:04Z</time>
      </trkpt>
      <trkpt lat="59.23072" lon="18.12104">
        <ele>38</ele>
        <time>2019-11-27T08:36:06Z</time>
      </trkpt>
      <trkpt lat="59.230654" lon="18.121072">
        <ele>38</ele>
        <time>2019-11-27T08:36:07Z</time>
      </trkpt>
      <trkpt lat="59.23059" lon="18.12109">
        <ele>38</ele>
        <time>2019-11-27T08:36:07Z</time>
      </trkpt>
      <trkpt lat="59.230528" lon="18.121094">
        <ele>38</ele>
        <time>2019-11-27T08:36:08Z</time>
      </trkpt>
      <trkpt lat="59.230468" lon="18.121093">
        <ele>38</ele>
        <time>2019-11-27T08:36:09Z</time>
      </trkpt>
      <trkpt lat="59.230406" lon="18.121093">
        <ele>38</ele>
        <time>2019-11-27T08:36:10Z</time>
      </trkpt>
      <trkpt lat="59.23034" lon="18.121098">
        <ele>37</ele>
        <time>2019-11-27T08:36:11Z</time>
      </trkpt>
      <trkpt lat="59.230269" lon="18.121123">
        <ele>37</ele>
        <time>2019-11-27T08:36:12Z</time>
      </trkpt>
      <trkpt lat="59.230204" lon="18.121166">
        <ele>37</ele>
        <time>2019-11-27T08:36:14Z</time>
      </trkpt>
      <trkpt lat="59.230146" lon="18.121222">
        <ele>37</ele>
        <time>2019-11-27T08:36:14Z</time>
      </trkpt>
      <trkpt lat="59.23009" lon="18.121281">
        <ele>37</ele>
        <time>2019-11-27T08:36:15Z</time>
      </trkpt>
      <trkpt lat="59.230034" lon="18.121337">
        <ele>37</ele>
        <time>2019-11-27T08:36:16Z</time>
      </trkpt>
      <trkpt lat="59.229974" lon="18.121396">
        <ele>37</ele>
        <time>2019-11-27T08:36:17Z</time>
      </trkpt>
      <trkpt lat="59.229912" lon="18.12146">
        <ele>36</ele>
        <time>2019-11-27T08:36:18Z</time>
      </trkpt>
      <trkpt lat="59.229853" lon="18.121526">
        <ele>37</ele>
        <time>2019-11-27T08:36:19Z</time>
      </trkpt>
      <trkpt lat="59.229806" lon="18.121589">
        <ele>37</ele>
        <time>2019-11-27T08:36:20Z</time>
      </trkpt>
      <trkpt lat="59.229767" lon="18.121676">
        <ele>37</ele>
        <time>2019-11-27T08:36:22Z</time>
      </trkpt>
      <trkpt lat="59.22975" lon="18.121785">
        <ele>37</ele>
        <time>2019-11-27T08:36:22Z</time>
      </trkpt>
      <trkpt lat="59.229753" lon="18.121905">
        <ele>37</ele>
        <time>2019-11-27T08:36:23Z</time>
      </trkpt>
      <trkpt lat="59.229774" lon="18.122019">
        <ele>37</ele>
        <time>2019-11-27T08:36:25Z</time>
      </trkpt>
      <trkpt lat="59.229804" lon="18.122127">
        <ele>37</ele>
        <time>2019-11-27T08:36:25Z</time>
      </trkpt>
      <trkpt lat="59.229835" lon="18.122232">
        <ele>37</ele>
        <time>2019-11-27T08:36:26Z</time>
      </trkpt>
      <trkpt lat="59.229865" lon="18.122335">
        <ele>37</ele>
        <time>2019-11-27T08:36:27Z</time>
      </trkpt>
      <trkpt lat="59.229895" lon="18.122436">
        <ele>37</ele>
        <time>2019-11-27T08:36:28Z</time>
      </trkpt>
      <trkpt lat="59.229923" lon="18.122533">
        <ele>37</ele>
        <time>2019-11-27T08:36:30Z</time>
      </trkpt>
      <trkpt lat="59.229952" lon="18.122626">
        <ele>37</ele>
        <time>2019-11-27T08:36:30Z</time>
      </trkpt>
      <trkpt lat="59.229978" lon="18.122718">
        <ele>37</ele>
        <time>2019-11-27T08:36:31Z</time>
      </trkpt>
      <trkpt lat="59.229998" lon="18.122811">
        <ele>37</ele>
        <time>2019-11-27T08:36:32Z</time>
      </trkpt>
      <trkpt lat="59.230014" lon="18.122907">
        <ele>37</ele>
        <time>2019-11-27T08:36:33Z</time>
      </trkpt>
      <trkpt lat="59.230023" lon="18.123008">
        <ele>37</ele>
        <time>2019-11-27T08:36:34Z</time>
      </trkpt>
      <trkpt lat="59.230026" lon="18.123107">
        <ele>37</ele>
        <time>2019-11-27T08:36:35Z</time>
      </trkpt>
      <trkpt lat="59.230022" lon="18.123206">
        <ele>37</ele>
        <time>2019-11-27T08:36:36Z</time>
      </trkpt>
      <trkpt lat="59.230012" lon="18.123296">
        <ele>37</ele>
        <time>2019-11-27T08:36:37Z</time>
      </trkpt>
      <trkpt lat="59.229995" lon="18.123381">
        <ele>38</ele>
        <time>2019-11-27T08:36:38Z</time>
      </trkpt>
      <trkpt lat="59.229972" lon="18.123455">
        <ele>38</ele>
        <time>2019-11-27T08:36:39Z</time>
      </trkpt>
      <trkpt lat="59.22994" lon="18.123512">
        <ele>38</ele>
        <time>2019-11-27T08:36:41Z</time>
      </trkpt>
      <trkpt lat="59.2299" lon="18.123555">
        <ele>38</ele>
        <time>2019-11-27T08:36:41Z</time>
      </trkpt>
      <trkpt lat="59.229856" lon="18.123596">
        <ele>38</ele>
        <time>2019-11-27T08:36:42Z</time>
      </trkpt>
      <trkpt lat="59.229813" lon="18.123638">
        <ele>38</ele>
        <time>2019-11-27T08:36:44Z</time>
      </trkpt>
      <trkpt lat="59.22977" lon="18.123681">
        <ele>38</ele>
        <time>2019-11-27T08:36:44Z</time>
      </trkpt>
      <trkpt lat="59.229728" lon="18.123722">
        <ele>38</ele>
        <time>2019-11-27T08:36:45Z</time>
      </trkpt>
      <trkpt lat="59.229686" lon="18.123763">
        <ele>38</ele>
        <time>2019-11-27T08:36:46Z</time>
      </trkpt>
      <trkpt lat="59.229642" lon="18.123805">
        <ele>38</ele>
        <time>2019-11-27T08:36:47Z</time>
      </trkpt>
      <trkpt lat="59.2296" lon="18.123846">
        <ele>38</ele>
        <time>2019-11-27T08:36:48Z</time>
      </trkpt>
      <trkpt lat="59.229556" lon="18.123889">
        <ele>38</ele>
        <time>2019-11-27T08:36:49Z</time>
      </trkpt>
      <trkpt lat="59.229511" lon="18.123933">
        <ele>38</ele>
        <time>2019-11-27T08:36:51Z</time>
      </trkpt>
      <trkpt lat="59.229466" lon="18.123977">
        <ele>38</ele>
        <time>2019-11-27T08:36:51Z</time>
      </trkpt>
      <trkpt lat="59.229418" lon="18.124022">
        <ele>38</ele>
        <time>2019-11-27T08:36:52Z</time>
      </trkpt>
      <trkpt lat="59.229373" lon="18.124072">
        <ele>38</ele>
        <time>2019-11-27T08:36:53Z</time>
      </trkpt>
      <trkpt lat="59.229332" lon="18.124136">
        <ele>38</ele>
        <time>2019-11-27T08:36:54Z</time>
      </trkpt>
      <trkpt lat="59.229301" lon="18.124221">
        <ele>38</ele>
        <time>2019-11-27T08:36:55Z</time>
      </trkpt>
      <trkpt lat="59.22928" lon="18.12432">
        <ele>38</ele>
        <time>2019-11-27T08:36:56Z</time>
      </trkpt>
      <trkpt lat="59.22927" lon="18.124424">
        <ele>38</ele>
        <time>2019-11-27T08:36:57Z</time>
      </trkpt>
      <trkpt lat="59.229263" lon="18.124524">
        <ele>38</ele>
        <time>2019-11-27T08:36:59Z</time>
      </trkpt>
      <trkpt lat="59.229258" lon="18.124628">
        <ele>38</ele>
        <time>2019-11-27T08:37:00Z</time>
      </trkpt>
      <trkpt lat="59.229258" lon="18.124737">
        <ele>38</ele>
        <time>2019-11-27T08:37:00Z</time>
      </trkpt>
      <trkpt lat="59.229242" lon="18.124839">
        <ele>38</ele>
        <time>2019-11-27T08:37:01Z</time>
      </trkpt>
      <trkpt lat="59.229208" lon="18.124918">
        <ele>38</ele>
        <time>2019-11-27T08:37:03Z</time>
      </trkpt>
      <trkpt lat="59.229172" lon="18.12501">
        <ele>38</ele>
        <time>2019-11-27T08:37:03Z</time>
      </trkpt>
      <trkpt lat="59.229137" lon="18.125117">
        <ele>37</ele>
        <time>2019-11-27T08:37:04Z</time>
      </trkpt>
      <trkpt lat="59.229106" lon="18.125248">
        <ele>37</ele>
        <time>2019-11-27T08:37:05Z</time>
      </trkpt>
      <trkpt lat="59.229079" lon="18.125381">
        <ele>37</ele>
        <time>2019-11-27T08:37:06Z</time>
      </trkpt>
      <trkpt lat="59.229045" lon="18.125502">
        <ele>37</ele>
        <time>2019-11-27T08:37:08Z</time>
      </trkpt>
      <trkpt lat="59.229006" lon="18.125611">
        <ele>37</ele>
        <time>2019-11-27T08:37:08Z</time>
      </trkpt>
      <trkpt lat="59.228962" lon="18.125702">
        <ele>37</ele>
        <time>2019-11-27T08:37:09Z</time>
      </trkpt>
      <trkpt lat="59.228915" lon="18.125781">
        <ele>38</ele>
        <time>2019-11-27T08:37:10Z</time>
      </trkpt>
      <trkpt lat="59.22887" lon="18.12586">
        <ele>38</ele>
        <time>2019-11-27T08:37:11Z</time>
      </trkpt>
      <trkpt lat="59.228829" lon="18.125942">
        <ele>38</ele>
        <time>2019-11-27T08:37:12Z</time>
      </trkpt>
      <trkpt lat="59.22879" lon="18.126017">
        <ele>38</ele>
        <time>2019-11-27T08:37:13Z</time>
      </trkpt>
      <trkpt lat="59.228755" lon="18.126086">
        <ele>38</ele>
        <time>2019-11-27T08:37:14Z</time>
      </trkpt>
      <trkpt lat="59.228724" lon="18.126154">
        <ele>38</ele>
        <time>2019-11-27T08:37:15Z</time>
      </trkpt>
      <trkpt lat="59.228698" lon="18.126224">
        <ele>38</ele>
        <time>2019-11-27T08:37:17Z</time>
      </trkpt>
      <trkpt lat="59.228673" lon="18.126284">
        <ele>38</ele>
        <time>2019-11-27T08:37:17Z</time>
      </trkpt>
      <trkpt lat="59.228646" lon="18.126337">
        <ele>38</ele>
        <time>2019-11-27T08:37:18Z</time>
      </trkpt>
      <trkpt lat="59.228613" lon="18.126382">
        <ele>38</ele>
        <time>2019-11-27T08:37:19Z</time>
      </trkpt>
      <trkpt lat="59.228576" lon="18.126414">
        <ele>39</ele>
        <time>2019-11-27T08:37:20Z</time>
      </trkpt>
      <trkpt lat="59.228539" lon="18.126424">
        <ele>39</ele>
        <time>2019-11-27T08:37:22Z</time>
      </trkpt>
      <trkpt lat="59.228496" lon="18.126423">
        <ele>39</ele>
        <time>2019-11-27T08:37:22Z</time>
      </trkpt>
      <trkpt lat="59.228451" lon="18.126419">
        <ele>39</ele>
        <time>2019-11-27T08:37:23Z</time>
      </trkpt>
      <trkpt lat="59.228408" lon="18.126412">
        <ele>39</ele>
        <time>2019-11-27T08:37:24Z</time>
      </trkpt>
      <trkpt lat="59.228366" lon="18.126408">
        <ele>39</ele>
        <time>2019-11-27T08:37:25Z</time>
      </trkpt>
      <trkpt lat="59.228325" lon="18.12641">
        <ele>39</ele>
        <time>2019-11-27T08:37:26Z</time>
      </trkpt>
      <trkpt lat="59.228285" lon="18.126415">
        <ele>39</ele>
        <time>2019-11-27T08:37:27Z</time>
      </trkpt>
      <trkpt lat="59.228247" lon="18.126419">
        <ele>39</ele>
        <time>2019-11-27T08:37:28Z</time>
      </trkpt>
      <trkpt lat="59.228209" lon="18.126424">
        <ele>39</ele>
        <time>2019-11-27T08:37:30Z</time>
      </trkpt>
      <trkpt lat="59.228171" lon="18.12643">
        <ele>39</ele>
        <time>2019-11-27T08:37:30Z</time>
      </trkpt>
      <trkpt lat="59.228134" lon="18.126434">
        <ele>39</ele>
        <time>2019-11-27T08:37:31Z</time>
      </trkpt>
      <trkpt lat="59.228098" lon="18.126443">
        <ele>40</ele>
        <time>2019-11-27T08:37:32Z</time>
      </trkpt>
      <trkpt lat="59.228061" lon="18.126453">
        <ele>40</ele>
        <time>2019-11-27T08:37:33Z</time>
      </trkpt>
      <trkpt lat="59.228023" lon="18.126462">
        <ele>40</ele>
        <time>2019-11-27T08:37:34Z</time>
      </trkpt>
      <trkpt lat="59.227985" lon="18.126473">
        <ele>40</ele>
        <time>2019-11-27T08:37:35Z</time>
      </trkpt>
      <trkpt lat="59.227948" lon="18.126485">
        <ele>40</ele>
        <time>2019-11-27T08:37:36Z</time>
      </trkpt>
      <trkpt lat="59.22791" lon="18.126495">
        <ele>40</ele>
        <time>2019-11-27T08:37:37Z</time>
      </trkpt>
      <trkpt lat="59.227872" lon="18.126504">
        <ele>41</ele>
        <time>2019-11-27T08:37:38Z</time>
      </trkpt>
      <trkpt lat="59.227835" lon="18.126518">
        <ele>41</ele>
        <time>2019-11-27T08:37:39Z</time>
      </trkpt>
      <trkpt lat="59.227801" lon="18.126545">
        <ele>41</ele>
        <time>2019-11-27T08:37:41Z</time>
      </trkpt>
      <trkpt lat="59.227772" lon="18.126591">
        <ele>41</ele>
        <time>2019-11-27T08:37:41Z</time>
      </trkpt>
      <trkpt lat="59.22775" lon="18.126653">
        <ele>41</ele>
        <time>2019-11-27T08:37:43Z</time>
      </trkpt>
      <trkpt lat="59.227735" lon="18.126724">
        <ele>41</ele>
        <time>2019-11-27T08:37:43Z</time>
      </trkpt>
      <trkpt lat="59.227722" lon="18.126798">
        <ele>41</ele>
        <time>2019-11-27T08:37:44Z</time>
      </trkpt>
      <trkpt lat="59.227709" lon="18.126874">
        <ele>41</ele>
        <time>2019-11-27T08:37:45Z</time>
      </trkpt>
      <trkpt lat="59.227696" lon="18.126952">
        <ele>41</ele>
        <time>2019-11-27T08:37:46Z</time>
      </trkpt>
      <trkpt lat="59.227683" lon="18.127032">
        <ele>41</ele>
        <time>2019-11-27T08:37:47Z</time>
      </trkpt>
      <trkpt lat="59.227665" lon="18.127111">
        <ele>41</ele>
        <time>2019-11-27T08:37:48Z</time>
      </trkpt>
      <trkpt lat="59.227644" lon="18.127186">
        <ele>41</ele>
        <time>2019-11-27T08:37:49Z</time>
      </trkpt>
      <trkpt lat="59.227618" lon="18.127261">
        <ele>41</ele>
        <time>2019-11-27T08:37:50Z</time>
      </trkpt>
      <trkpt lat="59.227591" lon="18.12734">
        <ele>41</ele>
        <time>2019-11-27T08:37:51Z</time>
      </trkpt>
      <trkpt lat="59.227565" lon="18.127421">
        <ele>41</ele>
        <time>2019-11-27T08:37:52Z</time>
      </trkpt>
      <trkpt lat="59.227536" lon="18.127504">
        <ele>41</ele>
        <time>2019-11-27T08:37:54Z</time>
      </trkpt>
      <trkpt lat="59.227508" lon="18.127589">
        <ele>41</ele>
        <time>2019-11-27T08:37:54Z</time>
      </trkpt>
      <trkpt lat="59.227477" lon="18.127675">
        <ele>41</ele>
        <time>2019-11-27T08:37:55Z</time>
      </trkpt>
      <trkpt lat="59.227445" lon="18.127762">
        <ele>41</ele>
        <time>2019-11-27T08:37:56Z</time>
      </trkpt>
      <trkpt lat="59.227415" lon="18.127848">
        <ele>41</ele>
        <time>2019-11-27T08:37:57Z</time>
      </trkpt>
      <trkpt lat="59.227384" lon="18.127935">
        <ele>41</ele>
        <time>2019-11-27T08:37:58Z</time>
      </trkpt>
      <trkpt lat="59.227352" lon="18.128023">
        <ele>41</ele>
        <time>2019-11-27T08:38:00Z</time>
      </trkpt>
      <trkpt lat="59.22732" lon="18.128111">
        <ele>41</ele>
        <time>2019-11-27T08:38:00Z</time>
      </trkpt>
      <trkpt lat="59.227288" lon="18.128199">
        <ele>41</ele>
        <time>2019-11-27T08:38:01Z</time>
      </trkpt>
      <trkpt lat="59.227254" lon="18.128285">
        <ele>41</ele>
        <time>2019-11-27T08:38:03Z</time>
      </trkpt>
      <trkpt lat="59.227222" lon="18.128369">
        <ele>41</ele>
        <time>2019-11-27T08:38:03Z</time>
      </trkpt>
      <trkpt lat="59.227189" lon="18.128455">
        <ele>41</ele>
        <time>2019-11-27T08:38:04Z</time>
      </trkpt>
      <trkpt lat="59.227158" lon="18.128541">
        <ele>41</ele>
        <time>2019-11-27T08:38:05Z</time>
      </trkpt>
      <trkpt lat="59.227126" lon="18.128624">
        <ele>41</ele>
        <time>2019-11-27T08:38:06Z</time>
      </trkpt>
      <trkpt lat="59.227096" lon="18.128705">
        <ele>41</ele>
        <time>2019-11-27T08:38:07Z</time>
      </trkpt>
      <trkpt lat="59.227068" lon="18.128786">
        <ele>41</ele>
        <time>2019-11-27T08:38:08Z</time>
      </trkpt>
      <trkpt lat="59.22704" lon="18.128873">
        <ele>41</ele>
        <time>2019-11-27T08:38:09Z</time>
      </trkpt>
      <trkpt lat="59.227011" lon="18.128961">
        <ele>41</ele>
        <time>2019-11-27T08:38:10Z</time>
      </trkpt>
      <trkpt lat="59.226978" lon="18.129047">
        <ele>41</ele>
        <time>2019-11-27T08:38:11Z</time>
      </trkpt>
      <trkpt lat="59.226944" lon="18.129136">
        <ele>41</ele>
        <time>2019-11-27T08:38:13Z</time>
      </trkpt>
      <trkpt lat="59.226911" lon="18.129226">
        <ele>41</ele>
        <time>2019-11-27T08:38:13Z</time>
      </trkpt>
      <trkpt lat="59.226876" lon="18.12932">
        <ele>41</ele>
        <time>2019-11-27T08:38:14Z</time>
      </trkpt>
      <trkpt lat="59.226848" lon="18.129417">
        <ele>41</ele>
        <time>2019-11-27T08:38:15Z</time>
      </trkpt>
      <trkpt lat="59.226816" lon="18.129512">
        <ele>40</ele>
        <time>2019-11-27T08:38:16Z</time>
      </trkpt>
      <trkpt lat="59.226782" lon="18.129602">
        <ele>40</ele>
        <time>2019-11-27T08:38:17Z</time>
      </trkpt>
      <trkpt lat="59.226746" lon="18.129691">
        <ele>40</ele>
        <time>2019-11-27T08:38:19Z</time>
      </trkpt>
      <trkpt lat="59.226712" lon="18.12978">
        <ele>40</ele>
        <time>2019-11-27T08:38:19Z</time>
      </trkpt>
      <trkpt lat="59.226679" lon="18.129872">
        <ele>40</ele>
        <time>2019-11-27T08:38:21Z</time>
      </trkpt>
      <trkpt lat="59.226646" lon="18.129964">
        <ele>40</ele>
        <time>2019-11-27T08:38:21Z</time>
      </trkpt>
      <trkpt lat="59.226612" lon="18.130056">
        <ele>40</ele>
        <time>2019-11-27T08:38:22Z</time>
      </trkpt>
      <trkpt lat="59.226577" lon="18.130146">
        <ele>40</ele>
        <time>2019-11-27T08:38:23Z</time>
      </trkpt>
      <trkpt lat="59.226541" lon="18.130236">
        <ele>40</ele>
        <time>2019-11-27T08:38:24Z</time>
      </trkpt>
      <trkpt lat="59.226504" lon="18.130321">
        <ele>40</ele>
        <time>2019-11-27T08:38:25Z</time>
      </trkpt>
      <trkpt lat="59.226463" lon="18.1304">
        <ele>40</ele>
        <time>2019-11-27T08:38:26Z</time>
      </trkpt>
      <trkpt lat="59.226422" lon="18.130475">
        <ele>40</ele>
        <time>2019-11-27T08:38:27Z</time>
      </trkpt>
      <trkpt lat="59.226376" lon="18.130543">
        <ele>40</ele>
        <time>2019-11-27T08:38:28Z</time>
      </trkpt>
      <trkpt lat="59.22633" lon="18.130606">
        <ele>40</ele>
        <time>2019-11-27T08:38:30Z</time>
      </trkpt>
      <trkpt lat="59.226284" lon="18.130669">
        <ele>40</ele>
        <time>2019-11-27T08:38:30Z</time>
      </trkpt>
      <trkpt lat="59.226238" lon="18.130735">
        <ele>40</ele>
        <time>2019-11-27T08:38:31Z</time>
      </trkpt>
      <trkpt lat="59.22619" lon="18.130799">
        <ele>40</ele>
        <time>2019-11-27T08:38:32Z</time>
      </trkpt>
      <trkpt lat="59.226143" lon="18.130865">
        <ele>40</ele>
        <time>2019-11-27T08:38:33Z</time>
      </trkpt>
      <trkpt lat="59.226102" lon="18.130932">
        <ele>40</ele>
        <time>2019-11-27T08:38:34Z</time>
      </trkpt>
      <trkpt lat="59.226063" lon="18.130998">
        <ele>40</ele>
        <time>2019-11-27T08:38:35Z</time>
      </trkpt>
      <trkpt lat="59.22602" lon="18.131065">
        <ele>41</ele>
        <time>2019-11-27T08:38:36Z</time>
      </trkpt>
      <trkpt lat="59.225976" lon="18.131132">
        <ele>41</ele>
        <time>2019-11-27T08:38:38Z</time>
      </trkpt>
      <trkpt lat="59.225932" lon="18.131201">
        <ele>41</ele>
        <time>2019-11-27T08:38:39Z</time>
      </trkpt>
      <trkpt lat="59.225889" lon="18.131272">
        <ele>40</ele>
        <time>2019-11-27T08:38:39Z</time>
      </trkpt>
      <trkpt lat="59.225847" lon="18.131346">
        <ele>40</ele>
        <time>2019-11-27T08:38:40Z</time>
      </trkpt>
      <trkpt lat="59.22581" lon="18.131434">
        <ele>40</ele>
        <time>2019-11-27T08:38:41Z</time>
      </trkpt>
      <trkpt lat="59.22578" lon="18.131538">
        <ele>40</ele>
        <time>2019-11-27T08:38:42Z</time>
      </trkpt>
      <trkpt lat="59.22576" lon="18.131652">
        <ele>40</ele>
        <time>2019-11-27T08:38:43Z</time>
      </trkpt>
      <trkpt lat="59.225742" lon="18.131766">
        <ele>40</ele>
        <time>2019-11-27T08:38:44Z</time>
      </trkpt>
      <trkpt lat="59.225723" lon="18.131875">
        <ele>40</ele>
        <time>2019-11-27T08:38:45Z</time>
      </trkpt>
      <trkpt lat="59.225698" lon="18.131976">
        <ele>40</ele>
        <time>2019-11-27T08:38:47Z</time>
      </trkpt>
      <trkpt lat="59.225669" lon="18.132069">
        <ele>40</ele>
        <time>2019-11-27T08:38:47Z</time>
      </trkpt>
      <trkpt lat="59.225632" lon="18.132153">
        <ele>40</ele>
        <time>2019-11-27T08:38:48Z</time>
      </trkpt>
      <trkpt lat="59.22559" lon="18.132219">
        <ele>40</ele>
        <time>2019-11-27T08:38:49Z</time>
      </trkpt>
      <trkpt lat="59.225542" lon="18.132274">
        <ele>40</ele>
        <time>2019-11-27T08:38:50Z</time>
      </trkpt>
      <trkpt lat="59.225495" lon="18.132328">
        <ele>40</ele>
        <time>2019-11-27T08:38:51Z</time>
      </trkpt>
      <trkpt lat="59.225445" lon="18.132386">
        <ele>40</ele>
        <time>2019-11-27T08:38:52Z</time>
      </trkpt>
      <trkpt lat="59.225396" lon="18.132449">
        <ele>40</ele>
        <time>2019-11-27T08:38:53Z</time>
      </trkpt>
      <trkpt lat="59.225348" lon="18.132515">
        <ele>40</ele>
        <time>2019-11-27T08:38:54Z</time>
      </trkpt>
      <trkpt lat="59.225298" lon="18.132586">
        <ele>40</ele>
        <time>2019-11-27T08:38:56Z</time>
      </trkpt>
      <trkpt lat="59.225246" lon="18.13266">
        <ele>40</ele>
        <time>2019-11-27T08:38:57Z</time>
      </trkpt>
      <trkpt lat="59.225194" lon="18.132737">
        <ele>40</ele>
        <time>2019-11-27T08:38:57Z</time>
      </trkpt>
      <trkpt lat="59.22514" lon="18.132821">
        <ele>40</ele>
        <time>2019-11-27T08:38:58Z</time>
      </trkpt>
      <trkpt lat="59.225089" lon="18.132911">
        <ele>40</ele>
        <time>2019-11-27T08:38:59Z</time>
      </trkpt>
      <trkpt lat="59.22503" lon="18.133007">
        <ele>40</ele>
        <time>2019-11-27T08:39:00Z</time>
      </trkpt>
      <trkpt lat="59.224973" lon="18.133103">
        <ele>40</ele>
        <time>2019-11-27T08:39:01Z</time>
      </trkpt>
      <trkpt lat="59.224915" lon="18.133206">
        <ele>39</ele>
        <time>2019-11-27T08:39:03Z</time>
      </trkpt>
      <trkpt lat="59.224858" lon="18.133317">
        <ele>39</ele>
        <time>2019-11-27T08:39:03Z</time>
      </trkpt>
      <trkpt lat="59.224802" lon="18.133434">
        <ele>39</ele>
        <time>2019-11-27T08:39:04Z</time>
      </trkpt>
      <trkpt lat="59.224744" lon="18.133556">
        <ele>39</ele>
        <time>2019-11-27T08:39:05Z</time>
      </trkpt>
      <trkpt lat="59.224689" lon="18.133685">
        <ele>38</ele>
        <time>2019-11-27T08:39:06Z</time>
      </trkpt>
      <trkpt lat="59.224633" lon="18.133818">
        <ele>38</ele>
        <time>2019-11-27T08:39:07Z</time>
      </trkpt>
      <trkpt lat="59.224578" lon="18.133949">
        <ele>38</ele>
        <time>2019-11-27T08:39:09Z</time>
      </trkpt>
      <trkpt lat="59.224522" lon="18.134079">
        <ele>37</ele>
        <time>2019-11-27T08:39:09Z</time>
      </trkpt>
      <trkpt lat="59.224469" lon="18.134211">
        <ele>37</ele>
        <time>2019-11-27T08:39:10Z</time>
      </trkpt>
      <trkpt lat="59.224418" lon="18.134343">
        <ele>37</ele>
        <time>2019-11-27T08:39:11Z</time>
      </trkpt>
      <trkpt lat="59.22437" lon="18.134469">
        <ele>37</ele>
        <time>2019-11-27T08:39:12Z</time>
      </trkpt>
      <trkpt lat="59.224323" lon="18.134595">
        <ele>37</ele>
        <time>2019-11-27T08:39:13Z</time>
      </trkpt>
      <trkpt lat="59.224277" lon="18.134716">
        <ele>37</ele>
        <time>2019-11-27T08:39:15Z</time>
      </trkpt>
      <trkpt lat="59.224232" lon="18.134834">
        <ele>36</ele>
        <time>2019-11-27T08:39:16Z</time>
      </trkpt>
      <trkpt lat="59.224187" lon="18.134951">
        <ele>36</ele>
        <time>2019-11-27T08:39:16Z</time>
      </trkpt>
      <trkpt lat="59.224143" lon="18.135064">
        <ele>36</ele>
        <time>2019-11-27T08:39:17Z</time>
      </trkpt>
      <trkpt lat="59.224101" lon="18.135174">
        <ele>36</ele>
        <time>2019-11-27T08:39:18Z</time>
      </trkpt>
      <trkpt lat="59.22406" lon="18.135278">
        <ele>36</ele>
        <time>2019-11-27T08:39:19Z</time>
      </trkpt>
      <trkpt lat="59.22402" lon="18.13538">
        <ele>35</ele>
        <time>2019-11-27T08:39:20Z</time>
      </trkpt>
      <trkpt lat="59.223981" lon="18.13548">
        <ele>36</ele>
        <time>2019-11-27T08:39:22Z</time>
      </trkpt>
      <trkpt lat="59.223944" lon="18.135576">
        <ele>36</ele>
        <time>2019-11-27T08:39:22Z</time>
      </trkpt>
      <trkpt lat="59.223912" lon="18.135665">
        <ele>36</ele>
        <time>2019-11-27T08:39:23Z</time>
      </trkpt>
      <trkpt lat="59.223879" lon="18.135753">
        <ele>36</ele>
        <time>2019-11-27T08:39:24Z</time>
      </trkpt>
      <trkpt lat="59.223843" lon="18.13584">
        <ele>36</ele>
        <time>2019-11-27T08:39:25Z</time>
      </trkpt>
      <trkpt lat="59.223806" lon="18.135929">
        <ele>36</ele>
        <time>2019-11-27T08:39:26Z</time>
      </trkpt>
      <trkpt lat="59.22377" lon="18.136015">
        <ele>36</ele>
        <time>2019-11-27T08:39:27Z</time>
      </trkpt>
      <trkpt lat="59.223734" lon="18.136099">
        <ele>36</ele>
        <time>2019-11-27T08:39:28Z</time>
      </trkpt>
      <trkpt lat="59.223699" lon="18.136176">
        <ele>36</ele>
        <time>2019-11-27T08:39:29Z</time>
      </trkpt>
      <trkpt lat="59.223663" lon="18.136254">
        <ele>35</ele>
        <time>2019-11-27T08:39:31Z</time>
      </trkpt>
      <trkpt lat="59.223625" lon="18.136335">
        <ele>35</ele>
        <time>2019-11-27T08:39:31Z</time>
      </trkpt>
      <trkpt lat="59.223589" lon="18.136414">
        <ele>35</ele>
        <time>2019-11-27T08:39:32Z</time>
      </trkpt>
      <trkpt lat="59.223552" lon="18.136493">
        <ele>35</ele>
        <time>2019-11-27T08:39:33Z</time>
      </trkpt>
      <trkpt lat="59.223514" lon="18.136571">
        <ele>35</ele>
        <time>2019-11-27T08:39:35Z</time>
      </trkpt>
      <trkpt lat="59.223476" lon="18.136645">
        <ele>35</ele>
        <time>2019-11-27T08:39:35Z</time>
      </trkpt>
      <trkpt lat="59.223436" lon="18.136719">
        <ele>35</ele>
        <time>2019-11-27T08:39:36Z</time>
      </trkpt>
      <trkpt lat="59.223396" lon="18.136791">
        <ele>35</ele>
        <time>2019-11-27T08:39:37Z</time>
      </trkpt>
      <trkpt lat="59.223356" lon="18.136862">
        <ele>35</ele>
        <time>2019-11-27T08:39:38Z</time>
      </trkpt>
      <trkpt lat="59.223314" lon="18.136931">
        <ele>34</ele>
        <time>2019-11-27T08:39:40Z</time>
      </trkpt>
      <trkpt lat="59.22327" lon="18.136998">
        <ele>34</ele>
        <time>2019-11-27T08:39:40Z</time>
      </trkpt>
      <trkpt lat="59.223227" lon="18.13706">
        <ele>34</ele>
        <time>2019-11-27T08:39:41Z</time>
      </trkpt>
      <trkpt lat="59.223184" lon="18.137119">
        <ele>34</ele>
        <time>2019-11-27T08:39:42Z</time>
      </trkpt>
      <trkpt lat="59.223141" lon="18.137177">
        <ele>34</ele>
        <time>2019-11-27T08:39:43Z</time>
      </trkpt>
      <trkpt lat="59.223097" lon="18.137233">
        <ele>34</ele>
        <time>2019-11-27T08:39:44Z</time>
      </trkpt>
      <trkpt lat="59.223053" lon="18.137283">
        <ele>34</ele>
        <time>2019-11-27T08:39:45Z</time>
      </trkpt>
      <trkpt lat="59.223006" lon="18.137335">
        <ele>34</ele>
        <time>2019-11-27T08:39:46Z</time>
      </trkpt>
      <trkpt lat="59.22296" lon="18.137387">
        <ele>34</ele>
        <time>2019-11-27T08:39:47Z</time>
      </trkpt>
      <trkpt lat="59.222913" lon="18.137437">
        <ele>33</ele>
        <time>2019-11-27T08:39:48Z</time>
      </trkpt>
      <trkpt lat="59.222866" lon="18.137486">
        <ele>33</ele>
        <time>2019-11-27T08:39:50Z</time>
      </trkpt>
      <trkpt lat="59.222819" lon="18.137532">
        <ele>33</ele>
        <time>2019-11-27T08:39:50Z</time>
      </trkpt>
      <trkpt lat="59.222771" lon="18.137574">
        <ele>33</ele>
        <time>2019-11-27T08:39:51Z</time>
      </trkpt>
      <trkpt lat="59.222722" lon="18.137614">
        <ele>34</ele>
        <time>2019-11-27T08:39:52Z</time>
      </trkpt>
      <trkpt lat="59.222678" lon="18.137654">
        <ele>34</ele>
        <time>2019-11-27T08:39:54Z</time>
      </trkpt>
      <trkpt lat="59.222628" lon="18.13769">
        <ele>34</ele>
        <time>2019-11-27T08:39:54Z</time>
      </trkpt>
      <trkpt lat="59.222576" lon="18.137723">
        <ele>34</ele>
        <time>2019-11-27T08:39:55Z</time>
      </trkpt>
      <trkpt lat="59.222524" lon="18.137755">
        <ele>34</ele>
        <time>2019-11-27T08:39:56Z</time>
      </trkpt>
      <trkpt lat="59.222473" lon="18.137789">
        <ele>34</ele>
        <time>2019-11-27T08:39:57Z</time>
      </trkpt>
      <trkpt lat="59.222423" lon="18.137822">
        <ele>34</ele>
        <time>2019-11-27T08:39:59Z</time>
      </trkpt>
      <trkpt lat="59.222373" lon="18.137853">
        <ele>34</ele>
        <time>2019-11-27T08:39:59Z</time>
      </trkpt>
      <trkpt lat="59.222323" lon="18.137882">
        <ele>34</ele>
        <time>2019-11-27T08:40:00Z</time>
      </trkpt>
      <trkpt lat="59.222271" lon="18.137909">
        <ele>34</ele>
        <time>2019-11-27T08:40:01Z</time>
      </trkpt>
      <trkpt lat="59.222219" lon="18.137937">
        <ele>34</ele>
        <time>2019-11-27T08:40:02Z</time>
      </trkpt>
      <trkpt lat="59.222167" lon="18.137963">
        <ele>34</ele>
        <time>2019-11-27T08:40:03Z</time>
      </trkpt>
      <trkpt lat="59.222114" lon="18.137985">
        <ele>34</ele>
        <time>2019-11-27T08:40:04Z</time>
      </trkpt>
      <trkpt lat="59.222062" lon="18.138008">
        <ele>34</ele>
        <time>2019-11-27T08:40:05Z</time>
      </trkpt>
      <trkpt lat="59.22201" lon="18.138035">
        <ele>34</ele>
        <time>2019-11-27T08:40:06Z</time>
      </trkpt>
      <trkpt lat="59.221959" lon="18.138059">
        <ele>34</ele>
        <time>2019-11-27T08:40:08Z</time>
      </trkpt>
      <trkpt lat="59.221907" lon="18.138079">
        <ele>33</ele>
        <time>2019-11-27T08:40:08Z</time>
      </trkpt>
      <trkpt lat="59.221854" lon="18.138101">
        <ele>34</ele>
        <time>2019-11-27T08:40:09Z</time>
      </trkpt>
      <trkpt lat="59.221801" lon="18.138124">
        <ele>34</ele>
        <time>2019-11-27T08:40:10Z</time>
      </trkpt>
      <trkpt lat="59.221747" lon="18.138146">
        <ele>34</ele>
        <time>2019-11-27T08:40:11Z</time>
      </trkpt>
      <trkpt lat="59.221694" lon="18.138166">
        <ele>34</ele>
        <time>2019-11-27T08:40:13Z</time>
      </trkpt>
      <trkpt lat="59.22164" lon="18.138186">
        <ele>34</ele>
        <time>2019-11-27T08:40:13Z</time>
      </trkpt>
      <trkpt lat="59.221587" lon="18.138206">
        <ele>34</ele>
        <time>2019-11-27T08:40:14Z</time>
      </trkpt>
      <trkpt lat="59.221533" lon="18.138227">
        <ele>34</ele>
        <time>2019-11-27T08:40:15Z</time>
      </trkpt>
      <trkpt lat="59.221478" lon="18.138251">
        <ele>34</ele>
        <time>2019-11-27T08:40:16Z</time>
      </trkpt>
      <trkpt lat="59.22142" lon="18.138278">
        <ele>34</ele>
        <time>2019-11-27T08:40:18Z</time>
      </trkpt>
      <trkpt lat="59.221362" lon="18.138301">
        <ele>34</ele>
        <time>2019-11-27T08:40:18Z</time>
      </trkpt>
      <trkpt lat="59.221303" lon="18.138324">
        <ele>34</ele>
        <time>2019-11-27T08:40:19Z</time>
      </trkpt>
      <trkpt lat="59.221244" lon="18.138347">
        <ele>34</ele>
        <time>2019-11-27T08:40:20Z</time>
      </trkpt>
      <trkpt lat="59.221187" lon="18.138373">
        <ele>34</ele>
        <time>2019-11-27T08:40:21Z</time>
      </trkpt>
      <trkpt lat="59.221131" lon="18.138399">
        <ele>34</ele>
        <time>2019-11-27T08:40:22Z</time>
      </trkpt>
      <trkpt lat="59.221075" lon="18.138424">
        <ele>34</ele>
        <time>2019-11-27T08:40:23Z</time>
      </trkpt>
      <trkpt lat="59.221021" lon="18.138445">
        <ele>33</ele>
        <time>2019-11-27T08:40:24Z</time>
      </trkpt>
      <trkpt lat="59.220967" lon="18.138461">
        <ele>33</ele>
        <time>2019-11-27T08:40:26Z</time>
      </trkpt>
      <trkpt lat="59.220911" lon="18.138482">
        <ele>33</ele>
        <time>2019-11-27T08:40:26Z</time>
      </trkpt>
      <trkpt lat="59.220855" lon="18.138507">
        <ele>33</ele>
        <time>2019-11-27T08:40:27Z</time>
      </trkpt>
      <trkpt lat="59.220796" lon="18.138534">
        <ele>33</ele>
        <time>2019-11-27T08:40:28Z</time>
      </trkpt>
      <trkpt lat="59.220738" lon="18.138561">
        <ele>33</ele>
        <time>2019-11-27T08:40:29Z</time>
      </trkpt>
      <trkpt lat="59.220678" lon="18.13859">
        <ele>33</ele>
        <time>2019-11-27T08:40:30Z</time>
      </trkpt>
      <trkpt lat="59.220617" lon="18.138623">
        <ele>33</ele>
        <time>2019-11-27T08:40:32Z</time>
      </trkpt>
      <trkpt lat="59.220556" lon="18.138661">
        <ele>33</ele>
        <time>2019-11-27T08:40:32Z</time>
      </trkpt>
      <trkpt lat="59.220493" lon="18.138704">
        <ele>33</ele>
        <time>2019-11-27T08:40:34Z</time>
      </trkpt>
      <trkpt lat="59.220428" lon="18.13875">
        <ele>33</ele>
        <time>2019-11-27T08:40:34Z</time>
      </trkpt>
      <trkpt lat="59.220363" lon="18.1388">
        <ele>33</ele>
        <time>2019-11-27T08:40:35Z</time>
      </trkpt>
      <trkpt lat="59.220296" lon="18.138854">
        <ele>33</ele>
        <time>2019-11-27T08:40:36Z</time>
      </trkpt>
      <trkpt lat="59.220231" lon="18.138917">
        <ele>33</ele>
        <time>2019-11-27T08:40:37Z</time>
      </trkpt>
      <trkpt lat="59.220167" lon="18.138991">
        <ele>33</ele>
        <time>2019-11-27T08:40:38Z</time>
      </trkpt>
      <trkpt lat="59.220103" lon="18.139071">
        <ele>33</ele>
        <time>2019-11-27T08:40:39Z</time>
      </trkpt>
      <trkpt lat="59.220037" lon="18.139154">
        <ele>33</ele>
        <time>2019-11-27T08:40:41Z</time>
      </trkpt>
      <trkpt lat="59.219971" lon="18.139237">
        <ele>33</ele>
        <time>2019-11-27T08:40:41Z</time>
      </trkpt>
      <trkpt lat="59.219905" lon="18.13932">
        <ele>33</ele>
        <time>2019-11-27T08:40:42Z</time>
      </trkpt>
      <trkpt lat="59.219838" lon="18.139403">
        <ele>32</ele>
        <time>2019-11-27T08:40:43Z</time>
      </trkpt>
      <trkpt lat="59.219769" lon="18.139482">
        <ele>32</ele>
        <time>2019-11-27T08:40:44Z</time>
      </trkpt>
      <trkpt lat="59.219697" lon="18.139558">
        <ele>32</ele>
        <time>2019-11-27T08:40:45Z</time>
      </trkpt>
      <trkpt lat="59.219624" lon="18.139636">
        <ele>31</ele>
        <time>2019-11-27T08:40:47Z</time>
      </trkpt>
      <trkpt lat="59.219551" lon="18.139721">
        <ele>31</ele>
        <time>2019-11-27T08:40:47Z</time>
      </trkpt>
      <trkpt lat="59.219482" lon="18.139805">
        <ele>31</ele>
        <time>2019-11-27T08:40:48Z</time>
      </trkpt>
      <trkpt lat="59.219416" lon="18.139885">
        <ele>31</ele>
        <time>2019-11-27T08:40:49Z</time>
      </trkpt>
      <trkpt lat="59.21935" lon="18.139964">
        <ele>30</ele>
        <time>2019-11-27T08:40:51Z</time>
      </trkpt>
      <trkpt lat="59.219283" lon="18.140045">
        <ele>29</ele>
        <time>2019-11-27T08:40:51Z</time>
      </trkpt>
      <trkpt lat="59.219219" lon="18.140124">
        <ele>29</ele>
        <time>2019-11-27T08:40:53Z</time>
      </trkpt>
      <trkpt lat="59.219156" lon="18.140202">
        <ele>28</ele>
        <time>2019-11-27T08:40:53Z</time>
      </trkpt>
      <trkpt lat="59.219094" lon="18.140276">
        <ele>28</ele>
        <time>2019-11-27T08:40:54Z</time>
      </trkpt>
      <trkpt lat="59.219033" lon="18.140348">
        <ele>28</ele>
        <time>2019-11-27T08:40:55Z</time>
      </trkpt>
      <trkpt lat="59.218973" lon="18.140421">
        <ele>28</ele>
        <time>2019-11-27T08:40:56Z</time>
      </trkpt>
      <trkpt lat="59.218914" lon="18.140493">
        <ele>28</ele>
        <time>2019-11-27T08:40:57Z</time>
      </trkpt>
      <trkpt lat="59.218857" lon="18.140561">
        <ele>27</ele>
        <time>2019-11-27T08:40:58Z</time>
      </trkpt>
      <trkpt lat="59.218801" lon="18.140629">
        <ele>27</ele>
        <time>2019-11-27T08:40:59Z</time>
      </trkpt>
      <trkpt lat="59.21875" lon="18.140703">
        <ele>27</ele>
        <time>2019-11-27T08:41:01Z</time>
      </trkpt>
      <trkpt lat="59.218704" lon="18.140786">
        <ele>27</ele>
        <time>2019-11-27T08:41:01Z</time>
      </trkpt>
      <trkpt lat="59.218666" lon="18.140881">
        <ele>26</ele>
        <time>2019-11-27T08:41:02Z</time>
      </trkpt>
      <trkpt lat="59.218639" lon="18.140987">
        <ele>26</ele>
        <time>2019-11-27T08:41:03Z</time>
      </trkpt>
      <trkpt lat="59.218623" lon="18.141098">
        <ele>26</ele>
        <time>2019-11-27T08:41:04Z</time>
      </trkpt>
      <trkpt lat="59.218611" lon="18.141211">
        <ele>26</ele>
        <time>2019-11-27T08:41:05Z</time>
      </trkpt>
      <trkpt lat="59.218601" lon="18.141322">
        <ele>26</ele>
        <time>2019-11-27T08:41:06Z</time>
      </trkpt>
      <trkpt lat="59.218591" lon="18.141427">
        <ele>25</ele>
        <time>2019-11-27T08:41:07Z</time>
      </trkpt>
      <trkpt lat="59.21857" lon="18.141516">
        <ele>25</ele>
        <time>2019-11-27T08:41:08Z</time>
      </trkpt>
      <trkpt lat="59.218535" lon="18.14157">
        <ele>26</ele>
        <time>2019-11-27T08:41:10Z</time>
      </trkpt>
      <trkpt lat="59.218495" lon="18.141591">
        <ele>25</ele>
        <time>2019-11-27T08:41:10Z</time>
      </trkpt>
      <trkpt lat="59.218453" lon="18.141605">
        <ele>25</ele>
        <time>2019-11-27T08:41:11Z</time>
      </trkpt>
      <trkpt lat="59.21841" lon="18.141624">
        <ele>25</ele>
        <time>2019-11-27T08:41:12Z</time>
      </trkpt>
      <trkpt lat="59.218365" lon="18.141647">
        <ele>25</ele>
        <time>2019-11-27T08:41:13Z</time>
      </trkpt>
      <trkpt lat="59.218319" lon="18.141657">
        <ele>25</ele>
        <time>2019-11-27T08:41:14Z</time>
      </trkpt>
      <trkpt lat="59.218275" lon="18.14163">
        <ele>25</ele>
        <time>2019-11-27T08:41:15Z</time>
      </trkpt>
      <trkpt lat="59.218234" lon="18.141573">
        <ele>25</ele>
        <time>2019-11-27T08:41:16Z</time>
      </trkpt>
      <trkpt lat="59.218189" lon="18.141524">
        <ele>25</ele>
        <time>2019-11-27T08:41:17Z</time>
      </trkpt>
      <trkpt lat="59.218141" lon="18.141503">
        <ele>25</ele>
        <time>2019-11-27T08:41:18Z</time>
      </trkpt>
      <trkpt lat="59.218092" lon="18.141514">
        <ele>25</ele>
        <time>2019-11-27T08:41:20Z</time>
      </trkpt>
      <trkpt lat="59.218045" lon="18.141548">
        <ele>26</ele>
        <time>2019-11-27T08:41:20Z</time>
      </trkpt>
      <trkpt lat="59.218001" lon="18.141596">
        <ele>26</ele>
        <time>2019-11-27T08:41:21Z</time>
      </trkpt>
      <trkpt lat="59.217955" lon="18.141648">
        <ele>26</ele>
        <time>2019-11-27T08:41:22Z</time>
      </trkpt>
      <trkpt lat="59.217908" lon="18.141702">
        <ele>26</ele>
        <time>2019-11-27T08:41:23Z</time>
      </trkpt>
      <trkpt lat="59.217862" lon="18.141757">
        <ele>26</ele>
        <time>2019-11-27T08:41:24Z</time>
      </trkpt>
      <trkpt lat="59.217816" lon="18.141814">
        <ele>26</ele>
        <time>2019-11-27T08:41:25Z</time>
      </trkpt>
      <trkpt lat="59.217766" lon="18.141869">
        <ele>26</ele>
        <time>2019-11-27T08:41:26Z</time>
      </trkpt>
      <trkpt lat="59.217718" lon="18.141916">
        <ele>26</ele>
        <time>2019-11-27T08:41:27Z</time>
      </trkpt>
      <trkpt lat="59.217667" lon="18.141963">
        <ele>26</ele>
        <time>2019-11-27T08:41:29Z</time>
      </trkpt>
      <trkpt lat="59.217617" lon="18.142015">
        <ele>25</ele>
        <time>2019-11-27T08:41:30Z</time>
      </trkpt>
      <trkpt lat="59.217567" lon="18.14207">
        <ele>25</ele>
        <time>2019-11-27T08:41:30Z</time>
      </trkpt>
      <trkpt lat="59.217515" lon="18.142123">
        <ele>25</ele>
        <time>2019-11-27T08:41:31Z</time>
      </trkpt>
      <trkpt lat="59.217463" lon="18.14218">
        <ele>25</ele>
        <time>2019-11-27T08:41:32Z</time>
      </trkpt>
      <trkpt lat="59.217411" lon="18.142238">
        <ele>25</ele>
        <time>2019-11-27T08:41:33Z</time>
      </trkpt>
      <trkpt lat="59.217361" lon="18.142297">
        <ele>25</ele>
        <time>2019-11-27T08:41:34Z</time>
      </trkpt>
      <trkpt lat="59.21731" lon="18.142358">
        <ele>26</ele>
        <time>2019-11-27T08:41:35Z</time>
      </trkpt>
      <trkpt lat="59.217259" lon="18.142418">
        <ele>26</ele>
        <time>2019-11-27T08:41:36Z</time>
      </trkpt>
      <trkpt lat="59.217208" lon="18.142479">
        <ele>26</ele>
        <time>2019-11-27T08:41:38Z</time>
      </trkpt>
      <trkpt lat="59.217157" lon="18.14254">
        <ele>25</ele>
        <time>2019-11-27T08:41:38Z</time>
      </trkpt>
      <trkpt lat="59.217106" lon="18.142597">
        <ele>25</ele>
        <time>2019-11-27T08:41:39Z</time>
      </trkpt>
      <trkpt lat="59.217056" lon="18.142656">
        <ele>25</ele>
        <time>2019-11-27T08:41:40Z</time>
      </trkpt>
      <trkpt lat="59.217004" lon="18.142717">
        <ele>25</ele>
        <time>2019-11-27T08:41:41Z</time>
      </trkpt>
      <trkpt lat="59.216952" lon="18.142777">
        <ele>25</ele>
        <time>2019-11-27T08:41:42Z</time>
      </trkpt>
      <trkpt lat="59.216901" lon="18.142835">
        <ele>25</ele>
        <time>2019-11-27T08:41:43Z</time>
      </trkpt>
      <trkpt lat="59.21685" lon="18.142894">
        <ele>25</ele>
        <time>2019-11-27T08:41:44Z</time>
      </trkpt>
      <trkpt lat="59.216798" lon="18.142956">
        <ele>25</ele>
        <time>2019-11-27T08:41:46Z</time>
      </trkpt>
      <trkpt lat="59.216747" lon="18.143021">
        <ele>25</ele>
        <time>2019-11-27T08:41:46Z</time>
      </trkpt>
      <trkpt lat="59.216696" lon="18.143086">
        <ele>25</ele>
        <time>2019-11-27T08:41:48Z</time>
      </trkpt>
      <trkpt lat="59.216644" lon="18.143147">
        <ele>25</ele>
        <time>2019-11-27T08:41:48Z</time>
      </trkpt>
      <trkpt lat="59.216591" lon="18.143209">
        <ele>25</ele>
        <time>2019-11-27T08:41:49Z</time>
      </trkpt>
      <trkpt lat="59.216539" lon="18.143271">
        <ele>25</ele>
        <time>2019-11-27T08:41:50Z</time>
      </trkpt>
      <trkpt lat="59.216487" lon="18.143332">
        <ele>25</ele>
        <time>2019-11-27T08:41:51Z</time>
      </trkpt>
      <trkpt lat="59.216436" lon="18.14339">
        <ele>25</ele>
        <time>2019-11-27T08:41:52Z</time>
      </trkpt>
      <trkpt lat="59.216384" lon="18.143451">
        <ele>25</ele>
        <time>2019-11-27T08:41:53Z</time>
      </trkpt>
      <trkpt lat="59.216335" lon="18.143511">
        <ele>25</ele>
        <time>2019-11-27T08:41:55Z</time>
      </trkpt>
      <trkpt lat="59.216285" lon="18.14357">
        <ele>25</ele>
        <time>2019-11-27T08:41:55Z</time>
      </trkpt>
      <trkpt lat="59.216237" lon="18.143626">
        <ele>25</ele>
        <time>2019-11-27T08:41:56Z</time>
      </trkpt>
      <trkpt lat="59.216188" lon="18.143683">
        <ele>25</ele>
        <time>2019-11-27T08:41:57Z</time>
      </trkpt>
      <trkpt lat="59.216138" lon="18.143738">
        <ele>25</ele>
        <time>2019-11-27T08:41:58Z</time>
      </trkpt>
      <trkpt lat="59.216089" lon="18.143792">
        <ele>25</ele>
        <time>2019-11-27T08:41:59Z</time>
      </trkpt>
      <trkpt lat="59.216042" lon="18.143849">
        <ele>25</ele>
        <time>2019-11-27T08:42:00Z</time>
      </trkpt>
      <trkpt lat="59.215994" lon="18.143904">
        <ele>25</ele>
        <time>2019-11-27T08:42:01Z</time>
      </trkpt>
      <trkpt lat="59.215948" lon="18.143956">
        <ele>25</ele>
        <time>2019-11-27T08:42:02Z</time>
      </trkpt>
      <trkpt lat="59.215904" lon="18.14401">
        <ele>25</ele>
        <time>2019-11-27T08:42:04Z</time>
      </trkpt>
      <trkpt lat="59.215861" lon="18.144062">
        <ele>25</ele>
        <time>2019-11-27T08:42:04Z</time>
      </trkpt>
      <trkpt lat="59.215817" lon="18.144112">
        <ele>25</ele>
        <time>2019-11-27T08:42:05Z</time>
      </trkpt>
      <trkpt lat="59.215773" lon="18.14416">
        <ele>25</ele>
        <time>2019-11-27T08:42:07Z</time>
      </trkpt>
      <trkpt lat="59.21573" lon="18.144204">
        <ele>25</ele>
        <time>2019-11-27T08:42:07Z</time>
      </trkpt>
      <trkpt lat="59.215687" lon="18.144248">
        <ele>25</ele>
        <time>2019-11-27T08:42:08Z</time>
      </trkpt>
      <trkpt lat="59.215646" lon="18.144294">
        <ele>25</ele>
        <time>2019-11-27T08:42:09Z</time>
      </trkpt>
      <trkpt lat="59.215604" lon="18.144342">
        <ele>25</ele>
        <time>2019-11-27T08:42:10Z</time>
      </trkpt>
      <trkpt lat="59.215563" lon="18.14439">
        <ele>25</ele>
        <time>2019-11-27T08:42:11Z</time>
      </trkpt>
      <trkpt lat="59.215522" lon="18.14444">
        <ele>25</ele>
        <time>2019-11-27T08:42:12Z</time>
      </trkpt>
      <trkpt lat="59.215482" lon="18.14449">
        <ele>26</ele>
        <time>2019-11-27T08:42:14Z</time>
      </trkpt>
      <trkpt lat="59.215442" lon="18.14454">
        <ele>26</ele>
        <time>2019-11-27T08:42:14Z</time>
      </trkpt>
      <trkpt lat="59.215401" lon="18.14459">
        <ele>26</ele>
        <time>2019-11-27T08:42:15Z</time>
      </trkpt>
      <trkpt lat="59.21536" lon="18.144634">
        <ele>26</ele>
        <time>2019-11-27T08:42:16Z</time>
      </trkpt>
      <trkpt lat="59.215319" lon="18.144682">
        <ele>26</ele>
        <time>2019-11-27T08:42:17Z</time>
      </trkpt>
      <trkpt lat="59.215279" lon="18.14473">
        <ele>26</ele>
        <time>2019-11-27T08:42:18Z</time>
      </trkpt>
      <trkpt lat="59.215239" lon="18.14478">
        <ele>26</ele>
        <time>2019-11-27T08:42:19Z</time>
      </trkpt>
      <trkpt lat="59.215199" lon="18.144828">
        <ele>26</ele>
        <time>2019-11-27T08:42:20Z</time>
      </trkpt>
      <trkpt lat="59.215159" lon="18.144876">
        <ele>26</ele>
        <time>2019-11-27T08:42:21Z</time>
      </trkpt>
      <trkpt lat="59.21512" lon="18.144924">
        <ele>26</ele>
        <time>2019-11-27T08:42:22Z</time>
      </trkpt>
      <trkpt lat="59.215077" lon="18.14497">
        <ele>26</ele>
        <time>2019-11-27T08:42:24Z</time>
      </trkpt>
      <trkpt lat="59.215035" lon="18.14502">
        <ele>26</ele>
        <time>2019-11-27T08:42:24Z</time>
      </trkpt>
      <trkpt lat="59.214996" lon="18.145066">
        <ele>26</ele>
        <time>2019-11-27T08:42:26Z</time>
      </trkpt>
      <trkpt lat="59.214955" lon="18.145114">
        <ele>27</ele>
        <time>2019-11-27T08:42:26Z</time>
      </trkpt>
      <trkpt lat="59.214915" lon="18.14516">
        <ele>27</ele>
        <time>2019-11-27T08:42:27Z</time>
      </trkpt>
      <trkpt lat="59.214878" lon="18.145202">
        <ele>27</ele>
        <time>2019-11-27T08:42:28Z</time>
      </trkpt>
      <trkpt lat="59.21484" lon="18.145248">
        <ele>27</ele>
        <time>2019-11-27T08:42:29Z</time>
      </trkpt>
      <trkpt lat="59.214801" lon="18.145292">
        <ele>27</ele>
        <time>2019-11-27T08:42:30Z</time>
      </trkpt>
      <trkpt lat="59.214766" lon="18.145334">
        <ele>27</ele>
        <time>2019-11-27T08:42:31Z</time>
      </trkpt>
      <trkpt lat="59.21473" lon="18.145374">
        <ele>27</ele>
        <time>2019-11-27T08:42:32Z</time>
      </trkpt>
      <trkpt lat="59.214694" lon="18.145414">
        <ele>27</ele>
        <time>2019-11-27T08:42:33Z</time>
      </trkpt>
      <trkpt lat="59.214656" lon="18.145456">
        <ele>27</ele>
        <time>2019-11-27T08:42:34Z</time>
      </trkpt>
      <trkpt lat="59.214618" lon="18.145502">
        <ele>27</ele>
        <time>2019-11-27T08:42:36Z</time>
      </trkpt>
      <trkpt lat="59.214582" lon="18.145548">
        <ele>27</ele>
        <time>2019-11-27T08:42:36Z</time>
      </trkpt>
      <trkpt lat="59.214545" lon="18.145592">
        <ele>28</ele>
        <time>2019-11-27T08:42:37Z</time>
      </trkpt>
      <trkpt lat="59.214508" lon="18.145636">
        <ele>28</ele>
        <time>2019-11-27T08:42:38Z</time>
      </trkpt>
      <trkpt lat="59.214469" lon="18.145682">
        <ele>28</ele>
        <time>2019-11-27T08:42:39Z</time>
      </trkpt>
      <trkpt lat="59.214432" lon="18.145728">
        <ele>28</ele>
        <time>2019-11-27T08:42:40Z</time>
      </trkpt>
      <trkpt lat="59.214393" lon="18.145774">
        <ele>28</ele>
        <time>2019-11-27T08:42:41Z</time>
      </trkpt>
      <trkpt lat="59.214354" lon="18.145818">
        <ele>28</ele>
        <time>2019-11-27T08:42:42Z</time>
      </trkpt>
      <trkpt lat="59.214315" lon="18.145862">
        <ele>28</ele>
        <time>2019-11-27T08:42:43Z</time>
      </trkpt>
      <trkpt lat="59.214278" lon="18.145906">
        <ele>28</ele>
        <time>2019-11-27T08:42:45Z</time>
      </trkpt>
      <trkpt lat="59.214238" lon="18.14595">
        <ele>28</ele>
        <time>2019-11-27T08:42:45Z</time>
      </trkpt>
      <trkpt lat="59.2142" lon="18.145996">
        <ele>28</ele>
        <time>2019-11-27T08:42:47Z</time>
      </trkpt>
      <trkpt lat="59.214163" lon="18.146042">
        <ele>28</ele>
        <time>2019-11-27T08:42:47Z</time>
      </trkpt>
      <trkpt lat="59.214127" lon="18.146086">
        <ele>29</ele>
        <time>2019-11-27T08:42:48Z</time>
      </trkpt>
      <trkpt lat="59.214089" lon="18.146132">
        <ele>29</ele>
        <time>2019-11-27T08:42:49Z</time>
      </trkpt>
      <trkpt lat="59.214053" lon="18.146176">
        <ele>29</ele>
        <time>2019-11-27T08:42:50Z</time>
      </trkpt>
      <trkpt lat="59.214015" lon="18.146218">
        <ele>29</ele>
        <time>2019-11-27T08:42:51Z</time>
      </trkpt>
      <trkpt lat="59.213977" lon="18.146262">
        <ele>29</ele>
        <time>2019-11-27T08:42:52Z</time>
      </trkpt>
      <trkpt lat="59.21394" lon="18.146306">
        <ele>29</ele>
        <time>2019-11-27T08:42:53Z</time>
      </trkpt>
      <trkpt lat="59.213904" lon="18.14635">
        <ele>29</ele>
        <time>2019-11-27T08:42:54Z</time>
      </trkpt>
      <trkpt lat="59.213868" lon="18.146394">
        <ele>29</ele>
        <time>2019-11-27T08:42:55Z</time>
      </trkpt>
      <trkpt lat="59.213832" lon="18.146434">
        <ele>29</ele>
        <time>2019-11-27T08:42:56Z</time>
      </trkpt>
      <trkpt lat="59.213797" lon="18.146474">
        <ele>29</ele>
        <time>2019-11-27T08:42:57Z</time>
      </trkpt>
      <trkpt lat="59.213761" lon="18.146514">
        <ele>30</ele>
        <time>2019-11-27T08:42:59Z</time>
      </trkpt>
      <trkpt lat="59.213723" lon="18.14655">
        <ele>30</ele>
        <time>2019-11-27T08:42:59Z</time>
      </trkpt>
      <trkpt lat="59.213685" lon="18.146588">
        <ele>30</ele>
        <time>2019-11-27T08:43:00Z</time>
      </trkpt>
      <trkpt lat="59.213647" lon="18.146629">
        <ele>30</ele>
        <time>2019-11-27T08:43:01Z</time>
      </trkpt>
      <trkpt lat="59.213608" lon="18.146665">
        <ele>30</ele>
        <time>2019-11-27T08:43:02Z</time>
      </trkpt>
      <trkpt lat="59.213571" lon="18.146698">
        <ele>30</ele>
        <time>2019-11-27T08:43:04Z</time>
      </trkpt>
      <trkpt lat="59.213533" lon="18.146728">
        <ele>30</ele>
        <time>2019-11-27T08:43:04Z</time>
      </trkpt>
      <trkpt lat="59.213495" lon="18.146754">
        <ele>30</ele>
        <time>2019-11-27T08:43:05Z</time>
      </trkpt>
      <trkpt lat="59.213458" lon="18.146781">
        <ele>30</ele>
        <time>2019-11-27T08:43:06Z</time>
      </trkpt>
      <trkpt lat="59.213421" lon="18.146807">
        <ele>30</ele>
        <time>2019-11-27T08:43:07Z</time>
      </trkpt>
      <trkpt lat="59.213383" lon="18.146833">
        <ele>31</ele>
        <time>2019-11-27T08:43:08Z</time>
      </trkpt>
      <trkpt lat="59.213344" lon="18.146856">
        <ele>31</ele>
        <time>2019-11-27T08:43:09Z</time>
      </trkpt>
      <trkpt lat="59.213307" lon="18.146875">
        <ele>31</ele>
        <time>2019-11-27T08:43:11Z</time>
      </trkpt>
      <trkpt lat="59.21327" lon="18.146895">
        <ele>31</ele>
        <time>2019-11-27T08:43:11Z</time>
      </trkpt>
      <trkpt lat="59.213234" lon="18.146915">
        <ele>31</ele>
        <time>2019-11-27T08:43:12Z</time>
      </trkpt>
      <trkpt lat="59.213198" lon="18.146934">
        <ele>31</ele>
        <time>2019-11-27T08:43:13Z</time>
      </trkpt>
      <trkpt lat="59.213162" lon="18.146952">
        <ele>31</ele>
        <time>2019-11-27T08:43:14Z</time>
      </trkpt>
      <trkpt lat="59.213127" lon="18.146968">
        <ele>31</ele>
        <time>2019-11-27T08:43:15Z</time>
      </trkpt>
      <trkpt lat="59.213093" lon="18.146984">
        <ele>32</ele>
        <time>2019-11-27T08:43:16Z</time>
      </trkpt>
      <trkpt lat="59.213059" lon="18.147002">
        <ele>32</ele>
        <time>2019-11-27T08:43:17Z</time>
      </trkpt>
      <trkpt lat="59.213026" lon="18.147018">
        <ele>32</ele>
        <time>2019-11-27T08:43:18Z</time>
      </trkpt>
      <trkpt lat="59.212992" lon="18.147031">
        <ele>32</ele>
        <time>2019-11-27T08:43:19Z</time>
      </trkpt>
      <trkpt lat="59.212958" lon="18.147043">
        <ele>32</ele>
        <time>2019-11-27T08:43:20Z</time>
      </trkpt>
      <trkpt lat="59.212924" lon="18.147055">
        <ele>32</ele>
        <time>2019-11-27T08:43:21Z</time>
      </trkpt>
      <trkpt lat="59.21289" lon="18.147064">
        <ele>32</ele>
        <time>2019-11-27T08:43:23Z</time>
      </trkpt>
      <trkpt lat="59.212856" lon="18.147071">
        <ele>32</ele>
        <time>2019-11-27T08:43:23Z</time>
      </trkpt>
      <trkpt lat="59.212822" lon="18.147082">
        <ele>32</ele>
        <time>2019-11-27T08:43:25Z</time>
      </trkpt>
      <trkpt lat="59.212789" lon="18.147093">
        <ele>32</ele>
        <time>2019-11-27T08:43:25Z</time>
      </trkpt>
      <trkpt lat="59.212756" lon="18.147101">
        <ele>33</ele>
        <time>2019-11-27T08:43:26Z</time>
      </trkpt>
      <trkpt lat="59.212724" lon="18.147108">
        <ele>33</ele>
        <time>2019-11-27T08:43:27Z</time>
      </trkpt>
      <trkpt lat="59.212692" lon="18.147114">
        <ele>33</ele>
        <time>2019-11-27T08:43:28Z</time>
      </trkpt>
      <trkpt lat="59.21266" lon="18.147121">
        <ele>33</ele>
        <time>2019-11-27T08:43:29Z</time>
      </trkpt>
      <trkpt lat="59.212628" lon="18.14713">
        <ele>33</ele>
        <time>2019-11-27T08:43:30Z</time>
      </trkpt>
      <trkpt lat="59.212596" lon="18.147137">
        <ele>33</ele>
        <time>2019-11-27T08:43:31Z</time>
      </trkpt>
      <trkpt lat="59.212564" lon="18.147144">
        <ele>33</ele>
        <time>2019-11-27T08:43:32Z</time>
      </trkpt>
      <trkpt lat="59.212532" lon="18.14715">
        <ele>33</ele>
        <time>2019-11-27T08:43:33Z</time>
      </trkpt>
      <trkpt lat="59.2125" lon="18.147155">
        <ele>33</ele>
        <time>2019-11-27T08:43:34Z</time>
      </trkpt>
      <trkpt lat="59.212469" lon="18.147159">
        <ele>33</ele>
        <time>2019-11-27T08:43:35Z</time>
      </trkpt>
      <trkpt lat="59.212437" lon="18.147163">
        <ele>34</ele>
        <time>2019-11-27T08:43:36Z</time>
      </trkpt>
      <trkpt lat="59.212406" lon="18.147169">
        <ele>34</ele>
        <time>2019-11-27T08:43:37Z</time>
      </trkpt>
      <trkpt lat="59.212374" lon="18.147175">
        <ele>34</ele>
        <time>2019-11-27T08:43:38Z</time>
      </trkpt>
      <trkpt lat="59.212342" lon="18.14718">
        <ele>34</ele>
        <time>2019-11-27T08:43:40Z</time>
      </trkpt>
      <trkpt lat="59.212309" lon="18.147183">
        <ele>34</ele>
        <time>2019-11-27T08:43:40Z</time>
      </trkpt>
      <trkpt lat="59.212278" lon="18.147182">
        <ele>34</ele>
        <time>2019-11-27T08:43:42Z</time>
      </trkpt>
      <trkpt lat="59.212247" lon="18.147179">
        <ele>35</ele>
        <time>2019-11-27T08:43:42Z</time>
      </trkpt>
      <trkpt lat="59.212217" lon="18.147177">
        <ele>35</ele>
        <time>2019-11-27T08:43:43Z</time>
      </trkpt>
      <trkpt lat="59.212187" lon="18.147177">
        <ele>35</ele>
        <time>2019-11-27T08:43:44Z</time>
      </trkpt>
      <trkpt lat="59.212157" lon="18.147177">
        <ele>35</ele>
        <time>2019-11-27T08:43:45Z</time>
      </trkpt>
      <trkpt lat="59.212129" lon="18.147176">
        <ele>35</ele>
        <time>2019-11-27T08:43:46Z</time>
      </trkpt>
      <trkpt lat="59.2121" lon="18.147173">
        <ele>36</ele>
        <time>2019-11-27T08:43:47Z</time>
      </trkpt>
      <trkpt lat="59.212072" lon="18.147171">
        <ele>36</ele>
        <time>2019-11-27T08:43:48Z</time>
      </trkpt>
      <trkpt lat="59.212043" lon="18.14717">
        <ele>36</ele>
        <time>2019-11-27T08:43:49Z</time>
      </trkpt>
      <trkpt lat="59.212014" lon="18.147168">
        <ele>36</ele>
        <time>2019-11-27T08:43:50Z</time>
      </trkpt>
      <trkpt lat="59.211985" lon="18.147167">
        <ele>36</ele>
        <time>2019-11-27T08:43:51Z</time>
      </trkpt>
      <trkpt lat="59.211957" lon="18.147164">
        <ele>37</ele>
        <time>2019-11-27T08:43:52Z</time>
      </trkpt>
      <trkpt lat="59.211929" lon="18.147159">
        <ele>37</ele>
        <time>2019-11-27T08:43:53Z</time>
      </trkpt>
      <trkpt lat="59.211899" lon="18.147157">
        <ele>37</ele>
        <time>2019-11-27T08:43:54Z</time>
      </trkpt>
      <trkpt lat="59.21187" lon="18.147159">
        <ele>37</ele>
        <time>2019-11-27T08:43:55Z</time>
      </trkpt>
      <trkpt lat="59.21184" lon="18.147159">
        <ele>37</ele>
        <time>2019-11-27T08:43:57Z</time>
      </trkpt>
      <trkpt lat="59.21181" lon="18.147154">
        <ele>37</ele>
        <time>2019-11-27T08:43:57Z</time>
      </trkpt>
      <trkpt lat="59.211779" lon="18.147144">
        <ele>37</ele>
        <time>2019-11-27T08:43:58Z</time>
      </trkpt>
      <trkpt lat="59.21175" lon="18.147131">
        <ele>38</ele>
        <time>2019-11-27T08:43:59Z</time>
      </trkpt>
      <trkpt lat="59.211721" lon="18.147116">
        <ele>38</ele>
        <time>2019-11-27T08:44:01Z</time>
      </trkpt>
      <trkpt lat="59.211692" lon="18.147103">
        <ele>38</ele>
        <time>2019-11-27T08:44:01Z</time>
      </trkpt>
      <trkpt lat="59.211663" lon="18.14709">
        <ele>38</ele>
        <time>2019-11-27T08:44:02Z</time>
      </trkpt>
      <trkpt lat="59.211633" lon="18.14708">
        <ele>38</ele>
        <time>2019-11-27T08:44:03Z</time>
      </trkpt>
      <trkpt lat="59.211603" lon="18.147071">
        <ele>38</ele>
        <time>2019-11-27T08:44:04Z</time>
      </trkpt>
      <trkpt lat="59.211575" lon="18.147062">
        <ele>38</ele>
        <time>2019-11-27T08:44:05Z</time>
      </trkpt>
      <trkpt lat="59.211547" lon="18.147049">
        <ele>38</ele>
        <time>2019-11-27T08:44:06Z</time>
      </trkpt>
      <trkpt lat="59.211517" lon="18.147034">
        <ele>39</ele>
        <time>2019-11-27T08:44:07Z</time>
      </trkpt>
      <trkpt lat="59.211488" lon="18.147022">
        <ele>39</ele>
        <time>2019-11-27T08:44:08Z</time>
      </trkpt>
      <trkpt lat="59.211458" lon="18.147009">
        <ele>39</ele>
        <time>2019-11-27T08:44:09Z</time>
      </trkpt>
      <trkpt lat="59.211429" lon="18.146995">
        <ele>39</ele>
        <time>2019-11-27T08:44:10Z</time>
      </trkpt>
      <trkpt lat="59.211401" lon="18.146979">
        <ele>39</ele>
        <time>2019-11-27T08:44:11Z</time>
      </trkpt>
      <trkpt lat="59.211374" lon="18.146963">
        <ele>40</ele>
        <time>2019-11-27T08:44:12Z</time>
      </trkpt>
      <trkpt lat="59.211346" lon="18.146949">
        <ele>40</ele>
        <time>2019-11-27T08:44:14Z</time>
      </trkpt>
      <trkpt lat="59.211317" lon="18.146934">
        <ele>40</ele>
        <time>2019-11-27T08:44:14Z</time>
      </trkpt>
      <trkpt lat="59.211289" lon="18.146919">
        <ele>40</ele>
        <time>2019-11-27T08:44:15Z</time>
      </trkpt>
      <trkpt lat="59.211261" lon="18.146902">
        <ele>41</ele>
        <time>2019-11-27T08:44:16Z</time>
      </trkpt>
      <trkpt lat="59.211233" lon="18.146882">
        <ele>41</ele>
        <time>2019-11-27T08:44:17Z</time>
      </trkpt>
      <trkpt lat="59.211206" lon="18.146865">
        <ele>41</ele>
        <time>2019-11-27T08:44:18Z</time>
      </trkpt>
      <trkpt lat="59.211178" lon="18.146848">
        <ele>41</ele>
        <time>2019-11-27T08:44:20Z</time>
      </trkpt>
      <trkpt lat="59.211151" lon="18.146829">
        <ele>41</ele>
        <time>2019-11-27T08:44:20Z</time>
      </trkpt>
      <trkpt lat="59.211125" lon="18.146809">
        <ele>41</ele>
        <time>2019-11-27T08:44:21Z</time>
      </trkpt>
      <trkpt lat="59.211099" lon="18.146787">
        <ele>42</ele>
        <time>2019-11-27T08:44:22Z</time>
      </trkpt>
      <trkpt lat="59.211073" lon="18.146764">
        <ele>42</ele>
        <time>2019-11-27T08:44:23Z</time>
      </trkpt>
      <trkpt lat="59.211045" lon="18.14674">
        <ele>42</ele>
        <time>2019-11-27T08:44:24Z</time>
      </trkpt>
      <trkpt lat="59.211014" lon="18.146717">
        <ele>42</ele>
        <time>2019-11-27T08:44:25Z</time>
      </trkpt>
      <trkpt lat="59.210984" lon="18.146692">
        <ele>42</ele>
        <time>2019-11-27T08:44:26Z</time>
      </trkpt>
      <trkpt lat="59.210953" lon="18.146667">
        <ele>43</ele>
        <time>2019-11-27T08:44:27Z</time>
      </trkpt>
      <trkpt lat="59.210924" lon="18.146642">
        <ele>43</ele>
        <time>2019-11-27T08:44:29Z</time>
      </trkpt>
      <trkpt lat="59.210896" lon="18.146616">
        <ele>43</ele>
        <time>2019-11-27T08:44:29Z</time>
      </trkpt>
      <trkpt lat="59.21087" lon="18.146589">
        <ele>43</ele>
        <time>2019-11-27T08:44:31Z</time>
      </trkpt>
      <trkpt lat="59.210842" lon="18.146564">
        <ele>44</ele>
        <time>2019-11-27T08:44:31Z</time>
      </trkpt>
      <trkpt lat="59.210815" lon="18.146539">
        <ele>44</ele>
        <time>2019-11-27T08:44:32Z</time>
      </trkpt>
      <trkpt lat="59.210789" lon="18.146513">
        <ele>44</ele>
        <time>2019-11-27T08:44:33Z</time>
      </trkpt>
      <trkpt lat="59.210762" lon="18.14649">
        <ele>44</ele>
        <time>2019-11-27T08:44:34Z</time>
      </trkpt>
      <trkpt lat="59.210735" lon="18.146465">
        <ele>44</ele>
        <time>2019-11-27T08:44:35Z</time>
      </trkpt>
      <trkpt lat="59.210709" lon="18.146439">
        <ele>44</ele>
        <time>2019-11-27T08:44:36Z</time>
      </trkpt>
      <trkpt lat="59.210683" lon="18.146413">
        <ele>45</ele>
        <time>2019-11-27T08:44:37Z</time>
      </trkpt>
      <trkpt lat="59.210658" lon="18.146384">
        <ele>45</ele>
        <time>2019-11-27T08:44:39Z</time>
      </trkpt>
      <trkpt lat="59.210631" lon="18.146354">
        <ele>45</ele>
        <time>2019-11-27T08:44:39Z</time>
      </trkpt>
      <trkpt lat="59.210606" lon="18.146322">
        <ele>45</ele>
        <time>2019-11-27T08:44:40Z</time>
      </trkpt>
      <trkpt lat="59.21058" lon="18.14629">
        <ele>45</ele>
        <time>2019-11-27T08:44:41Z</time>
      </trkpt>
      <trkpt lat="59.210554" lon="18.146258">
        <ele>45</ele>
        <time>2019-11-27T08:44:42Z</time>
      </trkpt>
      <trkpt lat="59.210528" lon="18.146229">
        <ele>45</ele>
        <time>2019-11-27T08:44:43Z</time>
      </trkpt>
      <trkpt lat="59.210503" lon="18.1462">
        <ele>46</ele>
        <time>2019-11-27T08:44:44Z</time>
      </trkpt>
      <trkpt lat="59.210479" lon="18.14617">
        <ele>46</ele>
        <time>2019-11-27T08:44:45Z</time>
      </trkpt>
      <trkpt lat="59.210454" lon="18.146143">
        <ele>46</ele>
        <time>2019-11-27T08:44:46Z</time>
      </trkpt>
      <trkpt lat="59.210429" lon="18.146116">
        <ele>46</ele>
        <time>2019-11-27T08:44:48Z</time>
      </trkpt>
      <trkpt lat="59.210404" lon="18.146086">
        <ele>46</ele>
        <time>2019-11-27T08:44:48Z</time>
      </trkpt>
      <trkpt lat="59.210379" lon="18.146054">
        <ele>47</ele>
        <time>2019-11-27T08:44:49Z</time>
      </trkpt>
      <trkpt lat="59.210353" lon="18.146024">
        <ele>47</ele>
        <time>2019-11-27T08:44:50Z</time>
      </trkpt>
      <trkpt lat="59.210327" lon="18.145995">
        <ele>47</ele>
        <time>2019-11-27T08:44:51Z</time>
      </trkpt>
      <trkpt lat="59.210301" lon="18.145967">
        <ele>47</ele>
        <time>2019-11-27T08:44:52Z</time>
      </trkpt>
      <trkpt lat="59.210274" lon="18.145939">
        <ele>47</ele>
        <time>2019-11-27T08:44:53Z</time>
      </trkpt>
      <trkpt lat="59.210245" lon="18.145913">
        <ele>47</ele>
        <time>2019-11-27T08:44:54Z</time>
      </trkpt>
      <trkpt lat="59.210213" lon="18.145894">
        <ele>48</ele>
        <time>2019-11-27T08:44:55Z</time>
      </trkpt>
      <trkpt lat="59.210182" lon="18.145876">
        <ele>48</ele>
        <time>2019-11-27T08:44:56Z</time>
      </trkpt>
      <trkpt lat="59.210153" lon="18.145854">
        <ele>48</ele>
        <time>2019-11-27T08:44:58Z</time>
      </trkpt>
      <trkpt lat="59.210127" lon="18.145826">
        <ele>48</ele>
        <time>2019-11-27T08:44:58Z</time>
      </trkpt>
      <trkpt lat="59.210103" lon="18.14579">
        <ele>49</ele>
        <time>2019-11-27T08:44:59Z</time>
      </trkpt>
      <trkpt lat="59.210079" lon="18.145749">
        <ele>49</ele>
        <time>2019-11-27T08:45:00Z</time>
      </trkpt>
      <trkpt lat="59.210055" lon="18.145707">
        <ele>49</ele>
        <time>2019-11-27T08:45:01Z</time>
      </trkpt>
      <trkpt lat="59.210032" lon="18.145664">
        <ele>49</ele>
        <time>2019-11-27T08:45:02Z</time>
      </trkpt>
      <trkpt lat="59.21001" lon="18.145619">
        <ele>49</ele>
        <time>2019-11-27T08:45:04Z</time>
      </trkpt>
      <trkpt lat="59.209989" lon="18.145568">
        <ele>49</ele>
        <time>2019-11-27T08:45:04Z</time>
      </trkpt>
      <trkpt lat="59.20997" lon="18.145514">
        <ele>49</ele>
        <time>2019-11-27T08:45:05Z</time>
      </trkpt>
      <trkpt lat="59.20995" lon="18.145459">
        <ele>49</ele>
        <time>2019-11-27T08:45:06Z</time>
      </trkpt>
      <trkpt lat="59.209929" lon="18.145403">
        <ele>49</ele>
        <time>2019-11-27T08:45:07Z</time>
      </trkpt>
      <trkpt lat="59.209908" lon="18.145347">
        <ele>49</ele>
        <time>2019-11-27T08:45:08Z</time>
      </trkpt>
      <trkpt lat="59.209886" lon="18.145291">
        <ele>49</ele>
        <time>2019-11-27T08:45:09Z</time>
      </trkpt>
      <trkpt lat="59.209863" lon="18.145236">
        <ele>50</ele>
        <time>2019-11-27T08:45:10Z</time>
      </trkpt>
      <trkpt lat="59.209839" lon="18.145185">
        <ele>50</ele>
        <time>2019-11-27T08:45:11Z</time>
      </trkpt>
      <trkpt lat="59.209814" lon="18.145135">
        <ele>50</ele>
        <time>2019-11-27T08:45:12Z</time>
      </trkpt>
      <trkpt lat="59.209789" lon="18.145088">
        <ele>50</ele>
        <time>2019-11-27T08:45:13Z</time>
      </trkpt>
      <trkpt lat="59.209762" lon="18.145042">
        <ele>51</ele>
        <time>2019-11-27T08:45:14Z</time>
      </trkpt>
      <trkpt lat="59.209734" lon="18.145">
        <ele>51</ele>
        <time>2019-11-27T08:45:15Z</time>
      </trkpt>
      <trkpt lat="59.209702" lon="18.144962">
        <ele>51</ele>
        <time>2019-11-27T08:45:17Z</time>
      </trkpt>
      <trkpt lat="59.209668" lon="18.144931">
        <ele>51</ele>
        <time>2019-11-27T08:45:18Z</time>
      </trkpt>
      <trkpt lat="59.209632" lon="18.144906">
        <ele>51</ele>
        <time>2019-11-27T08:45:18Z</time>
      </trkpt>
      <trkpt lat="59.209596" lon="18.144881">
        <ele>51</ele>
        <time>2019-11-27T08:45:19Z</time>
      </trkpt>
      <trkpt lat="59.209561" lon="18.14484">
        <ele>51</ele>
        <time>2019-11-27T08:45:20Z</time>
      </trkpt>
      <trkpt lat="59.20953" lon="18.144788">
        <ele>51</ele>
        <time>2019-11-27T08:45:21Z</time>
      </trkpt>
      <trkpt lat="59.209503" lon="18.144727">
        <ele>51</ele>
        <time>2019-11-27T08:45:22Z</time>
      </trkpt>
      <trkpt lat="59.209487" lon="18.144655">
        <ele>51</ele>
        <time>2019-11-27T08:45:23Z</time>
      </trkpt>
      <trkpt lat="59.209482" lon="18.144577">
        <ele>51</ele>
        <time>2019-11-27T08:45:24Z</time>
      </trkpt>
      <trkpt lat="59.20948" lon="18.144499">
        <ele>51</ele>
        <time>2019-11-27T08:45:25Z</time>
      </trkpt>
      <trkpt lat="59.209472" lon="18.14442">
        <ele>51</ele>
        <time>2019-11-27T08:45:26Z</time>
      </trkpt>
      <trkpt lat="59.209456" lon="18.144343">
        <ele>51</ele>
        <time>2019-11-27T08:45:27Z</time>
      </trkpt>
      <trkpt lat="59.209437" lon="18.144269">
        <ele>51</ele>
        <time>2019-11-27T08:45:28Z</time>
      </trkpt>
      <trkpt lat="59.209416" lon="18.144195">
        <ele>51</ele>
        <time>2019-11-27T08:45:30Z</time>
      </trkpt>
      <trkpt lat="59.209392" lon="18.144123">
        <ele>51</ele>
        <time>2019-11-27T08:45:30Z</time>
      </trkpt>
      <trkpt lat="59.209367" lon="18.144051">
        <ele>52</ele>
        <time>2019-11-27T08:45:31Z</time>
      </trkpt>
      <trkpt lat="59.209341" lon="18.143981">
        <ele>52</ele>
        <time>2019-11-27T08:45:32Z</time>
      </trkpt>
      <trkpt lat="59.209314" lon="18.143914">
        <ele>52</ele>
        <time>2019-11-27T08:45:33Z</time>
      </trkpt>
      <trkpt lat="59.209286" lon="18.143845">
        <ele>52</ele>
        <time>2019-11-27T08:45:34Z</time>
      </trkpt>
      <trkpt lat="59.209258" lon="18.143776">
        <ele>52</ele>
        <time>2019-11-27T08:45:36Z</time>
      </trkpt>
      <trkpt lat="59.209229" lon="18.143705">
        <ele>52</ele>
        <time>2019-11-27T08:45:36Z</time>
      </trkpt>
      <trkpt lat="59.2092" lon="18.143635">
        <ele>51</ele>
        <time>2019-11-27T08:45:37Z</time>
      </trkpt>
      <trkpt lat="59.209171" lon="18.143565">
        <ele>51</ele>
        <time>2019-11-27T08:45:38Z</time>
      </trkpt>
      <trkpt lat="59.209141" lon="18.143495">
        <ele>52</ele>
        <time>2019-11-27T08:45:39Z</time>
      </trkpt>
      <trkpt lat="59.209113" lon="18.143423">
        <ele>52</ele>
        <time>2019-11-27T08:45:41Z</time>
      </trkpt>
      <trkpt lat="59.209085" lon="18.14335">
        <ele>52</ele>
        <time>2019-11-27T08:45:41Z</time>
      </trkpt>
      <trkpt lat="59.209057" lon="18.143279">
        <ele>52</ele>
        <time>2019-11-27T08:45:42Z</time>
      </trkpt>
      <trkpt lat="59.209029" lon="18.143207">
        <ele>52</ele>
        <time>2019-11-27T08:45:43Z</time>
      </trkpt>
      <trkpt lat="59.209001" lon="18.143133">
        <ele>52</ele>
        <time>2019-11-27T08:45:44Z</time>
      </trkpt>
      <trkpt lat="59.208971" lon="18.143061">
        <ele>52</ele>
        <time>2019-11-27T08:45:45Z</time>
      </trkpt>
      <trkpt lat="59.20894" lon="18.142988">
        <ele>52</ele>
        <time>2019-11-27T08:45:46Z</time>
      </trkpt>
      <trkpt lat="59.20891" lon="18.142913">
        <ele>52</ele>
        <time>2019-11-27T08:45:47Z</time>
      </trkpt>
      <trkpt lat="59.208879" lon="18.142836">
        <ele>52</ele>
        <time>2019-11-27T08:45:48Z</time>
      </trkpt>
      <trkpt lat="59.208847" lon="18.14276">
        <ele>52</ele>
        <time>2019-11-27T08:45:49Z</time>
      </trkpt>
      <trkpt lat="59.208817" lon="18.142683">
        <ele>52</ele>
        <time>2019-11-27T08:45:51Z</time>
      </trkpt>
      <trkpt lat="59.208787" lon="18.142606">
        <ele>52</ele>
        <time>2019-11-27T08:45:51Z</time>
      </trkpt>
      <trkpt lat="59.208756" lon="18.142528">
        <ele>52</ele>
        <time>2019-11-27T08:45:52Z</time>
      </trkpt>
      <trkpt lat="59.208725" lon="18.14245">
        <ele>52</ele>
        <time>2019-11-27T08:45:53Z</time>
      </trkpt>
      <trkpt lat="59.208694" lon="18.142373">
        <ele>53</ele>
        <time>2019-11-27T08:45:55Z</time>
      </trkpt>
      <trkpt lat="59.208661" lon="18.142293">
        <ele>53</ele>
        <time>2019-11-27T08:45:55Z</time>
      </trkpt>
      <trkpt lat="59.208625" lon="18.142214">
        <ele>53</ele>
        <time>2019-11-27T08:45:56Z</time>
      </trkpt>
      <trkpt lat="59.208588" lon="18.142134">
        <ele>53</ele>
        <time>2019-11-27T08:45:57Z</time>
      </trkpt>
      <trkpt lat="59.20855" lon="18.142052">
        <ele>53</ele>
        <time>2019-11-27T08:45:58Z</time>
      </trkpt>
      <trkpt lat="59.208511" lon="18.141969">
        <ele>53</ele>
        <time>2019-11-27T08:45:59Z</time>
      </trkpt>
      <trkpt lat="59.208472" lon="18.141884">
        <ele>53</ele>
        <time>2019-11-27T08:46:01Z</time>
      </trkpt>
      <trkpt lat="59.20843" lon="18.141798">
        <ele>53</ele>
        <time>2019-11-27T08:46:01Z</time>
      </trkpt>
      <trkpt lat="59.208386" lon="18.141712">
        <ele>53</ele>
        <time>2019-11-27T08:46:02Z</time>
      </trkpt>
      <trkpt lat="59.208337" lon="18.141626">
        <ele>53</ele>
        <time>2019-11-27T08:46:03Z</time>
      </trkpt>
      <trkpt lat="59.208285" lon="18.14154">
        <ele>52</ele>
        <time>2019-11-27T08:46:04Z</time>
      </trkpt>
      <trkpt lat="59.208228" lon="18.14145">
        <ele>52</ele>
        <time>2019-11-27T08:46:05Z</time>
      </trkpt>
      <trkpt lat="59.208168" lon="18.14136">
        <ele>52</ele>
        <time>2019-11-27T08:46:06Z</time>
      </trkpt>
      <trkpt lat="59.208105" lon="18.14127">
        <ele>52</ele>
        <time>2019-11-27T08:46:08Z</time>
      </trkpt>
      <trkpt lat="59.208042" lon="18.141184">
        <ele>52</ele>
        <time>2019-11-27T08:46:08Z</time>
      </trkpt>
      <trkpt lat="59.207977" lon="18.141102">
        <ele>51</ele>
        <time>2019-11-27T08:46:09Z</time>
      </trkpt>
      <trkpt lat="59.207911" lon="18.141024">
        <ele>51</ele>
        <time>2019-11-27T08:46:10Z</time>
      </trkpt>
      <trkpt lat="59.207842" lon="18.14095">
        <ele>51</ele>
        <time>2019-11-27T08:46:11Z</time>
      </trkpt>
      <trkpt lat="59.207772" lon="18.14088">
        <ele>50</ele>
        <time>2019-11-27T08:46:12Z</time>
      </trkpt>
      <trkpt lat="59.2077" lon="18.140812">
        <ele>50</ele>
        <time>2019-11-27T08:46:14Z</time>
      </trkpt>
      <trkpt lat="59.207629" lon="18.140748">
        <ele>50</ele>
        <time>2019-11-27T08:46:14Z</time>
      </trkpt>
      <trkpt lat="59.207556" lon="18.140692">
        <ele>50</ele>
        <time>2019-11-27T08:46:15Z</time>
      </trkpt>
      <trkpt lat="59.207482" lon="18.140638">
        <ele>50</ele>
        <time>2019-11-27T08:46:16Z</time>
      </trkpt>
      <trkpt lat="59.207407" lon="18.140584">
        <ele>49</ele>
        <time>2019-11-27T08:46:17Z</time>
      </trkpt>
      <trkpt lat="59.207331" lon="18.140536">
        <ele>49</ele>
        <time>2019-11-27T08:46:18Z</time>
      </trkpt>
      <trkpt lat="59.207255" lon="18.140492">
        <ele>49</ele>
        <time>2019-11-27T08:46:20Z</time>
      </trkpt>
      <trkpt lat="59.207178" lon="18.140454">
        <ele>48</ele>
        <time>2019-11-27T08:46:20Z</time>
      </trkpt>
      <trkpt lat="59.207102" lon="18.140424">
        <ele>48</ele>
        <time>2019-11-27T08:46:21Z</time>
      </trkpt>
      <trkpt lat="59.207027" lon="18.140398">
        <ele>48</ele>
        <time>2019-11-27T08:46:22Z</time>
      </trkpt>
      <trkpt lat="59.206952" lon="18.14038">
        <ele>47</ele>
        <time>2019-11-27T08:46:23Z</time>
      </trkpt>
      <trkpt lat="59.206876" lon="18.140364">
        <ele>47</ele>
        <time>2019-11-27T08:46:24Z</time>
      </trkpt>
      <trkpt lat="59.206801" lon="18.140348">
        <ele>47</ele>
        <time>2019-11-27T08:46:25Z</time>
      </trkpt>
      <trkpt lat="59.206725" lon="18.14034">
        <ele>47</ele>
        <time>2019-11-27T08:46:27Z</time>
      </trkpt>
      <trkpt lat="59.206648" lon="18.140336">
        <ele>46</ele>
        <time>2019-11-27T08:46:27Z</time>
      </trkpt>
      <trkpt lat="59.206572" lon="18.140336">
        <ele>46</ele>
        <time>2019-11-27T08:46:28Z</time>
      </trkpt>
      <trkpt lat="59.206497" lon="18.14035">
        <ele>46</ele>
        <time>2019-11-27T08:46:29Z</time>
      </trkpt>
      <trkpt lat="59.206425" lon="18.14038">
        <ele>46</ele>
        <time>2019-11-27T08:46:30Z</time>
      </trkpt>
      <trkpt lat="59.206358" lon="18.140434">
        <ele>45</ele>
        <time>2019-11-27T08:46:31Z</time>
      </trkpt>
      <trkpt lat="59.2063" lon="18.140512">
        <ele>45</ele>
        <time>2019-11-27T08:46:33Z</time>
      </trkpt>
      <trkpt lat="59.20625" lon="18.14061">
        <ele>45</ele>
        <time>2019-11-27T08:46:34Z</time>
      </trkpt>
      <trkpt lat="59.206201" lon="18.14071">
        <ele>45</ele>
        <time>2019-11-27T08:46:34Z</time>
      </trkpt>
      <trkpt lat="59.206143" lon="18.140792">
        <ele>45</ele>
        <time>2019-11-27T08:46:35Z</time>
      </trkpt>
      <trkpt lat="59.206078" lon="18.140854">
        <ele>44</ele>
        <time>2019-11-27T08:46:36Z</time>
      </trkpt>
      <trkpt lat="59.20601" lon="18.140896">
        <ele>44</ele>
        <time>2019-11-27T08:46:37Z</time>
      </trkpt>
      <trkpt lat="59.205941" lon="18.140936">
        <ele>44</ele>
        <time>2019-11-27T08:46:38Z</time>
      </trkpt>
      <trkpt lat="59.205873" lon="18.140982">
        <ele>44</ele>
        <time>2019-11-27T08:46:39Z</time>
      </trkpt>
      <trkpt lat="59.205805" lon="18.141026">
        <ele>44</ele>
        <time>2019-11-27T08:46:41Z</time>
      </trkpt>
      <trkpt lat="59.20574" lon="18.141072">
        <ele>44</ele>
        <time>2019-11-27T08:46:41Z</time>
      </trkpt>
      <trkpt lat="59.205678" lon="18.14112">
        <ele>44</ele>
        <time>2019-11-27T08:46:42Z</time>
      </trkpt>
      <trkpt lat="59.205616" lon="18.141172">
        <ele>43</ele>
        <time>2019-11-27T08:46:43Z</time>
      </trkpt>
      <trkpt lat="59.205554" lon="18.14122">
        <ele>43</ele>
        <time>2019-11-27T08:46:44Z</time>
      </trkpt>
      <trkpt lat="59.205493" lon="18.141268">
        <ele>43</ele>
        <time>2019-11-27T08:46:45Z</time>
      </trkpt>
      <trkpt lat="59.205433" lon="18.141319">
        <ele>43</ele>
        <time>2019-11-27T08:46:46Z</time>
      </trkpt>
      <trkpt lat="59.205373" lon="18.141372">
        <ele>43</ele>
        <time>2019-11-27T08:46:48Z</time>
      </trkpt>
      <trkpt lat="59.205311" lon="18.141426">
        <ele>43</ele>
        <time>2019-11-27T08:46:48Z</time>
      </trkpt>
      <trkpt lat="59.205246" lon="18.141482">
        <ele>43</ele>
        <time>2019-11-27T08:46:49Z</time>
      </trkpt>
      <trkpt lat="59.20518" lon="18.141536">
        <ele>43</ele>
        <time>2019-11-27T08:46:50Z</time>
      </trkpt>
      <trkpt lat="59.205111" lon="18.141588">
        <ele>42</ele>
        <time>2019-11-27T08:46:52Z</time>
      </trkpt>
      <trkpt lat="59.205043" lon="18.141636">
        <ele>42</ele>
        <time>2019-11-27T08:46:52Z</time>
      </trkpt>
      <trkpt lat="59.204974" lon="18.141684">
        <ele>42</ele>
        <time>2019-11-27T08:46:53Z</time>
      </trkpt>
      <trkpt lat="59.204907" lon="18.14173">
        <ele>42</ele>
        <time>2019-11-27T08:46:55Z</time>
      </trkpt>
      <trkpt lat="59.204842" lon="18.141772">
        <ele>41</ele>
        <time>2019-11-27T08:46:55Z</time>
      </trkpt>
      <trkpt lat="59.204776" lon="18.14181">
        <ele>41</ele>
        <time>2019-11-27T08:46:56Z</time>
      </trkpt>
      <trkpt lat="59.204708" lon="18.141848">
        <ele>41</ele>
        <time>2019-11-27T08:46:57Z</time>
      </trkpt>
      <trkpt lat="59.204639" lon="18.141884">
        <ele>41</ele>
        <time>2019-11-27T08:46:58Z</time>
      </trkpt>
      <trkpt lat="59.204569" lon="18.14192">
        <ele>41</ele>
        <time>2019-11-27T08:46:59Z</time>
      </trkpt>
      <trkpt lat="59.204499" lon="18.141954">
        <ele>41</ele>
        <time>2019-11-27T08:47:00Z</time>
      </trkpt>
      <trkpt lat="59.204428" lon="18.141983">
        <ele>41</ele>
        <time>2019-11-27T08:47:02Z</time>
      </trkpt>
      <trkpt lat="59.204356" lon="18.142012">
        <ele>41</ele>
        <time>2019-11-27T08:47:02Z</time>
      </trkpt>
      <trkpt lat="59.204285" lon="18.14204">
        <ele>40</ele>
        <time>2019-11-27T08:47:03Z</time>
      </trkpt>
      <trkpt lat="59.204213" lon="18.142066">
        <ele>40</ele>
        <time>2019-11-27T08:47:04Z</time>
      </trkpt>
      <trkpt lat="59.204142" lon="18.142092">
        <ele>40</ele>
        <time>2019-11-27T08:47:05Z</time>
      </trkpt>
      <trkpt lat="59.204071" lon="18.142115">
        <ele>40</ele>
        <time>2019-11-27T08:47:06Z</time>
      </trkpt>
      <trkpt lat="59.204001" lon="18.142137">
        <ele>39</ele>
        <time>2019-11-27T08:47:07Z</time>
      </trkpt>
      <trkpt lat="59.203932" lon="18.14216">
        <ele>39</ele>
        <time>2019-11-27T08:47:09Z</time>
      </trkpt>
      <trkpt lat="59.203865" lon="18.142183">
        <ele>39</ele>
        <time>2019-11-27T08:47:09Z</time>
      </trkpt>
      <trkpt lat="59.203798" lon="18.142204">
        <ele>39</ele>
        <time>2019-11-27T08:47:11Z</time>
      </trkpt>
      <trkpt lat="59.203733" lon="18.142223">
        <ele>39</ele>
        <time>2019-11-27T08:47:11Z</time>
      </trkpt>
      <trkpt lat="59.20367" lon="18.142239">
        <ele>39</ele>
        <time>2019-11-27T08:47:12Z</time>
      </trkpt>
      <trkpt lat="59.203607" lon="18.142249">
        <ele>39</ele>
        <time>2019-11-27T08:47:13Z</time>
      </trkpt>
      <trkpt lat="59.203545" lon="18.142254">
        <ele>39</ele>
        <time>2019-11-27T08:47:14Z</time>
      </trkpt>
      <trkpt lat="59.203484" lon="18.142257">
        <ele>39</ele>
        <time>2019-11-27T08:47:15Z</time>
      </trkpt>
      <trkpt lat="59.203422" lon="18.142258">
        <ele>39</ele>
        <time>2019-11-27T08:47:17Z</time>
      </trkpt>
      <trkpt lat="59.203361" lon="18.142255">
        <ele>39</ele>
        <time>2019-11-27T08:47:17Z</time>
      </trkpt>
      <trkpt lat="59.203301" lon="18.142248">
        <ele>39</ele>
        <time>2019-11-27T08:47:18Z</time>
      </trkpt>
      <trkpt lat="59.20324" lon="18.142241">
        <ele>38</ele>
        <time>2019-11-27T08:47:19Z</time>
      </trkpt>
      <trkpt lat="59.203179" lon="18.142233">
        <ele>38</ele>
        <time>2019-11-27T08:47:20Z</time>
      </trkpt>
      <trkpt lat="59.20312" lon="18.142226">
        <ele>38</ele>
        <time>2019-11-27T08:47:21Z</time>
      </trkpt>
      <trkpt lat="59.203061" lon="18.142218">
        <ele>38</ele>
        <time>2019-11-27T08:47:22Z</time>
      </trkpt>
      <trkpt lat="59.203003" lon="18.142205">
        <ele>38</ele>
        <time>2019-11-27T08:47:23Z</time>
      </trkpt>
      <trkpt lat="59.202945" lon="18.142193">
        <ele>38</ele>
        <time>2019-11-27T08:47:25Z</time>
      </trkpt>
      <trkpt lat="59.202887" lon="18.142185">
        <ele>38</ele>
        <time>2019-11-27T08:47:25Z</time>
      </trkpt>
      <trkpt lat="59.202828" lon="18.142179">
        <ele>38</ele>
        <time>2019-11-27T08:47:26Z</time>
      </trkpt>
      <trkpt lat="59.202769" lon="18.142179">
        <ele>38</ele>
        <time>2019-11-27T08:47:27Z</time>
      </trkpt>
      <trkpt lat="59.202711" lon="18.142182">
        <ele>38</ele>
        <time>2019-11-27T08:47:28Z</time>
      </trkpt>
      <trkpt lat="59.202652" lon="18.142189">
        <ele>38</ele>
        <time>2019-11-27T08:47:30Z</time>
      </trkpt>
      <trkpt lat="59.202592" lon="18.142197">
        <ele>38</ele>
        <time>2019-11-27T08:47:30Z</time>
      </trkpt>
      <trkpt lat="59.20253" lon="18.142209">
        <ele>37</ele>
        <time>2019-11-27T08:47:31Z</time>
      </trkpt>
      <trkpt lat="59.202467" lon="18.142222">
        <ele>37</ele>
        <time>2019-11-27T08:47:32Z</time>
      </trkpt>
      <trkpt lat="59.202402" lon="18.142232">
        <ele>37</ele>
        <time>2019-11-27T08:47:34Z</time>
      </trkpt>
      <trkpt lat="59.202335" lon="18.142232">
        <ele>37</ele>
        <time>2019-11-27T08:47:34Z</time>
      </trkpt>
      <trkpt lat="59.202268" lon="18.142218">
        <ele>37</ele>
        <time>2019-11-27T08:47:35Z</time>
      </trkpt>
      <trkpt lat="59.2022" lon="18.142195">
        <ele>37</ele>
        <time>2019-11-27T08:47:36Z</time>
      </trkpt>
      <trkpt lat="59.202133" lon="18.142168">
        <ele>37</ele>
        <time>2019-11-27T08:47:37Z</time>
      </trkpt>
      <trkpt lat="59.202066" lon="18.142138">
        <ele>36</ele>
        <time>2019-11-27T08:47:38Z</time>
      </trkpt>
      <trkpt lat="59.202" lon="18.142111">
        <ele>36</ele>
        <time>2019-11-27T08:47:39Z</time>
      </trkpt>
      <trkpt lat="59.201935" lon="18.142082">
        <ele>36</ele>
        <time>2019-11-27T08:47:41Z</time>
      </trkpt>
      <trkpt lat="59.201871" lon="18.142049">
        <ele>36</ele>
        <time>2019-11-27T08:47:41Z</time>
      </trkpt>
      <trkpt lat="59.201808" lon="18.142015">
        <ele>36</ele>
        <time>2019-11-27T08:47:42Z</time>
      </trkpt>
      <trkpt lat="59.201746" lon="18.141984">
        <ele>36</ele>
        <time>2019-11-27T08:47:43Z</time>
      </trkpt>
      <trkpt lat="59.201684" lon="18.141958">
        <ele>36</ele>
        <time>2019-11-27T08:47:44Z</time>
      </trkpt>
      <trkpt lat="59.201622" lon="18.141931">
        <ele>35</ele>
        <time>2019-11-27T08:47:45Z</time>
      </trkpt>
      <trkpt lat="59.201561" lon="18.141903">
        <ele>35</ele>
        <time>2019-11-27T08:47:46Z</time>
      </trkpt>
      <trkpt lat="59.2015" lon="18.141872">
        <ele>35</ele>
        <time>2019-11-27T08:47:47Z</time>
      </trkpt>
      <trkpt lat="59.201438" lon="18.141834">
        <ele>35</ele>
        <time>2019-11-27T08:47:49Z</time>
      </trkpt>
      <trkpt lat="59.201376" lon="18.141791">
        <ele>35</ele>
        <time>2019-11-27T08:47:49Z</time>
      </trkpt>
      <trkpt lat="59.201315" lon="18.141742">
        <ele>35</ele>
        <time>2019-11-27T08:47:50Z</time>
      </trkpt>
      <trkpt lat="59.201252" lon="18.141691">
        <ele>35</ele>
        <time>2019-11-27T08:47:51Z</time>
      </trkpt>
      <trkpt lat="59.201189" lon="18.141637">
        <ele>34</ele>
        <time>2019-11-27T08:47:52Z</time>
      </trkpt>
      <trkpt lat="59.201125" lon="18.141582">
        <ele>34</ele>
        <time>2019-11-27T08:47:53Z</time>
      </trkpt>
      <trkpt lat="59.20106" lon="18.141525">
        <ele>34</ele>
        <time>2019-11-27T08:47:54Z</time>
      </trkpt>
      <trkpt lat="59.200995" lon="18.141468">
        <ele>34</ele>
        <time>2019-11-27T08:47:56Z</time>
      </trkpt>
      <trkpt lat="59.20093" lon="18.141415">
        <ele>34</ele>
        <time>2019-11-27T08:47:56Z</time>
      </trkpt>
      <trkpt lat="59.200864" lon="18.141369">
        <ele>34</ele>
        <time>2019-11-27T08:47:57Z</time>
      </trkpt>
      <trkpt lat="59.200799" lon="18.141327">
        <ele>33</ele>
        <time>2019-11-27T08:47:58Z</time>
      </trkpt>
      <trkpt lat="59.200733" lon="18.141302">
        <ele>33</ele>
        <time>2019-11-27T08:47:59Z</time>
      </trkpt>
      <trkpt lat="59.200665" lon="18.14131">
        <ele>33</ele>
        <time>2019-11-27T08:48:00Z</time>
      </trkpt>
      <trkpt lat="59.200598" lon="18.141349">
        <ele>33</ele>
        <time>2019-11-27T08:48:01Z</time>
      </trkpt>
      <trkpt lat="59.200532" lon="18.141415">
        <ele>32</ele>
        <time>2019-11-27T08:48:03Z</time>
      </trkpt>
      <trkpt lat="59.200467" lon="18.141487">
        <ele>32</ele>
        <time>2019-11-27T08:48:03Z</time>
      </trkpt>
      <trkpt lat="59.200401" lon="18.14156">
        <ele>31</ele>
        <time>2019-11-27T08:48:04Z</time>
      </trkpt>
      <trkpt lat="59.200332" lon="18.141632">
        <ele>31</ele>
        <time>2019-11-27T08:48:05Z</time>
      </trkpt>
      <trkpt lat="59.200261" lon="18.141705">
        <ele>30</ele>
        <time>2019-11-27T08:48:06Z</time>
      </trkpt>
      <trkpt lat="59.200189" lon="18.141782">
        <ele>30</ele>
        <time>2019-11-27T08:48:08Z</time>
      </trkpt>
      <trkpt lat="59.200117" lon="18.141864">
        <ele>30</ele>
        <time>2019-11-27T08:48:09Z</time>
      </trkpt>
      <trkpt lat="59.200044" lon="18.14195">
        <ele>29</ele>
        <time>2019-11-27T08:48:09Z</time>
      </trkpt>
      <trkpt lat="59.19997" lon="18.14204">
        <ele>29</ele>
        <time>2019-11-27T08:48:10Z</time>
      </trkpt>
      <trkpt lat="59.199896" lon="18.142132">
        <ele>29</ele>
        <time>2019-11-27T08:48:11Z</time>
      </trkpt>
      <trkpt lat="59.199828" lon="18.142234">
        <ele>28</ele>
        <time>2019-11-27T08:48:12Z</time>
      </trkpt>
      <trkpt lat="59.199767" lon="18.142355">
        <ele>28</ele>
        <time>2019-11-27T08:48:13Z</time>
      </trkpt>
      <trkpt lat="59.199715" lon="18.142482">
        <ele>28</ele>
        <time>2019-11-27T08:48:15Z</time>
      </trkpt>
      <trkpt lat="59.199669" lon="18.14261">
        <ele>28</ele>
        <time>2019-11-27T08:48:15Z</time>
      </trkpt>
      <trkpt lat="59.199621" lon="18.142731">
        <ele>28</ele>
        <time>2019-11-27T08:48:16Z</time>
      </trkpt>
      <trkpt lat="59.199562" lon="18.142836">
        <ele>28</ele>
        <time>2019-11-27T08:48:17Z</time>
      </trkpt>
      <trkpt lat="59.199494" lon="18.142918">
        <ele>28</ele>
        <time>2019-11-27T08:48:18Z</time>
      </trkpt>
      <trkpt lat="59.199421" lon="18.142975">
        <ele>28</ele>
        <time>2019-11-27T08:48:19Z</time>
      </trkpt>
      <trkpt lat="59.199346" lon="18.143004">
        <ele>28</ele>
        <time>2019-11-27T08:48:20Z</time>
      </trkpt>
      <trkpt lat="59.199272" lon="18.143008">
        <ele>27</ele>
        <time>2019-11-27T08:48:22Z</time>
      </trkpt>
      <trkpt lat="59.199198" lon="18.143004">
        <ele>27</ele>
        <time>2019-11-27T08:48:22Z</time>
      </trkpt>
      <trkpt lat="59.199127" lon="18.143002">
        <ele>27</ele>
        <time>2019-11-27T08:48:23Z</time>
      </trkpt>
      <trkpt lat="59.199058" lon="18.143">
        <ele>27</ele>
        <time>2019-11-27T08:48:24Z</time>
      </trkpt>
      <trkpt lat="59.198989" lon="18.142996">
        <ele>27</ele>
        <time>2019-11-27T08:48:25Z</time>
      </trkpt>
      <trkpt lat="59.198921" lon="18.142994">
        <ele>27</ele>
        <time>2019-11-27T08:48:27Z</time>
      </trkpt>
      <trkpt lat="59.198854" lon="18.142989">
        <ele>26</ele>
        <time>2019-11-27T08:48:27Z</time>
      </trkpt>
      <trkpt lat="59.198787" lon="18.142981">
        <ele>26</ele>
        <time>2019-11-27T08:48:29Z</time>
      </trkpt>
      <trkpt lat="59.198721" lon="18.142974">
        <ele>26</ele>
        <time>2019-11-27T08:48:29Z</time>
      </trkpt>
      <trkpt lat="59.198655" lon="18.142966">
        <ele>26</ele>
        <time>2019-11-27T08:48:30Z</time>
      </trkpt>
      <trkpt lat="59.19859" lon="18.142953">
        <ele>26</ele>
        <time>2019-11-27T08:48:31Z</time>
      </trkpt>
      <trkpt lat="59.198526" lon="18.142931">
        <ele>25</ele>
        <time>2019-11-27T08:48:32Z</time>
      </trkpt>
      <trkpt lat="59.198463" lon="18.142901">
        <ele>25</ele>
        <time>2019-11-27T08:48:33Z</time>
      </trkpt>
      <trkpt lat="59.1984" lon="18.142867">
        <ele>25</ele>
        <time>2019-11-27T08:48:34Z</time>
      </trkpt>
      <trkpt lat="59.198338" lon="18.142832">
        <ele>25</ele>
        <time>2019-11-27T08:48:35Z</time>
      </trkpt>
      <trkpt lat="59.198277" lon="18.142795">
        <ele>25</ele>
        <time>2019-11-27T08:48:37Z</time>
      </trkpt>
      <trkpt lat="59.198217" lon="18.142754">
        <ele>25</ele>
        <time>2019-11-27T08:48:37Z</time>
      </trkpt>
      <trkpt lat="59.198158" lon="18.142712">
        <ele>25</ele>
        <time>2019-11-27T08:48:38Z</time>
      </trkpt>
      <trkpt lat="59.198101" lon="18.142669">
        <ele>25</ele>
        <time>2019-11-27T08:48:39Z</time>
      </trkpt>
      <trkpt lat="59.198046" lon="18.142625">
        <ele>25</ele>
        <time>2019-11-27T08:48:40Z</time>
      </trkpt>
      <trkpt lat="59.19799" lon="18.142582">
        <ele>25</ele>
        <time>2019-11-27T08:48:41Z</time>
      </trkpt>
      <trkpt lat="59.197934" lon="18.142542">
        <ele>25</ele>
        <time>2019-11-27T08:48:42Z</time>
      </trkpt>
      <trkpt lat="59.19788" lon="18.142501">
        <ele>25</ele>
        <time>2019-11-27T08:48:43Z</time>
      </trkpt>
      <trkpt lat="59.197828" lon="18.142461">
        <ele>25</ele>
        <time>2019-11-27T08:48:45Z</time>
      </trkpt>
      <trkpt lat="59.197776" lon="18.142422">
        <ele>24</ele>
        <time>2019-11-27T08:48:46Z</time>
      </trkpt>
      <trkpt lat="59.197723" lon="18.142387">
        <ele>24</ele>
        <time>2019-11-27T08:48:46Z</time>
      </trkpt>
      <trkpt lat="59.197671" lon="18.142356">
        <ele>24</ele>
        <time>2019-11-27T08:48:47Z</time>
      </trkpt>
      <trkpt lat="59.197622" lon="18.142322">
        <ele>24</ele>
        <time>2019-11-27T08:48:48Z</time>
      </trkpt>
      <trkpt lat="59.197575" lon="18.142285">
        <ele>24</ele>
        <time>2019-11-27T08:48:49Z</time>
      </trkpt>
      <trkpt lat="59.19753" lon="18.142251">
        <ele>24</ele>
        <time>2019-11-27T08:48:50Z</time>
      </trkpt>
      <trkpt lat="59.197487" lon="18.142223">
        <ele>24</ele>
        <time>2019-11-27T08:48:51Z</time>
      </trkpt>
      <trkpt lat="59.197447" lon="18.142196">
        <ele>24</ele>
        <time>2019-11-27T08:48:52Z</time>
      </trkpt>
      <trkpt lat="59.197409" lon="18.142169">
        <ele>24</ele>
        <time>2019-11-27T08:48:53Z</time>
      </trkpt>
      <trkpt lat="59.197372" lon="18.142144">
        <ele>24</ele>
        <time>2019-11-27T08:48:54Z</time>
      </trkpt>
      <trkpt lat="59.197335" lon="18.142124">
        <ele>24</ele>
        <time>2019-11-27T08:48:56Z</time>
      </trkpt>
      <trkpt lat="59.197298" lon="18.142112">
        <ele>24</ele>
        <time>2019-11-27T08:48:56Z</time>
      </trkpt>
      <trkpt lat="59.197261" lon="18.142097">
        <ele>24</ele>
        <time>2019-11-27T08:48:57Z</time>
      </trkpt>
      <trkpt lat="59.197228" lon="18.142066">
        <ele>24</ele>
        <time>2019-11-27T08:48:58Z</time>
      </trkpt>
      <trkpt lat="59.197201" lon="18.142012">
        <ele>25</ele>
        <time>2019-11-27T08:48:59Z</time>
      </trkpt>
      <trkpt lat="59.197176" lon="18.141949">
        <ele>25</ele>
        <time>2019-11-27T08:49:00Z</time>
      </trkpt>
      <trkpt lat="59.197152" lon="18.141885">
        <ele>25</ele>
        <time>2019-11-27T08:49:01Z</time>
      </trkpt>
      <trkpt lat="59.197125" lon="18.141825">
        <ele>25</ele>
        <time>2019-11-27T08:49:02Z</time>
      </trkpt>
      <trkpt lat="59.197097" lon="18.141771">
        <ele>25</ele>
        <time>2019-11-27T08:49:03Z</time>
      </trkpt>
      <trkpt lat="59.197066" lon="18.141725">
        <ele>25</ele>
        <time>2019-11-27T08:49:05Z</time>
      </trkpt>
      <trkpt lat="59.197038" lon="18.141681">
        <ele>25</ele>
        <time>2019-11-27T08:49:05Z</time>
      </trkpt>
      <trkpt lat="59.197012" lon="18.141634">
        <ele>25</ele>
        <time>2019-11-27T08:49:06Z</time>
      </trkpt>
      <trkpt lat="59.196986" lon="18.141586">
        <ele>26</ele>
        <time>2019-11-27T08:49:07Z</time>
      </trkpt>
      <trkpt lat="59.196962" lon="18.141539">
        <ele>26</ele>
        <time>2019-11-27T08:49:09Z</time>
      </trkpt>
      <trkpt lat="59.19694" lon="18.141489">
        <ele>26</ele>
        <time>2019-11-27T08:49:09Z</time>
      </trkpt>
      <trkpt lat="59.196918" lon="18.141439">
        <ele>27</ele>
        <time>2019-11-27T08:49:10Z</time>
      </trkpt>
      <trkpt lat="59.196895" lon="18.141395">
        <ele>27</ele>
        <time>2019-11-27T08:49:11Z</time>
      </trkpt>
      <trkpt lat="59.196869" lon="18.141352">
        <ele>27</ele>
        <time>2019-11-27T08:49:12Z</time>
      </trkpt>
      <trkpt lat="59.196842" lon="18.14131">
        <ele>28</ele>
        <time>2019-11-27T08:49:13Z</time>
      </trkpt>
      <trkpt lat="59.196815" lon="18.14127">
        <ele>28</ele>
        <time>2019-11-27T08:49:14Z</time>
      </trkpt>
      <trkpt lat="59.196787" lon="18.141232">
        <ele>28</ele>
        <time>2019-11-27T08:49:15Z</time>
      </trkpt>
      <trkpt lat="59.196758" lon="18.141196">
        <ele>28</ele>
        <time>2019-11-27T08:49:16Z</time>
      </trkpt>
      <trkpt lat="59.196729" lon="18.14116">
        <ele>29</ele>
        <time>2019-11-27T08:49:17Z</time>
      </trkpt>
      <trkpt lat="59.196701" lon="18.141126">
        <ele>29</ele>
        <time>2019-11-27T08:49:18Z</time>
      </trkpt>
      <trkpt lat="59.196672" lon="18.141092">
        <ele>29</ele>
        <time>2019-11-27T08:49:19Z</time>
      </trkpt>
      <trkpt lat="59.196644" lon="18.141059">
        <ele>29</ele>
        <time>2019-11-27T08:49:20Z</time>
      </trkpt>
      <trkpt lat="59.196615" lon="18.141028">
        <ele>29</ele>
        <time>2019-11-27T08:49:21Z</time>
      </trkpt>
      <trkpt lat="59.196586" lon="18.141">
        <ele>30</ele>
        <time>2019-11-27T08:49:22Z</time>
      </trkpt>
      <trkpt lat="59.196555" lon="18.140973">
        <ele>30</ele>
        <time>2019-11-27T08:49:24Z</time>
      </trkpt>
      <trkpt lat="59.196524" lon="18.14095">
        <ele>30</ele>
        <time>2019-11-27T08:49:24Z</time>
      </trkpt>
      <trkpt lat="59.196494" lon="18.140928">
        <ele>30</ele>
        <time>2019-11-27T08:49:25Z</time>
      </trkpt>
      <trkpt lat="59.196462" lon="18.140907">
        <ele>30</ele>
        <time>2019-11-27T08:49:26Z</time>
      </trkpt>
      <trkpt lat="59.196429" lon="18.140887">
        <ele>30</ele>
        <time>2019-11-27T08:49:27Z</time>
      </trkpt>
      <trkpt lat="59.196397" lon="18.140867">
        <ele>30</ele>
        <time>2019-11-27T08:49:28Z</time>
      </trkpt>
      <trkpt lat="59.196364" lon="18.140848">
        <ele>30</ele>
        <time>2019-11-27T08:49:29Z</time>
      </trkpt>
      <trkpt lat="59.19633" lon="18.140832">
        <ele>30</ele>
        <time>2019-11-27T08:49:30Z</time>
      </trkpt>
      <trkpt lat="59.196295" lon="18.140817">
        <ele>30</ele>
        <time>2019-11-27T08:49:31Z</time>
      </trkpt>
      <trkpt lat="59.19626" lon="18.140803">
        <ele>30</ele>
        <time>2019-11-27T08:49:32Z</time>
      </trkpt>
      <trkpt lat="59.196224" lon="18.140791">
        <ele>30</ele>
        <time>2019-11-27T08:49:33Z</time>
      </trkpt>
      <trkpt lat="59.196187" lon="18.14078">
        <ele>30</ele>
        <time>2019-11-27T08:49:34Z</time>
      </trkpt>
      <trkpt lat="59.196151" lon="18.140771">
        <ele>30</ele>
        <time>2019-11-27T08:49:35Z</time>
      </trkpt>
      <trkpt lat="59.196115" lon="18.140763">
        <ele>30</ele>
        <time>2019-11-27T08:49:36Z</time>
      </trkpt>
      <trkpt lat="59.19608" lon="18.140755">
        <ele>30</ele>
        <time>2019-11-27T08:49:38Z</time>
      </trkpt>
      <trkpt lat="59.196044" lon="18.140749">
        <ele>30</ele>
        <time>2019-11-27T08:49:38Z</time>
      </trkpt>
      <trkpt lat="59.196008" lon="18.140741">
        <ele>30</ele>
        <time>2019-11-27T08:49:39Z</time>
      </trkpt>
      <trkpt lat="59.195973" lon="18.140733">
        <ele>30</ele>
        <time>2019-11-27T08:49:40Z</time>
      </trkpt>
      <trkpt lat="59.195939" lon="18.140725">
        <ele>30</ele>
        <time>2019-11-27T08:49:41Z</time>
      </trkpt>
      <trkpt lat="59.195904" lon="18.140718">
        <ele>30</ele>
        <time>2019-11-27T08:49:43Z</time>
      </trkpt>
      <trkpt lat="59.195868" lon="18.14071">
        <ele>30</ele>
        <time>2019-11-27T08:49:43Z</time>
      </trkpt>
      <trkpt lat="59.195832" lon="18.140703">
        <ele>30</ele>
        <time>2019-11-27T08:49:44Z</time>
      </trkpt>
      <trkpt lat="59.195795" lon="18.140696">
        <ele>31</ele>
        <time>2019-11-27T08:49:45Z</time>
      </trkpt>
      <trkpt lat="59.195758" lon="18.140691">
        <ele>31</ele>
        <time>2019-11-27T08:49:46Z</time>
      </trkpt>
      <trkpt lat="59.195722" lon="18.140685">
        <ele>31</ele>
        <time>2019-11-27T08:49:47Z</time>
      </trkpt>
      <trkpt lat="59.195687" lon="18.140679">
        <ele>31</ele>
        <time>2019-11-27T08:49:48Z</time>
      </trkpt>
      <trkpt lat="59.195651" lon="18.140675">
        <ele>31</ele>
        <time>2019-11-27T08:49:49Z</time>
      </trkpt>
      <trkpt lat="59.195616" lon="18.140671">
        <ele>31</ele>
        <time>2019-11-27T08:49:50Z</time>
      </trkpt>
      <trkpt lat="59.195581" lon="18.140666">
        <ele>31</ele>
        <time>2019-11-27T08:49:52Z</time>
      </trkpt>
      <trkpt lat="59.195547" lon="18.14066">
        <ele>31</ele>
        <time>2019-11-27T08:49:52Z</time>
      </trkpt>
      <trkpt lat="59.195513" lon="18.140655">
        <ele>32</ele>
        <time>2019-11-27T08:49:53Z</time>
      </trkpt>
      <trkpt lat="59.195479" lon="18.140651">
        <ele>32</ele>
        <time>2019-11-27T08:49:54Z</time>
      </trkpt>
      <trkpt lat="59.195446" lon="18.140649">
        <ele>32</ele>
        <time>2019-11-27T08:49:55Z</time>
      </trkpt>
      <trkpt lat="59.195413" lon="18.140647">
        <ele>32</ele>
        <time>2019-11-27T08:49:56Z</time>
      </trkpt>
      <trkpt lat="59.19538" lon="18.140644">
        <ele>32</ele>
        <time>2019-11-27T08:49:57Z</time>
      </trkpt>
      <trkpt lat="59.195347" lon="18.140642">
        <ele>32</ele>
        <time>2019-11-27T08:49:58Z</time>
      </trkpt>
      <trkpt lat="59.195313" lon="18.140642">
        <ele>32</ele>
        <time>2019-11-27T08:49:59Z</time>
      </trkpt>
      <trkpt lat="59.195281" lon="18.140643">
        <ele>32</ele>
        <time>2019-11-27T08:50:00Z</time>
      </trkpt>
      <trkpt lat="59.19525" lon="18.140646">
        <ele>33</ele>
        <time>2019-11-27T08:50:02Z</time>
      </trkpt>
      <trkpt lat="59.19522" lon="18.140652">
        <ele>33</ele>
        <time>2019-11-27T08:50:02Z</time>
      </trkpt>
      <trkpt lat="59.19519" lon="18.140659">
        <ele>33</ele>
        <time>2019-11-27T08:50:03Z</time>
      </trkpt>
      <trkpt lat="59.19516" lon="18.140666">
        <ele>33</ele>
        <time>2019-11-27T08:50:04Z</time>
      </trkpt>
      <trkpt lat="59.195131" lon="18.140675">
        <ele>33</ele>
        <time>2019-11-27T08:50:05Z</time>
      </trkpt>
      <trkpt lat="59.195103" lon="18.140687">
        <ele>33</ele>
        <time>2019-11-27T08:50:06Z</time>
      </trkpt>
      <trkpt lat="59.195074" lon="18.1407">
        <ele>33</ele>
        <time>2019-11-27T08:50:08Z</time>
      </trkpt>
      <trkpt lat="59.195046" lon="18.140714">
        <ele>34</ele>
        <time>2019-11-27T08:50:08Z</time>
      </trkpt>
      <trkpt lat="59.195019" lon="18.140732">
        <ele>34</ele>
        <time>2019-11-27T08:50:09Z</time>
      </trkpt>
      <trkpt lat="59.194991" lon="18.140752">
        <ele>34</ele>
        <time>2019-11-27T08:50:10Z</time>
      </trkpt>
      <trkpt lat="59.194963" lon="18.140773">
        <ele>34</ele>
        <time>2019-11-27T08:50:11Z</time>
      </trkpt>
      <trkpt lat="59.194936" lon="18.140794">
        <ele>34</ele>
        <time>2019-11-27T08:50:12Z</time>
      </trkpt>
      <trkpt lat="59.194909" lon="18.140816">
        <ele>34</ele>
        <time>2019-11-27T08:50:13Z</time>
      </trkpt>
      <trkpt lat="59.194883" lon="18.140839">
        <ele>34</ele>
        <time>2019-11-27T08:50:14Z</time>
      </trkpt>
      <trkpt lat="59.194856" lon="18.140863">
        <ele>34</ele>
        <time>2019-11-27T08:50:15Z</time>
      </trkpt>
      <trkpt lat="59.194828" lon="18.140885">
        <ele>35</ele>
        <time>2019-11-27T08:50:16Z</time>
      </trkpt>
      <trkpt lat="59.194799" lon="18.140909">
        <ele>35</ele>
        <time>2019-11-27T08:50:17Z</time>
      </trkpt>
      <trkpt lat="59.194771" lon="18.140934">
        <ele>35</ele>
        <time>2019-11-27T08:50:18Z</time>
      </trkpt>
      <trkpt lat="59.194743" lon="18.140958">
        <ele>35</ele>
        <time>2019-11-27T08:50:19Z</time>
      </trkpt>
      <trkpt lat="59.194715" lon="18.140984">
        <ele>35</ele>
        <time>2019-11-27T08:50:21Z</time>
      </trkpt>
      <trkpt lat="59.194687" lon="18.141011">
        <ele>35</ele>
        <time>2019-11-27T08:50:21Z</time>
      </trkpt>
      <trkpt lat="59.194659" lon="18.141039">
        <ele>36</ele>
        <time>2019-11-27T08:50:22Z</time>
      </trkpt>
      <trkpt lat="59.194632" lon="18.141066">
        <ele>36</ele>
        <time>2019-11-27T08:50:24Z</time>
      </trkpt>
      <trkpt lat="59.194604" lon="18.141094">
        <ele>36</ele>
        <time>2019-11-27T08:50:24Z</time>
      </trkpt>
      <trkpt lat="59.194578" lon="18.141119">
        <ele>37</ele>
        <time>2019-11-27T08:50:25Z</time>
      </trkpt>
      <trkpt lat="59.194552" lon="18.141145">
        <ele>37</ele>
        <time>2019-11-27T08:50:26Z</time>
      </trkpt>
      <trkpt lat="59.194525" lon="18.141174">
        <ele>37</ele>
        <time>2019-11-27T08:50:27Z</time>
      </trkpt>
      <trkpt lat="59.194499" lon="18.141201">
        <ele>37</ele>
        <time>2019-11-27T08:50:28Z</time>
      </trkpt>
      <trkpt lat="59.194472" lon="18.14123">
        <ele>37</ele>
        <time>2019-11-27T08:50:29Z</time>
      </trkpt>
      <trkpt lat="59.194442" lon="18.141259">
        <ele>38</ele>
        <time>2019-11-27T08:50:30Z</time>
      </trkpt>
      <trkpt lat="59.194412" lon="18.141287">
        <ele>38</ele>
        <time>2019-11-27T08:50:31Z</time>
      </trkpt>
      <trkpt lat="59.194378" lon="18.141316">
        <ele>38</ele>
        <time>2019-11-27T08:50:32Z</time>
      </trkpt>
      <trkpt lat="59.194345" lon="18.141345">
        <ele>38</ele>
        <time>2019-11-27T08:50:33Z</time>
      </trkpt>
      <trkpt lat="59.194313" lon="18.141374">
        <ele>38</ele>
        <time>2019-11-27T08:50:34Z</time>
      </trkpt>
      <trkpt lat="59.194278" lon="18.141408">
        <ele>38</ele>
        <time>2019-11-27T08:50:35Z</time>
      </trkpt>
      <trkpt lat="59.194243" lon="18.141442">
        <ele>38</ele>
        <time>2019-11-27T08:50:36Z</time>
      </trkpt>
      <trkpt lat="59.194209" lon="18.141476">
        <ele>39</ele>
        <time>2019-11-27T08:50:37Z</time>
      </trkpt>
      <trkpt lat="59.194176" lon="18.141507">
        <ele>39</ele>
        <time>2019-11-27T08:50:39Z</time>
      </trkpt>
      <trkpt lat="59.194143" lon="18.141538">
        <ele>39</ele>
        <time>2019-11-27T08:50:40Z</time>
      </trkpt>
      <trkpt lat="59.194112" lon="18.141571">
        <ele>39</ele>
        <time>2019-11-27T08:50:40Z</time>
      </trkpt>
      <trkpt lat="59.194079" lon="18.141602">
        <ele>39</ele>
        <time>2019-11-27T08:50:41Z</time>
      </trkpt>
      <trkpt lat="59.194048" lon="18.141632">
        <ele>39</ele>
        <time>2019-11-27T08:50:42Z</time>
      </trkpt>
      <trkpt lat="59.194017" lon="18.141664">
        <ele>39</ele>
        <time>2019-11-27T08:50:43Z</time>
      </trkpt>
      <trkpt lat="59.193986" lon="18.141696">
        <ele>40</ele>
        <time>2019-11-27T08:50:44Z</time>
      </trkpt>
      <trkpt lat="59.193956" lon="18.141726">
        <ele>40</ele>
        <time>2019-11-27T08:50:45Z</time>
      </trkpt>
      <trkpt lat="59.193925" lon="18.141758">
        <ele>40</ele>
        <time>2019-11-27T08:50:46Z</time>
      </trkpt>
      <trkpt lat="59.193895" lon="18.141791">
        <ele>40</ele>
        <time>2019-11-27T08:50:47Z</time>
      </trkpt>
      <trkpt lat="59.193864" lon="18.141824">
        <ele>40</ele>
        <time>2019-11-27T08:50:48Z</time>
      </trkpt>
      <trkpt lat="59.193832" lon="18.141857">
        <ele>40</ele>
        <time>2019-11-27T08:50:49Z</time>
      </trkpt>
      <trkpt lat="59.193799" lon="18.141888">
        <ele>40</ele>
        <time>2019-11-27T08:50:50Z</time>
      </trkpt>
      <trkpt lat="59.193765" lon="18.141919">
        <ele>40</ele>
        <time>2019-11-27T08:50:51Z</time>
      </trkpt>
      <trkpt lat="59.193731" lon="18.14195">
        <ele>41</ele>
        <time>2019-11-27T08:50:53Z</time>
      </trkpt>
      <trkpt lat="59.193697" lon="18.141983">
        <ele>41</ele>
        <time>2019-11-27T08:50:53Z</time>
      </trkpt>
      <trkpt lat="59.193663" lon="18.142016">
        <ele>41</ele>
        <time>2019-11-27T08:50:54Z</time>
      </trkpt>
      <trkpt lat="59.193627" lon="18.142047">
        <ele>41</ele>
        <time>2019-11-27T08:50:55Z</time>
      </trkpt>
      <trkpt lat="59.193591" lon="18.142079">
        <ele>41</ele>
        <time>2019-11-27T08:50:56Z</time>
      </trkpt>
      <trkpt lat="59.193555" lon="18.142116">
        <ele>41</ele>
        <time>2019-11-27T08:50:57Z</time>
      </trkpt>
      <trkpt lat="59.193517" lon="18.142153">
        <ele>41</ele>
        <time>2019-11-27T08:50:59Z</time>
      </trkpt>
      <trkpt lat="59.19348" lon="18.142188">
        <ele>41</ele>
        <time>2019-11-27T08:50:59Z</time>
      </trkpt>
      <trkpt lat="59.19344" lon="18.142222">
        <ele>41</ele>
        <time>2019-11-27T08:51:00Z</time>
      </trkpt>
      <trkpt lat="59.193398" lon="18.142254">
        <ele>41</ele>
        <time>2019-11-27T08:51:01Z</time>
      </trkpt>
      <trkpt lat="59.193355" lon="18.142284">
        <ele>41</ele>
        <time>2019-11-27T08:51:02Z</time>
      </trkpt>
      <trkpt lat="59.193311" lon="18.142312">
        <ele>41</ele>
        <time>2019-11-27T08:51:03Z</time>
      </trkpt>
      <trkpt lat="59.193266" lon="18.14234">
        <ele>41</ele>
        <time>2019-11-27T08:51:05Z</time>
      </trkpt>
      <trkpt lat="59.193222" lon="18.14237">
        <ele>41</ele>
        <time>2019-11-27T08:51:05Z</time>
      </trkpt>
      <trkpt lat="59.193177" lon="18.142404">
        <ele>41</ele>
        <time>2019-11-27T08:51:06Z</time>
      </trkpt>
      <trkpt lat="59.193134" lon="18.14244">
        <ele>41</ele>
        <time>2019-11-27T08:51:07Z</time>
      </trkpt>
      <trkpt lat="59.19309" lon="18.142478">
        <ele>41</ele>
        <time>2019-11-27T08:51:08Z</time>
      </trkpt>
      <trkpt lat="59.193047" lon="18.142522">
        <ele>41</ele>
        <time>2019-11-27T08:51:09Z</time>
      </trkpt>
      <trkpt lat="59.193003" lon="18.142566">
        <ele>41</ele>
        <time>2019-11-27T08:51:10Z</time>
      </trkpt>
      <trkpt lat="59.192959" lon="18.142612">
        <ele>41</ele>
        <time>2019-11-27T08:51:11Z</time>
      </trkpt>
      <trkpt lat="59.192914" lon="18.142656">
        <ele>40</ele>
        <time>2019-11-27T08:51:12Z</time>
      </trkpt>
      <trkpt lat="59.19287" lon="18.1427">
        <ele>40</ele>
        <time>2019-11-27T08:51:13Z</time>
      </trkpt>
      <trkpt lat="59.192825" lon="18.142744">
        <ele>40</ele>
        <time>2019-11-27T08:51:15Z</time>
      </trkpt>
      <trkpt lat="59.192781" lon="18.142786">
        <ele>40</ele>
        <time>2019-11-27T08:51:15Z</time>
      </trkpt>
      <trkpt lat="59.192738" lon="18.142828">
        <ele>40</ele>
        <time>2019-11-27T08:51:16Z</time>
      </trkpt>
      <trkpt lat="59.192694" lon="18.142872">
        <ele>40</ele>
        <time>2019-11-27T08:51:18Z</time>
      </trkpt>
      <trkpt lat="59.192648" lon="18.142918">
        <ele>40</ele>
        <time>2019-11-27T08:51:18Z</time>
      </trkpt>
      <trkpt lat="59.192602" lon="18.142968">
        <ele>40</ele>
        <time>2019-11-27T08:51:19Z</time>
      </trkpt>
      <trkpt lat="59.192555" lon="18.143016">
        <ele>40</ele>
        <time>2019-11-27T08:51:20Z</time>
      </trkpt>
      <trkpt lat="59.192508" lon="18.143064">
        <ele>40</ele>
        <time>2019-11-27T08:51:21Z</time>
      </trkpt>
      <trkpt lat="59.192463" lon="18.143112">
        <ele>40</ele>
        <time>2019-11-27T08:51:22Z</time>
      </trkpt>
      <trkpt lat="59.192419" lon="18.143158">
        <ele>40</ele>
        <time>2019-11-27T08:51:23Z</time>
      </trkpt>
      <trkpt lat="59.192379" lon="18.143204">
        <ele>41</ele>
        <time>2019-11-27T08:51:25Z</time>
      </trkpt>
      <trkpt lat="59.192342" lon="18.143242">
        <ele>41</ele>
        <time>2019-11-27T08:51:25Z</time>
      </trkpt>
      <trkpt lat="59.192307" lon="18.143278">
        <ele>41</ele>
        <time>2019-11-27T08:51:26Z</time>
      </trkpt>
      <trkpt lat="59.192273" lon="18.143312">
        <ele>41</ele>
        <time>2019-11-27T08:51:27Z</time>
      </trkpt>
      <trkpt lat="59.192239" lon="18.143344">
        <ele>41</ele>
        <time>2019-11-27T08:51:28Z</time>
      </trkpt>
      <trkpt lat="59.192208" lon="18.143374">
        <ele>41</ele>
        <time>2019-11-27T08:51:29Z</time>
      </trkpt>
      <trkpt lat="59.192176" lon="18.143404">
        <ele>41</ele>
        <time>2019-11-27T08:51:30Z</time>
      </trkpt>
      <trkpt lat="59.192145" lon="18.143438">
        <ele>41</ele>
        <time>2019-11-27T08:51:31Z</time>
      </trkpt>
      <trkpt lat="59.192111" lon="18.143466">
        <ele>40</ele>
        <time>2019-11-27T08:51:32Z</time>
      </trkpt>
      <trkpt lat="59.192073" lon="18.143496">
        <ele>40</ele>
        <time>2019-11-27T08:51:33Z</time>
      </trkpt>
      <trkpt lat="59.192033" lon="18.143532">
        <ele>40</ele>
        <time>2019-11-27T08:51:34Z</time>
      </trkpt>
      <trkpt lat="59.191992" lon="18.143574">
        <ele>40</ele>
        <time>2019-11-27T08:51:35Z</time>
      </trkpt>
      <trkpt lat="59.191949" lon="18.143612">
        <ele>41</ele>
        <time>2019-11-27T08:51:37Z</time>
      </trkpt>
      <trkpt lat="59.191911" lon="18.143644">
        <ele>41</ele>
        <time>2019-11-27T08:51:37Z</time>
      </trkpt>
      <trkpt lat="59.191879" lon="18.143678">
        <ele>41</ele>
        <time>2019-11-27T08:51:38Z</time>
      </trkpt>
      <trkpt lat="59.19186" lon="18.143722">
        <ele>41</ele>
        <time>2019-11-27T08:51:39Z</time>
      </trkpt>
      <trkpt lat="59.191843" lon="18.143766">
        <ele>41</ele>
        <time>2019-11-27T08:51:40Z</time>
      </trkpt>
      <trkpt lat="59.191819" lon="18.1438">
        <ele>41</ele>
        <time>2019-11-27T08:51:41Z</time>
      </trkpt>
      <trkpt lat="59.191786" lon="18.143828">
        <ele>41</ele>
        <time>2019-11-27T08:51:42Z</time>
      </trkpt>
      <trkpt lat="59.191748" lon="18.143854">
        <ele>40</ele>
        <time>2019-11-27T08:51:43Z</time>
      </trkpt>
      <trkpt lat="59.191706" lon="18.14388">
        <ele>40</ele>
        <time>2019-11-27T08:51:44Z</time>
      </trkpt>
      <trkpt lat="59.191661" lon="18.14391">
        <ele>40</ele>
        <time>2019-11-27T08:51:45Z</time>
      </trkpt>
      <trkpt lat="59.191611" lon="18.143942">
        <ele>40</ele>
        <time>2019-11-27T08:51:46Z</time>
      </trkpt>
      <trkpt lat="59.191557" lon="18.143972">
        <ele>39</ele>
        <time>2019-11-27T08:51:47Z</time>
      </trkpt>
      <trkpt lat="59.191501" lon="18.144004">
        <ele>39</ele>
        <time>2019-11-27T08:51:49Z</time>
      </trkpt>
      <trkpt lat="59.191442" lon="18.144034">
        <ele>39</ele>
        <time>2019-11-27T08:51:49Z</time>
      </trkpt>
      <trkpt lat="59.191382" lon="18.144064">
        <ele>39</ele>
        <time>2019-11-27T08:51:50Z</time>
      </trkpt>
      <trkpt lat="59.191321" lon="18.144088">
        <ele>38</ele>
        <time>2019-11-27T08:51:51Z</time>
      </trkpt>
      <trkpt lat="59.191258" lon="18.144108">
        <ele>38</ele>
        <time>2019-11-27T08:51:52Z</time>
      </trkpt>
      <trkpt lat="59.191193" lon="18.144128">
        <ele>38</ele>
        <time>2019-11-27T08:51:53Z</time>
      </trkpt>
      <trkpt lat="59.191128" lon="18.144148">
        <ele>38</ele>
        <time>2019-11-27T08:51:54Z</time>
      </trkpt>
      <trkpt lat="59.191059" lon="18.144164">
        <ele>37</ele>
        <time>2019-11-27T08:51:56Z</time>
      </trkpt>
      <trkpt lat="59.190989" lon="18.144182">
        <ele>37</ele>
        <time>2019-11-27T08:51:57Z</time>
      </trkpt>
      <trkpt lat="59.190919" lon="18.144198">
        <ele>37</ele>
        <time>2019-11-27T08:51:57Z</time>
      </trkpt>
      <trkpt lat="59.190846" lon="18.144216">
        <ele>37</ele>
        <time>2019-11-27T08:51:59Z</time>
      </trkpt>
      <trkpt lat="59.19077" lon="18.144234">
        <ele>37</ele>
        <time>2019-11-27T08:51:59Z</time>
      </trkpt>
      <trkpt lat="59.190694" lon="18.144248">
        <ele>36</ele>
        <time>2019-11-27T08:52:00Z</time>
      </trkpt>
      <trkpt lat="59.190619" lon="18.144264">
        <ele>36</ele>
        <time>2019-11-27T08:52:01Z</time>
      </trkpt>
      <trkpt lat="59.190543" lon="18.144283">
        <ele>36</ele>
        <time>2019-11-27T08:52:03Z</time>
      </trkpt>
      <trkpt lat="59.190467" lon="18.1443">
        <ele>36</ele>
        <time>2019-11-27T08:52:03Z</time>
      </trkpt>
      <trkpt lat="59.190396" lon="18.144317">
        <ele>36</ele>
        <time>2019-11-27T08:52:04Z</time>
      </trkpt>
      <trkpt lat="59.190337" lon="18.144336">
        <ele>35</ele>
        <time>2019-11-27T08:52:05Z</time>
      </trkpt>
      <trkpt lat="59.190281" lon="18.144361">
        <ele>35</ele>
        <time>2019-11-27T08:52:06Z</time>
      </trkpt>
      <trkpt lat="59.190226" lon="18.144391">
        <ele>35</ele>
        <time>2019-11-27T08:52:07Z</time>
      </trkpt>
      <trkpt lat="59.190177" lon="18.144404">
        <ele>35</ele>
        <time>2019-11-27T08:52:08Z</time>
      </trkpt>
      <trkpt lat="59.190127" lon="18.144417">
        <ele>35</ele>
        <time>2019-11-27T08:52:09Z</time>
      </trkpt>
      <trkpt lat="59.190028" lon="18.144426">
        <ele>35</ele>
        <time>2019-11-27T08:52:11Z</time>
      </trkpt>
      <trkpt lat="59.189914" lon="18.144463">
        <ele>35</ele>
        <time>2019-11-27T08:52:13Z</time>
      </trkpt>
      <trkpt lat="59.189781" lon="18.144522">
        <ele>36</ele>
        <time>2019-11-27T08:52:15Z</time>
      </trkpt>
      <trkpt lat="59.189709" lon="18.144551">
        <ele>36</ele>
        <time>2019-11-27T08:52:16Z</time>
      </trkpt>
      <trkpt lat="59.18964" lon="18.144582">
        <ele>35</ele>
        <time>2019-11-27T08:52:17Z</time>
      </trkpt>
      <trkpt lat="59.189577" lon="18.144612">
        <ele>35</ele>
        <time>2019-11-27T08:52:18Z</time>
      </trkpt>
      <trkpt lat="59.189518" lon="18.144648">
        <ele>35</ele>
        <time>2019-11-27T08:52:20Z</time>
      </trkpt>
      <trkpt lat="59.189463" lon="18.144685">
        <ele>35</ele>
        <time>2019-11-27T08:52:20Z</time>
      </trkpt>
      <trkpt lat="59.189411" lon="18.144724">
        <ele>35</ele>
        <time>2019-11-27T08:52:21Z</time>
      </trkpt>
      <trkpt lat="59.189359" lon="18.144764">
        <ele>34</ele>
        <time>2019-11-27T08:52:22Z</time>
      </trkpt>
      <trkpt lat="59.189309" lon="18.144804">
        <ele>34</ele>
        <time>2019-11-27T08:52:23Z</time>
      </trkpt>
      <trkpt lat="59.18926" lon="18.14485">
        <ele>34</ele>
        <time>2019-11-27T08:52:24Z</time>
      </trkpt>
      <trkpt lat="59.189214" lon="18.144903">
        <ele>34</ele>
        <time>2019-11-27T08:52:25Z</time>
      </trkpt>
      <trkpt lat="59.18917" lon="18.144961">
        <ele>34</ele>
        <time>2019-11-27T08:52:26Z</time>
      </trkpt>
      <trkpt lat="59.189129" lon="18.145021">
        <ele>33</ele>
        <time>2019-11-27T08:52:27Z</time>
      </trkpt>
      <trkpt lat="59.189087" lon="18.145084">
        <ele>33</ele>
        <time>2019-11-27T08:52:29Z</time>
      </trkpt>
      <trkpt lat="59.189046" lon="18.145148">
        <ele>33</ele>
        <time>2019-11-27T08:52:29Z</time>
      </trkpt>
      <trkpt lat="59.189003" lon="18.145212">
        <ele>33</ele>
        <time>2019-11-27T08:52:30Z</time>
      </trkpt>
      <trkpt lat="59.188959" lon="18.14527">
        <ele>32</ele>
        <time>2019-11-27T08:52:31Z</time>
      </trkpt>
      <trkpt lat="59.188915" lon="18.145326">
        <ele>32</ele>
        <time>2019-11-27T08:52:32Z</time>
      </trkpt>
      <trkpt lat="59.188868" lon="18.145384">
        <ele>32</ele>
        <time>2019-11-27T08:52:34Z</time>
      </trkpt>
      <trkpt lat="59.188821" lon="18.145442">
        <ele>31</ele>
        <time>2019-11-27T08:52:34Z</time>
      </trkpt>
      <trkpt lat="59.188773" lon="18.145503">
        <ele>31</ele>
        <time>2019-11-27T08:52:35Z</time>
      </trkpt>
      <trkpt lat="59.188724" lon="18.145563">
        <ele>31</ele>
        <time>2019-11-27T08:52:36Z</time>
      </trkpt>
      <trkpt lat="59.188673" lon="18.14562">
        <ele>30</ele>
        <time>2019-11-27T08:52:38Z</time>
      </trkpt>
      <trkpt lat="59.18862" lon="18.145672">
        <ele>30</ele>
        <time>2019-11-27T08:52:38Z</time>
      </trkpt>
      <trkpt lat="59.188565" lon="18.145721">
        <ele>30</ele>
        <time>2019-11-27T08:52:39Z</time>
      </trkpt>
      <trkpt lat="59.188508" lon="18.145767">
        <ele>29</ele>
        <time>2019-11-27T08:52:40Z</time>
      </trkpt>
      <trkpt lat="59.18845" lon="18.145811">
        <ele>29</ele>
        <time>2019-11-27T08:52:41Z</time>
      </trkpt>
      <trkpt lat="59.18839" lon="18.145856">
        <ele>29</ele>
        <time>2019-11-27T08:52:42Z</time>
      </trkpt>
      <trkpt lat="59.18833" lon="18.145902">
        <ele>28</ele>
        <time>2019-11-27T08:52:43Z</time>
      </trkpt>
      <trkpt lat="59.188269" lon="18.145947">
        <ele>28</ele>
        <time>2019-11-27T08:52:44Z</time>
      </trkpt>
      <trkpt lat="59.188208" lon="18.14599">
        <ele>28</ele>
        <time>2019-11-27T08:52:46Z</time>
      </trkpt>
      <trkpt lat="59.188147" lon="18.146033">
        <ele>28</ele>
        <time>2019-11-27T08:52:46Z</time>
      </trkpt>
      <trkpt lat="59.188084" lon="18.146062">
        <ele>28</ele>
        <time>2019-11-27T08:52:47Z</time>
      </trkpt>
      <trkpt lat="59.188019" lon="18.146116">
        <ele>28</ele>
        <time>2019-11-27T08:52:48Z</time>
      </trkpt>
      <trkpt lat="59.187955" lon="18.146172">
        <ele>28</ele>
        <time>2019-11-27T08:52:49Z</time>
      </trkpt>
      <trkpt lat="59.187892" lon="18.146222">
        <ele>28</ele>
        <time>2019-11-27T08:52:50Z</time>
      </trkpt>
      <trkpt lat="59.187827" lon="18.146271">
        <ele>28</ele>
        <time>2019-11-27T08:52:51Z</time>
      </trkpt>
      <trkpt lat="59.187762" lon="18.146316">
        <ele>28</ele>
        <time>2019-11-27T08:52:53Z</time>
      </trkpt>
      <trkpt lat="59.187697" lon="18.146359">
        <ele>27</ele>
        <time>2019-11-27T08:52:53Z</time>
      </trkpt>
      <trkpt lat="59.187632" lon="18.146401">
        <ele>27</ele>
        <time>2019-11-27T08:52:54Z</time>
      </trkpt>
      <trkpt lat="59.187565" lon="18.146439">
        <ele>27</ele>
        <time>2019-11-27T08:52:55Z</time>
      </trkpt>
      <trkpt lat="59.187498" lon="18.146472">
        <ele>27</ele>
        <time>2019-11-27T08:52:56Z</time>
      </trkpt>
      <trkpt lat="59.187431" lon="18.146499">
        <ele>27</ele>
        <time>2019-11-27T08:52:57Z</time>
      </trkpt>
      <trkpt lat="59.187363" lon="18.146521">
        <ele>27</ele>
        <time>2019-11-27T08:52:58Z</time>
      </trkpt>
      <trkpt lat="59.187295" lon="18.146537">
        <ele>26</ele>
        <time>2019-11-27T08:53:00Z</time>
      </trkpt>
      <trkpt lat="59.187229" lon="18.14655">
        <ele>26</ele>
        <time>2019-11-27T08:53:00Z</time>
      </trkpt>
      <trkpt lat="59.187165" lon="18.146562">
        <ele>26</ele>
        <time>2019-11-27T08:53:01Z</time>
      </trkpt>
      <trkpt lat="59.187103" lon="18.146578">
        <ele>26</ele>
        <time>2019-11-27T08:53:02Z</time>
      </trkpt>
      <trkpt lat="59.187043" lon="18.146596">
        <ele>27</ele>
        <time>2019-11-27T08:53:03Z</time>
      </trkpt>
      <trkpt lat="59.186984" lon="18.146613">
        <ele>27</ele>
        <time>2019-11-27T08:53:04Z</time>
      </trkpt>
      <trkpt lat="59.186925" lon="18.146629">
        <ele>27</ele>
        <time>2019-11-27T08:53:05Z</time>
      </trkpt>
      <trkpt lat="59.186866" lon="18.146647">
        <ele>27</ele>
        <time>2019-11-27T08:53:06Z</time>
      </trkpt>
      <trkpt lat="59.186807" lon="18.146663">
        <ele>28</ele>
        <time>2019-11-27T08:53:07Z</time>
      </trkpt>
      <trkpt lat="59.186752" lon="18.14668">
        <ele>27</ele>
        <time>2019-11-27T08:53:09Z</time>
      </trkpt>
      <trkpt lat="59.186693" lon="18.146695">
        <ele>27</ele>
        <time>2019-11-27T08:53:09Z</time>
      </trkpt>
      <trkpt lat="59.186636" lon="18.146708">
        <ele>27</ele>
        <time>2019-11-27T08:53:10Z</time>
      </trkpt>
      <trkpt lat="59.186578" lon="18.146722">
        <ele>27</ele>
        <time>2019-11-27T08:53:12Z</time>
      </trkpt>
      <trkpt lat="59.18652" lon="18.146736">
        <ele>27</ele>
        <time>2019-11-27T08:53:12Z</time>
      </trkpt>
      <trkpt lat="59.186462" lon="18.146751">
        <ele>27</ele>
        <time>2019-11-27T08:53:13Z</time>
      </trkpt>
      <trkpt lat="59.186405" lon="18.146765">
        <ele>27</ele>
        <time>2019-11-27T08:53:14Z</time>
      </trkpt>
      <trkpt lat="59.186348" lon="18.146778">
        <ele>27</ele>
        <time>2019-11-27T08:53:15Z</time>
      </trkpt>
      <trkpt lat="59.186291" lon="18.146793">
        <ele>27</ele>
        <time>2019-11-27T08:53:17Z</time>
      </trkpt>
      <trkpt lat="59.186233" lon="18.146806">
        <ele>27</ele>
        <time>2019-11-27T08:53:17Z</time>
      </trkpt>
      <trkpt lat="59.186175" lon="18.146816">
        <ele>27</ele>
        <time>2019-11-27T08:53:18Z</time>
      </trkpt>
      <trkpt lat="59.186116" lon="18.146824">
        <ele>27</ele>
        <time>2019-11-27T08:53:19Z</time>
      </trkpt>
      <trkpt lat="59.186058" lon="18.146826">
        <ele>27</ele>
        <time>2019-11-27T08:53:20Z</time>
      </trkpt>
      <trkpt lat="59.186" lon="18.146829">
        <ele>27</ele>
        <time>2019-11-27T08:53:21Z</time>
      </trkpt>
      <trkpt lat="59.185942" lon="18.146837">
        <ele>27</ele>
        <time>2019-11-27T08:53:22Z</time>
      </trkpt>
      <trkpt lat="59.185885" lon="18.146848">
        <ele>26</ele>
        <time>2019-11-27T08:53:23Z</time>
      </trkpt>
      <trkpt lat="59.185827" lon="18.14686">
        <ele>26</ele>
        <time>2019-11-27T08:53:24Z</time>
      </trkpt>
      <trkpt lat="59.18577" lon="18.146875">
        <ele>26</ele>
        <time>2019-11-27T08:53:26Z</time>
      </trkpt>
      <trkpt lat="59.185712" lon="18.146891">
        <ele>26</ele>
        <time>2019-11-27T08:53:26Z</time>
      </trkpt>
      <trkpt lat="59.185653" lon="18.146904">
        <ele>26</ele>
        <time>2019-11-27T08:53:27Z</time>
      </trkpt>
      <trkpt lat="59.185595" lon="18.146915">
        <ele>26</ele>
        <time>2019-11-27T08:53:28Z</time>
      </trkpt>
      <trkpt lat="59.185539" lon="18.146925">
        <ele>26</ele>
        <time>2019-11-27T08:53:29Z</time>
      </trkpt>
      <trkpt lat="59.185487" lon="18.146937">
        <ele>26</ele>
        <time>2019-11-27T08:53:31Z</time>
      </trkpt>
      <trkpt lat="59.18544" lon="18.146946">
        <ele>26</ele>
        <time>2019-11-27T08:53:31Z</time>
      </trkpt>
      <trkpt lat="59.185394" lon="18.146938">
        <ele>26</ele>
        <time>2019-11-27T08:53:32Z</time>
      </trkpt>
      <trkpt lat="59.185354" lon="18.1469">
        <ele>26</ele>
        <time>2019-11-27T08:53:33Z</time>
      </trkpt>
      <trkpt lat="59.185324" lon="18.146842">
        <ele>26</ele>
        <time>2019-11-27T08:53:34Z</time>
      </trkpt>
      <trkpt lat="59.185297" lon="18.146785">
        <ele>26</ele>
        <time>2019-11-27T08:53:36Z</time>
      </trkpt>
      <trkpt lat="59.185264" lon="18.146747">
        <ele>26</ele>
        <time>2019-11-27T08:53:36Z</time>
      </trkpt>
      <trkpt lat="59.185229" lon="18.146732">
        <ele>26</ele>
        <time>2019-11-27T08:53:37Z</time>
      </trkpt>
      <trkpt lat="59.185193" lon="18.146733">
        <ele>27</ele>
        <time>2019-11-27T08:53:38Z</time>
      </trkpt>
      <trkpt lat="59.185158" lon="18.146747">
        <ele>27</ele>
        <time>2019-11-27T08:53:39Z</time>
      </trkpt>
      <trkpt lat="59.185124" lon="18.146767">
        <ele>27</ele>
        <time>2019-11-27T08:53:40Z</time>
      </trkpt>
      <trkpt lat="59.185091" lon="18.146791">
        <ele>27</ele>
        <time>2019-11-27T08:53:41Z</time>
      </trkpt>
      <trkpt lat="59.185058" lon="18.146818">
        <ele>27</ele>
        <time>2019-11-27T08:53:42Z</time>
      </trkpt>
      <trkpt lat="59.185025" lon="18.146848">
        <ele>27</ele>
        <time>2019-11-27T08:53:43Z</time>
      </trkpt>
      <trkpt lat="59.184992" lon="18.146877">
        <ele>27</ele>
        <time>2019-11-27T08:53:44Z</time>
      </trkpt>
      <trkpt lat="59.184957" lon="18.146905">
        <ele>27</ele>
        <time>2019-11-27T08:53:45Z</time>
      </trkpt>
      <trkpt lat="59.184922" lon="18.146933">
        <ele>27</ele>
        <time>2019-11-27T08:53:46Z</time>
      </trkpt>
      <trkpt lat="59.184887" lon="18.14696">
        <ele>27</ele>
        <time>2019-11-27T08:53:47Z</time>
      </trkpt>
      <trkpt lat="59.184852" lon="18.146986">
        <ele>27</ele>
        <time>2019-11-27T08:53:48Z</time>
      </trkpt>
      <trkpt lat="59.184815" lon="18.147009">
        <ele>27</ele>
        <time>2019-11-27T08:53:50Z</time>
      </trkpt>
      <trkpt lat="59.184776" lon="18.147026">
        <ele>27</ele>
        <time>2019-11-27T08:53:50Z</time>
      </trkpt>
      <trkpt lat="59.184736" lon="18.147039">
        <ele>27</ele>
        <time>2019-11-27T08:53:51Z</time>
      </trkpt>
      <trkpt lat="59.184696" lon="18.147049">
        <ele>27</ele>
        <time>2019-11-27T08:53:52Z</time>
      </trkpt>
      <trkpt lat="59.184655" lon="18.147059">
        <ele>27</ele>
        <time>2019-11-27T08:53:53Z</time>
      </trkpt>
      <trkpt lat="59.184616" lon="18.14707">
        <ele>28</ele>
        <time>2019-11-27T08:53:54Z</time>
      </trkpt>
      <trkpt lat="59.184577" lon="18.147081">
        <ele>28</ele>
        <time>2019-11-27T08:53:55Z</time>
      </trkpt>
      <trkpt lat="59.184538" lon="18.147093">
        <ele>28</ele>
        <time>2019-11-27T08:53:56Z</time>
      </trkpt>
      <trkpt lat="59.184499" lon="18.147104">
        <ele>28</ele>
        <time>2019-11-27T08:53:57Z</time>
      </trkpt>
      <trkpt lat="59.184462" lon="18.147115">
        <ele>28</ele>
        <time>2019-11-27T08:53:58Z</time>
      </trkpt>
      <trkpt lat="59.184424" lon="18.147126">
        <ele>28</ele>
        <time>2019-11-27T08:53:59Z</time>
      </trkpt>
      <trkpt lat="59.184388" lon="18.147135">
        <ele>28</ele>
        <time>2019-11-27T08:54:00Z</time>
      </trkpt>
      <trkpt lat="59.184354" lon="18.147145">
        <ele>28</ele>
        <time>2019-11-27T08:54:01Z</time>
      </trkpt>
      <trkpt lat="59.184321" lon="18.147153">
        <ele>28</ele>
        <time>2019-11-27T08:54:03Z</time>
      </trkpt>
      <trkpt lat="59.18429" lon="18.147159">
        <ele>28</ele>
        <time>2019-11-27T08:54:03Z</time>
      </trkpt>
      <trkpt lat="59.184259" lon="18.147167">
        <ele>29</ele>
        <time>2019-11-27T08:54:04Z</time>
      </trkpt>
      <trkpt lat="59.184228" lon="18.147173">
        <ele>29</ele>
        <time>2019-11-27T08:54:05Z</time>
      </trkpt>
      <trkpt lat="59.184197" lon="18.147177">
        <ele>29</ele>
        <time>2019-11-27T08:54:06Z</time>
      </trkpt>
      <trkpt lat="59.184166" lon="18.147184">
        <ele>29</ele>
        <time>2019-11-27T08:54:07Z</time>
      </trkpt>
      <trkpt lat="59.184137" lon="18.147192">
        <ele>29</ele>
        <time>2019-11-27T08:54:09Z</time>
      </trkpt>
      <trkpt lat="59.184106" lon="18.147198">
        <ele>29</ele>
        <time>2019-11-27T08:54:09Z</time>
      </trkpt>
      <trkpt lat="59.184073" lon="18.147202">
        <ele>29</ele>
        <time>2019-11-27T08:54:10Z</time>
      </trkpt>
      <trkpt lat="59.18404" lon="18.147207">
        <ele>29</ele>
        <time>2019-11-27T08:54:11Z</time>
      </trkpt>
      <trkpt lat="59.184006" lon="18.147215">
        <ele>29</ele>
        <time>2019-11-27T08:54:12Z</time>
      </trkpt>
      <trkpt lat="59.183973" lon="18.147224">
        <ele>30</ele>
        <time>2019-11-27T08:54:13Z</time>
      </trkpt>
      <trkpt lat="59.183941" lon="18.147231">
        <ele>30</ele>
        <time>2019-11-27T08:54:14Z</time>
      </trkpt>
      <trkpt lat="59.183908" lon="18.147234">
        <ele>30</ele>
        <time>2019-11-27T08:54:15Z</time>
      </trkpt>
      <trkpt lat="59.183875" lon="18.147237">
        <ele>30</ele>
        <time>2019-11-27T08:54:16Z</time>
      </trkpt>
      <trkpt lat="59.183842" lon="18.147241">
        <ele>30</ele>
        <time>2019-11-27T08:54:18Z</time>
      </trkpt>
      <trkpt lat="59.183808" lon="18.147246">
        <ele>30</ele>
        <time>2019-11-27T08:54:18Z</time>
      </trkpt>
      <trkpt lat="59.183774" lon="18.14725">
        <ele>31</ele>
        <time>2019-11-27T08:54:19Z</time>
      </trkpt>
      <trkpt lat="59.183739" lon="18.147253">
        <ele>31</ele>
        <time>2019-11-27T08:54:20Z</time>
      </trkpt>
      <trkpt lat="59.183704" lon="18.147256">
        <ele>31</ele>
        <time>2019-11-27T08:54:21Z</time>
      </trkpt>
      <trkpt lat="59.183669" lon="18.147259">
        <ele>31</ele>
        <time>2019-11-27T08:54:22Z</time>
      </trkpt>
      <trkpt lat="59.183634" lon="18.147267">
        <ele>31</ele>
        <time>2019-11-27T08:54:23Z</time>
      </trkpt>
      <trkpt lat="59.183599" lon="18.147281">
        <ele>31</ele>
        <time>2019-11-27T08:54:24Z</time>
      </trkpt>
      <trkpt lat="59.183565" lon="18.147299">
        <ele>31</ele>
        <time>2019-11-27T08:54:25Z</time>
      </trkpt>
      <trkpt lat="59.183532" lon="18.147322">
        <ele>31</ele>
        <time>2019-11-27T08:54:26Z</time>
      </trkpt>
      <trkpt lat="59.183499" lon="18.147342">
        <ele>31</ele>
        <time>2019-11-27T08:54:28Z</time>
      </trkpt>
      <trkpt lat="59.183463" lon="18.147346">
        <ele>31</ele>
        <time>2019-11-27T08:54:28Z</time>
      </trkpt>
      <trkpt lat="59.183426" lon="18.147338">
        <ele>32</ele>
        <time>2019-11-27T08:54:29Z</time>
      </trkpt>
      <trkpt lat="59.18339" lon="18.147328">
        <ele>32</ele>
        <time>2019-11-27T08:54:30Z</time>
      </trkpt>
      <trkpt lat="59.183354" lon="18.147312">
        <ele>32</ele>
        <time>2019-11-27T08:54:32Z</time>
      </trkpt>
      <trkpt lat="59.183322" lon="18.147285">
        <ele>32</ele>
        <time>2019-11-27T08:54:32Z</time>
      </trkpt>
      <trkpt lat="59.18329" lon="18.147256">
        <ele>32</ele>
        <time>2019-11-27T08:54:33Z</time>
      </trkpt>
      <trkpt lat="59.183256" lon="18.147229">
        <ele>32</ele>
        <time>2019-11-27T08:54:34Z</time>
      </trkpt>
      <trkpt lat="59.183221" lon="18.147207">
        <ele>32</ele>
        <time>2019-11-27T08:54:35Z</time>
      </trkpt>
      <trkpt lat="59.183185" lon="18.147189">
        <ele>32</ele>
        <time>2019-11-27T08:54:36Z</time>
      </trkpt>
      <trkpt lat="59.183146" lon="18.147173">
        <ele>32</ele>
        <time>2019-11-27T08:54:37Z</time>
      </trkpt>
      <trkpt lat="59.183107" lon="18.147159">
        <ele>32</ele>
        <time>2019-11-27T08:54:38Z</time>
      </trkpt>
      <trkpt lat="59.183068" lon="18.147144">
        <ele>33</ele>
        <time>2019-11-27T08:54:39Z</time>
      </trkpt>
      <trkpt lat="59.183027" lon="18.147127">
        <ele>33</ele>
        <time>2019-11-27T08:54:40Z</time>
      </trkpt>
      <trkpt lat="59.182985" lon="18.147107">
        <ele>33</ele>
        <time>2019-11-27T08:54:41Z</time>
      </trkpt>
      <trkpt lat="59.182942" lon="18.147084">
        <ele>33</ele>
        <time>2019-11-27T08:54:42Z</time>
      </trkpt>
      <trkpt lat="59.1829" lon="18.147061">
        <ele>33</ele>
        <time>2019-11-27T08:54:43Z</time>
      </trkpt>
      <trkpt lat="59.182858" lon="18.147038">
        <ele>33</ele>
        <time>2019-11-27T08:54:45Z</time>
      </trkpt>
      <trkpt lat="59.182816" lon="18.147011">
        <ele>33</ele>
        <time>2019-11-27T08:54:45Z</time>
      </trkpt>
      <trkpt lat="59.182774" lon="18.146983">
        <ele>33</ele>
        <time>2019-11-27T08:54:47Z</time>
      </trkpt>
      <trkpt lat="59.182732" lon="18.146954">
        <ele>34</ele>
        <time>2019-11-27T08:54:47Z</time>
      </trkpt>
      <trkpt lat="59.182691" lon="18.146925">
        <ele>34</ele>
        <time>2019-11-27T08:54:48Z</time>
      </trkpt>
      <trkpt lat="59.182649" lon="18.146896">
        <ele>34</ele>
        <time>2019-11-27T08:54:49Z</time>
      </trkpt>
      <trkpt lat="59.182607" lon="18.146866">
        <ele>34</ele>
        <time>2019-11-27T08:54:50Z</time>
      </trkpt>
      <trkpt lat="59.182567" lon="18.146833">
        <ele>34</ele>
        <time>2019-11-27T08:54:51Z</time>
      </trkpt>
      <trkpt lat="59.182529" lon="18.146798">
        <ele>34</ele>
        <time>2019-11-27T08:54:52Z</time>
      </trkpt>
      <trkpt lat="59.182491" lon="18.146764">
        <ele>34</ele>
        <time>2019-11-27T08:54:53Z</time>
      </trkpt>
      <trkpt lat="59.182452" lon="18.146729">
        <ele>34</ele>
        <time>2019-11-27T08:54:54Z</time>
      </trkpt>
      <trkpt lat="59.182413" lon="18.146696">
        <ele>34</ele>
        <time>2019-11-27T08:54:56Z</time>
      </trkpt>
      <trkpt lat="59.182377" lon="18.146659">
        <ele>34</ele>
        <time>2019-11-27T08:54:56Z</time>
      </trkpt>
      <trkpt lat="59.182342" lon="18.146617">
        <ele>34</ele>
        <time>2019-11-27T08:54:57Z</time>
      </trkpt>
      <trkpt lat="59.182308" lon="18.146571">
        <ele>35</ele>
        <time>2019-11-27T08:54:58Z</time>
      </trkpt>
      <trkpt lat="59.18227" lon="18.146526">
        <ele>35</ele>
        <time>2019-11-27T08:54:59Z</time>
      </trkpt>
      <trkpt lat="59.182232" lon="18.146482">
        <ele>35</ele>
        <time>2019-11-27T08:55:00Z</time>
      </trkpt>
      <trkpt lat="59.182189" lon="18.146438">
        <ele>35</ele>
        <time>2019-11-27T08:55:01Z</time>
      </trkpt>
      <trkpt lat="59.182146" lon="18.146389">
        <ele>35</ele>
        <time>2019-11-27T08:55:02Z</time>
      </trkpt>
      <trkpt lat="59.182104" lon="18.146341">
        <ele>35</ele>
        <time>2019-11-27T08:55:03Z</time>
      </trkpt>
      <trkpt lat="59.182062" lon="18.146293">
        <ele>35</ele>
        <time>2019-11-27T08:55:04Z</time>
      </trkpt>
      <trkpt lat="59.182022" lon="18.146244">
        <ele>35</ele>
        <time>2019-11-27T08:55:06Z</time>
      </trkpt>
      <trkpt lat="59.181982" lon="18.146192">
        <ele>35</ele>
        <time>2019-11-27T08:55:07Z</time>
      </trkpt>
      <trkpt lat="59.181944" lon="18.146145">
        <ele>35</ele>
        <time>2019-11-27T08:55:07Z</time>
      </trkpt>
      <trkpt lat="59.181904" lon="18.146101">
        <ele>35</ele>
        <time>2019-11-27T08:55:08Z</time>
      </trkpt>
      <trkpt lat="59.181866" lon="18.146055">
        <ele>35</ele>
        <time>2019-11-27T08:55:09Z</time>
      </trkpt>
      <trkpt lat="59.181826" lon="18.14601">
        <ele>35</ele>
        <time>2019-11-27T08:55:10Z</time>
      </trkpt>
      <trkpt lat="59.181786" lon="18.145966">
        <ele>35</ele>
        <time>2019-11-27T08:55:11Z</time>
      </trkpt>
      <trkpt lat="59.181746" lon="18.145921">
        <ele>35</ele>
        <time>2019-11-27T08:55:12Z</time>
      </trkpt>
      <trkpt lat="59.181706" lon="18.145877">
        <ele>36</ele>
        <time>2019-11-27T08:55:13Z</time>
      </trkpt>
      <trkpt lat="59.181666" lon="18.14583">
        <ele>36</ele>
        <time>2019-11-27T08:55:14Z</time>
      </trkpt>
      <trkpt lat="59.181628" lon="18.145783">
        <ele>36</ele>
        <time>2019-11-27T08:55:15Z</time>
      </trkpt>
      <trkpt lat="59.181589" lon="18.145737">
        <ele>36</ele>
        <time>2019-11-27T08:55:16Z</time>
      </trkpt>
      <trkpt lat="59.181552" lon="18.145695">
        <ele>36</ele>
        <time>2019-11-27T08:55:18Z</time>
      </trkpt>
      <trkpt lat="59.181516" lon="18.145654">
        <ele>36</ele>
        <time>2019-11-27T08:55:18Z</time>
      </trkpt>
      <trkpt lat="59.181478" lon="18.145612">
        <ele>36</ele>
        <time>2019-11-27T08:55:19Z</time>
      </trkpt>
      <trkpt lat="59.181442" lon="18.145572">
        <ele>36</ele>
        <time>2019-11-27T08:55:20Z</time>
      </trkpt>
      <trkpt lat="59.181404" lon="18.145533">
        <ele>36</ele>
        <time>2019-11-27T08:55:21Z</time>
      </trkpt>
      <trkpt lat="59.181368" lon="18.14549">
        <ele>36</ele>
        <time>2019-11-27T08:55:22Z</time>
      </trkpt>
      <trkpt lat="59.181327" lon="18.145449">
        <ele>36</ele>
        <time>2019-11-27T08:55:23Z</time>
      </trkpt>
      <trkpt lat="59.181288" lon="18.145407">
        <ele>36</ele>
        <time>2019-11-27T08:55:25Z</time>
      </trkpt>
      <trkpt lat="59.181248" lon="18.145364">
        <ele>36</ele>
        <time>2019-11-27T08:55:25Z</time>
      </trkpt>
      <trkpt lat="59.181208" lon="18.145317">
        <ele>37</ele>
        <time>2019-11-27T08:55:26Z</time>
      </trkpt>
      <trkpt lat="59.181166" lon="18.145272">
        <ele>37</ele>
        <time>2019-11-27T08:55:27Z</time>
      </trkpt>
      <trkpt lat="59.181123" lon="18.145229">
        <ele>36</ele>
        <time>2019-11-27T08:55:29Z</time>
      </trkpt>
      <trkpt lat="59.18108" lon="18.145186">
        <ele>36</ele>
        <time>2019-11-27T08:55:29Z</time>
      </trkpt>
      <trkpt lat="59.181038" lon="18.145141">
        <ele>36</ele>
        <time>2019-11-27T08:55:30Z</time>
      </trkpt>
      <trkpt lat="59.180994" lon="18.145095">
        <ele>36</ele>
        <time>2019-11-27T08:55:31Z</time>
      </trkpt>
      <trkpt lat="59.180952" lon="18.145047">
        <ele>36</ele>
        <time>2019-11-27T08:55:32Z</time>
      </trkpt>
      <trkpt lat="59.180906" lon="18.144998">
        <ele>36</ele>
        <time>2019-11-27T08:55:33Z</time>
      </trkpt>
      <trkpt lat="59.180862" lon="18.144948">
        <ele>36</ele>
        <time>2019-11-27T08:55:34Z</time>
      </trkpt>
      <trkpt lat="59.180818" lon="18.144901">
        <ele>36</ele>
        <time>2019-11-27T08:55:35Z</time>
      </trkpt>
      <trkpt lat="59.180772" lon="18.144857">
        <ele>36</ele>
        <time>2019-11-27T08:55:36Z</time>
      </trkpt>
      <trkpt lat="59.180729" lon="18.144814">
        <ele>36</ele>
        <time>2019-11-27T08:55:37Z</time>
      </trkpt>
      <trkpt lat="59.180686" lon="18.144764">
        <ele>36</ele>
        <time>2019-11-27T08:55:39Z</time>
      </trkpt>
      <trkpt lat="59.180644" lon="18.144705">
        <ele>36</ele>
        <time>2019-11-27T08:55:39Z</time>
      </trkpt>
      <trkpt lat="59.180604" lon="18.144644">
        <ele>36</ele>
        <time>2019-11-27T08:55:40Z</time>
      </trkpt>
      <trkpt lat="59.180564" lon="18.144581">
        <ele>36</ele>
        <time>2019-11-27T08:55:41Z</time>
      </trkpt>
      <trkpt lat="59.180522" lon="18.144516">
        <ele>36</ele>
        <time>2019-11-27T08:55:42Z</time>
      </trkpt>
      <trkpt lat="59.180479" lon="18.144451">
        <ele>36</ele>
        <time>2019-11-27T08:55:44Z</time>
      </trkpt>
      <trkpt lat="59.180432" lon="18.14439">
        <ele>36</ele>
        <time>2019-11-27T08:55:44Z</time>
      </trkpt>
      <trkpt lat="59.180384" lon="18.144333">
        <ele>36</ele>
        <time>2019-11-27T08:55:45Z</time>
      </trkpt>
      <trkpt lat="59.180336" lon="18.144276">
        <ele>36</ele>
        <time>2019-11-27T08:55:46Z</time>
      </trkpt>
      <trkpt lat="59.180288" lon="18.144217">
        <ele>36</ele>
        <time>2019-11-27T08:55:48Z</time>
      </trkpt>
      <trkpt lat="59.180238" lon="18.144157">
        <ele>36</ele>
        <time>2019-11-27T08:55:48Z</time>
      </trkpt>
      <trkpt lat="59.18019" lon="18.144096">
        <ele>36</ele>
        <time>2019-11-27T08:55:49Z</time>
      </trkpt>
      <trkpt lat="59.180139" lon="18.144034">
        <ele>36</ele>
        <time>2019-11-27T08:55:50Z</time>
      </trkpt>
      <trkpt lat="59.180088" lon="18.143977">
        <ele>36</ele>
        <time>2019-11-27T08:55:51Z</time>
      </trkpt>
      <trkpt lat="59.180034" lon="18.143924">
        <ele>36</ele>
        <time>2019-11-27T08:55:52Z</time>
      </trkpt>
      <trkpt lat="59.17998" lon="18.143872">
        <ele>36</ele>
        <time>2019-11-27T08:55:53Z</time>
      </trkpt>
      <trkpt lat="59.179923" lon="18.14382">
        <ele>36</ele>
        <time>2019-11-27T08:55:54Z</time>
      </trkpt>
      <trkpt lat="59.179866" lon="18.14377">
        <ele>36</ele>
        <time>2019-11-27T08:55:55Z</time>
      </trkpt>
      <trkpt lat="59.179808" lon="18.143721">
        <ele>36</ele>
        <time>2019-11-27T08:55:57Z</time>
      </trkpt>
      <trkpt lat="59.179748" lon="18.143676">
        <ele>36</ele>
        <time>2019-11-27T08:55:57Z</time>
      </trkpt>
      <trkpt lat="59.17969" lon="18.143642">
        <ele>36</ele>
        <time>2019-11-27T08:55:58Z</time>
      </trkpt>
      <trkpt lat="59.179628" lon="18.143629">
        <ele>36</ele>
        <time>2019-11-27T08:55:59Z</time>
      </trkpt>
      <trkpt lat="59.179565" lon="18.14363">
        <ele>36</ele>
        <time>2019-11-27T08:56:00Z</time>
      </trkpt>
      <trkpt lat="59.179503" lon="18.143641">
        <ele>36</ele>
        <time>2019-11-27T08:56:01Z</time>
      </trkpt>
      <trkpt lat="59.17944" lon="18.143659">
        <ele>36</ele>
        <time>2019-11-27T08:56:03Z</time>
      </trkpt>
      <trkpt lat="59.179378" lon="18.143677">
        <ele>36</ele>
        <time>2019-11-27T08:56:03Z</time>
      </trkpt>
      <trkpt lat="59.179324" lon="18.143691">
        <ele>37</ele>
        <time>2019-11-27T08:56:05Z</time>
      </trkpt>
      <trkpt lat="59.179277" lon="18.143683">
        <ele>37</ele>
        <time>2019-11-27T08:56:05Z</time>
      </trkpt>
      <trkpt lat="59.179231" lon="18.143635">
        <ele>37</ele>
        <time>2019-11-27T08:56:06Z</time>
      </trkpt>
      <trkpt lat="59.179194" lon="18.143566">
        <ele>37</ele>
        <time>2019-11-27T08:56:07Z</time>
      </trkpt>
      <trkpt lat="59.17916" lon="18.143497">
        <ele>36</ele>
        <time>2019-11-27T08:56:08Z</time>
      </trkpt>
      <trkpt lat="59.17913" lon="18.143443">
        <ele>37</ele>
        <time>2019-11-27T08:56:09Z</time>
      </trkpt>
      <trkpt lat="59.179102" lon="18.143404">
        <ele>36</ele>
        <time>2019-11-27T08:56:10Z</time>
      </trkpt>
      <trkpt lat="59.17907" lon="18.143372">
        <ele>36</ele>
        <time>2019-11-27T08:56:11Z</time>
      </trkpt>
      <trkpt lat="59.179035" lon="18.143338">
        <ele>36</ele>
        <time>2019-11-27T08:56:12Z</time>
      </trkpt>
      <trkpt lat="59.178998" lon="18.143303">
        <ele>36</ele>
        <time>2019-11-27T08:56:13Z</time>
      </trkpt>
      <trkpt lat="59.17896" lon="18.143272">
        <ele>35</ele>
        <time>2019-11-27T08:56:14Z</time>
      </trkpt>
      <trkpt lat="59.178921" lon="18.143245">
        <ele>35</ele>
        <time>2019-11-27T08:56:16Z</time>
      </trkpt>
      <trkpt lat="59.178882" lon="18.143219">
        <ele>35</ele>
        <time>2019-11-27T08:56:16Z</time>
      </trkpt>
      <trkpt lat="59.178842" lon="18.143191">
        <ele>35</ele>
        <time>2019-11-27T08:56:17Z</time>
      </trkpt>
      <trkpt lat="59.178801" lon="18.143161">
        <ele>35</ele>
        <time>2019-11-27T08:56:18Z</time>
      </trkpt>
      <trkpt lat="59.178758" lon="18.143133">
        <ele>34</ele>
        <time>2019-11-27T08:56:19Z</time>
      </trkpt>
      <trkpt lat="59.178713" lon="18.143105">
        <ele>34</ele>
        <time>2019-11-27T08:56:20Z</time>
      </trkpt>
      <trkpt lat="59.178668" lon="18.143074">
        <ele>34</ele>
        <time>2019-11-27T08:56:22Z</time>
      </trkpt>
      <trkpt lat="59.178624" lon="18.143043">
        <ele>34</ele>
        <time>2019-11-27T08:56:22Z</time>
      </trkpt>
      <trkpt lat="59.17858" lon="18.143012">
        <ele>34</ele>
        <time>2019-11-27T08:56:23Z</time>
      </trkpt>
      <trkpt lat="59.178537" lon="18.14298">
        <ele>34</ele>
        <time>2019-11-27T08:56:24Z</time>
      </trkpt>
      <trkpt lat="59.178494" lon="18.142948">
        <ele>34</ele>
        <time>2019-11-27T08:56:25Z</time>
      </trkpt>
      <trkpt lat="59.178451" lon="18.142915">
        <ele>34</ele>
        <time>2019-11-27T08:56:27Z</time>
      </trkpt>
      <trkpt lat="59.178408" lon="18.142882">
        <ele>34</ele>
        <time>2019-11-27T08:56:27Z</time>
      </trkpt>
      <trkpt lat="59.178364" lon="18.142851">
        <ele>34</ele>
        <time>2019-11-27T08:56:28Z</time>
      </trkpt>
      <trkpt lat="59.17832" lon="18.14282">
        <ele>34</ele>
        <time>2019-11-27T08:56:29Z</time>
      </trkpt>
      <trkpt lat="59.178276" lon="18.14279">
        <ele>34</ele>
        <time>2019-11-27T08:56:30Z</time>
      </trkpt>
      <trkpt lat="59.178231" lon="18.14276">
        <ele>34</ele>
        <time>2019-11-27T08:56:31Z</time>
      </trkpt>
      <trkpt lat="59.178188" lon="18.142731">
        <ele>35</ele>
        <time>2019-11-27T08:56:32Z</time>
      </trkpt>
      <trkpt lat="59.178144" lon="18.142702">
        <ele>35</ele>
        <time>2019-11-27T08:56:33Z</time>
      </trkpt>
      <trkpt lat="59.178101" lon="18.142675">
        <ele>35</ele>
        <time>2019-11-27T08:56:34Z</time>
      </trkpt>
      <trkpt lat="59.178057" lon="18.142655">
        <ele>35</ele>
        <time>2019-11-27T08:56:35Z</time>
      </trkpt>
      <trkpt lat="59.178013" lon="18.142643">
        <ele>35</ele>
        <time>2019-11-27T08:56:36Z</time>
      </trkpt>
      <trkpt lat="59.177968" lon="18.142639">
        <ele>35</ele>
        <time>2019-11-27T08:56:38Z</time>
      </trkpt>
      <trkpt lat="59.177923" lon="18.142648">
        <ele>34</ele>
        <time>2019-11-27T08:56:38Z</time>
      </trkpt>
      <trkpt lat="59.177876" lon="18.142663">
        <ele>34</ele>
        <time>2019-11-27T08:56:39Z</time>
      </trkpt>
      <trkpt lat="59.177826" lon="18.142678">
        <ele>34</ele>
        <time>2019-11-27T08:56:41Z</time>
      </trkpt>
      <trkpt lat="59.177772" lon="18.142693">
        <ele>34</ele>
        <time>2019-11-27T08:56:41Z</time>
      </trkpt>
      <trkpt lat="59.177715" lon="18.142707">
        <ele>34</ele>
        <time>2019-11-27T08:56:42Z</time>
      </trkpt>
      <trkpt lat="59.177656" lon="18.142722">
        <ele>34</ele>
        <time>2019-11-27T08:56:43Z</time>
      </trkpt>
      <trkpt lat="59.177598" lon="18.142736">
        <ele>34</ele>
        <time>2019-11-27T08:56:44Z</time>
      </trkpt>
      <trkpt lat="59.177543" lon="18.142749">
        <ele>34</ele>
        <time>2019-11-27T08:56:45Z</time>
      </trkpt>
      <trkpt lat="59.177489" lon="18.142759">
        <ele>34</ele>
        <time>2019-11-27T08:56:46Z</time>
      </trkpt>
      <trkpt lat="59.177439" lon="18.142764">
        <ele>34</ele>
        <time>2019-11-27T08:56:48Z</time>
      </trkpt>
      <trkpt lat="59.177392" lon="18.142765">
        <ele>35</ele>
        <time>2019-11-27T08:56:48Z</time>
      </trkpt>
      <trkpt lat="59.177348" lon="18.142766">
        <ele>35</ele>
        <time>2019-11-27T08:56:49Z</time>
      </trkpt>
      <trkpt lat="59.177307" lon="18.142766">
        <ele>35</ele>
        <time>2019-11-27T08:56:50Z</time>
      </trkpt>
      <trkpt lat="59.177268" lon="18.142768">
        <ele>35</ele>
        <time>2019-11-27T08:56:51Z</time>
      </trkpt>
      <trkpt lat="59.177228" lon="18.142772">
        <ele>35</ele>
        <time>2019-11-27T08:56:52Z</time>
      </trkpt>
      <trkpt lat="59.17719" lon="18.142771">
        <ele>35</ele>
        <time>2019-11-27T08:56:53Z</time>
      </trkpt>
      <trkpt lat="59.177152" lon="18.14277">
        <ele>35</ele>
        <time>2019-11-27T08:56:54Z</time>
      </trkpt>
      <trkpt lat="59.177113" lon="18.14277">
        <ele>35</ele>
        <time>2019-11-27T08:56:55Z</time>
      </trkpt>
      <trkpt lat="59.177076" lon="18.142771">
        <ele>35</ele>
        <time>2019-11-27T08:56:56Z</time>
      </trkpt>
      <trkpt lat="59.177037" lon="18.142767">
        <ele>36</ele>
        <time>2019-11-27T08:56:57Z</time>
      </trkpt>
      <trkpt lat="59.176998" lon="18.142762">
        <ele>36</ele>
        <time>2019-11-27T08:56:58Z</time>
      </trkpt>
      <trkpt lat="59.176961" lon="18.142755">
        <ele>36</ele>
        <time>2019-11-27T08:57:00Z</time>
      </trkpt>
      <trkpt lat="59.176921" lon="18.142745">
        <ele>36</ele>
        <time>2019-11-27T08:57:00Z</time>
      </trkpt>
      <trkpt lat="59.176882" lon="18.142736">
        <ele>36</ele>
        <time>2019-11-27T08:57:01Z</time>
      </trkpt>
      <trkpt lat="59.176843" lon="18.142726">
        <ele>36</ele>
        <time>2019-11-27T08:57:02Z</time>
      </trkpt>
      <trkpt lat="59.176805" lon="18.142714">
        <ele>37</ele>
        <time>2019-11-27T08:57:03Z</time>
      </trkpt>
      <trkpt lat="59.176768" lon="18.142702">
        <ele>37</ele>
        <time>2019-11-27T08:57:04Z</time>
      </trkpt>
      <trkpt lat="59.176732" lon="18.142689">
        <ele>37</ele>
        <time>2019-11-27T08:57:05Z</time>
      </trkpt>
      <trkpt lat="59.176696" lon="18.142675">
        <ele>37</ele>
        <time>2019-11-27T08:57:06Z</time>
      </trkpt>
      <trkpt lat="59.17666" lon="18.142661">
        <ele>37</ele>
        <time>2019-11-27T08:57:07Z</time>
      </trkpt>
      <trkpt lat="59.176623" lon="18.142644">
        <ele>37</ele>
        <time>2019-11-27T08:57:08Z</time>
      </trkpt>
      <trkpt lat="59.176587" lon="18.142626">
        <ele>38</ele>
        <time>2019-11-27T08:57:09Z</time>
      </trkpt>
      <trkpt lat="59.176552" lon="18.142607">
        <ele>38</ele>
        <time>2019-11-27T08:57:10Z</time>
      </trkpt>
      <trkpt lat="59.176516" lon="18.142591">
        <ele>38</ele>
        <time>2019-11-27T08:57:11Z</time>
      </trkpt>
      <trkpt lat="59.17648" lon="18.142574">
        <ele>38</ele>
        <time>2019-11-27T08:57:13Z</time>
      </trkpt>
      <trkpt lat="59.176445" lon="18.142554">
        <ele>38</ele>
        <time>2019-11-27T08:57:13Z</time>
      </trkpt>
      <trkpt lat="59.176411" lon="18.142534">
        <ele>38</ele>
        <time>2019-11-27T08:57:14Z</time>
      </trkpt>
      <trkpt lat="59.176376" lon="18.142515">
        <ele>38</ele>
        <time>2019-11-27T08:57:15Z</time>
      </trkpt>
      <trkpt lat="59.176341" lon="18.14249">
        <ele>38</ele>
        <time>2019-11-27T08:57:16Z</time>
      </trkpt>
      <trkpt lat="59.176307" lon="18.142464">
        <ele>38</ele>
        <time>2019-11-27T08:57:17Z</time>
      </trkpt>
      <trkpt lat="59.176272" lon="18.142439">
        <ele>39</ele>
        <time>2019-11-27T08:57:19Z</time>
      </trkpt>
      <trkpt lat="59.176239" lon="18.14241">
        <ele>39</ele>
        <time>2019-11-27T08:57:19Z</time>
      </trkpt>
      <trkpt lat="59.176211" lon="18.142374">
        <ele>39</ele>
        <time>2019-11-27T08:57:20Z</time>
      </trkpt>
      <trkpt lat="59.176186" lon="18.142327">
        <ele>39</ele>
        <time>2019-11-27T08:57:21Z</time>
      </trkpt>
      <trkpt lat="59.176164" lon="18.142274">
        <ele>39</ele>
        <time>2019-11-27T08:57:22Z</time>
      </trkpt>
      <trkpt lat="59.176144" lon="18.142218">
        <ele>39</ele>
        <time>2019-11-27T08:57:23Z</time>
      </trkpt>
      <trkpt lat="59.17613" lon="18.142161">
        <ele>39</ele>
        <time>2019-11-27T08:57:24Z</time>
      </trkpt>
      <trkpt lat="59.176124" lon="18.142101">
        <ele>40</ele>
        <time>2019-11-27T08:57:25Z</time>
      </trkpt>
      <trkpt lat="59.176117" lon="18.142041">
        <ele>40</ele>
        <time>2019-11-27T08:57:26Z</time>
      </trkpt>
      <trkpt lat="59.176108" lon="18.141983">
        <ele>40</ele>
        <time>2019-11-27T08:57:28Z</time>
      </trkpt>
      <trkpt lat="59.176101" lon="18.14193">
        <ele>40</ele>
        <time>2019-11-27T08:57:28Z</time>
      </trkpt>
      <trkpt lat="59.176094" lon="18.141883">
        <ele>40</ele>
        <time>2019-11-27T08:57:29Z</time>
      </trkpt>
      <trkpt lat="59.176088" lon="18.141835">
        <ele>40</ele>
        <time>2019-11-27T08:57:30Z</time>
      </trkpt>
      <trkpt lat="59.176081" lon="18.141783">
        <ele>40</ele>
        <time>2019-11-27T08:57:31Z</time>
      </trkpt>
      <trkpt lat="59.176071" lon="18.141721">
        <ele>40</ele>
        <time>2019-11-27T08:57:32Z</time>
      </trkpt>
      <trkpt lat="59.176061" lon="18.141653">
        <ele>40</ele>
        <time>2019-11-27T08:57:33Z</time>
      </trkpt>
      <trkpt lat="59.176049" lon="18.141584">
        <ele>40</ele>
        <time>2019-11-27T08:57:34Z</time>
      </trkpt>
      <trkpt lat="59.176035" lon="18.141518">
        <ele>40</ele>
        <time>2019-11-27T08:57:35Z</time>
      </trkpt>
      <trkpt lat="59.17602" lon="18.141451">
        <ele>40</ele>
        <time>2019-11-27T08:57:36Z</time>
      </trkpt>
      <trkpt lat="59.176008" lon="18.141383">
        <ele>41</ele>
        <time>2019-11-27T08:57:38Z</time>
      </trkpt>
      <trkpt lat="59.175993" lon="18.141321">
        <ele>41</ele>
        <time>2019-11-27T08:57:38Z</time>
      </trkpt>
      <trkpt lat="59.175969" lon="18.141272">
        <ele>41</ele>
        <time>2019-11-27T08:57:39Z</time>
      </trkpt>
      <trkpt lat="59.175937" lon="18.141245">
        <ele>41</ele>
        <time>2019-11-27T08:57:40Z</time>
      </trkpt>
      <trkpt lat="59.1759" lon="18.14123">
        <ele>41</ele>
        <time>2019-11-27T08:57:41Z</time>
      </trkpt>
      <trkpt lat="59.175863" lon="18.141217">
        <ele>41</ele>
        <time>2019-11-27T08:57:43Z</time>
      </trkpt>
      <trkpt lat="59.175825" lon="18.141206">
        <ele>41</ele>
        <time>2019-11-27T08:57:43Z</time>
      </trkpt>
      <trkpt lat="59.175787" lon="18.141195">
        <ele>41</ele>
        <time>2019-11-27T08:57:44Z</time>
      </trkpt>
      <trkpt lat="59.17575" lon="18.141185">
        <ele>41</ele>
        <time>2019-11-27T08:57:45Z</time>
      </trkpt>
      <trkpt lat="59.175714" lon="18.141183">
        <ele>41</ele>
        <time>2019-11-27T08:57:46Z</time>
      </trkpt>
      <trkpt lat="59.175683" lon="18.141185">
        <ele>41</ele>
        <time>2019-11-27T08:57:47Z</time>
      </trkpt>
      <trkpt lat="59.175658" lon="18.141193">
        <ele>41</ele>
        <time>2019-11-27T08:57:48Z</time>
      </trkpt>
      <trkpt lat="59.175638" lon="18.141208">
        <ele>41</ele>
        <time>2019-11-27T08:57:49Z</time>
      </trkpt>
      <trkpt lat="59.175616" lon="18.141232">
        <ele>41</ele>
        <time>2019-11-27T08:57:51Z</time>
      </trkpt>
      <trkpt lat="59.175591" lon="18.141254">
        <ele>41</ele>
        <time>2019-11-27T08:57:54Z</time>
      </trkpt>
      <trkpt lat="59.175571" lon="18.141285">
        <ele>41</ele>
        <time>2019-11-27T08:57:57Z</time>
      </trkpt>
      <trkpt lat="59.175559" lon="18.141322">
        <ele>42</ele>
        <time>2019-11-27T08:57:57Z</time>
      </trkpt>
      <trkpt lat="59.175544" lon="18.141368">
        <ele>42</ele>
        <time>2019-11-27T08:57:58Z</time>
      </trkpt>
      <trkpt lat="59.175526" lon="18.141421">
        <ele>42</ele>
        <time>2019-11-27T08:57:59Z</time>
      </trkpt>
      <trkpt lat="59.175508" lon="18.141478">
        <ele>42</ele>
        <time>2019-11-27T08:58:00Z</time>
      </trkpt>
      <trkpt lat="59.175488" lon="18.14154">
        <ele>42</ele>
        <time>2019-11-27T08:58:01Z</time>
      </trkpt>
      <trkpt lat="59.175466" lon="18.141601">
        <ele>42</ele>
        <time>2019-11-27T08:58:03Z</time>
      </trkpt>
      <trkpt lat="59.175441" lon="18.141658">
        <ele>42</ele>
        <time>2019-11-27T08:58:03Z</time>
      </trkpt>
      <trkpt lat="59.175416" lon="18.141706">
        <ele>42</ele>
        <time>2019-11-27T08:58:04Z</time>
      </trkpt>
      <trkpt lat="59.175392" lon="18.141746">
        <ele>42</ele>
        <time>2019-11-27T08:58:05Z</time>
      </trkpt>
      <trkpt lat="59.175368" lon="18.141782">
        <ele>42</ele>
        <time>2019-11-27T08:58:06Z</time>
      </trkpt>
      <trkpt lat="59.175342" lon="18.141808">
        <ele>43</ele>
        <time>2019-11-27T08:58:07Z</time>
      </trkpt>
      <trkpt lat="59.175311" lon="18.141824">
        <ele>43</ele>
        <time>2019-11-27T08:58:08Z</time>
      </trkpt>
      <trkpt lat="59.175276" lon="18.141835">
        <ele>43</ele>
        <time>2019-11-27T08:58:09Z</time>
      </trkpt>
      <trkpt lat="59.175241" lon="18.141846">
        <ele>43</ele>
        <time>2019-11-27T08:58:10Z</time>
      </trkpt>
      <trkpt lat="59.175205" lon="18.141857">
        <ele>43</ele>
        <time>2019-11-27T08:58:11Z</time>
      </trkpt>
      <trkpt lat="59.175169" lon="18.14187">
        <ele>43</ele>
        <time>2019-11-27T08:58:12Z</time>
      </trkpt>
      <trkpt lat="59.175132" lon="18.141881">
        <ele>43</ele>
        <time>2019-11-27T08:58:13Z</time>
      </trkpt>
      <trkpt lat="59.175095" lon="18.141883">
        <ele>43</ele>
        <time>2019-11-27T08:58:14Z</time>
      </trkpt>
      <trkpt lat="59.175057" lon="18.141881">
        <ele>43</ele>
        <time>2019-11-27T08:58:16Z</time>
      </trkpt>
      <trkpt lat="59.175021" lon="18.141883">
        <ele>43</ele>
        <time>2019-11-27T08:58:17Z</time>
      </trkpt>
      <trkpt lat="59.174984" lon="18.141896">
        <ele>43</ele>
        <time>2019-11-27T08:58:17Z</time>
      </trkpt>
      <trkpt lat="59.174948" lon="18.141915">
        <ele>43</ele>
        <time>2019-11-27T08:58:18Z</time>
      </trkpt>
      <trkpt lat="59.174915" lon="18.141936">
        <ele>43</ele>
        <time>2019-11-27T08:58:19Z</time>
      </trkpt>
      <trkpt lat="59.174883" lon="18.141955">
        <ele>44</ele>
        <time>2019-11-27T08:58:20Z</time>
      </trkpt>
      <trkpt lat="59.174852" lon="18.141976">
        <ele>44</ele>
        <time>2019-11-27T08:58:21Z</time>
      </trkpt>
      <trkpt lat="59.174822" lon="18.142">
        <ele>44</ele>
        <time>2019-11-27T08:58:22Z</time>
      </trkpt>
      <trkpt lat="59.174791" lon="18.142025">
        <ele>44</ele>
        <time>2019-11-27T08:58:23Z</time>
      </trkpt>
      <trkpt lat="59.174763" lon="18.142062">
        <ele>44</ele>
        <time>2019-11-27T08:58:24Z</time>
      </trkpt>
      <trkpt lat="59.174738" lon="18.142115">
        <ele>44</ele>
        <time>2019-11-27T08:58:25Z</time>
      </trkpt>
      <trkpt lat="59.174717" lon="18.142178">
        <ele>44</ele>
        <time>2019-11-27T08:58:26Z</time>
      </trkpt>
      <trkpt lat="59.174699" lon="18.142243">
        <ele>45</ele>
        <time>2019-11-27T08:58:27Z</time>
      </trkpt>
      <trkpt lat="59.174675" lon="18.142297">
        <ele>45</ele>
        <time>2019-11-27T08:58:28Z</time>
      </trkpt>
      <trkpt lat="59.174643" lon="18.142328">
        <ele>45</ele>
        <time>2019-11-27T08:58:29Z</time>
      </trkpt>
      <trkpt lat="59.174607" lon="18.142338">
        <ele>45</ele>
        <time>2019-11-27T08:58:31Z</time>
      </trkpt>
      <trkpt lat="59.174571" lon="18.142338">
        <ele>45</ele>
        <time>2019-11-27T08:58:31Z</time>
      </trkpt>
      <trkpt lat="59.174535" lon="18.142337">
        <ele>45</ele>
        <time>2019-11-27T08:58:32Z</time>
      </trkpt>
      <trkpt lat="59.1745" lon="18.142334">
        <ele>45</ele>
        <time>2019-11-27T08:58:33Z</time>
      </trkpt>
      <trkpt lat="59.174465" lon="18.142329">
        <ele>45</ele>
        <time>2019-11-27T08:58:35Z</time>
      </trkpt>
      <trkpt lat="59.17443" lon="18.142323">
        <ele>45</ele>
        <time>2019-11-27T08:58:35Z</time>
      </trkpt>
      <trkpt lat="59.174394" lon="18.14232">
        <ele>46</ele>
        <time>2019-11-27T08:58:36Z</time>
      </trkpt>
      <trkpt lat="59.174359" lon="18.142316">
        <ele>46</ele>
        <time>2019-11-27T08:58:37Z</time>
      </trkpt>
      <trkpt lat="59.174324" lon="18.142313">
        <ele>46</ele>
        <time>2019-11-27T08:58:38Z</time>
      </trkpt>
      <trkpt lat="59.174292" lon="18.14231">
        <ele>46</ele>
        <time>2019-11-27T08:58:39Z</time>
      </trkpt>
      <trkpt lat="59.174262" lon="18.142312">
        <ele>46</ele>
        <time>2019-11-27T08:58:40Z</time>
      </trkpt>
      <trkpt lat="59.174235" lon="18.142324">
        <ele>46</ele>
        <time>2019-11-27T08:58:41Z</time>
      </trkpt>
      <trkpt lat="59.17421" lon="18.142345">
        <ele>46</ele>
        <time>2019-11-27T08:58:42Z</time>
      </trkpt>
      <trkpt lat="59.174186" lon="18.14237">
        <ele>46</ele>
        <time>2019-11-27T08:58:43Z</time>
      </trkpt>
      <trkpt lat="59.174162" lon="18.142398">
        <ele>47</ele>
        <time>2019-11-27T08:58:44Z</time>
      </trkpt>
      <trkpt lat="59.174135" lon="18.142426">
        <ele>47</ele>
        <time>2019-11-27T08:58:46Z</time>
      </trkpt>
      <trkpt lat="59.174107" lon="18.142454">
        <ele>47</ele>
        <time>2019-11-27T08:58:46Z</time>
      </trkpt>
      <trkpt lat="59.17408" lon="18.142482">
        <ele>47</ele>
        <time>2019-11-27T08:58:47Z</time>
      </trkpt>
      <trkpt lat="59.174054" lon="18.142512">
        <ele>47</ele>
        <time>2019-11-27T08:58:48Z</time>
      </trkpt>
      <trkpt lat="59.174031" lon="18.142542">
        <ele>47</ele>
        <time>2019-11-27T08:58:49Z</time>
      </trkpt>
      <trkpt lat="59.174018" lon="18.142576">
        <ele>47</ele>
        <time>2019-11-27T08:58:50Z</time>
      </trkpt>
      <trkpt lat="59.174011" lon="18.14262">
        <ele>47</ele>
        <time>2019-11-27T08:58:51Z</time>
      </trkpt>
      <trkpt lat="59.174007" lon="18.142667">
        <ele>47</ele>
        <time>2019-11-27T08:58:52Z</time>
      </trkpt>
      <trkpt lat="59.174002" lon="18.142716">
        <ele>48</ele>
        <time>2019-11-27T08:58:54Z</time>
      </trkpt>
      <trkpt lat="59.173993" lon="18.142765">
        <ele>48</ele>
        <time>2019-11-27T08:58:54Z</time>
      </trkpt>
      <trkpt lat="59.173976" lon="18.14281">
        <ele>48</ele>
        <time>2019-11-27T08:58:55Z</time>
      </trkpt>
      <trkpt lat="59.173955" lon="18.142855">
        <ele>48</ele>
        <time>2019-11-27T08:58:56Z</time>
      </trkpt>
      <trkpt lat="59.173936" lon="18.142899">
        <ele>48</ele>
        <time>2019-11-27T08:58:57Z</time>
      </trkpt>
      <trkpt lat="59.173921" lon="18.142939">
        <ele>48</ele>
        <time>2019-11-27T08:58:58Z</time>
      </trkpt>
      <trkpt lat="59.173908" lon="18.142981">
        <ele>48</ele>
        <time>2019-11-27T08:58:59Z</time>
      </trkpt>
      <trkpt lat="59.173896" lon="18.143031">
        <ele>48</ele>
        <time>2019-11-27T08:59:00Z</time>
      </trkpt>
      <trkpt lat="59.173885" lon="18.143084">
        <ele>48</ele>
        <time>2019-11-27T08:59:01Z</time>
      </trkpt>
      <trkpt lat="59.173877" lon="18.14314">
        <ele>48</ele>
        <time>2019-11-27T08:59:02Z</time>
      </trkpt>
      <trkpt lat="59.173873" lon="18.143201">
        <ele>48</ele>
        <time>2019-11-27T08:59:04Z</time>
      </trkpt>
      <trkpt lat="59.173868" lon="18.143268">
        <ele>48</ele>
        <time>2019-11-27T08:59:04Z</time>
      </trkpt>
      <trkpt lat="59.173863" lon="18.143337">
        <ele>48</ele>
        <time>2019-11-27T08:59:05Z</time>
      </trkpt>
      <trkpt lat="59.173852" lon="18.143399">
        <ele>48</ele>
        <time>2019-11-27T08:59:06Z</time>
      </trkpt>
      <trkpt lat="59.17383" lon="18.143442">
        <ele>48</ele>
        <time>2019-11-27T08:59:07Z</time>
      </trkpt>
      <trkpt lat="59.1738" lon="18.143461">
        <ele>48</ele>
        <time>2019-11-27T08:59:08Z</time>
      </trkpt>
      <trkpt lat="59.173768" lon="18.143466">
        <ele>49</ele>
        <time>2019-11-27T08:59:09Z</time>
      </trkpt>
      <trkpt lat="59.173734" lon="18.14347">
        <ele>49</ele>
        <time>2019-11-27T08:59:10Z</time>
      </trkpt>
      <trkpt lat="59.173701" lon="18.143471">
        <ele>49</ele>
        <time>2019-11-27T08:59:11Z</time>
      </trkpt>
      <trkpt lat="59.173668" lon="18.143468">
        <ele>49</ele>
        <time>2019-11-27T08:59:13Z</time>
      </trkpt>
      <trkpt lat="59.173635" lon="18.143461">
        <ele>49</ele>
        <time>2019-11-27T08:59:13Z</time>
      </trkpt>
      <trkpt lat="59.173603" lon="18.143457">
        <ele>49</ele>
        <time>2019-11-27T08:59:14Z</time>
      </trkpt>
      <trkpt lat="59.173573" lon="18.143452">
        <ele>49</ele>
        <time>2019-11-27T08:59:15Z</time>
      </trkpt>
      <trkpt lat="59.173547" lon="18.143439">
        <ele>49</ele>
        <time>2019-11-27T08:59:16Z</time>
      </trkpt>
      <trkpt lat="59.173496" lon="18.14342">
        <ele>0</ele>
        <time>2019-11-27T08:59:18Z</time>
      </trkpt>
    </trkseg>
  </trk>
</gpx>